<?xml version="1.0" encoding="UTF-8" standalone="no" ?>
<gpx xmlns="http://www.topografix.com/GPX/1/1" xmlns:xsi="http://www.w3.org/2001/XMLSchema-instance" xsi:schemaLocation="http://www.topografix.com/GPX/1/1 http://www.topografix.com/GPX/1/1/gpx.xsd" version="1.1" creator="VisuGPX - https://www.visugpx.com">
  <metadata>
    <name>Etendard depuis le col de la Croix de Fer</name>
    <desc><![CDATA[Pic de l\'Étendard depuis le col de la Croix de Fer]]></desc>
  </metadata>
  <trk>
    <name><![CDATA[Trk008]]></name>
    <trkseg>
      <trkpt lat="45.22752" lon="6.20262">
        <ele>2067</ele>
        <time>2013-07-01T02:48:43Z</time>
      </trkpt>
      <trkpt lat="45.22745" lon="6.20256">
        <ele>2067</ele>
        <time>2013-07-01T02:48:48Z</time>
      </trkpt>
      <trkpt lat="45.22741" lon="6.2025">
        <ele>2066</ele>
        <time>2013-07-01T02:48:53Z</time>
      </trkpt>
      <trkpt lat="45.22742" lon="6.20243">
        <ele>2064</ele>
        <time>2013-07-01T02:48:58Z</time>
      </trkpt>
      <trkpt lat="45.22739" lon="6.20238">
        <ele>2064</ele>
        <time>2013-07-01T02:49:03Z</time>
      </trkpt>
      <trkpt lat="45.22735" lon="6.20235">
        <ele>2065</ele>
        <time>2013-07-01T02:49:08Z</time>
      </trkpt>
      <trkpt lat="45.2273" lon="6.2023">
        <ele>2066</ele>
        <time>2013-07-01T02:49:13Z</time>
      </trkpt>
      <trkpt lat="45.22725" lon="6.20225">
        <ele>2067</ele>
        <time>2013-07-01T02:49:18Z</time>
      </trkpt>
      <trkpt lat="45.22723" lon="6.20221">
        <ele>2067</ele>
        <time>2013-07-01T02:49:23Z</time>
      </trkpt>
      <trkpt lat="45.22719" lon="6.20216">
        <ele>2067</ele>
        <time>2013-07-01T02:49:28Z</time>
      </trkpt>
      <trkpt lat="45.22715" lon="6.2021">
        <ele>2067</ele>
        <time>2013-07-01T02:49:33Z</time>
      </trkpt>
      <trkpt lat="45.22711" lon="6.20204">
        <ele>2066</ele>
        <time>2013-07-01T02:49:38Z</time>
      </trkpt>
      <trkpt lat="45.22709" lon="6.20196">
        <ele>2067</ele>
        <time>2013-07-01T02:49:43Z</time>
      </trkpt>
      <trkpt lat="45.22707" lon="6.20189">
        <ele>2068</ele>
        <time>2013-07-01T02:49:48Z</time>
      </trkpt>
      <trkpt lat="45.22706" lon="6.20182">
        <ele>2068</ele>
        <time>2013-07-01T02:49:53Z</time>
      </trkpt>
      <trkpt lat="45.22701" lon="6.20176">
        <ele>2068</ele>
        <time>2013-07-01T02:49:58Z</time>
      </trkpt>
      <trkpt lat="45.22699" lon="6.20169">
        <ele>2069</ele>
        <time>2013-07-01T02:50:03Z</time>
      </trkpt>
      <trkpt lat="45.22697" lon="6.20163">
        <ele>2069</ele>
        <time>2013-07-01T02:50:08Z</time>
      </trkpt>
      <trkpt lat="45.22692" lon="6.20158">
        <ele>2069</ele>
        <time>2013-07-01T02:50:13Z</time>
      </trkpt>
      <trkpt lat="45.22687" lon="6.20153">
        <ele>2068</ele>
        <time>2013-07-01T02:50:18Z</time>
      </trkpt>
      <trkpt lat="45.22681" lon="6.20147">
        <ele>2068</ele>
        <time>2013-07-01T02:50:23Z</time>
      </trkpt>
      <trkpt lat="45.22677" lon="6.2014">
        <ele>2066</ele>
        <time>2013-07-01T02:50:28Z</time>
      </trkpt>
      <trkpt lat="45.22675" lon="6.20131">
        <ele>2066</ele>
        <time>2013-07-01T02:50:33Z</time>
      </trkpt>
      <trkpt lat="45.22678" lon="6.20123">
        <ele>2063</ele>
        <time>2013-07-01T02:50:38Z</time>
      </trkpt>
      <trkpt lat="45.22678" lon="6.20113">
        <ele>2062</ele>
        <time>2013-07-01T02:50:43Z</time>
      </trkpt>
      <trkpt lat="45.2268" lon="6.20104">
        <ele>2060</ele>
        <time>2013-07-01T02:50:48Z</time>
      </trkpt>
      <trkpt lat="45.22684" lon="6.20095">
        <ele>2058</ele>
        <time>2013-07-01T02:50:53Z</time>
      </trkpt>
      <trkpt lat="45.22683" lon="6.20087">
        <ele>2059</ele>
        <time>2013-07-01T02:50:58Z</time>
      </trkpt>
      <trkpt lat="45.22684" lon="6.20078">
        <ele>2060</ele>
        <time>2013-07-01T02:51:03Z</time>
      </trkpt>
      <trkpt lat="45.22685" lon="6.20071">
        <ele>2061</ele>
        <time>2013-07-01T02:51:08Z</time>
      </trkpt>
      <trkpt lat="45.22688" lon="6.20064">
        <ele>2062</ele>
        <time>2013-07-01T02:51:13Z</time>
      </trkpt>
      <trkpt lat="45.2269" lon="6.20057">
        <ele>2062</ele>
        <time>2013-07-01T02:51:18Z</time>
      </trkpt>
      <trkpt lat="45.22691" lon="6.2005">
        <ele>2063</ele>
        <time>2013-07-01T02:51:23Z</time>
      </trkpt>
      <trkpt lat="45.22691" lon="6.20044">
        <ele>2064</ele>
        <time>2013-07-01T02:51:28Z</time>
      </trkpt>
      <trkpt lat="45.22692" lon="6.20038">
        <ele>2064</ele>
        <time>2013-07-01T02:51:33Z</time>
      </trkpt>
      <trkpt lat="45.22696" lon="6.2003">
        <ele>2064</ele>
        <time>2013-07-01T02:51:38Z</time>
      </trkpt>
      <trkpt lat="45.22694" lon="6.20023">
        <ele>2065</ele>
        <time>2013-07-01T02:51:43Z</time>
      </trkpt>
      <trkpt lat="45.22694" lon="6.20015">
        <ele>2066</ele>
        <time>2013-07-01T02:51:48Z</time>
      </trkpt>
      <trkpt lat="45.22695" lon="6.20009">
        <ele>2067</ele>
        <time>2013-07-01T02:51:53Z</time>
      </trkpt>
      <trkpt lat="45.22697" lon="6.20002">
        <ele>2067</ele>
        <time>2013-07-01T02:51:58Z</time>
      </trkpt>
      <trkpt lat="45.22699" lon="6.19995">
        <ele>2068</ele>
        <time>2013-07-01T02:52:03Z</time>
      </trkpt>
      <trkpt lat="45.22701" lon="6.19988">
        <ele>2068</ele>
        <time>2013-07-01T02:52:08Z</time>
      </trkpt>
      <trkpt lat="45.22701" lon="6.1998">
        <ele>2068</ele>
        <time>2013-07-01T02:52:13Z</time>
      </trkpt>
      <trkpt lat="45.22702" lon="6.19973">
        <ele>2069</ele>
        <time>2013-07-01T02:52:18Z</time>
      </trkpt>
      <trkpt lat="45.22702" lon="6.19965">
        <ele>2069</ele>
        <time>2013-07-01T02:52:23Z</time>
      </trkpt>
      <trkpt lat="45.22702" lon="6.19958">
        <ele>2069</ele>
        <time>2013-07-01T02:52:28Z</time>
      </trkpt>
      <trkpt lat="45.22702" lon="6.1995">
        <ele>2069</ele>
        <time>2013-07-01T02:52:33Z</time>
      </trkpt>
      <trkpt lat="45.22702" lon="6.19941">
        <ele>2070</ele>
        <time>2013-07-01T02:52:38Z</time>
      </trkpt>
      <trkpt lat="45.22703" lon="6.19933">
        <ele>2070</ele>
        <time>2013-07-01T02:52:43Z</time>
      </trkpt>
      <trkpt lat="45.22703" lon="6.19926">
        <ele>2071</ele>
        <time>2013-07-01T02:52:48Z</time>
      </trkpt>
      <trkpt lat="45.22706" lon="6.19919">
        <ele>2072</ele>
        <time>2013-07-01T02:52:53Z</time>
      </trkpt>
      <trkpt lat="45.22709" lon="6.19912">
        <ele>2073</ele>
        <time>2013-07-01T02:52:58Z</time>
      </trkpt>
      <trkpt lat="45.2271" lon="6.19904">
        <ele>2073</ele>
        <time>2013-07-01T02:53:03Z</time>
      </trkpt>
      <trkpt lat="45.22711" lon="6.19895">
        <ele>2073</ele>
        <time>2013-07-01T02:53:08Z</time>
      </trkpt>
      <trkpt lat="45.22712" lon="6.19887">
        <ele>2073</ele>
        <time>2013-07-01T02:53:13Z</time>
      </trkpt>
      <trkpt lat="45.22716" lon="6.1988">
        <ele>2074</ele>
        <time>2013-07-01T02:53:18Z</time>
      </trkpt>
      <trkpt lat="45.2272" lon="6.19874">
        <ele>2074</ele>
        <time>2013-07-01T02:53:23Z</time>
      </trkpt>
      <trkpt lat="45.22718" lon="6.19865">
        <ele>2074</ele>
        <time>2013-07-01T02:53:28Z</time>
      </trkpt>
      <trkpt lat="45.2272" lon="6.19858">
        <ele>2073</ele>
        <time>2013-07-01T02:53:33Z</time>
      </trkpt>
      <trkpt lat="45.22725" lon="6.19851">
        <ele>2074</ele>
        <time>2013-07-01T02:53:38Z</time>
      </trkpt>
      <trkpt lat="45.22727" lon="6.19843">
        <ele>2072</ele>
        <time>2013-07-01T02:53:43Z</time>
      </trkpt>
      <trkpt lat="45.22732" lon="6.19836">
        <ele>2071</ele>
        <time>2013-07-01T02:53:48Z</time>
      </trkpt>
      <trkpt lat="45.22736" lon="6.19829">
        <ele>2071</ele>
        <time>2013-07-01T02:53:53Z</time>
      </trkpt>
      <trkpt lat="45.22739" lon="6.19822">
        <ele>2072</ele>
        <time>2013-07-01T02:53:58Z</time>
      </trkpt>
      <trkpt lat="45.22742" lon="6.19814">
        <ele>2071</ele>
        <time>2013-07-01T02:54:03Z</time>
      </trkpt>
      <trkpt lat="45.22746" lon="6.19807">
        <ele>2072</ele>
        <time>2013-07-01T02:54:08Z</time>
      </trkpt>
      <trkpt lat="45.22749" lon="6.198">
        <ele>2072</ele>
        <time>2013-07-01T02:54:13Z</time>
      </trkpt>
      <trkpt lat="45.22754" lon="6.19793">
        <ele>2073</ele>
        <time>2013-07-01T02:54:18Z</time>
      </trkpt>
      <trkpt lat="45.22756" lon="6.19784">
        <ele>2072</ele>
        <time>2013-07-01T02:54:23Z</time>
      </trkpt>
      <trkpt lat="45.22759" lon="6.19776">
        <ele>2070</ele>
        <time>2013-07-01T02:54:28Z</time>
      </trkpt>
      <trkpt lat="45.22764" lon="6.19769">
        <ele>2072</ele>
        <time>2013-07-01T02:54:33Z</time>
      </trkpt>
      <trkpt lat="45.22768" lon="6.19761">
        <ele>2072</ele>
        <time>2013-07-01T02:54:38Z</time>
      </trkpt>
      <trkpt lat="45.22772" lon="6.19754">
        <ele>2072</ele>
        <time>2013-07-01T02:54:43Z</time>
      </trkpt>
      <trkpt lat="45.22775" lon="6.19746">
        <ele>2070</ele>
        <time>2013-07-01T02:54:48Z</time>
      </trkpt>
      <trkpt lat="45.22778" lon="6.19738">
        <ele>2070</ele>
        <time>2013-07-01T02:54:53Z</time>
      </trkpt>
      <trkpt lat="45.22781" lon="6.1973">
        <ele>2070</ele>
        <time>2013-07-01T02:54:58Z</time>
      </trkpt>
      <trkpt lat="45.22784" lon="6.19721">
        <ele>2070</ele>
        <time>2013-07-01T02:55:03Z</time>
      </trkpt>
      <trkpt lat="45.22787" lon="6.19713">
        <ele>2070</ele>
        <time>2013-07-01T02:55:08Z</time>
      </trkpt>
      <trkpt lat="45.22789" lon="6.19706">
        <ele>2070</ele>
        <time>2013-07-01T02:55:13Z</time>
      </trkpt>
      <trkpt lat="45.22793" lon="6.19698">
        <ele>2070</ele>
        <time>2013-07-01T02:55:18Z</time>
      </trkpt>
      <trkpt lat="45.22795" lon="6.1969">
        <ele>2071</ele>
        <time>2013-07-01T02:55:23Z</time>
      </trkpt>
      <trkpt lat="45.22798" lon="6.19683">
        <ele>2071</ele>
        <time>2013-07-01T02:55:28Z</time>
      </trkpt>
      <trkpt lat="45.228" lon="6.19674">
        <ele>2072</ele>
        <time>2013-07-01T02:55:33Z</time>
      </trkpt>
      <trkpt lat="45.22801" lon="6.19666">
        <ele>2073</ele>
        <time>2013-07-01T02:55:38Z</time>
      </trkpt>
      <trkpt lat="45.22801" lon="6.19657">
        <ele>2072</ele>
        <time>2013-07-01T02:55:43Z</time>
      </trkpt>
      <trkpt lat="45.228" lon="6.19647">
        <ele>2072</ele>
        <time>2013-07-01T02:55:48Z</time>
      </trkpt>
      <trkpt lat="45.228" lon="6.19638">
        <ele>2071</ele>
        <time>2013-07-01T02:55:53Z</time>
      </trkpt>
      <trkpt lat="45.22802" lon="6.19629">
        <ele>2071</ele>
        <time>2013-07-01T02:55:58Z</time>
      </trkpt>
      <trkpt lat="45.22802" lon="6.19619">
        <ele>2071</ele>
        <time>2013-07-01T02:56:03Z</time>
      </trkpt>
      <trkpt lat="45.22805" lon="6.19611">
        <ele>2071</ele>
        <time>2013-07-01T02:56:08Z</time>
      </trkpt>
      <trkpt lat="45.22805" lon="6.19602">
        <ele>2071</ele>
        <time>2013-07-01T02:56:13Z</time>
      </trkpt>
      <trkpt lat="45.22805" lon="6.19593">
        <ele>2071</ele>
        <time>2013-07-01T02:56:18Z</time>
      </trkpt>
      <trkpt lat="45.22805" lon="6.19583">
        <ele>2071</ele>
        <time>2013-07-01T02:56:23Z</time>
      </trkpt>
      <trkpt lat="45.22802" lon="6.19574">
        <ele>2070</ele>
        <time>2013-07-01T02:56:28Z</time>
      </trkpt>
      <trkpt lat="45.228" lon="6.19565">
        <ele>2070</ele>
        <time>2013-07-01T02:56:33Z</time>
      </trkpt>
      <trkpt lat="45.22796" lon="6.19556">
        <ele>2069</ele>
        <time>2013-07-01T02:56:38Z</time>
      </trkpt>
      <trkpt lat="45.22794" lon="6.19548">
        <ele>2068</ele>
        <time>2013-07-01T02:56:43Z</time>
      </trkpt>
      <trkpt lat="45.22793" lon="6.19539">
        <ele>2069</ele>
        <time>2013-07-01T02:56:48Z</time>
      </trkpt>
      <trkpt lat="45.22793" lon="6.19529">
        <ele>2069</ele>
        <time>2013-07-01T02:56:53Z</time>
      </trkpt>
      <trkpt lat="45.22791" lon="6.1952">
        <ele>2071</ele>
        <time>2013-07-01T02:56:58Z</time>
      </trkpt>
      <trkpt lat="45.22788" lon="6.19512">
        <ele>2070</ele>
        <time>2013-07-01T02:57:03Z</time>
      </trkpt>
      <trkpt lat="45.22782" lon="6.19504">
        <ele>2070</ele>
        <time>2013-07-01T02:57:08Z</time>
      </trkpt>
      <trkpt lat="45.22777" lon="6.19497">
        <ele>2070</ele>
        <time>2013-07-01T02:57:13Z</time>
      </trkpt>
      <trkpt lat="45.22772" lon="6.1949">
        <ele>2070</ele>
        <time>2013-07-01T02:57:18Z</time>
      </trkpt>
      <trkpt lat="45.22765" lon="6.19484">
        <ele>2069</ele>
        <time>2013-07-01T02:57:23Z</time>
      </trkpt>
      <trkpt lat="45.2276" lon="6.19477">
        <ele>2069</ele>
        <time>2013-07-01T02:57:28Z</time>
      </trkpt>
      <trkpt lat="45.22756" lon="6.19472">
        <ele>2069</ele>
        <time>2013-07-01T02:57:33Z</time>
      </trkpt>
      <trkpt lat="45.22757" lon="6.19473">
        <ele>2083</ele>
        <time>2013-07-01T02:58:43Z</time>
      </trkpt>
      <trkpt lat="45.22758" lon="6.19473">
        <ele>2083</ele>
        <time>2013-07-01T02:58:48Z</time>
      </trkpt>
      <trkpt lat="45.22756" lon="6.1947">
        <ele>2081</ele>
        <time>2013-07-01T02:58:53Z</time>
      </trkpt>
      <trkpt lat="45.22752" lon="6.19464">
        <ele>2080</ele>
        <time>2013-07-01T02:58:58Z</time>
      </trkpt>
      <trkpt lat="45.22747" lon="6.19458">
        <ele>2081</ele>
        <time>2013-07-01T02:59:03Z</time>
      </trkpt>
      <trkpt lat="45.22742" lon="6.19452">
        <ele>2080</ele>
        <time>2013-07-01T02:59:08Z</time>
      </trkpt>
      <trkpt lat="45.22736" lon="6.19446">
        <ele>2081</ele>
        <time>2013-07-01T02:59:13Z</time>
      </trkpt>
      <trkpt lat="45.2273" lon="6.1944">
        <ele>2080</ele>
        <time>2013-07-01T02:59:18Z</time>
      </trkpt>
      <trkpt lat="45.22724" lon="6.19434">
        <ele>2079</ele>
        <time>2013-07-01T02:59:23Z</time>
      </trkpt>
      <trkpt lat="45.22719" lon="6.19428">
        <ele>2076</ele>
        <time>2013-07-01T02:59:28Z</time>
      </trkpt>
      <trkpt lat="45.22714" lon="6.19421">
        <ele>2073</ele>
        <time>2013-07-01T02:59:33Z</time>
      </trkpt>
      <trkpt lat="45.22709" lon="6.19414">
        <ele>2072</ele>
        <time>2013-07-01T02:59:38Z</time>
      </trkpt>
      <trkpt lat="45.22704" lon="6.19407">
        <ele>2071</ele>
        <time>2013-07-01T02:59:43Z</time>
      </trkpt>
      <trkpt lat="45.227" lon="6.19401">
        <ele>2071</ele>
        <time>2013-07-01T02:59:48Z</time>
      </trkpt>
      <trkpt lat="45.22696" lon="6.19395">
        <ele>2071</ele>
        <time>2013-07-01T02:59:53Z</time>
      </trkpt>
      <trkpt lat="45.22693" lon="6.19391">
        <ele>2070</ele>
        <time>2013-07-01T02:59:58Z</time>
      </trkpt>
      <trkpt lat="45.22689" lon="6.19383">
        <ele>2070</ele>
        <time>2013-07-01T03:00:03Z</time>
      </trkpt>
      <trkpt lat="45.22686" lon="6.19374">
        <ele>2071</ele>
        <time>2013-07-01T03:00:08Z</time>
      </trkpt>
      <trkpt lat="45.22684" lon="6.19364">
        <ele>2070</ele>
        <time>2013-07-01T03:00:13Z</time>
      </trkpt>
      <trkpt lat="45.22684" lon="6.19356">
        <ele>2069</ele>
        <time>2013-07-01T03:00:18Z</time>
      </trkpt>
      <trkpt lat="45.22685" lon="6.19347">
        <ele>2067</ele>
        <time>2013-07-01T03:00:23Z</time>
      </trkpt>
      <trkpt lat="45.22686" lon="6.19337">
        <ele>2065</ele>
        <time>2013-07-01T03:00:28Z</time>
      </trkpt>
      <trkpt lat="45.22687" lon="6.19329">
        <ele>2065</ele>
        <time>2013-07-01T03:00:33Z</time>
      </trkpt>
      <trkpt lat="45.22687" lon="6.19323">
        <ele>2065</ele>
        <time>2013-07-01T03:00:38Z</time>
      </trkpt>
      <trkpt lat="45.22694" lon="6.19322">
        <ele>2067</ele>
        <time>2013-07-01T03:00:43Z</time>
      </trkpt>
      <trkpt lat="45.22701" lon="6.19321">
        <ele>2068</ele>
        <time>2013-07-01T03:00:48Z</time>
      </trkpt>
      <trkpt lat="45.22706" lon="6.19318">
        <ele>2070</ele>
        <time>2013-07-01T03:00:53Z</time>
      </trkpt>
      <trkpt lat="45.22712" lon="6.19314">
        <ele>2071</ele>
        <time>2013-07-01T03:00:58Z</time>
      </trkpt>
      <trkpt lat="45.22717" lon="6.19307">
        <ele>2071</ele>
        <time>2013-07-01T03:01:03Z</time>
      </trkpt>
      <trkpt lat="45.22722" lon="6.19302">
        <ele>2071</ele>
        <time>2013-07-01T03:01:08Z</time>
      </trkpt>
      <trkpt lat="45.22725" lon="6.19297">
        <ele>2071</ele>
        <time>2013-07-01T03:01:11Z</time>
      </trkpt>
      <trkpt lat="45.22729" lon="6.19291">
        <ele>2070</ele>
        <time>2013-07-01T03:01:16Z</time>
      </trkpt>
      <trkpt lat="45.22733" lon="6.19287">
        <ele>2070</ele>
        <time>2013-07-01T03:01:21Z</time>
      </trkpt>
      <trkpt lat="45.22736" lon="6.19282">
        <ele>2071</ele>
        <time>2013-07-01T03:01:26Z</time>
      </trkpt>
      <trkpt lat="45.22739" lon="6.19277">
        <ele>2072</ele>
        <time>2013-07-01T03:01:31Z</time>
      </trkpt>
      <trkpt lat="45.22743" lon="6.19272">
        <ele>2072</ele>
        <time>2013-07-01T03:01:36Z</time>
      </trkpt>
      <trkpt lat="45.22746" lon="6.19267">
        <ele>2072</ele>
        <time>2013-07-01T03:01:41Z</time>
      </trkpt>
      <trkpt lat="45.22749" lon="6.19262">
        <ele>2073</ele>
        <time>2013-07-01T03:01:46Z</time>
      </trkpt>
      <trkpt lat="45.22752" lon="6.19257">
        <ele>2074</ele>
        <time>2013-07-01T03:01:51Z</time>
      </trkpt>
      <trkpt lat="45.22754" lon="6.19251">
        <ele>2074</ele>
        <time>2013-07-01T03:01:56Z</time>
      </trkpt>
      <trkpt lat="45.22755" lon="6.19244">
        <ele>2075</ele>
        <time>2013-07-01T03:02:01Z</time>
      </trkpt>
      <trkpt lat="45.22754" lon="6.19238">
        <ele>2077</ele>
        <time>2013-07-01T03:02:06Z</time>
      </trkpt>
      <trkpt lat="45.22752" lon="6.19232">
        <ele>2079</ele>
        <time>2013-07-01T03:02:11Z</time>
      </trkpt>
      <trkpt lat="45.2275" lon="6.19227">
        <ele>2080</ele>
        <time>2013-07-01T03:02:16Z</time>
      </trkpt>
      <trkpt lat="45.22748" lon="6.19222">
        <ele>2081</ele>
        <time>2013-07-01T03:02:21Z</time>
      </trkpt>
      <trkpt lat="45.22745" lon="6.19217">
        <ele>2082</ele>
        <time>2013-07-01T03:02:26Z</time>
      </trkpt>
      <trkpt lat="45.22743" lon="6.19211">
        <ele>2083</ele>
        <time>2013-07-01T03:02:31Z</time>
      </trkpt>
      <trkpt lat="45.2274" lon="6.19207">
        <ele>2085</ele>
        <time>2013-07-01T03:02:36Z</time>
      </trkpt>
      <trkpt lat="45.22737" lon="6.19202">
        <ele>2086</ele>
        <time>2013-07-01T03:02:41Z</time>
      </trkpt>
      <trkpt lat="45.22734" lon="6.19197">
        <ele>2086</ele>
        <time>2013-07-01T03:02:46Z</time>
      </trkpt>
      <trkpt lat="45.22731" lon="6.19193">
        <ele>2087</ele>
        <time>2013-07-01T03:02:51Z</time>
      </trkpt>
      <trkpt lat="45.22727" lon="6.19189">
        <ele>2089</ele>
        <time>2013-07-01T03:02:56Z</time>
      </trkpt>
      <trkpt lat="45.22724" lon="6.19184">
        <ele>2090</ele>
        <time>2013-07-01T03:03:01Z</time>
      </trkpt>
      <trkpt lat="45.22721" lon="6.1918">
        <ele>2091</ele>
        <time>2013-07-01T03:03:06Z</time>
      </trkpt>
      <trkpt lat="45.22717" lon="6.19176">
        <ele>2092</ele>
        <time>2013-07-01T03:03:11Z</time>
      </trkpt>
      <trkpt lat="45.22714" lon="6.19172">
        <ele>2093</ele>
        <time>2013-07-01T03:03:16Z</time>
      </trkpt>
      <trkpt lat="45.22711" lon="6.19168">
        <ele>2093</ele>
        <time>2013-07-01T03:03:21Z</time>
      </trkpt>
      <trkpt lat="45.22708" lon="6.19164">
        <ele>2093</ele>
        <time>2013-07-01T03:03:26Z</time>
      </trkpt>
      <trkpt lat="45.22704" lon="6.19159">
        <ele>2093</ele>
        <time>2013-07-01T03:03:31Z</time>
      </trkpt>
      <trkpt lat="45.22701" lon="6.19155">
        <ele>2092</ele>
        <time>2013-07-01T03:03:36Z</time>
      </trkpt>
      <trkpt lat="45.22698" lon="6.1915">
        <ele>2092</ele>
        <time>2013-07-01T03:03:41Z</time>
      </trkpt>
      <trkpt lat="45.22696" lon="6.19145">
        <ele>2092</ele>
        <time>2013-07-01T03:03:46Z</time>
      </trkpt>
      <trkpt lat="45.22694" lon="6.19139">
        <ele>2093</ele>
        <time>2013-07-01T03:03:51Z</time>
      </trkpt>
      <trkpt lat="45.22692" lon="6.19132">
        <ele>2094</ele>
        <time>2013-07-01T03:03:56Z</time>
      </trkpt>
      <trkpt lat="45.22692" lon="6.19125">
        <ele>2096</ele>
        <time>2013-07-01T03:04:01Z</time>
      </trkpt>
      <trkpt lat="45.22691" lon="6.19118">
        <ele>2097</ele>
        <time>2013-07-01T03:04:06Z</time>
      </trkpt>
      <trkpt lat="45.2269" lon="6.19111">
        <ele>2098</ele>
        <time>2013-07-01T03:04:11Z</time>
      </trkpt>
      <trkpt lat="45.2269" lon="6.19105">
        <ele>2099</ele>
        <time>2013-07-01T03:04:16Z</time>
      </trkpt>
      <trkpt lat="45.22688" lon="6.19098">
        <ele>2099</ele>
        <time>2013-07-01T03:04:21Z</time>
      </trkpt>
      <trkpt lat="45.22687" lon="6.19093">
        <ele>2100</ele>
        <time>2013-07-01T03:04:26Z</time>
      </trkpt>
      <trkpt lat="45.22686" lon="6.19087">
        <ele>2101</ele>
        <time>2013-07-01T03:04:31Z</time>
      </trkpt>
      <trkpt lat="45.22684" lon="6.19082">
        <ele>2103</ele>
        <time>2013-07-01T03:04:36Z</time>
      </trkpt>
      <trkpt lat="45.22681" lon="6.19077">
        <ele>2104</ele>
        <time>2013-07-01T03:04:41Z</time>
      </trkpt>
      <trkpt lat="45.22678" lon="6.19073">
        <ele>2104</ele>
        <time>2013-07-01T03:04:46Z</time>
      </trkpt>
      <trkpt lat="45.22674" lon="6.19069">
        <ele>2104</ele>
        <time>2013-07-01T03:04:51Z</time>
      </trkpt>
      <trkpt lat="45.22671" lon="6.19066">
        <ele>2105</ele>
        <time>2013-07-01T03:04:56Z</time>
      </trkpt>
      <trkpt lat="45.22668" lon="6.19063">
        <ele>2105</ele>
        <time>2013-07-01T03:05:01Z</time>
      </trkpt>
      <trkpt lat="45.22665" lon="6.19059">
        <ele>2105</ele>
        <time>2013-07-01T03:05:06Z</time>
      </trkpt>
      <trkpt lat="45.22662" lon="6.19054">
        <ele>2105</ele>
        <time>2013-07-01T03:05:11Z</time>
      </trkpt>
      <trkpt lat="45.22661" lon="6.1905">
        <ele>2106</ele>
        <time>2013-07-01T03:05:16Z</time>
      </trkpt>
      <trkpt lat="45.22659" lon="6.19045">
        <ele>2107</ele>
        <time>2013-07-01T03:05:21Z</time>
      </trkpt>
      <trkpt lat="45.22657" lon="6.19042">
        <ele>2109</ele>
        <time>2013-07-01T03:05:26Z</time>
      </trkpt>
      <trkpt lat="45.22654" lon="6.19041">
        <ele>2110</ele>
        <time>2013-07-01T03:05:31Z</time>
      </trkpt>
      <trkpt lat="45.2265" lon="6.19044">
        <ele>2111</ele>
        <time>2013-07-01T03:05:36Z</time>
      </trkpt>
      <trkpt lat="45.22648" lon="6.19049">
        <ele>2111</ele>
        <time>2013-07-01T03:05:41Z</time>
      </trkpt>
      <trkpt lat="45.22647" lon="6.19055">
        <ele>2111</ele>
        <time>2013-07-01T03:05:46Z</time>
      </trkpt>
      <trkpt lat="45.22648" lon="6.19063">
        <ele>2110</ele>
        <time>2013-07-01T03:05:51Z</time>
      </trkpt>
      <trkpt lat="45.22649" lon="6.1907">
        <ele>2110</ele>
        <time>2013-07-01T03:05:56Z</time>
      </trkpt>
      <trkpt lat="45.22651" lon="6.19077">
        <ele>2110</ele>
        <time>2013-07-01T03:06:01Z</time>
      </trkpt>
      <trkpt lat="45.22649" lon="6.19083">
        <ele>2110</ele>
        <time>2013-07-01T03:06:06Z</time>
      </trkpt>
      <trkpt lat="45.22648" lon="6.19089">
        <ele>2110</ele>
        <time>2013-07-01T03:06:11Z</time>
      </trkpt>
      <trkpt lat="45.22647" lon="6.19095">
        <ele>2111</ele>
        <time>2013-07-01T03:06:16Z</time>
      </trkpt>
      <trkpt lat="45.22645" lon="6.19101">
        <ele>2112</ele>
        <time>2013-07-01T03:06:21Z</time>
      </trkpt>
      <trkpt lat="45.22645" lon="6.19106">
        <ele>2113</ele>
        <time>2013-07-01T03:06:26Z</time>
      </trkpt>
      <trkpt lat="45.22643" lon="6.19111">
        <ele>2115</ele>
        <time>2013-07-01T03:06:31Z</time>
      </trkpt>
      <trkpt lat="45.22642" lon="6.19117">
        <ele>2117</ele>
        <time>2013-07-01T03:06:36Z</time>
      </trkpt>
      <trkpt lat="45.2264" lon="6.19122">
        <ele>2120</ele>
        <time>2013-07-01T03:06:41Z</time>
      </trkpt>
      <trkpt lat="45.22638" lon="6.19127">
        <ele>2120</ele>
        <time>2013-07-01T03:06:46Z</time>
      </trkpt>
      <trkpt lat="45.22638" lon="6.19133">
        <ele>2120</ele>
        <time>2013-07-01T03:06:51Z</time>
      </trkpt>
      <trkpt lat="45.22637" lon="6.19138">
        <ele>2120</ele>
        <time>2013-07-01T03:06:56Z</time>
      </trkpt>
      <trkpt lat="45.22636" lon="6.19144">
        <ele>2121</ele>
        <time>2013-07-01T03:07:01Z</time>
      </trkpt>
      <trkpt lat="45.22635" lon="6.1915">
        <ele>2123</ele>
        <time>2013-07-01T03:07:06Z</time>
      </trkpt>
      <trkpt lat="45.22633" lon="6.19156">
        <ele>2126</ele>
        <time>2013-07-01T03:07:11Z</time>
      </trkpt>
      <trkpt lat="45.22631" lon="6.19161">
        <ele>2127</ele>
        <time>2013-07-01T03:07:16Z</time>
      </trkpt>
      <trkpt lat="45.22627" lon="6.19165">
        <ele>2127</ele>
        <time>2013-07-01T03:07:21Z</time>
      </trkpt>
      <trkpt lat="45.22624" lon="6.19167">
        <ele>2126</ele>
        <time>2013-07-01T03:07:26Z</time>
      </trkpt>
      <trkpt lat="45.2262" lon="6.19167">
        <ele>2127</ele>
        <time>2013-07-01T03:07:31Z</time>
      </trkpt>
      <trkpt lat="45.22616" lon="6.19168">
        <ele>2127</ele>
        <time>2013-07-01T03:07:36Z</time>
      </trkpt>
      <trkpt lat="45.22612" lon="6.19168">
        <ele>2129</ele>
        <time>2013-07-01T03:07:41Z</time>
      </trkpt>
      <trkpt lat="45.22609" lon="6.19168">
        <ele>2130</ele>
        <time>2013-07-01T03:07:46Z</time>
      </trkpt>
      <trkpt lat="45.22604" lon="6.19169">
        <ele>2131</ele>
        <time>2013-07-01T03:07:51Z</time>
      </trkpt>
      <trkpt lat="45.22599" lon="6.1917">
        <ele>2131</ele>
        <time>2013-07-01T03:07:56Z</time>
      </trkpt>
      <trkpt lat="45.22595" lon="6.1917">
        <ele>2132</ele>
        <time>2013-07-01T03:08:01Z</time>
      </trkpt>
      <trkpt lat="45.2259" lon="6.19171">
        <ele>2132</ele>
        <time>2013-07-01T03:08:06Z</time>
      </trkpt>
      <trkpt lat="45.22586" lon="6.19172">
        <ele>2133</ele>
        <time>2013-07-01T03:08:11Z</time>
      </trkpt>
      <trkpt lat="45.22581" lon="6.19172">
        <ele>2134</ele>
        <time>2013-07-01T03:08:16Z</time>
      </trkpt>
      <trkpt lat="45.22577" lon="6.19172">
        <ele>2134</ele>
        <time>2013-07-01T03:08:21Z</time>
      </trkpt>
      <trkpt lat="45.22573" lon="6.19172">
        <ele>2135</ele>
        <time>2013-07-01T03:08:26Z</time>
      </trkpt>
      <trkpt lat="45.22569" lon="6.19171">
        <ele>2136</ele>
        <time>2013-07-01T03:08:31Z</time>
      </trkpt>
      <trkpt lat="45.22565" lon="6.19172">
        <ele>2136</ele>
        <time>2013-07-01T03:08:36Z</time>
      </trkpt>
      <trkpt lat="45.22563" lon="6.19172">
        <ele>2136</ele>
        <time>2013-07-01T03:08:41Z</time>
      </trkpt>
      <trkpt lat="45.2256" lon="6.19174">
        <ele>2136</ele>
        <time>2013-07-01T03:08:46Z</time>
      </trkpt>
      <trkpt lat="45.22556" lon="6.19173">
        <ele>2136</ele>
        <time>2013-07-01T03:08:51Z</time>
      </trkpt>
      <trkpt lat="45.22552" lon="6.1917">
        <ele>2136</ele>
        <time>2013-07-01T03:08:56Z</time>
      </trkpt>
      <trkpt lat="45.22554" lon="6.19164">
        <ele>2137</ele>
        <time>2013-07-01T03:09:01Z</time>
      </trkpt>
      <trkpt lat="45.22558" lon="6.1916">
        <ele>2138</ele>
        <time>2013-07-01T03:09:06Z</time>
      </trkpt>
      <trkpt lat="45.22562" lon="6.19155">
        <ele>2138</ele>
        <time>2013-07-01T03:09:11Z</time>
      </trkpt>
      <trkpt lat="45.22566" lon="6.19152">
        <ele>2138</ele>
        <time>2013-07-01T03:09:16Z</time>
      </trkpt>
      <trkpt lat="45.2257" lon="6.19148">
        <ele>2138</ele>
        <time>2013-07-01T03:09:21Z</time>
      </trkpt>
      <trkpt lat="45.22573" lon="6.19143">
        <ele>2138</ele>
        <time>2013-07-01T03:09:26Z</time>
      </trkpt>
      <trkpt lat="45.22575" lon="6.19137">
        <ele>2137</ele>
        <time>2013-07-01T03:09:31Z</time>
      </trkpt>
      <trkpt lat="45.22577" lon="6.19131">
        <ele>2137</ele>
        <time>2013-07-01T03:09:36Z</time>
      </trkpt>
      <trkpt lat="45.22576" lon="6.19125">
        <ele>2139</ele>
        <time>2013-07-01T03:09:41Z</time>
      </trkpt>
      <trkpt lat="45.22574" lon="6.19119">
        <ele>2141</ele>
        <time>2013-07-01T03:09:46Z</time>
      </trkpt>
      <trkpt lat="45.22573" lon="6.19115">
        <ele>2143</ele>
        <time>2013-07-01T03:09:51Z</time>
      </trkpt>
      <trkpt lat="45.2257" lon="6.19112">
        <ele>2145</ele>
        <time>2013-07-01T03:09:56Z</time>
      </trkpt>
      <trkpt lat="45.22566" lon="6.19112">
        <ele>2149</ele>
        <time>2013-07-01T03:10:01Z</time>
      </trkpt>
      <trkpt lat="45.22561" lon="6.19109">
        <ele>2150</ele>
        <time>2013-07-01T03:10:06Z</time>
      </trkpt>
      <trkpt lat="45.22558" lon="6.19106">
        <ele>2151</ele>
        <time>2013-07-01T03:10:11Z</time>
      </trkpt>
      <trkpt lat="45.22556" lon="6.19105">
        <ele>2152</ele>
        <time>2013-07-01T03:10:16Z</time>
      </trkpt>
      <trkpt lat="45.22553" lon="6.19105">
        <ele>2153</ele>
        <time>2013-07-01T03:10:21Z</time>
      </trkpt>
      <trkpt lat="45.22549" lon="6.19108">
        <ele>2154</ele>
        <time>2013-07-01T03:10:26Z</time>
      </trkpt>
      <trkpt lat="45.22545" lon="6.1911">
        <ele>2154</ele>
        <time>2013-07-01T03:10:31Z</time>
      </trkpt>
      <trkpt lat="45.22542" lon="6.19114">
        <ele>2155</ele>
        <time>2013-07-01T03:10:36Z</time>
      </trkpt>
      <trkpt lat="45.22538" lon="6.19118">
        <ele>2156</ele>
        <time>2013-07-01T03:10:41Z</time>
      </trkpt>
      <trkpt lat="45.22535" lon="6.1912">
        <ele>2156</ele>
        <time>2013-07-01T03:10:46Z</time>
      </trkpt>
      <trkpt lat="45.22531" lon="6.19122">
        <ele>2156</ele>
        <time>2013-07-01T03:10:51Z</time>
      </trkpt>
      <trkpt lat="45.22528" lon="6.19122">
        <ele>2156</ele>
        <time>2013-07-01T03:10:56Z</time>
      </trkpt>
      <trkpt lat="45.22524" lon="6.19118">
        <ele>2157</ele>
        <time>2013-07-01T03:11:01Z</time>
      </trkpt>
      <trkpt lat="45.22522" lon="6.19114">
        <ele>2158</ele>
        <time>2013-07-01T03:11:06Z</time>
      </trkpt>
      <trkpt lat="45.22521" lon="6.19109">
        <ele>2159</ele>
        <time>2013-07-01T03:11:11Z</time>
      </trkpt>
      <trkpt lat="45.22522" lon="6.19103">
        <ele>2159</ele>
        <time>2013-07-01T03:11:16Z</time>
      </trkpt>
      <trkpt lat="45.22521" lon="6.19098">
        <ele>2161</ele>
        <time>2013-07-01T03:11:21Z</time>
      </trkpt>
      <trkpt lat="45.2252" lon="6.19093">
        <ele>2161</ele>
        <time>2013-07-01T03:11:26Z</time>
      </trkpt>
      <trkpt lat="45.22516" lon="6.19091">
        <ele>2162</ele>
        <time>2013-07-01T03:11:31Z</time>
      </trkpt>
      <trkpt lat="45.22513" lon="6.19093">
        <ele>2163</ele>
        <time>2013-07-01T03:11:36Z</time>
      </trkpt>
      <trkpt lat="45.22508" lon="6.19095">
        <ele>2164</ele>
        <time>2013-07-01T03:11:41Z</time>
      </trkpt>
      <trkpt lat="45.22505" lon="6.19098">
        <ele>2164</ele>
        <time>2013-07-01T03:11:46Z</time>
      </trkpt>
      <trkpt lat="45.22502" lon="6.19103">
        <ele>2165</ele>
        <time>2013-07-01T03:11:51Z</time>
      </trkpt>
      <trkpt lat="45.22499" lon="6.19107">
        <ele>2165</ele>
        <time>2013-07-01T03:11:56Z</time>
      </trkpt>
      <trkpt lat="45.22496" lon="6.19104">
        <ele>2166</ele>
        <time>2013-07-01T03:12:01Z</time>
      </trkpt>
      <trkpt lat="45.22496" lon="6.19098">
        <ele>2167</ele>
        <time>2013-07-01T03:12:06Z</time>
      </trkpt>
      <trkpt lat="45.22496" lon="6.19093">
        <ele>2168</ele>
        <time>2013-07-01T03:12:11Z</time>
      </trkpt>
      <trkpt lat="45.22496" lon="6.19088">
        <ele>2169</ele>
        <time>2013-07-01T03:12:16Z</time>
      </trkpt>
      <trkpt lat="45.22495" lon="6.19082">
        <ele>2170</ele>
        <time>2013-07-01T03:12:21Z</time>
      </trkpt>
      <trkpt lat="45.22492" lon="6.19077">
        <ele>2170</ele>
        <time>2013-07-01T03:12:26Z</time>
      </trkpt>
      <trkpt lat="45.22491" lon="6.19072">
        <ele>2171</ele>
        <time>2013-07-01T03:12:31Z</time>
      </trkpt>
      <trkpt lat="45.22488" lon="6.19066">
        <ele>2171</ele>
        <time>2013-07-01T03:12:36Z</time>
      </trkpt>
      <trkpt lat="45.22486" lon="6.19061">
        <ele>2172</ele>
        <time>2013-07-01T03:12:41Z</time>
      </trkpt>
      <trkpt lat="45.22484" lon="6.19057">
        <ele>2171</ele>
        <time>2013-07-01T03:12:46Z</time>
      </trkpt>
      <trkpt lat="45.22485" lon="6.19051">
        <ele>2171</ele>
        <time>2013-07-01T03:12:51Z</time>
      </trkpt>
      <trkpt lat="45.22484" lon="6.19048">
        <ele>2173</ele>
        <time>2013-07-01T03:12:56Z</time>
      </trkpt>
      <trkpt lat="45.22482" lon="6.19045">
        <ele>2173</ele>
        <time>2013-07-01T03:13:01Z</time>
      </trkpt>
      <trkpt lat="45.22483" lon="6.1904">
        <ele>2173</ele>
        <time>2013-07-01T03:13:06Z</time>
      </trkpt>
      <trkpt lat="45.22483" lon="6.19036">
        <ele>2173</ele>
        <time>2013-07-01T03:13:11Z</time>
      </trkpt>
      <trkpt lat="45.22482" lon="6.19034">
        <ele>2174</ele>
        <time>2013-07-01T03:13:16Z</time>
      </trkpt>
      <trkpt lat="45.2248" lon="6.19034">
        <ele>2174</ele>
        <time>2013-07-01T03:13:21Z</time>
      </trkpt>
      <trkpt lat="45.22479" lon="6.19032">
        <ele>2176</ele>
        <time>2013-07-01T03:13:26Z</time>
      </trkpt>
      <trkpt lat="45.22478" lon="6.19029">
        <ele>2177</ele>
        <time>2013-07-01T03:13:31Z</time>
      </trkpt>
      <trkpt lat="45.22475" lon="6.1903">
        <ele>2178</ele>
        <time>2013-07-01T03:13:36Z</time>
      </trkpt>
      <trkpt lat="45.22472" lon="6.19032">
        <ele>2179</ele>
        <time>2013-07-01T03:13:41Z</time>
      </trkpt>
      <trkpt lat="45.22469" lon="6.19031">
        <ele>2180</ele>
        <time>2013-07-01T03:13:46Z</time>
      </trkpt>
      <trkpt lat="45.22467" lon="6.19029">
        <ele>2180</ele>
        <time>2013-07-01T03:13:51Z</time>
      </trkpt>
      <trkpt lat="45.22466" lon="6.19027">
        <ele>2181</ele>
        <time>2013-07-01T03:13:56Z</time>
      </trkpt>
      <trkpt lat="45.22465" lon="6.19027">
        <ele>2183</ele>
        <time>2013-07-01T03:14:01Z</time>
      </trkpt>
      <trkpt lat="45.22463" lon="6.19027">
        <ele>2184</ele>
        <time>2013-07-01T03:14:06Z</time>
      </trkpt>
      <trkpt lat="45.22461" lon="6.19029">
        <ele>2186</ele>
        <time>2013-07-01T03:14:11Z</time>
      </trkpt>
      <trkpt lat="45.22459" lon="6.19031">
        <ele>2187</ele>
        <time>2013-07-01T03:14:16Z</time>
      </trkpt>
      <trkpt lat="45.22458" lon="6.19032">
        <ele>2189</ele>
        <time>2013-07-01T03:14:21Z</time>
      </trkpt>
      <trkpt lat="45.22458" lon="6.19031">
        <ele>2190</ele>
        <time>2013-07-01T03:14:26Z</time>
      </trkpt>
      <trkpt lat="45.22457" lon="6.1903">
        <ele>2190</ele>
        <time>2013-07-01T03:14:31Z</time>
      </trkpt>
      <trkpt lat="45.22455" lon="6.1903">
        <ele>2190</ele>
        <time>2013-07-01T03:14:36Z</time>
      </trkpt>
      <trkpt lat="45.22453" lon="6.19029">
        <ele>2190</ele>
        <time>2013-07-01T03:14:41Z</time>
      </trkpt>
      <trkpt lat="45.22453" lon="6.19028">
        <ele>2192</ele>
        <time>2013-07-01T03:14:46Z</time>
      </trkpt>
      <trkpt lat="45.22451" lon="6.19027">
        <ele>2193</ele>
        <time>2013-07-01T03:14:51Z</time>
      </trkpt>
      <trkpt lat="45.22449" lon="6.19025">
        <ele>2194</ele>
        <time>2013-07-01T03:14:56Z</time>
      </trkpt>
      <trkpt lat="45.22447" lon="6.19023">
        <ele>2194</ele>
        <time>2013-07-01T03:15:01Z</time>
      </trkpt>
      <trkpt lat="45.22446" lon="6.19021">
        <ele>2196</ele>
        <time>2013-07-01T03:15:06Z</time>
      </trkpt>
      <trkpt lat="45.22445" lon="6.19018">
        <ele>2197</ele>
        <time>2013-07-01T03:15:11Z</time>
      </trkpt>
      <trkpt lat="45.22444" lon="6.19016">
        <ele>2197</ele>
        <time>2013-07-01T03:15:16Z</time>
      </trkpt>
      <trkpt lat="45.22443" lon="6.19011">
        <ele>2197</ele>
        <time>2013-07-01T03:15:21Z</time>
      </trkpt>
      <trkpt lat="45.22442" lon="6.19006">
        <ele>2197</ele>
        <time>2013-07-01T03:15:26Z</time>
      </trkpt>
      <trkpt lat="45.22439" lon="6.19003">
        <ele>2197</ele>
        <time>2013-07-01T03:15:31Z</time>
      </trkpt>
      <trkpt lat="45.22437" lon="6.19001">
        <ele>2198</ele>
        <time>2013-07-01T03:15:36Z</time>
      </trkpt>
      <trkpt lat="45.22434" lon="6.19">
        <ele>2200</ele>
        <time>2013-07-01T03:15:41Z</time>
      </trkpt>
      <trkpt lat="45.22432" lon="6.19">
        <ele>2201</ele>
        <time>2013-07-01T03:15:46Z</time>
      </trkpt>
      <trkpt lat="45.22429" lon="6.18999">
        <ele>2202</ele>
        <time>2013-07-01T03:15:51Z</time>
      </trkpt>
      <trkpt lat="45.22427" lon="6.18999">
        <ele>2203</ele>
        <time>2013-07-01T03:15:56Z</time>
      </trkpt>
      <trkpt lat="45.22426" lon="6.18998">
        <ele>2204</ele>
        <time>2013-07-01T03:16:01Z</time>
      </trkpt>
      <trkpt lat="45.22424" lon="6.18998">
        <ele>2204</ele>
        <time>2013-07-01T03:16:06Z</time>
      </trkpt>
      <trkpt lat="45.22423" lon="6.18999">
        <ele>2206</ele>
        <time>2013-07-01T03:16:11Z</time>
      </trkpt>
      <trkpt lat="45.22421" lon="6.18995">
        <ele>2206</ele>
        <time>2013-07-01T03:16:16Z</time>
      </trkpt>
      <trkpt lat="45.22419" lon="6.1899">
        <ele>2207</ele>
        <time>2013-07-01T03:16:21Z</time>
      </trkpt>
      <trkpt lat="45.22416" lon="6.18986">
        <ele>2208</ele>
        <time>2013-07-01T03:16:26Z</time>
      </trkpt>
      <trkpt lat="45.22413" lon="6.18983">
        <ele>2209</ele>
        <time>2013-07-01T03:16:31Z</time>
      </trkpt>
      <trkpt lat="45.2241" lon="6.18979">
        <ele>2209</ele>
        <time>2013-07-01T03:16:36Z</time>
      </trkpt>
      <trkpt lat="45.22407" lon="6.18976">
        <ele>2210</ele>
        <time>2013-07-01T03:16:41Z</time>
      </trkpt>
      <trkpt lat="45.22404" lon="6.18972">
        <ele>2210</ele>
        <time>2013-07-01T03:16:46Z</time>
      </trkpt>
      <trkpt lat="45.22401" lon="6.18969">
        <ele>2211</ele>
        <time>2013-07-01T03:16:51Z</time>
      </trkpt>
      <trkpt lat="45.22397" lon="6.18967">
        <ele>2212</ele>
        <time>2013-07-01T03:16:56Z</time>
      </trkpt>
      <trkpt lat="45.22394" lon="6.18964">
        <ele>2213</ele>
        <time>2013-07-01T03:17:01Z</time>
      </trkpt>
      <trkpt lat="45.2239" lon="6.18961">
        <ele>2214</ele>
        <time>2013-07-01T03:17:06Z</time>
      </trkpt>
      <trkpt lat="45.22385" lon="6.1896">
        <ele>2215</ele>
        <time>2013-07-01T03:17:11Z</time>
      </trkpt>
      <trkpt lat="45.22381" lon="6.18958">
        <ele>2215</ele>
        <time>2013-07-01T03:17:16Z</time>
      </trkpt>
      <trkpt lat="45.22377" lon="6.18955">
        <ele>2214</ele>
        <time>2013-07-01T03:17:21Z</time>
      </trkpt>
      <trkpt lat="45.22374" lon="6.18952">
        <ele>2215</ele>
        <time>2013-07-01T03:17:26Z</time>
      </trkpt>
      <trkpt lat="45.22371" lon="6.18949">
        <ele>2217</ele>
        <time>2013-07-01T03:17:31Z</time>
      </trkpt>
      <trkpt lat="45.22368" lon="6.18947">
        <ele>2221</ele>
        <time>2013-07-01T03:17:36Z</time>
      </trkpt>
      <trkpt lat="45.22364" lon="6.18943">
        <ele>2221</ele>
        <time>2013-07-01T03:17:41Z</time>
      </trkpt>
      <trkpt lat="45.22361" lon="6.1894">
        <ele>2221</ele>
        <time>2013-07-01T03:17:46Z</time>
      </trkpt>
      <trkpt lat="45.22358" lon="6.18938">
        <ele>2221</ele>
        <time>2013-07-01T03:17:51Z</time>
      </trkpt>
      <trkpt lat="45.22355" lon="6.18935">
        <ele>2221</ele>
        <time>2013-07-01T03:17:56Z</time>
      </trkpt>
      <trkpt lat="45.22353" lon="6.1893">
        <ele>2220</ele>
        <time>2013-07-01T03:18:01Z</time>
      </trkpt>
      <trkpt lat="45.22352" lon="6.18926">
        <ele>2220</ele>
        <time>2013-07-01T03:18:06Z</time>
      </trkpt>
      <trkpt lat="45.22348" lon="6.18927">
        <ele>2220</ele>
        <time>2013-07-01T03:18:11Z</time>
      </trkpt>
      <trkpt lat="45.22346" lon="6.18932">
        <ele>2221</ele>
        <time>2013-07-01T03:18:16Z</time>
      </trkpt>
      <trkpt lat="45.22345" lon="6.18936">
        <ele>2222</ele>
        <time>2013-07-01T03:18:21Z</time>
      </trkpt>
      <trkpt lat="45.22346" lon="6.18942">
        <ele>2224</ele>
        <time>2013-07-01T03:18:26Z</time>
      </trkpt>
      <trkpt lat="45.22348" lon="6.18947">
        <ele>2224</ele>
        <time>2013-07-01T03:18:31Z</time>
      </trkpt>
      <trkpt lat="45.22351" lon="6.18953">
        <ele>2223</ele>
        <time>2013-07-01T03:18:36Z</time>
      </trkpt>
      <trkpt lat="45.22353" lon="6.18959">
        <ele>2223</ele>
        <time>2013-07-01T03:18:41Z</time>
      </trkpt>
      <trkpt lat="45.22354" lon="6.18966">
        <ele>2224</ele>
        <time>2013-07-01T03:18:46Z</time>
      </trkpt>
      <trkpt lat="45.22352" lon="6.1897">
        <ele>2224</ele>
        <time>2013-07-01T03:18:51Z</time>
      </trkpt>
      <trkpt lat="45.22348" lon="6.18968">
        <ele>2226</ele>
        <time>2013-07-01T03:18:56Z</time>
      </trkpt>
      <trkpt lat="45.22345" lon="6.18965">
        <ele>2228</ele>
        <time>2013-07-01T03:19:01Z</time>
      </trkpt>
      <trkpt lat="45.22343" lon="6.1896">
        <ele>2229</ele>
        <time>2013-07-01T03:19:06Z</time>
      </trkpt>
      <trkpt lat="45.22341" lon="6.18956">
        <ele>2230</ele>
        <time>2013-07-01T03:19:11Z</time>
      </trkpt>
      <trkpt lat="45.22338" lon="6.18952">
        <ele>2231</ele>
        <time>2013-07-01T03:19:16Z</time>
      </trkpt>
      <trkpt lat="45.22334" lon="6.1895">
        <ele>2234</ele>
        <time>2013-07-01T03:19:21Z</time>
      </trkpt>
      <trkpt lat="45.22329" lon="6.18947">
        <ele>2235</ele>
        <time>2013-07-01T03:19:26Z</time>
      </trkpt>
      <trkpt lat="45.22326" lon="6.18945">
        <ele>2236</ele>
        <time>2013-07-01T03:19:31Z</time>
      </trkpt>
      <trkpt lat="45.22321" lon="6.18943">
        <ele>2236</ele>
        <time>2013-07-01T03:19:36Z</time>
      </trkpt>
      <trkpt lat="45.22317" lon="6.1894">
        <ele>2236</ele>
        <time>2013-07-01T03:19:41Z</time>
      </trkpt>
      <trkpt lat="45.22313" lon="6.18937">
        <ele>2236</ele>
        <time>2013-07-01T03:19:46Z</time>
      </trkpt>
      <trkpt lat="45.22311" lon="6.18933">
        <ele>2236</ele>
        <time>2013-07-01T03:19:51Z</time>
      </trkpt>
      <trkpt lat="45.22308" lon="6.1893">
        <ele>2237</ele>
        <time>2013-07-01T03:19:56Z</time>
      </trkpt>
      <trkpt lat="45.22305" lon="6.18927">
        <ele>2238</ele>
        <time>2013-07-01T03:20:01Z</time>
      </trkpt>
      <trkpt lat="45.22303" lon="6.18926">
        <ele>2240</ele>
        <time>2013-07-01T03:20:06Z</time>
      </trkpt>
      <trkpt lat="45.22298" lon="6.18924">
        <ele>2241</ele>
        <time>2013-07-01T03:20:11Z</time>
      </trkpt>
      <trkpt lat="45.22295" lon="6.18924">
        <ele>2241</ele>
        <time>2013-07-01T03:20:16Z</time>
      </trkpt>
      <trkpt lat="45.22294" lon="6.18921">
        <ele>2240</ele>
        <time>2013-07-01T03:20:21Z</time>
      </trkpt>
      <trkpt lat="45.22291" lon="6.18919">
        <ele>2240</ele>
        <time>2013-07-01T03:20:26Z</time>
      </trkpt>
      <trkpt lat="45.22287" lon="6.18916">
        <ele>2240</ele>
        <time>2013-07-01T03:20:31Z</time>
      </trkpt>
      <trkpt lat="45.22284" lon="6.18914">
        <ele>2241</ele>
        <time>2013-07-01T03:20:36Z</time>
      </trkpt>
      <trkpt lat="45.22279" lon="6.18914">
        <ele>2245</ele>
        <time>2013-07-01T03:20:41Z</time>
      </trkpt>
      <trkpt lat="45.22276" lon="6.18911">
        <ele>2246</ele>
        <time>2013-07-01T03:20:46Z</time>
      </trkpt>
      <trkpt lat="45.22274" lon="6.18909">
        <ele>2246</ele>
        <time>2013-07-01T03:20:51Z</time>
      </trkpt>
      <trkpt lat="45.22272" lon="6.18909">
        <ele>2244</ele>
        <time>2013-07-01T03:20:56Z</time>
      </trkpt>
      <trkpt lat="45.2227" lon="6.18914">
        <ele>2244</ele>
        <time>2013-07-01T03:21:01Z</time>
      </trkpt>
      <trkpt lat="45.22271" lon="6.18918">
        <ele>2244</ele>
        <time>2013-07-01T03:21:06Z</time>
      </trkpt>
      <trkpt lat="45.22274" lon="6.18923">
        <ele>2245</ele>
        <time>2013-07-01T03:21:11Z</time>
      </trkpt>
      <trkpt lat="45.22277" lon="6.1893">
        <ele>2246</ele>
        <time>2013-07-01T03:21:16Z</time>
      </trkpt>
      <trkpt lat="45.22281" lon="6.18937">
        <ele>2249</ele>
        <time>2013-07-01T03:21:21Z</time>
      </trkpt>
      <trkpt lat="45.22283" lon="6.18944">
        <ele>2252</ele>
        <time>2013-07-01T03:21:26Z</time>
      </trkpt>
      <trkpt lat="45.22287" lon="6.1895">
        <ele>2252</ele>
        <time>2013-07-01T03:21:31Z</time>
      </trkpt>
      <trkpt lat="45.2229" lon="6.18956">
        <ele>2252</ele>
        <time>2013-07-01T03:21:36Z</time>
      </trkpt>
      <trkpt lat="45.22291" lon="6.18961">
        <ele>2251</ele>
        <time>2013-07-01T03:21:41Z</time>
      </trkpt>
      <trkpt lat="45.22289" lon="6.18966">
        <ele>2252</ele>
        <time>2013-07-01T03:21:46Z</time>
      </trkpt>
      <trkpt lat="45.22285" lon="6.18965">
        <ele>2252</ele>
        <time>2013-07-01T03:21:51Z</time>
      </trkpt>
      <trkpt lat="45.2228" lon="6.18961">
        <ele>2252</ele>
        <time>2013-07-01T03:21:56Z</time>
      </trkpt>
      <trkpt lat="45.22276" lon="6.18958">
        <ele>2250</ele>
        <time>2013-07-01T03:22:01Z</time>
      </trkpt>
      <trkpt lat="45.22271" lon="6.18955">
        <ele>2249</ele>
        <time>2013-07-01T03:22:06Z</time>
      </trkpt>
      <trkpt lat="45.22268" lon="6.18953">
        <ele>2249</ele>
        <time>2013-07-01T03:22:11Z</time>
      </trkpt>
      <trkpt lat="45.22265" lon="6.18948">
        <ele>2250</ele>
        <time>2013-07-01T03:22:16Z</time>
      </trkpt>
      <trkpt lat="45.22264" lon="6.18942">
        <ele>2250</ele>
        <time>2013-07-01T03:22:21Z</time>
      </trkpt>
      <trkpt lat="45.2226" lon="6.1894">
        <ele>2253</ele>
        <time>2013-07-01T03:22:26Z</time>
      </trkpt>
      <trkpt lat="45.22257" lon="6.18939">
        <ele>2254</ele>
        <time>2013-07-01T03:22:31Z</time>
      </trkpt>
      <trkpt lat="45.22253" lon="6.18937">
        <ele>2255</ele>
        <time>2013-07-01T03:22:36Z</time>
      </trkpt>
      <trkpt lat="45.22249" lon="6.18936">
        <ele>2257</ele>
        <time>2013-07-01T03:22:41Z</time>
      </trkpt>
      <trkpt lat="45.22245" lon="6.18933">
        <ele>2258</ele>
        <time>2013-07-01T03:22:46Z</time>
      </trkpt>
      <trkpt lat="45.22242" lon="6.18932">
        <ele>2258</ele>
        <time>2013-07-01T03:22:51Z</time>
      </trkpt>
      <trkpt lat="45.22239" lon="6.18933">
        <ele>2259</ele>
        <time>2013-07-01T03:22:56Z</time>
      </trkpt>
      <trkpt lat="45.22234" lon="6.18932">
        <ele>2258</ele>
        <time>2013-07-01T03:23:01Z</time>
      </trkpt>
      <trkpt lat="45.22229" lon="6.18931">
        <ele>2258</ele>
        <time>2013-07-01T03:23:06Z</time>
      </trkpt>
      <trkpt lat="45.22227" lon="6.18933">
        <ele>2259</ele>
        <time>2013-07-01T03:23:11Z</time>
      </trkpt>
      <trkpt lat="45.22227" lon="6.18933">
        <ele>2260</ele>
        <time>2013-07-01T03:23:16Z</time>
      </trkpt>
      <trkpt lat="45.22225" lon="6.18935">
        <ele>2262</ele>
        <time>2013-07-01T03:23:21Z</time>
      </trkpt>
      <trkpt lat="45.2222" lon="6.18937">
        <ele>2260</ele>
        <time>2013-07-01T03:23:26Z</time>
      </trkpt>
      <trkpt lat="45.22217" lon="6.18942">
        <ele>2258</ele>
        <time>2013-07-01T03:23:31Z</time>
      </trkpt>
      <trkpt lat="45.22213" lon="6.18945">
        <ele>2257</ele>
        <time>2013-07-01T03:23:36Z</time>
      </trkpt>
      <trkpt lat="45.2221" lon="6.18946">
        <ele>2256</ele>
        <time>2013-07-01T03:23:41Z</time>
      </trkpt>
      <trkpt lat="45.22204" lon="6.18946">
        <ele>2257</ele>
        <time>2013-07-01T03:23:46Z</time>
      </trkpt>
      <trkpt lat="45.222" lon="6.18947">
        <ele>2257</ele>
        <time>2013-07-01T03:23:51Z</time>
      </trkpt>
      <trkpt lat="45.22195" lon="6.18946">
        <ele>2259</ele>
        <time>2013-07-01T03:23:56Z</time>
      </trkpt>
      <trkpt lat="45.22191" lon="6.18946">
        <ele>2260</ele>
        <time>2013-07-01T03:24:01Z</time>
      </trkpt>
      <trkpt lat="45.22187" lon="6.18946">
        <ele>2260</ele>
        <time>2013-07-01T03:24:06Z</time>
      </trkpt>
      <trkpt lat="45.22182" lon="6.18945">
        <ele>2261</ele>
        <time>2013-07-01T03:24:11Z</time>
      </trkpt>
      <trkpt lat="45.22178" lon="6.18943">
        <ele>2263</ele>
        <time>2013-07-01T03:24:16Z</time>
      </trkpt>
      <trkpt lat="45.22175" lon="6.18943">
        <ele>2266</ele>
        <time>2013-07-01T03:24:21Z</time>
      </trkpt>
      <trkpt lat="45.22171" lon="6.18943">
        <ele>2266</ele>
        <time>2013-07-01T03:24:26Z</time>
      </trkpt>
      <trkpt lat="45.22166" lon="6.18939">
        <ele>2265</ele>
        <time>2013-07-01T03:24:31Z</time>
      </trkpt>
      <trkpt lat="45.22161" lon="6.18939">
        <ele>2264</ele>
        <time>2013-07-01T03:24:36Z</time>
      </trkpt>
      <trkpt lat="45.22155" lon="6.18938">
        <ele>2265</ele>
        <time>2013-07-01T03:24:41Z</time>
      </trkpt>
      <trkpt lat="45.2215" lon="6.18936">
        <ele>2266</ele>
        <time>2013-07-01T03:24:46Z</time>
      </trkpt>
      <trkpt lat="45.22144" lon="6.18931">
        <ele>2266</ele>
        <time>2013-07-01T03:24:51Z</time>
      </trkpt>
      <trkpt lat="45.2214" lon="6.18925">
        <ele>2266</ele>
        <time>2013-07-01T03:24:56Z</time>
      </trkpt>
      <trkpt lat="45.22135" lon="6.18923">
        <ele>2267</ele>
        <time>2013-07-01T03:25:01Z</time>
      </trkpt>
      <trkpt lat="45.22131" lon="6.1892">
        <ele>2269</ele>
        <time>2013-07-01T03:25:06Z</time>
      </trkpt>
      <trkpt lat="45.22126" lon="6.18918">
        <ele>2268</ele>
        <time>2013-07-01T03:25:11Z</time>
      </trkpt>
      <trkpt lat="45.22123" lon="6.18914">
        <ele>2266</ele>
        <time>2013-07-01T03:25:16Z</time>
      </trkpt>
      <trkpt lat="45.22119" lon="6.18913">
        <ele>2264</ele>
        <time>2013-07-01T03:25:21Z</time>
      </trkpt>
      <trkpt lat="45.22115" lon="6.18909">
        <ele>2263</ele>
        <time>2013-07-01T03:25:26Z</time>
      </trkpt>
      <trkpt lat="45.22109" lon="6.18908">
        <ele>2263</ele>
        <time>2013-07-01T03:25:31Z</time>
      </trkpt>
      <trkpt lat="45.22104" lon="6.18906">
        <ele>2264</ele>
        <time>2013-07-01T03:25:36Z</time>
      </trkpt>
      <trkpt lat="45.221" lon="6.18902">
        <ele>2265</ele>
        <time>2013-07-01T03:25:41Z</time>
      </trkpt>
      <trkpt lat="45.22099" lon="6.18894">
        <ele>2266</ele>
        <time>2013-07-01T03:25:46Z</time>
      </trkpt>
      <trkpt lat="45.22101" lon="6.18885">
        <ele>2266</ele>
        <time>2013-07-01T03:25:51Z</time>
      </trkpt>
      <trkpt lat="45.22102" lon="6.18877">
        <ele>2267</ele>
        <time>2013-07-01T03:25:56Z</time>
      </trkpt>
      <trkpt lat="45.22106" lon="6.18869">
        <ele>2268</ele>
        <time>2013-07-01T03:26:01Z</time>
      </trkpt>
      <trkpt lat="45.22107" lon="6.18863">
        <ele>2268</ele>
        <time>2013-07-01T03:26:06Z</time>
      </trkpt>
      <trkpt lat="45.22109" lon="6.18861">
        <ele>2269</ele>
        <time>2013-07-01T03:26:11Z</time>
      </trkpt>
      <trkpt lat="45.22112" lon="6.1886">
        <ele>2269</ele>
        <time>2013-07-01T03:26:16Z</time>
      </trkpt>
      <trkpt lat="45.22118" lon="6.18859">
        <ele>2269</ele>
        <time>2013-07-01T03:26:21Z</time>
      </trkpt>
      <trkpt lat="45.22123" lon="6.18858">
        <ele>2271</ele>
        <time>2013-07-01T03:26:26Z</time>
      </trkpt>
      <trkpt lat="45.22129" lon="6.18858">
        <ele>2272</ele>
        <time>2013-07-01T03:26:31Z</time>
      </trkpt>
      <trkpt lat="45.22134" lon="6.18857">
        <ele>2271</ele>
        <time>2013-07-01T03:26:36Z</time>
      </trkpt>
      <trkpt lat="45.2214" lon="6.18855">
        <ele>2270</ele>
        <time>2013-07-01T03:26:41Z</time>
      </trkpt>
      <trkpt lat="45.2214" lon="6.18849">
        <ele>2270</ele>
        <time>2013-07-01T03:26:46Z</time>
      </trkpt>
      <trkpt lat="45.22138" lon="6.18844">
        <ele>2271</ele>
        <time>2013-07-01T03:26:51Z</time>
      </trkpt>
      <trkpt lat="45.22134" lon="6.1884">
        <ele>2273</ele>
        <time>2013-07-01T03:26:56Z</time>
      </trkpt>
      <trkpt lat="45.2213" lon="6.18837">
        <ele>2275</ele>
        <time>2013-07-01T03:27:01Z</time>
      </trkpt>
      <trkpt lat="45.22126" lon="6.18835">
        <ele>2276</ele>
        <time>2013-07-01T03:27:06Z</time>
      </trkpt>
      <trkpt lat="45.22123" lon="6.18832">
        <ele>2277</ele>
        <time>2013-07-01T03:27:11Z</time>
      </trkpt>
      <trkpt lat="45.22118" lon="6.18828">
        <ele>2278</ele>
        <time>2013-07-01T03:27:16Z</time>
      </trkpt>
      <trkpt lat="45.22116" lon="6.18824">
        <ele>2279</ele>
        <time>2013-07-01T03:27:21Z</time>
      </trkpt>
      <trkpt lat="45.22113" lon="6.18821">
        <ele>2280</ele>
        <time>2013-07-01T03:27:26Z</time>
      </trkpt>
      <trkpt lat="45.22109" lon="6.18818">
        <ele>2281</ele>
        <time>2013-07-01T03:27:31Z</time>
      </trkpt>
      <trkpt lat="45.22106" lon="6.18815">
        <ele>2282</ele>
        <time>2013-07-01T03:27:36Z</time>
      </trkpt>
      <trkpt lat="45.22102" lon="6.18811">
        <ele>2283</ele>
        <time>2013-07-01T03:27:41Z</time>
      </trkpt>
      <trkpt lat="45.22099" lon="6.18808">
        <ele>2283</ele>
        <time>2013-07-01T03:27:46Z</time>
      </trkpt>
      <trkpt lat="45.22097" lon="6.18804">
        <ele>2284</ele>
        <time>2013-07-01T03:27:51Z</time>
      </trkpt>
      <trkpt lat="45.22092" lon="6.18802">
        <ele>2284</ele>
        <time>2013-07-01T03:27:56Z</time>
      </trkpt>
      <trkpt lat="45.22088" lon="6.18799">
        <ele>2285</ele>
        <time>2013-07-01T03:28:01Z</time>
      </trkpt>
      <trkpt lat="45.22084" lon="6.18796">
        <ele>2286</ele>
        <time>2013-07-01T03:28:06Z</time>
      </trkpt>
      <trkpt lat="45.2208" lon="6.18793">
        <ele>2287</ele>
        <time>2013-07-01T03:28:11Z</time>
      </trkpt>
      <trkpt lat="45.22075" lon="6.18791">
        <ele>2288</ele>
        <time>2013-07-01T03:28:16Z</time>
      </trkpt>
      <trkpt lat="45.2207" lon="6.18789">
        <ele>2289</ele>
        <time>2013-07-01T03:28:21Z</time>
      </trkpt>
      <trkpt lat="45.22066" lon="6.18787">
        <ele>2291</ele>
        <time>2013-07-01T03:28:26Z</time>
      </trkpt>
      <trkpt lat="45.22062" lon="6.18784">
        <ele>2292</ele>
        <time>2013-07-01T03:28:31Z</time>
      </trkpt>
      <trkpt lat="45.2206" lon="6.18781">
        <ele>2292</ele>
        <time>2013-07-01T03:28:36Z</time>
      </trkpt>
      <trkpt lat="45.22057" lon="6.18778">
        <ele>2290</ele>
        <time>2013-07-01T03:28:41Z</time>
      </trkpt>
      <trkpt lat="45.22055" lon="6.18775">
        <ele>2290</ele>
        <time>2013-07-01T03:28:46Z</time>
      </trkpt>
      <trkpt lat="45.22052" lon="6.18771">
        <ele>2290</ele>
        <time>2013-07-01T03:28:51Z</time>
      </trkpt>
      <trkpt lat="45.22049" lon="6.18767">
        <ele>2291</ele>
        <time>2013-07-01T03:28:56Z</time>
      </trkpt>
      <trkpt lat="45.22046" lon="6.18762">
        <ele>2292</ele>
        <time>2013-07-01T03:29:01Z</time>
      </trkpt>
      <trkpt lat="45.22043" lon="6.18759">
        <ele>2292</ele>
        <time>2013-07-01T03:29:06Z</time>
      </trkpt>
      <trkpt lat="45.22039" lon="6.18756">
        <ele>2293</ele>
        <time>2013-07-01T03:29:11Z</time>
      </trkpt>
      <trkpt lat="45.22038" lon="6.18751">
        <ele>2294</ele>
        <time>2013-07-01T03:29:16Z</time>
      </trkpt>
      <trkpt lat="45.22035" lon="6.18746">
        <ele>2294</ele>
        <time>2013-07-01T03:29:21Z</time>
      </trkpt>
      <trkpt lat="45.22034" lon="6.18741">
        <ele>2295</ele>
        <time>2013-07-01T03:29:26Z</time>
      </trkpt>
      <trkpt lat="45.22032" lon="6.18737">
        <ele>2296</ele>
        <time>2013-07-01T03:29:31Z</time>
      </trkpt>
      <trkpt lat="45.2203" lon="6.18733">
        <ele>2296</ele>
        <time>2013-07-01T03:29:36Z</time>
      </trkpt>
      <trkpt lat="45.22028" lon="6.18729">
        <ele>2298</ele>
        <time>2013-07-01T03:29:41Z</time>
      </trkpt>
      <trkpt lat="45.22025" lon="6.18725">
        <ele>2299</ele>
        <time>2013-07-01T03:29:46Z</time>
      </trkpt>
      <trkpt lat="45.22024" lon="6.18721">
        <ele>2300</ele>
        <time>2013-07-01T03:29:51Z</time>
      </trkpt>
      <trkpt lat="45.22023" lon="6.18717">
        <ele>2301</ele>
        <time>2013-07-01T03:29:56Z</time>
      </trkpt>
      <trkpt lat="45.22024" lon="6.18712">
        <ele>2301</ele>
        <time>2013-07-01T03:30:01Z</time>
      </trkpt>
      <trkpt lat="45.22023" lon="6.18708">
        <ele>2301</ele>
        <time>2013-07-01T03:30:06Z</time>
      </trkpt>
      <trkpt lat="45.22022" lon="6.18707">
        <ele>2301</ele>
        <time>2013-07-01T03:30:11Z</time>
      </trkpt>
      <trkpt lat="45.22023" lon="6.18709">
        <ele>2298</ele>
        <time>2013-07-01T03:32:41Z</time>
      </trkpt>
      <trkpt lat="45.22022" lon="6.18706">
        <ele>2297</ele>
        <time>2013-07-01T03:32:46Z</time>
      </trkpt>
      <trkpt lat="45.2202" lon="6.18704">
        <ele>2297</ele>
        <time>2013-07-01T03:32:51Z</time>
      </trkpt>
      <trkpt lat="45.22017" lon="6.18701">
        <ele>2298</ele>
        <time>2013-07-01T03:32:56Z</time>
      </trkpt>
      <trkpt lat="45.22014" lon="6.18697">
        <ele>2299</ele>
        <time>2013-07-01T03:33:01Z</time>
      </trkpt>
      <trkpt lat="45.2201" lon="6.18694">
        <ele>2301</ele>
        <time>2013-07-01T03:33:06Z</time>
      </trkpt>
      <trkpt lat="45.22007" lon="6.18691">
        <ele>2304</ele>
        <time>2013-07-01T03:33:11Z</time>
      </trkpt>
      <trkpt lat="45.22004" lon="6.18687">
        <ele>2306</ele>
        <time>2013-07-01T03:33:16Z</time>
      </trkpt>
      <trkpt lat="45.22001" lon="6.18685">
        <ele>2307</ele>
        <time>2013-07-01T03:33:21Z</time>
      </trkpt>
      <trkpt lat="45.21998" lon="6.18682">
        <ele>2309</ele>
        <time>2013-07-01T03:33:26Z</time>
      </trkpt>
      <trkpt lat="45.21995" lon="6.18679">
        <ele>2311</ele>
        <time>2013-07-01T03:33:31Z</time>
      </trkpt>
      <trkpt lat="45.21991" lon="6.18675">
        <ele>2313</ele>
        <time>2013-07-01T03:33:36Z</time>
      </trkpt>
      <trkpt lat="45.21989" lon="6.18671">
        <ele>2313</ele>
        <time>2013-07-01T03:33:41Z</time>
      </trkpt>
      <trkpt lat="45.21986" lon="6.18666">
        <ele>2314</ele>
        <time>2013-07-01T03:33:46Z</time>
      </trkpt>
      <trkpt lat="45.21983" lon="6.18663">
        <ele>2315</ele>
        <time>2013-07-01T03:33:51Z</time>
      </trkpt>
      <trkpt lat="45.2198" lon="6.18661">
        <ele>2316</ele>
        <time>2013-07-01T03:33:56Z</time>
      </trkpt>
      <trkpt lat="45.21976" lon="6.18657">
        <ele>2317</ele>
        <time>2013-07-01T03:34:01Z</time>
      </trkpt>
      <trkpt lat="45.21973" lon="6.18654">
        <ele>2319</ele>
        <time>2013-07-01T03:34:06Z</time>
      </trkpt>
      <trkpt lat="45.2197" lon="6.18651">
        <ele>2320</ele>
        <time>2013-07-01T03:34:11Z</time>
      </trkpt>
      <trkpt lat="45.21967" lon="6.18648">
        <ele>2322</ele>
        <time>2013-07-01T03:34:16Z</time>
      </trkpt>
      <trkpt lat="45.21964" lon="6.18644">
        <ele>2322</ele>
        <time>2013-07-01T03:34:21Z</time>
      </trkpt>
      <trkpt lat="45.21961" lon="6.1864">
        <ele>2321</ele>
        <time>2013-07-01T03:34:26Z</time>
      </trkpt>
      <trkpt lat="45.21958" lon="6.18637">
        <ele>2320</ele>
        <time>2013-07-01T03:34:31Z</time>
      </trkpt>
      <trkpt lat="45.21955" lon="6.18633">
        <ele>2320</ele>
        <time>2013-07-01T03:34:36Z</time>
      </trkpt>
      <trkpt lat="45.21951" lon="6.18629">
        <ele>2320</ele>
        <time>2013-07-01T03:34:41Z</time>
      </trkpt>
      <trkpt lat="45.21948" lon="6.18626">
        <ele>2320</ele>
        <time>2013-07-01T03:34:46Z</time>
      </trkpt>
      <trkpt lat="45.21945" lon="6.18623">
        <ele>2322</ele>
        <time>2013-07-01T03:34:51Z</time>
      </trkpt>
      <trkpt lat="45.21942" lon="6.18621">
        <ele>2322</ele>
        <time>2013-07-01T03:34:56Z</time>
      </trkpt>
      <trkpt lat="45.21939" lon="6.18618">
        <ele>2323</ele>
        <time>2013-07-01T03:35:01Z</time>
      </trkpt>
      <trkpt lat="45.21935" lon="6.18616">
        <ele>2324</ele>
        <time>2013-07-01T03:35:06Z</time>
      </trkpt>
      <trkpt lat="45.21932" lon="6.18613">
        <ele>2325</ele>
        <time>2013-07-01T03:35:11Z</time>
      </trkpt>
      <trkpt lat="45.21928" lon="6.1861">
        <ele>2326</ele>
        <time>2013-07-01T03:35:16Z</time>
      </trkpt>
      <trkpt lat="45.21925" lon="6.18609">
        <ele>2327</ele>
        <time>2013-07-01T03:35:21Z</time>
      </trkpt>
      <trkpt lat="45.21921" lon="6.18607">
        <ele>2328</ele>
        <time>2013-07-01T03:35:26Z</time>
      </trkpt>
      <trkpt lat="45.21918" lon="6.18605">
        <ele>2327</ele>
        <time>2013-07-01T03:35:31Z</time>
      </trkpt>
      <trkpt lat="45.21915" lon="6.18603">
        <ele>2328</ele>
        <time>2013-07-01T03:35:36Z</time>
      </trkpt>
      <trkpt lat="45.21911" lon="6.18603">
        <ele>2328</ele>
        <time>2013-07-01T03:35:41Z</time>
      </trkpt>
      <trkpt lat="45.21908" lon="6.18602">
        <ele>2329</ele>
        <time>2013-07-01T03:35:46Z</time>
      </trkpt>
      <trkpt lat="45.21904" lon="6.18601">
        <ele>2329</ele>
        <time>2013-07-01T03:35:51Z</time>
      </trkpt>
      <trkpt lat="45.219" lon="6.18599">
        <ele>2330</ele>
        <time>2013-07-01T03:35:56Z</time>
      </trkpt>
      <trkpt lat="45.21896" lon="6.18596">
        <ele>2330</ele>
        <time>2013-07-01T03:36:01Z</time>
      </trkpt>
      <trkpt lat="45.21893" lon="6.18595">
        <ele>2331</ele>
        <time>2013-07-01T03:36:06Z</time>
      </trkpt>
      <trkpt lat="45.2189" lon="6.18595">
        <ele>2331</ele>
        <time>2013-07-01T03:36:11Z</time>
      </trkpt>
      <trkpt lat="45.21886" lon="6.18594">
        <ele>2331</ele>
        <time>2013-07-01T03:36:16Z</time>
      </trkpt>
      <trkpt lat="45.21882" lon="6.18591">
        <ele>2331</ele>
        <time>2013-07-01T03:36:21Z</time>
      </trkpt>
      <trkpt lat="45.21879" lon="6.18589">
        <ele>2332</ele>
        <time>2013-07-01T03:36:26Z</time>
      </trkpt>
      <trkpt lat="45.21875" lon="6.18588">
        <ele>2332</ele>
        <time>2013-07-01T03:36:31Z</time>
      </trkpt>
      <trkpt lat="45.21872" lon="6.18586">
        <ele>2333</ele>
        <time>2013-07-01T03:36:36Z</time>
      </trkpt>
      <trkpt lat="45.21869" lon="6.18585">
        <ele>2333</ele>
        <time>2013-07-01T03:36:41Z</time>
      </trkpt>
      <trkpt lat="45.21865" lon="6.18583">
        <ele>2333</ele>
        <time>2013-07-01T03:36:46Z</time>
      </trkpt>
      <trkpt lat="45.21861" lon="6.18581">
        <ele>2334</ele>
        <time>2013-07-01T03:36:51Z</time>
      </trkpt>
      <trkpt lat="45.21858" lon="6.18579">
        <ele>2334</ele>
        <time>2013-07-01T03:36:56Z</time>
      </trkpt>
      <trkpt lat="45.21854" lon="6.18578">
        <ele>2334</ele>
        <time>2013-07-01T03:37:01Z</time>
      </trkpt>
      <trkpt lat="45.2185" lon="6.18576">
        <ele>2334</ele>
        <time>2013-07-01T03:37:06Z</time>
      </trkpt>
      <trkpt lat="45.21846" lon="6.18575">
        <ele>2335</ele>
        <time>2013-07-01T03:37:11Z</time>
      </trkpt>
      <trkpt lat="45.21842" lon="6.18573">
        <ele>2334</ele>
        <time>2013-07-01T03:37:16Z</time>
      </trkpt>
      <trkpt lat="45.21838" lon="6.18573">
        <ele>2333</ele>
        <time>2013-07-01T03:37:21Z</time>
      </trkpt>
      <trkpt lat="45.21835" lon="6.18571">
        <ele>2332</ele>
        <time>2013-07-01T03:37:26Z</time>
      </trkpt>
      <trkpt lat="45.2183" lon="6.1857">
        <ele>2332</ele>
        <time>2013-07-01T03:37:31Z</time>
      </trkpt>
      <trkpt lat="45.21827" lon="6.18569">
        <ele>2333</ele>
        <time>2013-07-01T03:37:36Z</time>
      </trkpt>
      <trkpt lat="45.21823" lon="6.18569">
        <ele>2333</ele>
        <time>2013-07-01T03:37:41Z</time>
      </trkpt>
      <trkpt lat="45.21819" lon="6.18568">
        <ele>2333</ele>
        <time>2013-07-01T03:37:46Z</time>
      </trkpt>
      <trkpt lat="45.21816" lon="6.18567">
        <ele>2334</ele>
        <time>2013-07-01T03:37:51Z</time>
      </trkpt>
      <trkpt lat="45.21812" lon="6.18566">
        <ele>2335</ele>
        <time>2013-07-01T03:37:56Z</time>
      </trkpt>
      <trkpt lat="45.21808" lon="6.18566">
        <ele>2336</ele>
        <time>2013-07-01T03:38:01Z</time>
      </trkpt>
      <trkpt lat="45.21805" lon="6.18565">
        <ele>2337</ele>
        <time>2013-07-01T03:38:06Z</time>
      </trkpt>
      <trkpt lat="45.21801" lon="6.18563">
        <ele>2338</ele>
        <time>2013-07-01T03:38:11Z</time>
      </trkpt>
      <trkpt lat="45.21797" lon="6.18561">
        <ele>2339</ele>
        <time>2013-07-01T03:38:16Z</time>
      </trkpt>
      <trkpt lat="45.21793" lon="6.18561">
        <ele>2340</ele>
        <time>2013-07-01T03:38:21Z</time>
      </trkpt>
      <trkpt lat="45.21788" lon="6.18559">
        <ele>2343</ele>
        <time>2013-07-01T03:38:26Z</time>
      </trkpt>
      <trkpt lat="45.21784" lon="6.18557">
        <ele>2345</ele>
        <time>2013-07-01T03:38:31Z</time>
      </trkpt>
      <trkpt lat="45.21781" lon="6.18555">
        <ele>2345</ele>
        <time>2013-07-01T03:38:36Z</time>
      </trkpt>
      <trkpt lat="45.21778" lon="6.18552">
        <ele>2346</ele>
        <time>2013-07-01T03:38:41Z</time>
      </trkpt>
      <trkpt lat="45.21774" lon="6.1855">
        <ele>2347</ele>
        <time>2013-07-01T03:38:46Z</time>
      </trkpt>
      <trkpt lat="45.2177" lon="6.18549">
        <ele>2348</ele>
        <time>2013-07-01T03:38:51Z</time>
      </trkpt>
      <trkpt lat="45.21767" lon="6.18548">
        <ele>2347</ele>
        <time>2013-07-01T03:38:56Z</time>
      </trkpt>
      <trkpt lat="45.21764" lon="6.18547">
        <ele>2347</ele>
        <time>2013-07-01T03:39:01Z</time>
      </trkpt>
      <trkpt lat="45.21761" lon="6.18544">
        <ele>2347</ele>
        <time>2013-07-01T03:39:06Z</time>
      </trkpt>
      <trkpt lat="45.21758" lon="6.18541">
        <ele>2348</ele>
        <time>2013-07-01T03:39:11Z</time>
      </trkpt>
      <trkpt lat="45.21755" lon="6.18538">
        <ele>2349</ele>
        <time>2013-07-01T03:39:16Z</time>
      </trkpt>
      <trkpt lat="45.21751" lon="6.18536">
        <ele>2349</ele>
        <time>2013-07-01T03:39:21Z</time>
      </trkpt>
      <trkpt lat="45.21749" lon="6.18532">
        <ele>2350</ele>
        <time>2013-07-01T03:39:26Z</time>
      </trkpt>
      <trkpt lat="45.21745" lon="6.1853">
        <ele>2352</ele>
        <time>2013-07-01T03:39:31Z</time>
      </trkpt>
      <trkpt lat="45.21743" lon="6.18527">
        <ele>2353</ele>
        <time>2013-07-01T03:39:36Z</time>
      </trkpt>
      <trkpt lat="45.2174" lon="6.18523">
        <ele>2354</ele>
        <time>2013-07-01T03:39:41Z</time>
      </trkpt>
      <trkpt lat="45.21737" lon="6.1852">
        <ele>2355</ele>
        <time>2013-07-01T03:39:46Z</time>
      </trkpt>
      <trkpt lat="45.21734" lon="6.18516">
        <ele>2356</ele>
        <time>2013-07-01T03:39:51Z</time>
      </trkpt>
      <trkpt lat="45.21731" lon="6.18513">
        <ele>2357</ele>
        <time>2013-07-01T03:39:56Z</time>
      </trkpt>
      <trkpt lat="45.21727" lon="6.18511">
        <ele>2358</ele>
        <time>2013-07-01T03:40:01Z</time>
      </trkpt>
      <trkpt lat="45.21724" lon="6.18509">
        <ele>2357</ele>
        <time>2013-07-01T03:40:06Z</time>
      </trkpt>
      <trkpt lat="45.21721" lon="6.18507">
        <ele>2357</ele>
        <time>2013-07-01T03:40:11Z</time>
      </trkpt>
      <trkpt lat="45.21719" lon="6.18502">
        <ele>2357</ele>
        <time>2013-07-01T03:40:16Z</time>
      </trkpt>
      <trkpt lat="45.21716" lon="6.18499">
        <ele>2359</ele>
        <time>2013-07-01T03:40:21Z</time>
      </trkpt>
      <trkpt lat="45.21713" lon="6.18495">
        <ele>2360</ele>
        <time>2013-07-01T03:40:26Z</time>
      </trkpt>
      <trkpt lat="45.2171" lon="6.18491">
        <ele>2362</ele>
        <time>2013-07-01T03:40:31Z</time>
      </trkpt>
      <trkpt lat="45.21707" lon="6.18487">
        <ele>2363</ele>
        <time>2013-07-01T03:40:36Z</time>
      </trkpt>
      <trkpt lat="45.21705" lon="6.18482">
        <ele>2363</ele>
        <time>2013-07-01T03:40:41Z</time>
      </trkpt>
      <trkpt lat="45.21703" lon="6.18477">
        <ele>2362</ele>
        <time>2013-07-01T03:40:46Z</time>
      </trkpt>
      <trkpt lat="45.21701" lon="6.18472">
        <ele>2363</ele>
        <time>2013-07-01T03:40:51Z</time>
      </trkpt>
      <trkpt lat="45.21701" lon="6.18466">
        <ele>2362</ele>
        <time>2013-07-01T03:40:56Z</time>
      </trkpt>
      <trkpt lat="45.21699" lon="6.18462">
        <ele>2363</ele>
        <time>2013-07-01T03:41:01Z</time>
      </trkpt>
      <trkpt lat="45.21696" lon="6.1846">
        <ele>2365</ele>
        <time>2013-07-01T03:41:06Z</time>
      </trkpt>
      <trkpt lat="45.21693" lon="6.18458">
        <ele>2366</ele>
        <time>2013-07-01T03:41:11Z</time>
      </trkpt>
      <trkpt lat="45.21689" lon="6.18455">
        <ele>2367</ele>
        <time>2013-07-01T03:41:16Z</time>
      </trkpt>
      <trkpt lat="45.21685" lon="6.18453">
        <ele>2368</ele>
        <time>2013-07-01T03:41:21Z</time>
      </trkpt>
      <trkpt lat="45.21682" lon="6.18451">
        <ele>2369</ele>
        <time>2013-07-01T03:41:26Z</time>
      </trkpt>
      <trkpt lat="45.21678" lon="6.18449">
        <ele>2369</ele>
        <time>2013-07-01T03:41:31Z</time>
      </trkpt>
      <trkpt lat="45.21674" lon="6.18448">
        <ele>2370</ele>
        <time>2013-07-01T03:41:36Z</time>
      </trkpt>
      <trkpt lat="45.2167" lon="6.18447">
        <ele>2371</ele>
        <time>2013-07-01T03:41:41Z</time>
      </trkpt>
      <trkpt lat="45.21666" lon="6.18446">
        <ele>2371</ele>
        <time>2013-07-01T03:41:46Z</time>
      </trkpt>
      <trkpt lat="45.21661" lon="6.18446">
        <ele>2372</ele>
        <time>2013-07-01T03:41:51Z</time>
      </trkpt>
      <trkpt lat="45.21657" lon="6.18446">
        <ele>2372</ele>
        <time>2013-07-01T03:41:56Z</time>
      </trkpt>
      <trkpt lat="45.21653" lon="6.18445">
        <ele>2372</ele>
        <time>2013-07-01T03:42:01Z</time>
      </trkpt>
      <trkpt lat="45.21649" lon="6.18445">
        <ele>2373</ele>
        <time>2013-07-01T03:42:06Z</time>
      </trkpt>
      <trkpt lat="45.21645" lon="6.18444">
        <ele>2374</ele>
        <time>2013-07-01T03:42:11Z</time>
      </trkpt>
      <trkpt lat="45.21642" lon="6.18443">
        <ele>2374</ele>
        <time>2013-07-01T03:42:16Z</time>
      </trkpt>
      <trkpt lat="45.21638" lon="6.18443">
        <ele>2375</ele>
        <time>2013-07-01T03:42:21Z</time>
      </trkpt>
      <trkpt lat="45.21634" lon="6.18441">
        <ele>2375</ele>
        <time>2013-07-01T03:42:26Z</time>
      </trkpt>
      <trkpt lat="45.2163" lon="6.1844">
        <ele>2375</ele>
        <time>2013-07-01T03:42:31Z</time>
      </trkpt>
      <trkpt lat="45.21626" lon="6.1844">
        <ele>2376</ele>
        <time>2013-07-01T03:42:36Z</time>
      </trkpt>
      <trkpt lat="45.21622" lon="6.18439">
        <ele>2376</ele>
        <time>2013-07-01T03:42:41Z</time>
      </trkpt>
      <trkpt lat="45.21618" lon="6.18438">
        <ele>2377</ele>
        <time>2013-07-01T03:42:46Z</time>
      </trkpt>
      <trkpt lat="45.21615" lon="6.18435">
        <ele>2378</ele>
        <time>2013-07-01T03:42:51Z</time>
      </trkpt>
      <trkpt lat="45.2161" lon="6.18434">
        <ele>2379</ele>
        <time>2013-07-01T03:42:56Z</time>
      </trkpt>
      <trkpt lat="45.21607" lon="6.18432">
        <ele>2379</ele>
        <time>2013-07-01T03:43:01Z</time>
      </trkpt>
      <trkpt lat="45.21602" lon="6.1843">
        <ele>2380</ele>
        <time>2013-07-01T03:43:06Z</time>
      </trkpt>
      <trkpt lat="45.21598" lon="6.18428">
        <ele>2380</ele>
        <time>2013-07-01T03:43:11Z</time>
      </trkpt>
      <trkpt lat="45.21594" lon="6.18426">
        <ele>2380</ele>
        <time>2013-07-01T03:43:16Z</time>
      </trkpt>
      <trkpt lat="45.21589" lon="6.18423">
        <ele>2381</ele>
        <time>2013-07-01T03:43:21Z</time>
      </trkpt>
      <trkpt lat="45.21584" lon="6.18421">
        <ele>2382</ele>
        <time>2013-07-01T03:43:26Z</time>
      </trkpt>
      <trkpt lat="45.21579" lon="6.1842">
        <ele>2382</ele>
        <time>2013-07-01T03:43:31Z</time>
      </trkpt>
      <trkpt lat="45.21575" lon="6.18418">
        <ele>2383</ele>
        <time>2013-07-01T03:43:36Z</time>
      </trkpt>
      <trkpt lat="45.2157" lon="6.18417">
        <ele>2383</ele>
        <time>2013-07-01T03:43:41Z</time>
      </trkpt>
      <trkpt lat="45.21566" lon="6.18415">
        <ele>2384</ele>
        <time>2013-07-01T03:43:46Z</time>
      </trkpt>
      <trkpt lat="45.21562" lon="6.18412">
        <ele>2385</ele>
        <time>2013-07-01T03:43:51Z</time>
      </trkpt>
      <trkpt lat="45.21557" lon="6.18411">
        <ele>2386</ele>
        <time>2013-07-01T03:43:56Z</time>
      </trkpt>
      <trkpt lat="45.21553" lon="6.1841">
        <ele>2386</ele>
        <time>2013-07-01T03:44:01Z</time>
      </trkpt>
      <trkpt lat="45.21549" lon="6.18408">
        <ele>2387</ele>
        <time>2013-07-01T03:44:06Z</time>
      </trkpt>
      <trkpt lat="45.21548" lon="6.18404">
        <ele>2386</ele>
        <time>2013-07-01T03:44:11Z</time>
      </trkpt>
      <trkpt lat="45.21549" lon="6.18403">
        <ele>2386</ele>
        <time>2013-07-01T03:44:16Z</time>
      </trkpt>
      <trkpt lat="45.21548" lon="6.18403">
        <ele>2386</ele>
        <time>2013-07-01T03:44:21Z</time>
      </trkpt>
      <trkpt lat="45.21547" lon="6.18403">
        <ele>2386</ele>
        <time>2013-07-01T03:44:26Z</time>
      </trkpt>
      <trkpt lat="45.21548" lon="6.18402">
        <ele>2385</ele>
        <time>2013-07-01T03:44:31Z</time>
      </trkpt>
      <trkpt lat="45.21549" lon="6.18401">
        <ele>2383</ele>
        <time>2013-07-01T03:44:36Z</time>
      </trkpt>
      <trkpt lat="45.2155" lon="6.18401">
        <ele>2382</ele>
        <time>2013-07-01T03:44:41Z</time>
      </trkpt>
      <trkpt lat="45.21549" lon="6.18401">
        <ele>2382</ele>
        <time>2013-07-01T03:44:46Z</time>
      </trkpt>
      <trkpt lat="45.2155" lon="6.18401">
        <ele>2381</ele>
        <time>2013-07-01T03:44:51Z</time>
      </trkpt>
      <trkpt lat="45.21549" lon="6.18402">
        <ele>2381</ele>
        <time>2013-07-01T03:44:56Z</time>
      </trkpt>
      <trkpt lat="45.21549" lon="6.18402">
        <ele>2381</ele>
        <time>2013-07-01T03:45:01Z</time>
      </trkpt>
      <trkpt lat="45.21549" lon="6.18403">
        <ele>2381</ele>
        <time>2013-07-01T03:45:06Z</time>
      </trkpt>
      <trkpt lat="45.21549" lon="6.18403">
        <ele>2381</ele>
        <time>2013-07-01T03:45:11Z</time>
      </trkpt>
      <trkpt lat="45.21549" lon="6.18404">
        <ele>2381</ele>
        <time>2013-07-01T03:45:16Z</time>
      </trkpt>
      <trkpt lat="45.21549" lon="6.18404">
        <ele>2382</ele>
        <time>2013-07-01T03:45:21Z</time>
      </trkpt>
      <trkpt lat="45.21548" lon="6.18403">
        <ele>2382</ele>
        <time>2013-07-01T03:45:26Z</time>
      </trkpt>
      <trkpt lat="45.21548" lon="6.18403">
        <ele>2381</ele>
        <time>2013-07-01T03:45:31Z</time>
      </trkpt>
      <trkpt lat="45.21548" lon="6.18403">
        <ele>2381</ele>
        <time>2013-07-01T03:45:36Z</time>
      </trkpt>
      <trkpt lat="45.21548" lon="6.184">
        <ele>2388</ele>
        <time>2013-07-01T03:48:26Z</time>
      </trkpt>
      <trkpt lat="45.21548" lon="6.18399">
        <ele>2388</ele>
        <time>2013-07-01T03:48:31Z</time>
      </trkpt>
      <trkpt lat="45.21545" lon="6.184">
        <ele>2388</ele>
        <time>2013-07-01T03:48:36Z</time>
      </trkpt>
      <trkpt lat="45.21541" lon="6.18399">
        <ele>2389</ele>
        <time>2013-07-01T03:48:41Z</time>
      </trkpt>
      <trkpt lat="45.21537" lon="6.18398">
        <ele>2389</ele>
        <time>2013-07-01T03:48:46Z</time>
      </trkpt>
      <trkpt lat="45.21534" lon="6.18396">
        <ele>2390</ele>
        <time>2013-07-01T03:48:51Z</time>
      </trkpt>
      <trkpt lat="45.21531" lon="6.18394">
        <ele>2390</ele>
        <time>2013-07-01T03:48:56Z</time>
      </trkpt>
      <trkpt lat="45.21529" lon="6.18391">
        <ele>2391</ele>
        <time>2013-07-01T03:49:01Z</time>
      </trkpt>
      <trkpt lat="45.21526" lon="6.18389">
        <ele>2391</ele>
        <time>2013-07-01T03:49:06Z</time>
      </trkpt>
      <trkpt lat="45.21522" lon="6.18388">
        <ele>2392</ele>
        <time>2013-07-01T03:49:11Z</time>
      </trkpt>
      <trkpt lat="45.2152" lon="6.18386">
        <ele>2393</ele>
        <time>2013-07-01T03:49:16Z</time>
      </trkpt>
      <trkpt lat="45.21517" lon="6.18384">
        <ele>2393</ele>
        <time>2013-07-01T03:49:21Z</time>
      </trkpt>
      <trkpt lat="45.21514" lon="6.18381">
        <ele>2394</ele>
        <time>2013-07-01T03:49:26Z</time>
      </trkpt>
      <trkpt lat="45.21513" lon="6.1838">
        <ele>2394</ele>
        <time>2013-07-01T03:49:31Z</time>
      </trkpt>
      <trkpt lat="45.21513" lon="6.18379">
        <ele>2394</ele>
        <time>2013-07-01T03:49:36Z</time>
      </trkpt>
      <trkpt lat="45.2151" lon="6.18376">
        <ele>2395</ele>
        <time>2013-07-01T03:49:41Z</time>
      </trkpt>
      <trkpt lat="45.21508" lon="6.18372">
        <ele>2396</ele>
        <time>2013-07-01T03:49:46Z</time>
      </trkpt>
      <trkpt lat="45.21506" lon="6.18369">
        <ele>2397</ele>
        <time>2013-07-01T03:49:51Z</time>
      </trkpt>
      <trkpt lat="45.21504" lon="6.18365">
        <ele>2397</ele>
        <time>2013-07-01T03:49:56Z</time>
      </trkpt>
      <trkpt lat="45.21503" lon="6.18362">
        <ele>2398</ele>
        <time>2013-07-01T03:50:01Z</time>
      </trkpt>
      <trkpt lat="45.21501" lon="6.18359">
        <ele>2399</ele>
        <time>2013-07-01T03:50:06Z</time>
      </trkpt>
      <trkpt lat="45.21499" lon="6.18357">
        <ele>2399</ele>
        <time>2013-07-01T03:50:11Z</time>
      </trkpt>
      <trkpt lat="45.21497" lon="6.18355">
        <ele>2400</ele>
        <time>2013-07-01T03:50:16Z</time>
      </trkpt>
      <trkpt lat="45.21495" lon="6.18352">
        <ele>2401</ele>
        <time>2013-07-01T03:50:21Z</time>
      </trkpt>
      <trkpt lat="45.21494" lon="6.1835">
        <ele>2402</ele>
        <time>2013-07-01T03:50:26Z</time>
      </trkpt>
      <trkpt lat="45.21491" lon="6.18348">
        <ele>2402</ele>
        <time>2013-07-01T03:50:31Z</time>
      </trkpt>
      <trkpt lat="45.2149" lon="6.18345">
        <ele>2403</ele>
        <time>2013-07-01T03:50:36Z</time>
      </trkpt>
      <trkpt lat="45.21488" lon="6.18343">
        <ele>2404</ele>
        <time>2013-07-01T03:50:41Z</time>
      </trkpt>
      <trkpt lat="45.21486" lon="6.18341">
        <ele>2405</ele>
        <time>2013-07-01T03:50:46Z</time>
      </trkpt>
      <trkpt lat="45.21484" lon="6.18339">
        <ele>2405</ele>
        <time>2013-07-01T03:50:51Z</time>
      </trkpt>
      <trkpt lat="45.21481" lon="6.18337">
        <ele>2406</ele>
        <time>2013-07-01T03:50:56Z</time>
      </trkpt>
      <trkpt lat="45.2148" lon="6.18334">
        <ele>2407</ele>
        <time>2013-07-01T03:51:01Z</time>
      </trkpt>
      <trkpt lat="45.21478" lon="6.18332">
        <ele>2408</ele>
        <time>2013-07-01T03:51:06Z</time>
      </trkpt>
      <trkpt lat="45.21476" lon="6.18329">
        <ele>2408</ele>
        <time>2013-07-01T03:51:11Z</time>
      </trkpt>
      <trkpt lat="45.21474" lon="6.18328">
        <ele>2409</ele>
        <time>2013-07-01T03:51:16Z</time>
      </trkpt>
      <trkpt lat="45.21473" lon="6.18327">
        <ele>2409</ele>
        <time>2013-07-01T03:51:21Z</time>
      </trkpt>
      <trkpt lat="45.21471" lon="6.18326">
        <ele>2410</ele>
        <time>2013-07-01T03:51:26Z</time>
      </trkpt>
      <trkpt lat="45.21469" lon="6.18324">
        <ele>2411</ele>
        <time>2013-07-01T03:51:31Z</time>
      </trkpt>
      <trkpt lat="45.21467" lon="6.18324">
        <ele>2411</ele>
        <time>2013-07-01T03:51:36Z</time>
      </trkpt>
      <trkpt lat="45.21464" lon="6.18323">
        <ele>2412</ele>
        <time>2013-07-01T03:51:41Z</time>
      </trkpt>
      <trkpt lat="45.21462" lon="6.18322">
        <ele>2413</ele>
        <time>2013-07-01T03:51:46Z</time>
      </trkpt>
      <trkpt lat="45.21459" lon="6.18321">
        <ele>2414</ele>
        <time>2013-07-01T03:51:51Z</time>
      </trkpt>
      <trkpt lat="45.21457" lon="6.1832">
        <ele>2414</ele>
        <time>2013-07-01T03:51:56Z</time>
      </trkpt>
      <trkpt lat="45.21455" lon="6.18318">
        <ele>2415</ele>
        <time>2013-07-01T03:52:01Z</time>
      </trkpt>
      <trkpt lat="45.21452" lon="6.18317">
        <ele>2416</ele>
        <time>2013-07-01T03:52:06Z</time>
      </trkpt>
      <trkpt lat="45.2145" lon="6.18316">
        <ele>2416</ele>
        <time>2013-07-01T03:52:11Z</time>
      </trkpt>
      <trkpt lat="45.21448" lon="6.18315">
        <ele>2417</ele>
        <time>2013-07-01T03:52:16Z</time>
      </trkpt>
      <trkpt lat="45.21445" lon="6.18314">
        <ele>2418</ele>
        <time>2013-07-01T03:52:21Z</time>
      </trkpt>
      <trkpt lat="45.21443" lon="6.18313">
        <ele>2418</ele>
        <time>2013-07-01T03:52:26Z</time>
      </trkpt>
      <trkpt lat="45.21441" lon="6.18311">
        <ele>2419</ele>
        <time>2013-07-01T03:52:31Z</time>
      </trkpt>
      <trkpt lat="45.21439" lon="6.18309">
        <ele>2420</ele>
        <time>2013-07-01T03:52:36Z</time>
      </trkpt>
      <trkpt lat="45.21436" lon="6.18307">
        <ele>2421</ele>
        <time>2013-07-01T03:52:41Z</time>
      </trkpt>
      <trkpt lat="45.21434" lon="6.18305">
        <ele>2421</ele>
        <time>2013-07-01T03:52:46Z</time>
      </trkpt>
      <trkpt lat="45.21433" lon="6.18303">
        <ele>2422</ele>
        <time>2013-07-01T03:52:51Z</time>
      </trkpt>
      <trkpt lat="45.2143" lon="6.18301">
        <ele>2423</ele>
        <time>2013-07-01T03:52:56Z</time>
      </trkpt>
      <trkpt lat="45.21429" lon="6.18299">
        <ele>2424</ele>
        <time>2013-07-01T03:53:01Z</time>
      </trkpt>
      <trkpt lat="45.21426" lon="6.18297">
        <ele>2424</ele>
        <time>2013-07-01T03:53:06Z</time>
      </trkpt>
      <trkpt lat="45.21425" lon="6.18295">
        <ele>2425</ele>
        <time>2013-07-01T03:53:11Z</time>
      </trkpt>
      <trkpt lat="45.21422" lon="6.18293">
        <ele>2426</ele>
        <time>2013-07-01T03:53:16Z</time>
      </trkpt>
      <trkpt lat="45.21421" lon="6.18291">
        <ele>2427</ele>
        <time>2013-07-01T03:53:21Z</time>
      </trkpt>
      <trkpt lat="45.21419" lon="6.18289">
        <ele>2427</ele>
        <time>2013-07-01T03:53:26Z</time>
      </trkpt>
      <trkpt lat="45.21417" lon="6.18286">
        <ele>2428</ele>
        <time>2013-07-01T03:53:31Z</time>
      </trkpt>
      <trkpt lat="45.21416" lon="6.18285">
        <ele>2429</ele>
        <time>2013-07-01T03:53:36Z</time>
      </trkpt>
      <trkpt lat="45.21413" lon="6.18284">
        <ele>2430</ele>
        <time>2013-07-01T03:53:41Z</time>
      </trkpt>
      <trkpt lat="45.21411" lon="6.18283">
        <ele>2430</ele>
        <time>2013-07-01T03:53:46Z</time>
      </trkpt>
      <trkpt lat="45.21409" lon="6.18281">
        <ele>2431</ele>
        <time>2013-07-01T03:53:51Z</time>
      </trkpt>
      <trkpt lat="45.21407" lon="6.1828">
        <ele>2432</ele>
        <time>2013-07-01T03:53:56Z</time>
      </trkpt>
      <trkpt lat="45.21405" lon="6.18279">
        <ele>2432</ele>
        <time>2013-07-01T03:54:01Z</time>
      </trkpt>
      <trkpt lat="45.21403" lon="6.18277">
        <ele>2433</ele>
        <time>2013-07-01T03:54:06Z</time>
      </trkpt>
      <trkpt lat="45.21401" lon="6.18276">
        <ele>2434</ele>
        <time>2013-07-01T03:54:11Z</time>
      </trkpt>
      <trkpt lat="45.21398" lon="6.18275">
        <ele>2434</ele>
        <time>2013-07-01T03:54:16Z</time>
      </trkpt>
      <trkpt lat="45.21396" lon="6.18274">
        <ele>2435</ele>
        <time>2013-07-01T03:54:21Z</time>
      </trkpt>
      <trkpt lat="45.21394" lon="6.18272">
        <ele>2436</ele>
        <time>2013-07-01T03:54:26Z</time>
      </trkpt>
      <trkpt lat="45.21391" lon="6.18271">
        <ele>2436</ele>
        <time>2013-07-01T03:54:31Z</time>
      </trkpt>
      <trkpt lat="45.21389" lon="6.1827">
        <ele>2437</ele>
        <time>2013-07-01T03:54:36Z</time>
      </trkpt>
      <trkpt lat="45.21386" lon="6.18269">
        <ele>2438</ele>
        <time>2013-07-01T03:54:41Z</time>
      </trkpt>
      <trkpt lat="45.21385" lon="6.18267">
        <ele>2439</ele>
        <time>2013-07-01T03:54:46Z</time>
      </trkpt>
      <trkpt lat="45.21383" lon="6.18265">
        <ele>2439</ele>
        <time>2013-07-01T03:54:51Z</time>
      </trkpt>
      <trkpt lat="45.21381" lon="6.18263">
        <ele>2440</ele>
        <time>2013-07-01T03:54:56Z</time>
      </trkpt>
      <trkpt lat="45.21379" lon="6.18263">
        <ele>2441</ele>
        <time>2013-07-01T03:55:01Z</time>
      </trkpt>
      <trkpt lat="45.21377" lon="6.18262">
        <ele>2441</ele>
        <time>2013-07-01T03:55:06Z</time>
      </trkpt>
      <trkpt lat="45.21375" lon="6.18261">
        <ele>2442</ele>
        <time>2013-07-01T03:55:11Z</time>
      </trkpt>
      <trkpt lat="45.21373" lon="6.18259">
        <ele>2443</ele>
        <time>2013-07-01T03:55:16Z</time>
      </trkpt>
      <trkpt lat="45.21371" lon="6.18257">
        <ele>2444</ele>
        <time>2013-07-01T03:55:21Z</time>
      </trkpt>
      <trkpt lat="45.21369" lon="6.18255">
        <ele>2444</ele>
        <time>2013-07-01T03:55:26Z</time>
      </trkpt>
      <trkpt lat="45.21367" lon="6.18253">
        <ele>2445</ele>
        <time>2013-07-01T03:55:31Z</time>
      </trkpt>
      <trkpt lat="45.21365" lon="6.1825">
        <ele>2446</ele>
        <time>2013-07-01T03:55:36Z</time>
      </trkpt>
      <trkpt lat="45.21364" lon="6.18248">
        <ele>2447</ele>
        <time>2013-07-01T03:55:41Z</time>
      </trkpt>
      <trkpt lat="45.21362" lon="6.18246">
        <ele>2448</ele>
        <time>2013-07-01T03:55:46Z</time>
      </trkpt>
      <trkpt lat="45.2136" lon="6.18244">
        <ele>2448</ele>
        <time>2013-07-01T03:55:51Z</time>
      </trkpt>
      <trkpt lat="45.21358" lon="6.18241">
        <ele>2449</ele>
        <time>2013-07-01T03:55:56Z</time>
      </trkpt>
      <trkpt lat="45.21356" lon="6.18239">
        <ele>2450</ele>
        <time>2013-07-01T03:56:01Z</time>
      </trkpt>
      <trkpt lat="45.21354" lon="6.18236">
        <ele>2451</ele>
        <time>2013-07-01T03:56:06Z</time>
      </trkpt>
      <trkpt lat="45.21352" lon="6.18234">
        <ele>2451</ele>
        <time>2013-07-01T03:56:11Z</time>
      </trkpt>
      <trkpt lat="45.21351" lon="6.18232">
        <ele>2452</ele>
        <time>2013-07-01T03:56:16Z</time>
      </trkpt>
      <trkpt lat="45.21349" lon="6.18229">
        <ele>2453</ele>
        <time>2013-07-01T03:56:21Z</time>
      </trkpt>
      <trkpt lat="45.21347" lon="6.18227">
        <ele>2454</ele>
        <time>2013-07-01T03:56:26Z</time>
      </trkpt>
      <trkpt lat="45.21344" lon="6.18226">
        <ele>2454</ele>
        <time>2013-07-01T03:56:31Z</time>
      </trkpt>
      <trkpt lat="45.21342" lon="6.18224">
        <ele>2455</ele>
        <time>2013-07-01T03:56:36Z</time>
      </trkpt>
      <trkpt lat="45.2134" lon="6.18221">
        <ele>2456</ele>
        <time>2013-07-01T03:56:41Z</time>
      </trkpt>
      <trkpt lat="45.21338" lon="6.18219">
        <ele>2457</ele>
        <time>2013-07-01T03:56:46Z</time>
      </trkpt>
      <trkpt lat="45.21335" lon="6.18218">
        <ele>2458</ele>
        <time>2013-07-01T03:56:51Z</time>
      </trkpt>
      <trkpt lat="45.21333" lon="6.18216">
        <ele>2459</ele>
        <time>2013-07-01T03:56:56Z</time>
      </trkpt>
      <trkpt lat="45.21331" lon="6.18214">
        <ele>2460</ele>
        <time>2013-07-01T03:57:01Z</time>
      </trkpt>
      <trkpt lat="45.21328" lon="6.18211">
        <ele>2461</ele>
        <time>2013-07-01T03:57:06Z</time>
      </trkpt>
      <trkpt lat="45.21327" lon="6.18208">
        <ele>2462</ele>
        <time>2013-07-01T03:57:11Z</time>
      </trkpt>
      <trkpt lat="45.21325" lon="6.18205">
        <ele>2462</ele>
        <time>2013-07-01T03:57:16Z</time>
      </trkpt>
      <trkpt lat="45.21322" lon="6.18203">
        <ele>2463</ele>
        <time>2013-07-01T03:57:21Z</time>
      </trkpt>
      <trkpt lat="45.2132" lon="6.182">
        <ele>2464</ele>
        <time>2013-07-01T03:57:26Z</time>
      </trkpt>
      <trkpt lat="45.21318" lon="6.18198">
        <ele>2465</ele>
        <time>2013-07-01T03:57:31Z</time>
      </trkpt>
      <trkpt lat="45.21316" lon="6.18195">
        <ele>2466</ele>
        <time>2013-07-01T03:57:36Z</time>
      </trkpt>
      <trkpt lat="45.21314" lon="6.18193">
        <ele>2466</ele>
        <time>2013-07-01T03:57:41Z</time>
      </trkpt>
      <trkpt lat="45.21312" lon="6.1819">
        <ele>2467</ele>
        <time>2013-07-01T03:57:46Z</time>
      </trkpt>
      <trkpt lat="45.21309" lon="6.18188">
        <ele>2468</ele>
        <time>2013-07-01T03:57:51Z</time>
      </trkpt>
      <trkpt lat="45.21307" lon="6.18185">
        <ele>2469</ele>
        <time>2013-07-01T03:57:56Z</time>
      </trkpt>
      <trkpt lat="45.21305" lon="6.18183">
        <ele>2469</ele>
        <time>2013-07-01T03:58:01Z</time>
      </trkpt>
      <trkpt lat="45.21302" lon="6.18183">
        <ele>2470</ele>
        <time>2013-07-01T03:58:06Z</time>
      </trkpt>
      <trkpt lat="45.21299" lon="6.18183">
        <ele>2470</ele>
        <time>2013-07-01T03:58:11Z</time>
      </trkpt>
      <trkpt lat="45.21297" lon="6.18183">
        <ele>2471</ele>
        <time>2013-07-01T03:58:16Z</time>
      </trkpt>
      <trkpt lat="45.21294" lon="6.18183">
        <ele>2472</ele>
        <time>2013-07-01T03:58:21Z</time>
      </trkpt>
      <trkpt lat="45.21292" lon="6.18183">
        <ele>2472</ele>
        <time>2013-07-01T03:58:26Z</time>
      </trkpt>
      <trkpt lat="45.21289" lon="6.18182">
        <ele>2473</ele>
        <time>2013-07-01T03:58:31Z</time>
      </trkpt>
      <trkpt lat="45.21287" lon="6.18181">
        <ele>2474</ele>
        <time>2013-07-01T03:58:36Z</time>
      </trkpt>
      <trkpt lat="45.21285" lon="6.18181">
        <ele>2475</ele>
        <time>2013-07-01T03:58:41Z</time>
      </trkpt>
      <trkpt lat="45.21282" lon="6.18181">
        <ele>2475</ele>
        <time>2013-07-01T03:58:46Z</time>
      </trkpt>
      <trkpt lat="45.21279" lon="6.1818">
        <ele>2476</ele>
        <time>2013-07-01T03:58:51Z</time>
      </trkpt>
      <trkpt lat="45.21277" lon="6.18179">
        <ele>2477</ele>
        <time>2013-07-01T03:58:56Z</time>
      </trkpt>
      <trkpt lat="45.21277" lon="6.18179">
        <ele>2477</ele>
        <time>2013-07-01T03:59:01Z</time>
      </trkpt>
      <trkpt lat="45.21277" lon="6.18179">
        <ele>2477</ele>
        <time>2013-07-01T03:59:06Z</time>
      </trkpt>
      <trkpt lat="45.21277" lon="6.18179">
        <ele>2477</ele>
        <time>2013-07-01T03:59:11Z</time>
      </trkpt>
      <trkpt lat="45.21277" lon="6.18179">
        <ele>2477</ele>
        <time>2013-07-01T03:59:16Z</time>
      </trkpt>
      <trkpt lat="45.21277" lon="6.18179">
        <ele>2477</ele>
        <time>2013-07-01T03:59:21Z</time>
      </trkpt>
      <trkpt lat="45.21277" lon="6.18179">
        <ele>2477</ele>
        <time>2013-07-01T03:59:26Z</time>
      </trkpt>
      <trkpt lat="45.21277" lon="6.18179">
        <ele>2478</ele>
        <time>2013-07-01T03:59:31Z</time>
      </trkpt>
      <trkpt lat="45.21277" lon="6.18179">
        <ele>2478</ele>
        <time>2013-07-01T03:59:36Z</time>
      </trkpt>
      <trkpt lat="45.21277" lon="6.18179">
        <ele>2478</ele>
        <time>2013-07-01T03:59:41Z</time>
      </trkpt>
      <trkpt lat="45.21277" lon="6.18178">
        <ele>2478</ele>
        <time>2013-07-01T03:59:46Z</time>
      </trkpt>
      <trkpt lat="45.21277" lon="6.18178">
        <ele>2478</ele>
        <time>2013-07-01T03:59:51Z</time>
      </trkpt>
      <trkpt lat="45.21277" lon="6.18178">
        <ele>2478</ele>
        <time>2013-07-01T03:59:56Z</time>
      </trkpt>
      <trkpt lat="45.21277" lon="6.18178">
        <ele>2478</ele>
        <time>2013-07-01T04:00:01Z</time>
      </trkpt>
      <trkpt lat="45.21277" lon="6.18179">
        <ele>2478</ele>
        <time>2013-07-01T04:00:06Z</time>
      </trkpt>
      <trkpt lat="45.21278" lon="6.18179">
        <ele>2478</ele>
        <time>2013-07-01T04:00:11Z</time>
      </trkpt>
      <trkpt lat="45.21277" lon="6.18179">
        <ele>2478</ele>
        <time>2013-07-01T04:00:16Z</time>
      </trkpt>
      <trkpt lat="45.21277" lon="6.18179">
        <ele>2477</ele>
        <time>2013-07-01T04:00:21Z</time>
      </trkpt>
      <trkpt lat="45.21277" lon="6.18179">
        <ele>2477</ele>
        <time>2013-07-01T04:00:26Z</time>
      </trkpt>
      <trkpt lat="45.21275" lon="6.18179">
        <ele>2478</ele>
        <time>2013-07-01T04:00:31Z</time>
      </trkpt>
      <trkpt lat="45.21272" lon="6.18179">
        <ele>2479</ele>
        <time>2013-07-01T04:00:36Z</time>
      </trkpt>
      <trkpt lat="45.21269" lon="6.18177">
        <ele>2480</ele>
        <time>2013-07-01T04:00:41Z</time>
      </trkpt>
      <trkpt lat="45.21266" lon="6.18175">
        <ele>2481</ele>
        <time>2013-07-01T04:00:46Z</time>
      </trkpt>
      <trkpt lat="45.21263" lon="6.18174">
        <ele>2481</ele>
        <time>2013-07-01T04:00:51Z</time>
      </trkpt>
      <trkpt lat="45.21259" lon="6.18174">
        <ele>2482</ele>
        <time>2013-07-01T04:00:56Z</time>
      </trkpt>
      <trkpt lat="45.21256" lon="6.18175">
        <ele>2483</ele>
        <time>2013-07-01T04:01:01Z</time>
      </trkpt>
      <trkpt lat="45.21253" lon="6.18175">
        <ele>2484</ele>
        <time>2013-07-01T04:01:06Z</time>
      </trkpt>
      <trkpt lat="45.2125" lon="6.18175">
        <ele>2485</ele>
        <time>2013-07-01T04:01:11Z</time>
      </trkpt>
      <trkpt lat="45.21248" lon="6.18174">
        <ele>2486</ele>
        <time>2013-07-01T04:01:16Z</time>
      </trkpt>
      <trkpt lat="45.21246" lon="6.18171">
        <ele>2487</ele>
        <time>2013-07-01T04:01:21Z</time>
      </trkpt>
      <trkpt lat="45.21244" lon="6.18168">
        <ele>2488</ele>
        <time>2013-07-01T04:01:26Z</time>
      </trkpt>
      <trkpt lat="45.21243" lon="6.18164">
        <ele>2488</ele>
        <time>2013-07-01T04:01:31Z</time>
      </trkpt>
      <trkpt lat="45.21241" lon="6.18161">
        <ele>2489</ele>
        <time>2013-07-01T04:01:36Z</time>
      </trkpt>
      <trkpt lat="45.2124" lon="6.18159">
        <ele>2490</ele>
        <time>2013-07-01T04:01:41Z</time>
      </trkpt>
      <trkpt lat="45.21238" lon="6.18156">
        <ele>2491</ele>
        <time>2013-07-01T04:01:46Z</time>
      </trkpt>
      <trkpt lat="45.21237" lon="6.18153">
        <ele>2491</ele>
        <time>2013-07-01T04:01:51Z</time>
      </trkpt>
      <trkpt lat="45.21235" lon="6.1815">
        <ele>2492</ele>
        <time>2013-07-01T04:01:56Z</time>
      </trkpt>
      <trkpt lat="45.21233" lon="6.18147">
        <ele>2493</ele>
        <time>2013-07-01T04:02:01Z</time>
      </trkpt>
      <trkpt lat="45.21232" lon="6.18145">
        <ele>2494</ele>
        <time>2013-07-01T04:02:06Z</time>
      </trkpt>
      <trkpt lat="45.21229" lon="6.18144">
        <ele>2495</ele>
        <time>2013-07-01T04:02:11Z</time>
      </trkpt>
      <trkpt lat="45.21227" lon="6.18143">
        <ele>2495</ele>
        <time>2013-07-01T04:02:16Z</time>
      </trkpt>
      <trkpt lat="45.21225" lon="6.18141">
        <ele>2496</ele>
        <time>2013-07-01T04:02:21Z</time>
      </trkpt>
      <trkpt lat="45.21224" lon="6.18138">
        <ele>2497</ele>
        <time>2013-07-01T04:02:26Z</time>
      </trkpt>
      <trkpt lat="45.21222" lon="6.18135">
        <ele>2498</ele>
        <time>2013-07-01T04:02:31Z</time>
      </trkpt>
      <trkpt lat="45.2122" lon="6.18133">
        <ele>2499</ele>
        <time>2013-07-01T04:02:36Z</time>
      </trkpt>
      <trkpt lat="45.21217" lon="6.18131">
        <ele>2499</ele>
        <time>2013-07-01T04:02:41Z</time>
      </trkpt>
      <trkpt lat="45.21216" lon="6.18129">
        <ele>2500</ele>
        <time>2013-07-01T04:02:46Z</time>
      </trkpt>
      <trkpt lat="45.21214" lon="6.18128">
        <ele>2501</ele>
        <time>2013-07-01T04:02:51Z</time>
      </trkpt>
      <trkpt lat="45.21211" lon="6.18126">
        <ele>2502</ele>
        <time>2013-07-01T04:02:56Z</time>
      </trkpt>
      <trkpt lat="45.21209" lon="6.18123">
        <ele>2503</ele>
        <time>2013-07-01T04:03:01Z</time>
      </trkpt>
      <trkpt lat="45.21207" lon="6.18121">
        <ele>2504</ele>
        <time>2013-07-01T04:03:06Z</time>
      </trkpt>
      <trkpt lat="45.21206" lon="6.18119">
        <ele>2504</ele>
        <time>2013-07-01T04:03:11Z</time>
      </trkpt>
      <trkpt lat="45.21204" lon="6.18117">
        <ele>2505</ele>
        <time>2013-07-01T04:03:16Z</time>
      </trkpt>
      <trkpt lat="45.21202" lon="6.18114">
        <ele>2506</ele>
        <time>2013-07-01T04:03:21Z</time>
      </trkpt>
      <trkpt lat="45.212" lon="6.18112">
        <ele>2507</ele>
        <time>2013-07-01T04:03:26Z</time>
      </trkpt>
      <trkpt lat="45.21198" lon="6.18109">
        <ele>2507</ele>
        <time>2013-07-01T04:03:31Z</time>
      </trkpt>
      <trkpt lat="45.21196" lon="6.18106">
        <ele>2508</ele>
        <time>2013-07-01T04:03:36Z</time>
      </trkpt>
      <trkpt lat="45.21195" lon="6.18103">
        <ele>2509</ele>
        <time>2013-07-01T04:03:41Z</time>
      </trkpt>
      <trkpt lat="45.21193" lon="6.181">
        <ele>2510</ele>
        <time>2013-07-01T04:03:46Z</time>
      </trkpt>
      <trkpt lat="45.21191" lon="6.18099">
        <ele>2510</ele>
        <time>2013-07-01T04:03:51Z</time>
      </trkpt>
      <trkpt lat="45.2119" lon="6.18096">
        <ele>2511</ele>
        <time>2013-07-01T04:03:56Z</time>
      </trkpt>
      <trkpt lat="45.21188" lon="6.18092">
        <ele>2512</ele>
        <time>2013-07-01T04:04:01Z</time>
      </trkpt>
      <trkpt lat="45.21187" lon="6.18089">
        <ele>2512</ele>
        <time>2013-07-01T04:04:06Z</time>
      </trkpt>
      <trkpt lat="45.21185" lon="6.18086">
        <ele>2513</ele>
        <time>2013-07-01T04:04:11Z</time>
      </trkpt>
      <trkpt lat="45.21183" lon="6.18085">
        <ele>2514</ele>
        <time>2013-07-01T04:04:16Z</time>
      </trkpt>
      <trkpt lat="45.21181" lon="6.18083">
        <ele>2514</ele>
        <time>2013-07-01T04:04:21Z</time>
      </trkpt>
      <trkpt lat="45.21179" lon="6.18081">
        <ele>2515</ele>
        <time>2013-07-01T04:04:26Z</time>
      </trkpt>
      <trkpt lat="45.21177" lon="6.18078">
        <ele>2516</ele>
        <time>2013-07-01T04:04:31Z</time>
      </trkpt>
      <trkpt lat="45.21175" lon="6.18075">
        <ele>2517</ele>
        <time>2013-07-01T04:04:36Z</time>
      </trkpt>
      <trkpt lat="45.21173" lon="6.18074">
        <ele>2518</ele>
        <time>2013-07-01T04:04:41Z</time>
      </trkpt>
      <trkpt lat="45.21171" lon="6.18072">
        <ele>2518</ele>
        <time>2013-07-01T04:04:46Z</time>
      </trkpt>
      <trkpt lat="45.21169" lon="6.18069">
        <ele>2519</ele>
        <time>2013-07-01T04:04:51Z</time>
      </trkpt>
      <trkpt lat="45.21166" lon="6.18069">
        <ele>2520</ele>
        <time>2013-07-01T04:04:56Z</time>
      </trkpt>
      <trkpt lat="45.21164" lon="6.18067">
        <ele>2521</ele>
        <time>2013-07-01T04:05:01Z</time>
      </trkpt>
      <trkpt lat="45.21163" lon="6.18064">
        <ele>2521</ele>
        <time>2013-07-01T04:05:06Z</time>
      </trkpt>
      <trkpt lat="45.21161" lon="6.18061">
        <ele>2522</ele>
        <time>2013-07-01T04:05:11Z</time>
      </trkpt>
      <trkpt lat="45.21159" lon="6.18059">
        <ele>2522</ele>
        <time>2013-07-01T04:05:16Z</time>
      </trkpt>
      <trkpt lat="45.21156" lon="6.18058">
        <ele>2523</ele>
        <time>2013-07-01T04:05:21Z</time>
      </trkpt>
      <trkpt lat="45.21154" lon="6.18057">
        <ele>2524</ele>
        <time>2013-07-01T04:05:26Z</time>
      </trkpt>
      <trkpt lat="45.21152" lon="6.18055">
        <ele>2524</ele>
        <time>2013-07-01T04:05:31Z</time>
      </trkpt>
      <trkpt lat="45.2115" lon="6.18052">
        <ele>2525</ele>
        <time>2013-07-01T04:05:36Z</time>
      </trkpt>
      <trkpt lat="45.21148" lon="6.18049">
        <ele>2526</ele>
        <time>2013-07-01T04:05:41Z</time>
      </trkpt>
      <trkpt lat="45.21145" lon="6.18047">
        <ele>2527</ele>
        <time>2013-07-01T04:05:46Z</time>
      </trkpt>
      <trkpt lat="45.21143" lon="6.18044">
        <ele>2527</ele>
        <time>2013-07-01T04:05:51Z</time>
      </trkpt>
      <trkpt lat="45.2114" lon="6.18041">
        <ele>2528</ele>
        <time>2013-07-01T04:05:56Z</time>
      </trkpt>
      <trkpt lat="45.21138" lon="6.18039">
        <ele>2529</ele>
        <time>2013-07-01T04:06:01Z</time>
      </trkpt>
      <trkpt lat="45.21135" lon="6.18037">
        <ele>2530</ele>
        <time>2013-07-01T04:06:06Z</time>
      </trkpt>
      <trkpt lat="45.21132" lon="6.18036">
        <ele>2531</ele>
        <time>2013-07-01T04:06:11Z</time>
      </trkpt>
      <trkpt lat="45.2113" lon="6.18033">
        <ele>2531</ele>
        <time>2013-07-01T04:06:16Z</time>
      </trkpt>
      <trkpt lat="45.21127" lon="6.18031">
        <ele>2532</ele>
        <time>2013-07-01T04:06:21Z</time>
      </trkpt>
      <trkpt lat="45.21124" lon="6.18028">
        <ele>2532</ele>
        <time>2013-07-01T04:06:26Z</time>
      </trkpt>
      <trkpt lat="45.21121" lon="6.18026">
        <ele>2533</ele>
        <time>2013-07-01T04:06:31Z</time>
      </trkpt>
      <trkpt lat="45.21118" lon="6.18024">
        <ele>2533</ele>
        <time>2013-07-01T04:06:36Z</time>
      </trkpt>
      <trkpt lat="45.21115" lon="6.18022">
        <ele>2534</ele>
        <time>2013-07-01T04:06:41Z</time>
      </trkpt>
      <trkpt lat="45.21114" lon="6.18021">
        <ele>2534</ele>
        <time>2013-07-01T04:06:46Z</time>
      </trkpt>
      <trkpt lat="45.21111" lon="6.1802">
        <ele>2534</ele>
        <time>2013-07-01T04:06:51Z</time>
      </trkpt>
      <trkpt lat="45.21108" lon="6.18018">
        <ele>2535</ele>
        <time>2013-07-01T04:06:56Z</time>
      </trkpt>
      <trkpt lat="45.21104" lon="6.18016">
        <ele>2536</ele>
        <time>2013-07-01T04:07:01Z</time>
      </trkpt>
      <trkpt lat="45.211" lon="6.18014">
        <ele>2536</ele>
        <time>2013-07-01T04:07:06Z</time>
      </trkpt>
      <trkpt lat="45.21097" lon="6.18011">
        <ele>2537</ele>
        <time>2013-07-01T04:07:11Z</time>
      </trkpt>
      <trkpt lat="45.21093" lon="6.1801">
        <ele>2537</ele>
        <time>2013-07-01T04:07:16Z</time>
      </trkpt>
      <trkpt lat="45.21089" lon="6.18008">
        <ele>2537</ele>
        <time>2013-07-01T04:07:21Z</time>
      </trkpt>
      <trkpt lat="45.21085" lon="6.18006">
        <ele>2538</ele>
        <time>2013-07-01T04:07:26Z</time>
      </trkpt>
      <trkpt lat="45.2108" lon="6.18003">
        <ele>2538</ele>
        <time>2013-07-01T04:07:31Z</time>
      </trkpt>
      <trkpt lat="45.21077" lon="6.18001">
        <ele>2539</ele>
        <time>2013-07-01T04:07:36Z</time>
      </trkpt>
      <trkpt lat="45.21076" lon="6.18">
        <ele>2539</ele>
        <time>2013-07-01T04:07:41Z</time>
      </trkpt>
      <trkpt lat="45.21076" lon="6.18">
        <ele>2539</ele>
        <time>2013-07-01T04:07:46Z</time>
      </trkpt>
      <trkpt lat="45.21076" lon="6.18">
        <ele>2539</ele>
        <time>2013-07-01T04:07:51Z</time>
      </trkpt>
      <trkpt lat="45.21076" lon="6.18">
        <ele>2538</ele>
        <time>2013-07-01T04:07:56Z</time>
      </trkpt>
      <trkpt lat="45.21076" lon="6.18">
        <ele>2538</ele>
        <time>2013-07-01T04:08:01Z</time>
      </trkpt>
      <trkpt lat="45.21076" lon="6.18">
        <ele>2538</ele>
        <time>2013-07-01T04:08:06Z</time>
      </trkpt>
      <trkpt lat="45.21076" lon="6.18">
        <ele>2538</ele>
        <time>2013-07-01T04:08:11Z</time>
      </trkpt>
      <trkpt lat="45.21076" lon="6.18">
        <ele>2538</ele>
        <time>2013-07-01T04:08:16Z</time>
      </trkpt>
      <trkpt lat="45.21075" lon="6.18">
        <ele>2538</ele>
        <time>2013-07-01T04:08:21Z</time>
      </trkpt>
      <trkpt lat="45.21075" lon="6.18">
        <ele>2538</ele>
        <time>2013-07-01T04:08:26Z</time>
      </trkpt>
      <trkpt lat="45.21076" lon="6.18">
        <ele>2538</ele>
        <time>2013-07-01T04:08:31Z</time>
      </trkpt>
      <trkpt lat="45.21076" lon="6.18">
        <ele>2538</ele>
        <time>2013-07-01T04:08:36Z</time>
      </trkpt>
      <trkpt lat="45.21075" lon="6.17999">
        <ele>2538</ele>
        <time>2013-07-01T04:08:41Z</time>
      </trkpt>
      <trkpt lat="45.21075" lon="6.17998">
        <ele>2538</ele>
        <time>2013-07-01T04:08:46Z</time>
      </trkpt>
      <trkpt lat="45.21075" lon="6.17998">
        <ele>2538</ele>
        <time>2013-07-01T04:08:51Z</time>
      </trkpt>
      <trkpt lat="45.21075" lon="6.17998">
        <ele>2538</ele>
        <time>2013-07-01T04:08:56Z</time>
      </trkpt>
      <trkpt lat="45.21075" lon="6.17998">
        <ele>2538</ele>
        <time>2013-07-01T04:09:01Z</time>
      </trkpt>
      <trkpt lat="45.21075" lon="6.17998">
        <ele>2539</ele>
        <time>2013-07-01T04:09:06Z</time>
      </trkpt>
      <trkpt lat="45.21075" lon="6.17998">
        <ele>2539</ele>
        <time>2013-07-01T04:09:11Z</time>
      </trkpt>
      <trkpt lat="45.21075" lon="6.17998">
        <ele>2539</ele>
        <time>2013-07-01T04:09:16Z</time>
      </trkpt>
      <trkpt lat="45.21076" lon="6.17999">
        <ele>2539</ele>
        <time>2013-07-01T04:09:21Z</time>
      </trkpt>
      <trkpt lat="45.21076" lon="6.17999">
        <ele>2539</ele>
        <time>2013-07-01T04:09:26Z</time>
      </trkpt>
      <trkpt lat="45.21073" lon="6.17998">
        <ele>2539</ele>
        <time>2013-07-01T04:09:31Z</time>
      </trkpt>
      <trkpt lat="45.21069" lon="6.17996">
        <ele>2539</ele>
        <time>2013-07-01T04:09:36Z</time>
      </trkpt>
      <trkpt lat="45.21064" lon="6.17993">
        <ele>2540</ele>
        <time>2013-07-01T04:09:41Z</time>
      </trkpt>
      <trkpt lat="45.21059" lon="6.1799">
        <ele>2540</ele>
        <time>2013-07-01T04:09:46Z</time>
      </trkpt>
      <trkpt lat="45.21055" lon="6.17988">
        <ele>2540</ele>
        <time>2013-07-01T04:09:51Z</time>
      </trkpt>
      <trkpt lat="45.21051" lon="6.17985">
        <ele>2540</ele>
        <time>2013-07-01T04:09:56Z</time>
      </trkpt>
      <trkpt lat="45.21048" lon="6.17985">
        <ele>2540</ele>
        <time>2013-07-01T04:10:01Z</time>
      </trkpt>
      <trkpt lat="45.21048" lon="6.17986">
        <ele>2540</ele>
        <time>2013-07-01T04:10:06Z</time>
      </trkpt>
      <trkpt lat="45.21048" lon="6.17986">
        <ele>2540</ele>
        <time>2013-07-01T04:10:11Z</time>
      </trkpt>
      <trkpt lat="45.21048" lon="6.17986">
        <ele>2540</ele>
        <time>2013-07-01T04:10:16Z</time>
      </trkpt>
      <trkpt lat="45.21048" lon="6.17986">
        <ele>2540</ele>
        <time>2013-07-01T04:10:21Z</time>
      </trkpt>
      <trkpt lat="45.21048" lon="6.17986">
        <ele>2540</ele>
        <time>2013-07-01T04:10:26Z</time>
      </trkpt>
      <trkpt lat="45.21048" lon="6.17986">
        <ele>2540</ele>
        <time>2013-07-01T04:10:31Z</time>
      </trkpt>
      <trkpt lat="45.21048" lon="6.17986">
        <ele>2540</ele>
        <time>2013-07-01T04:10:36Z</time>
      </trkpt>
      <trkpt lat="45.21048" lon="6.17986">
        <ele>2540</ele>
        <time>2013-07-01T04:10:41Z</time>
      </trkpt>
      <trkpt lat="45.21048" lon="6.17986">
        <ele>2540</ele>
        <time>2013-07-01T04:10:46Z</time>
      </trkpt>
      <trkpt lat="45.21048" lon="6.17986">
        <ele>2540</ele>
        <time>2013-07-01T04:10:51Z</time>
      </trkpt>
      <trkpt lat="45.21048" lon="6.17986">
        <ele>2540</ele>
        <time>2013-07-01T04:10:56Z</time>
      </trkpt>
      <trkpt lat="45.21048" lon="6.17986">
        <ele>2540</ele>
        <time>2013-07-01T04:11:01Z</time>
      </trkpt>
      <trkpt lat="45.21045" lon="6.17986">
        <ele>2540</ele>
        <time>2013-07-01T04:11:06Z</time>
      </trkpt>
      <trkpt lat="45.2104" lon="6.17986">
        <ele>2540</ele>
        <time>2013-07-01T04:11:11Z</time>
      </trkpt>
      <trkpt lat="45.21034" lon="6.17985">
        <ele>2540</ele>
        <time>2013-07-01T04:11:16Z</time>
      </trkpt>
      <trkpt lat="45.21027" lon="6.17984">
        <ele>2540</ele>
        <time>2013-07-01T04:11:21Z</time>
      </trkpt>
      <trkpt lat="45.21021" lon="6.17983">
        <ele>2540</ele>
        <time>2013-07-01T04:11:26Z</time>
      </trkpt>
      <trkpt lat="45.21014" lon="6.17982">
        <ele>2540</ele>
        <time>2013-07-01T04:11:31Z</time>
      </trkpt>
      <trkpt lat="45.21007" lon="6.17981">
        <ele>2539</ele>
        <time>2013-07-01T04:11:36Z</time>
      </trkpt>
      <trkpt lat="45.21" lon="6.17979">
        <ele>2539</ele>
        <time>2013-07-01T04:11:41Z</time>
      </trkpt>
      <trkpt lat="45.20993" lon="6.17978">
        <ele>2539</ele>
        <time>2013-07-01T04:11:46Z</time>
      </trkpt>
      <trkpt lat="45.20986" lon="6.17976">
        <ele>2538</ele>
        <time>2013-07-01T04:11:51Z</time>
      </trkpt>
      <trkpt lat="45.20981" lon="6.17974">
        <ele>2538</ele>
        <time>2013-07-01T04:11:56Z</time>
      </trkpt>
      <trkpt lat="45.2098" lon="6.17974">
        <ele>2538</ele>
        <time>2013-07-01T04:12:01Z</time>
      </trkpt>
      <trkpt lat="45.20979" lon="6.17973">
        <ele>2538</ele>
        <time>2013-07-01T04:12:06Z</time>
      </trkpt>
      <trkpt lat="45.20973" lon="6.17973">
        <ele>2538</ele>
        <time>2013-07-01T04:12:11Z</time>
      </trkpt>
      <trkpt lat="45.20969" lon="6.17971">
        <ele>2538</ele>
        <time>2013-07-01T04:12:16Z</time>
      </trkpt>
      <trkpt lat="45.20964" lon="6.17969">
        <ele>2538</ele>
        <time>2013-07-01T04:12:21Z</time>
      </trkpt>
      <trkpt lat="45.2096" lon="6.17967">
        <ele>2538</ele>
        <time>2013-07-01T04:12:26Z</time>
      </trkpt>
      <trkpt lat="45.20959" lon="6.17966">
        <ele>2538</ele>
        <time>2013-07-01T04:12:31Z</time>
      </trkpt>
      <trkpt lat="45.20959" lon="6.17966">
        <ele>2538</ele>
        <time>2013-07-01T04:12:36Z</time>
      </trkpt>
      <trkpt lat="45.20957" lon="6.17964">
        <ele>2538</ele>
        <time>2013-07-01T04:12:41Z</time>
      </trkpt>
      <trkpt lat="45.20956" lon="6.17963">
        <ele>2538</ele>
        <time>2013-07-01T04:12:46Z</time>
      </trkpt>
      <trkpt lat="45.20956" lon="6.17963">
        <ele>2538</ele>
        <time>2013-07-01T04:12:51Z</time>
      </trkpt>
      <trkpt lat="45.20956" lon="6.17963">
        <ele>2538</ele>
        <time>2013-07-01T04:12:56Z</time>
      </trkpt>
      <trkpt lat="45.20955" lon="6.17962">
        <ele>2537</ele>
        <time>2013-07-01T04:13:01Z</time>
      </trkpt>
      <trkpt lat="45.2095" lon="6.17957">
        <ele>2537</ele>
        <time>2013-07-01T04:13:06Z</time>
      </trkpt>
      <trkpt lat="45.20944" lon="6.17953">
        <ele>2537</ele>
        <time>2013-07-01T04:13:11Z</time>
      </trkpt>
      <trkpt lat="45.20937" lon="6.17951">
        <ele>2536</ele>
        <time>2013-07-01T04:13:16Z</time>
      </trkpt>
      <trkpt lat="45.20932" lon="6.1795">
        <ele>2537</ele>
        <time>2013-07-01T04:13:21Z</time>
      </trkpt>
      <trkpt lat="45.20926" lon="6.1795">
        <ele>2537</ele>
        <time>2013-07-01T04:13:26Z</time>
      </trkpt>
      <trkpt lat="45.2092" lon="6.17948">
        <ele>2537</ele>
        <time>2013-07-01T04:13:31Z</time>
      </trkpt>
      <trkpt lat="45.20914" lon="6.17947">
        <ele>2536</ele>
        <time>2013-07-01T04:13:36Z</time>
      </trkpt>
      <trkpt lat="45.20907" lon="6.17945">
        <ele>2536</ele>
        <time>2013-07-01T04:13:41Z</time>
      </trkpt>
      <trkpt lat="45.209" lon="6.17943">
        <ele>2535</ele>
        <time>2013-07-01T04:13:46Z</time>
      </trkpt>
      <trkpt lat="45.20894" lon="6.17941">
        <ele>2535</ele>
        <time>2013-07-01T04:13:51Z</time>
      </trkpt>
      <trkpt lat="45.20887" lon="6.17939">
        <ele>2534</ele>
        <time>2013-07-01T04:13:56Z</time>
      </trkpt>
      <trkpt lat="45.20881" lon="6.17937">
        <ele>2534</ele>
        <time>2013-07-01T04:14:01Z</time>
      </trkpt>
      <trkpt lat="45.20878" lon="6.17936">
        <ele>2534</ele>
        <time>2013-07-01T04:14:06Z</time>
      </trkpt>
      <trkpt lat="45.20871" lon="6.17933">
        <ele>2534</ele>
        <time>2013-07-01T04:14:11Z</time>
      </trkpt>
      <trkpt lat="45.20866" lon="6.17928">
        <ele>2534</ele>
        <time>2013-07-01T04:14:16Z</time>
      </trkpt>
      <trkpt lat="45.2086" lon="6.17925">
        <ele>2533</ele>
        <time>2013-07-01T04:14:21Z</time>
      </trkpt>
      <trkpt lat="45.20854" lon="6.17924">
        <ele>2533</ele>
        <time>2013-07-01T04:14:26Z</time>
      </trkpt>
      <trkpt lat="45.20848" lon="6.17923">
        <ele>2533</ele>
        <time>2013-07-01T04:14:31Z</time>
      </trkpt>
      <trkpt lat="45.20843" lon="6.17924">
        <ele>2533</ele>
        <time>2013-07-01T04:14:36Z</time>
      </trkpt>
      <trkpt lat="45.20839" lon="6.17927">
        <ele>2533</ele>
        <time>2013-07-01T04:14:41Z</time>
      </trkpt>
      <trkpt lat="45.20837" lon="6.17927">
        <ele>2533</ele>
        <time>2013-07-01T04:14:46Z</time>
      </trkpt>
      <trkpt lat="45.20837" lon="6.17928">
        <ele>2533</ele>
        <time>2013-07-01T04:14:51Z</time>
      </trkpt>
      <trkpt lat="45.20837" lon="6.17927">
        <ele>2533</ele>
        <time>2013-07-01T04:14:56Z</time>
      </trkpt>
      <trkpt lat="45.20837" lon="6.17927">
        <ele>2533</ele>
        <time>2013-07-01T04:15:01Z</time>
      </trkpt>
      <trkpt lat="45.20838" lon="6.17927">
        <ele>2533</ele>
        <time>2013-07-01T04:15:06Z</time>
      </trkpt>
      <trkpt lat="45.20838" lon="6.17927">
        <ele>2533</ele>
        <time>2013-07-01T04:15:11Z</time>
      </trkpt>
      <trkpt lat="45.20838" lon="6.17927">
        <ele>2533</ele>
        <time>2013-07-01T04:15:16Z</time>
      </trkpt>
      <trkpt lat="45.20837" lon="6.17927">
        <ele>2533</ele>
        <time>2013-07-01T04:15:21Z</time>
      </trkpt>
      <trkpt lat="45.20838" lon="6.17927">
        <ele>2534</ele>
        <time>2013-07-01T04:15:26Z</time>
      </trkpt>
      <trkpt lat="45.20838" lon="6.17927">
        <ele>2533</ele>
        <time>2013-07-01T04:15:31Z</time>
      </trkpt>
      <trkpt lat="45.20838" lon="6.17927">
        <ele>2534</ele>
        <time>2013-07-01T04:15:36Z</time>
      </trkpt>
      <trkpt lat="45.20838" lon="6.17927">
        <ele>2534</ele>
        <time>2013-07-01T04:15:41Z</time>
      </trkpt>
      <trkpt lat="45.20836" lon="6.17928">
        <ele>2534</ele>
        <time>2013-07-01T04:15:46Z</time>
      </trkpt>
      <trkpt lat="45.20835" lon="6.17927">
        <ele>2533</ele>
        <time>2013-07-01T04:15:51Z</time>
      </trkpt>
      <trkpt lat="45.20829" lon="6.17928">
        <ele>2533</ele>
        <time>2013-07-01T04:15:56Z</time>
      </trkpt>
      <trkpt lat="45.20825" lon="6.17929">
        <ele>2534</ele>
        <time>2013-07-01T04:16:01Z</time>
      </trkpt>
      <trkpt lat="45.2082" lon="6.17931">
        <ele>2534</ele>
        <time>2013-07-01T04:16:06Z</time>
      </trkpt>
      <trkpt lat="45.20817" lon="6.17932">
        <ele>2535</ele>
        <time>2013-07-01T04:16:11Z</time>
      </trkpt>
      <trkpt lat="45.20817" lon="6.17932">
        <ele>2535</ele>
        <time>2013-07-01T04:16:16Z</time>
      </trkpt>
      <trkpt lat="45.20817" lon="6.17932">
        <ele>2534</ele>
        <time>2013-07-01T04:16:21Z</time>
      </trkpt>
      <trkpt lat="45.20816" lon="6.17933">
        <ele>2534</ele>
        <time>2013-07-01T04:16:26Z</time>
      </trkpt>
      <trkpt lat="45.20816" lon="6.17932">
        <ele>2534</ele>
        <time>2013-07-01T04:16:31Z</time>
      </trkpt>
      <trkpt lat="45.20812" lon="6.17931">
        <ele>2534</ele>
        <time>2013-07-01T04:16:36Z</time>
      </trkpt>
      <trkpt lat="45.20807" lon="6.17934">
        <ele>2535</ele>
        <time>2013-07-01T04:16:41Z</time>
      </trkpt>
      <trkpt lat="45.20802" lon="6.17937">
        <ele>2534</ele>
        <time>2013-07-01T04:16:46Z</time>
      </trkpt>
      <trkpt lat="45.20797" lon="6.17939">
        <ele>2535</ele>
        <time>2013-07-01T04:16:51Z</time>
      </trkpt>
      <trkpt lat="45.20791" lon="6.17942">
        <ele>2535</ele>
        <time>2013-07-01T04:16:56Z</time>
      </trkpt>
      <trkpt lat="45.20786" lon="6.17945">
        <ele>2535</ele>
        <time>2013-07-01T04:17:01Z</time>
      </trkpt>
      <trkpt lat="45.2078" lon="6.17946">
        <ele>2536</ele>
        <time>2013-07-01T04:17:06Z</time>
      </trkpt>
      <trkpt lat="45.20774" lon="6.17948">
        <ele>2536</ele>
        <time>2013-07-01T04:17:11Z</time>
      </trkpt>
      <trkpt lat="45.20769" lon="6.1795">
        <ele>2537</ele>
        <time>2013-07-01T04:17:16Z</time>
      </trkpt>
      <trkpt lat="45.20767" lon="6.17952">
        <ele>2538</ele>
        <time>2013-07-01T04:17:21Z</time>
      </trkpt>
      <trkpt lat="45.20767" lon="6.17952">
        <ele>2538</ele>
        <time>2013-07-01T04:17:26Z</time>
      </trkpt>
      <trkpt lat="45.20767" lon="6.17952">
        <ele>2538</ele>
        <time>2013-07-01T04:17:31Z</time>
      </trkpt>
      <trkpt lat="45.20767" lon="6.17952">
        <ele>2539</ele>
        <time>2013-07-01T04:17:36Z</time>
      </trkpt>
      <trkpt lat="45.20766" lon="6.17953">
        <ele>2539</ele>
        <time>2013-07-01T04:17:41Z</time>
      </trkpt>
      <trkpt lat="45.20764" lon="6.17953">
        <ele>2539</ele>
        <time>2013-07-01T04:17:46Z</time>
      </trkpt>
      <trkpt lat="45.20759" lon="6.17953">
        <ele>2539</ele>
        <time>2013-07-01T04:17:51Z</time>
      </trkpt>
      <trkpt lat="45.20752" lon="6.17951">
        <ele>2538</ele>
        <time>2013-07-01T04:17:56Z</time>
      </trkpt>
      <trkpt lat="45.20746" lon="6.17949">
        <ele>2537</ele>
        <time>2013-07-01T04:18:01Z</time>
      </trkpt>
      <trkpt lat="45.20738" lon="6.17946">
        <ele>2536</ele>
        <time>2013-07-01T04:18:06Z</time>
      </trkpt>
      <trkpt lat="45.20732" lon="6.17945">
        <ele>2536</ele>
        <time>2013-07-01T04:18:11Z</time>
      </trkpt>
      <trkpt lat="45.20725" lon="6.17944">
        <ele>2536</ele>
        <time>2013-07-01T04:18:16Z</time>
      </trkpt>
      <trkpt lat="45.20719" lon="6.17942">
        <ele>2535</ele>
        <time>2013-07-01T04:18:21Z</time>
      </trkpt>
      <trkpt lat="45.20712" lon="6.1794">
        <ele>2535</ele>
        <time>2013-07-01T04:18:26Z</time>
      </trkpt>
      <trkpt lat="45.20705" lon="6.17936">
        <ele>2534</ele>
        <time>2013-07-01T04:18:31Z</time>
      </trkpt>
      <trkpt lat="45.20699" lon="6.17934">
        <ele>2533</ele>
        <time>2013-07-01T04:18:36Z</time>
      </trkpt>
      <trkpt lat="45.20692" lon="6.17933">
        <ele>2533</ele>
        <time>2013-07-01T04:18:41Z</time>
      </trkpt>
      <trkpt lat="45.20686" lon="6.17932">
        <ele>2533</ele>
        <time>2013-07-01T04:18:46Z</time>
      </trkpt>
      <trkpt lat="45.20679" lon="6.17932">
        <ele>2532</ele>
        <time>2013-07-01T04:18:51Z</time>
      </trkpt>
      <trkpt lat="45.20673" lon="6.17933">
        <ele>2532</ele>
        <time>2013-07-01T04:18:56Z</time>
      </trkpt>
      <trkpt lat="45.20668" lon="6.1793">
        <ele>2531</ele>
        <time>2013-07-01T04:19:01Z</time>
      </trkpt>
      <trkpt lat="45.20662" lon="6.17926">
        <ele>2529</ele>
        <time>2013-07-01T04:19:06Z</time>
      </trkpt>
      <trkpt lat="45.20655" lon="6.17924">
        <ele>2528</ele>
        <time>2013-07-01T04:19:11Z</time>
      </trkpt>
      <trkpt lat="45.20648" lon="6.17922">
        <ele>2527</ele>
        <time>2013-07-01T04:19:16Z</time>
      </trkpt>
      <trkpt lat="45.20642" lon="6.17919">
        <ele>2527</ele>
        <time>2013-07-01T04:19:21Z</time>
      </trkpt>
      <trkpt lat="45.20637" lon="6.17917">
        <ele>2527</ele>
        <time>2013-07-01T04:19:26Z</time>
      </trkpt>
      <trkpt lat="45.20632" lon="6.17914">
        <ele>2527</ele>
        <time>2013-07-01T04:19:31Z</time>
      </trkpt>
      <trkpt lat="45.20627" lon="6.1791">
        <ele>2527</ele>
        <time>2013-07-01T04:19:36Z</time>
      </trkpt>
      <trkpt lat="45.20621" lon="6.17906">
        <ele>2527</ele>
        <time>2013-07-01T04:19:41Z</time>
      </trkpt>
      <trkpt lat="45.20616" lon="6.17903">
        <ele>2526</ele>
        <time>2013-07-01T04:19:46Z</time>
      </trkpt>
      <trkpt lat="45.20612" lon="6.17901">
        <ele>2526</ele>
        <time>2013-07-01T04:19:51Z</time>
      </trkpt>
      <trkpt lat="45.20611" lon="6.179">
        <ele>2526</ele>
        <time>2013-07-01T04:19:56Z</time>
      </trkpt>
      <trkpt lat="45.20611" lon="6.179">
        <ele>2526</ele>
        <time>2013-07-01T04:20:01Z</time>
      </trkpt>
      <trkpt lat="45.20611" lon="6.17899">
        <ele>2525</ele>
        <time>2013-07-01T04:20:06Z</time>
      </trkpt>
      <trkpt lat="45.20611" lon="6.17899">
        <ele>2525</ele>
        <time>2013-07-01T04:20:11Z</time>
      </trkpt>
      <trkpt lat="45.20611" lon="6.17899">
        <ele>2526</ele>
        <time>2013-07-01T04:20:16Z</time>
      </trkpt>
      <trkpt lat="45.20611" lon="6.17899">
        <ele>2526</ele>
        <time>2013-07-01T04:20:21Z</time>
      </trkpt>
      <trkpt lat="45.2061" lon="6.17899">
        <ele>2526</ele>
        <time>2013-07-01T04:20:26Z</time>
      </trkpt>
      <trkpt lat="45.20606" lon="6.17897">
        <ele>2526</ele>
        <time>2013-07-01T04:20:31Z</time>
      </trkpt>
      <trkpt lat="45.20601" lon="6.17898">
        <ele>2527</ele>
        <time>2013-07-01T04:20:36Z</time>
      </trkpt>
      <trkpt lat="45.20597" lon="6.17898">
        <ele>2528</ele>
        <time>2013-07-01T04:20:41Z</time>
      </trkpt>
      <trkpt lat="45.20592" lon="6.17899">
        <ele>2529</ele>
        <time>2013-07-01T04:20:46Z</time>
      </trkpt>
      <trkpt lat="45.20586" lon="6.17899">
        <ele>2529</ele>
        <time>2013-07-01T04:20:51Z</time>
      </trkpt>
      <trkpt lat="45.20581" lon="6.17899">
        <ele>2528</ele>
        <time>2013-07-01T04:20:56Z</time>
      </trkpt>
      <trkpt lat="45.20575" lon="6.179">
        <ele>2528</ele>
        <time>2013-07-01T04:21:01Z</time>
      </trkpt>
      <trkpt lat="45.20571" lon="6.17903">
        <ele>2528</ele>
        <time>2013-07-01T04:21:06Z</time>
      </trkpt>
      <trkpt lat="45.20565" lon="6.17906">
        <ele>2528</ele>
        <time>2013-07-01T04:21:11Z</time>
      </trkpt>
      <trkpt lat="45.20561" lon="6.1791">
        <ele>2529</ele>
        <time>2013-07-01T04:21:16Z</time>
      </trkpt>
      <trkpt lat="45.20557" lon="6.17914">
        <ele>2530</ele>
        <time>2013-07-01T04:21:21Z</time>
      </trkpt>
      <trkpt lat="45.20554" lon="6.17919">
        <ele>2530</ele>
        <time>2013-07-01T04:21:26Z</time>
      </trkpt>
      <trkpt lat="45.20551" lon="6.17923">
        <ele>2531</ele>
        <time>2013-07-01T04:21:31Z</time>
      </trkpt>
      <trkpt lat="45.20545" lon="6.17923">
        <ele>2531</ele>
        <time>2013-07-01T04:21:36Z</time>
      </trkpt>
      <trkpt lat="45.20541" lon="6.17926">
        <ele>2532</ele>
        <time>2013-07-01T04:21:41Z</time>
      </trkpt>
      <trkpt lat="45.20536" lon="6.17929">
        <ele>2532</ele>
        <time>2013-07-01T04:21:46Z</time>
      </trkpt>
      <trkpt lat="45.20533" lon="6.17934">
        <ele>2533</ele>
        <time>2013-07-01T04:21:51Z</time>
      </trkpt>
      <trkpt lat="45.2053" lon="6.17939">
        <ele>2534</ele>
        <time>2013-07-01T04:21:56Z</time>
      </trkpt>
      <trkpt lat="45.20528" lon="6.17946">
        <ele>2535</ele>
        <time>2013-07-01T04:22:01Z</time>
      </trkpt>
      <trkpt lat="45.20527" lon="6.17952">
        <ele>2535</ele>
        <time>2013-07-01T04:22:06Z</time>
      </trkpt>
      <trkpt lat="45.20527" lon="6.17958">
        <ele>2535</ele>
        <time>2013-07-01T04:22:11Z</time>
      </trkpt>
      <trkpt lat="45.20522" lon="6.17961">
        <ele>2534</ele>
        <time>2013-07-01T04:22:16Z</time>
      </trkpt>
      <trkpt lat="45.20516" lon="6.17966">
        <ele>2532</ele>
        <time>2013-07-01T04:22:21Z</time>
      </trkpt>
      <trkpt lat="45.20511" lon="6.17971">
        <ele>2530</ele>
        <time>2013-07-01T04:22:26Z</time>
      </trkpt>
      <trkpt lat="45.20508" lon="6.17974">
        <ele>2529</ele>
        <time>2013-07-01T04:22:31Z</time>
      </trkpt>
      <trkpt lat="45.20507" lon="6.17974">
        <ele>2529</ele>
        <time>2013-07-01T04:22:36Z</time>
      </trkpt>
      <trkpt lat="45.20508" lon="6.17974">
        <ele>2529</ele>
        <time>2013-07-01T04:22:41Z</time>
      </trkpt>
      <trkpt lat="45.20508" lon="6.17974">
        <ele>2529</ele>
        <time>2013-07-01T04:22:46Z</time>
      </trkpt>
      <trkpt lat="45.20508" lon="6.17973">
        <ele>2529</ele>
        <time>2013-07-01T04:22:51Z</time>
      </trkpt>
      <trkpt lat="45.20508" lon="6.17973">
        <ele>2529</ele>
        <time>2013-07-01T04:22:56Z</time>
      </trkpt>
      <trkpt lat="45.20508" lon="6.17974">
        <ele>2529</ele>
        <time>2013-07-01T04:23:01Z</time>
      </trkpt>
      <trkpt lat="45.20508" lon="6.17973">
        <ele>2529</ele>
        <time>2013-07-01T04:23:06Z</time>
      </trkpt>
      <trkpt lat="45.20498" lon="6.17969">
        <ele>2526</ele>
        <time>2013-07-01T04:23:11Z</time>
      </trkpt>
      <trkpt lat="45.20485" lon="6.17961">
        <ele>2523</ele>
        <time>2013-07-01T04:23:16Z</time>
      </trkpt>
      <trkpt lat="45.20477" lon="6.17952">
        <ele>2521</ele>
        <time>2013-07-01T04:23:21Z</time>
      </trkpt>
      <trkpt lat="45.2047" lon="6.17944">
        <ele>2520</ele>
        <time>2013-07-01T04:23:26Z</time>
      </trkpt>
      <trkpt lat="45.20462" lon="6.17938">
        <ele>2518</ele>
        <time>2013-07-01T04:23:31Z</time>
      </trkpt>
      <trkpt lat="45.20451" lon="6.17932">
        <ele>2515</ele>
        <time>2013-07-01T04:23:36Z</time>
      </trkpt>
      <trkpt lat="45.20435" lon="6.17934">
        <ele>2512</ele>
        <time>2013-07-01T04:23:41Z</time>
      </trkpt>
      <trkpt lat="45.20428" lon="6.17936">
        <ele>2513</ele>
        <time>2013-07-01T04:23:46Z</time>
      </trkpt>
      <trkpt lat="45.20421" lon="6.17937">
        <ele>2512</ele>
        <time>2013-07-01T04:23:51Z</time>
      </trkpt>
      <trkpt lat="45.20414" lon="6.17936">
        <ele>2511</ele>
        <time>2013-07-01T04:23:56Z</time>
      </trkpt>
      <trkpt lat="45.20407" lon="6.17936">
        <ele>2511</ele>
        <time>2013-07-01T04:24:01Z</time>
      </trkpt>
      <trkpt lat="45.20401" lon="6.17935">
        <ele>2512</ele>
        <time>2013-07-01T04:24:06Z</time>
      </trkpt>
      <trkpt lat="45.20396" lon="6.17934">
        <ele>2512</ele>
        <time>2013-07-01T04:24:11Z</time>
      </trkpt>
      <trkpt lat="45.2039" lon="6.17933">
        <ele>2512</ele>
        <time>2013-07-01T04:24:16Z</time>
      </trkpt>
      <trkpt lat="45.20384" lon="6.1793">
        <ele>2512</ele>
        <time>2013-07-01T04:24:21Z</time>
      </trkpt>
      <trkpt lat="45.20379" lon="6.17928">
        <ele>2513</ele>
        <time>2013-07-01T04:24:26Z</time>
      </trkpt>
      <trkpt lat="45.20374" lon="6.17927">
        <ele>2513</ele>
        <time>2013-07-01T04:24:31Z</time>
      </trkpt>
      <trkpt lat="45.20368" lon="6.17925">
        <ele>2513</ele>
        <time>2013-07-01T04:24:36Z</time>
      </trkpt>
      <trkpt lat="45.20363" lon="6.17922">
        <ele>2513</ele>
        <time>2013-07-01T04:24:41Z</time>
      </trkpt>
      <trkpt lat="45.20357" lon="6.1792">
        <ele>2513</ele>
        <time>2013-07-01T04:24:46Z</time>
      </trkpt>
      <trkpt lat="45.20352" lon="6.17917">
        <ele>2513</ele>
        <time>2013-07-01T04:24:51Z</time>
      </trkpt>
      <trkpt lat="45.20346" lon="6.17914">
        <ele>2512</ele>
        <time>2013-07-01T04:24:56Z</time>
      </trkpt>
      <trkpt lat="45.20338" lon="6.1791">
        <ele>2512</ele>
        <time>2013-07-01T04:25:01Z</time>
      </trkpt>
      <trkpt lat="45.2033" lon="6.17909">
        <ele>2511</ele>
        <time>2013-07-01T04:25:06Z</time>
      </trkpt>
      <trkpt lat="45.20322" lon="6.1791">
        <ele>2510</ele>
        <time>2013-07-01T04:25:11Z</time>
      </trkpt>
      <trkpt lat="45.20313" lon="6.1791">
        <ele>2509</ele>
        <time>2013-07-01T04:25:16Z</time>
      </trkpt>
      <trkpt lat="45.20305" lon="6.17911">
        <ele>2508</ele>
        <time>2013-07-01T04:25:21Z</time>
      </trkpt>
      <trkpt lat="45.20298" lon="6.1791">
        <ele>2507</ele>
        <time>2013-07-01T04:25:26Z</time>
      </trkpt>
      <trkpt lat="45.20291" lon="6.17908">
        <ele>2506</ele>
        <time>2013-07-01T04:25:31Z</time>
      </trkpt>
      <trkpt lat="45.20284" lon="6.17909">
        <ele>2505</ele>
        <time>2013-07-01T04:25:36Z</time>
      </trkpt>
      <trkpt lat="45.20273" lon="6.17907">
        <ele>2503</ele>
        <time>2013-07-01T04:25:41Z</time>
      </trkpt>
      <trkpt lat="45.20266" lon="6.17907">
        <ele>2502</ele>
        <time>2013-07-01T04:25:46Z</time>
      </trkpt>
      <trkpt lat="45.20259" lon="6.17907">
        <ele>2502</ele>
        <time>2013-07-01T04:25:51Z</time>
      </trkpt>
      <trkpt lat="45.20253" lon="6.17908">
        <ele>2502</ele>
        <time>2013-07-01T04:25:56Z</time>
      </trkpt>
      <trkpt lat="45.20247" lon="6.17908">
        <ele>2503</ele>
        <time>2013-07-01T04:26:01Z</time>
      </trkpt>
      <trkpt lat="45.20239" lon="6.17906">
        <ele>2501</ele>
        <time>2013-07-01T04:26:06Z</time>
      </trkpt>
      <trkpt lat="45.20231" lon="6.17903">
        <ele>2500</ele>
        <time>2013-07-01T04:26:11Z</time>
      </trkpt>
      <trkpt lat="45.20225" lon="6.17904">
        <ele>2499</ele>
        <time>2013-07-01T04:26:16Z</time>
      </trkpt>
      <trkpt lat="45.2022" lon="6.17904">
        <ele>2498</ele>
        <time>2013-07-01T04:26:21Z</time>
      </trkpt>
      <trkpt lat="45.20215" lon="6.17904">
        <ele>2498</ele>
        <time>2013-07-01T04:26:26Z</time>
      </trkpt>
      <trkpt lat="45.20208" lon="6.17902">
        <ele>2496</ele>
        <time>2013-07-01T04:26:31Z</time>
      </trkpt>
      <trkpt lat="45.20202" lon="6.179">
        <ele>2494</ele>
        <time>2013-07-01T04:26:36Z</time>
      </trkpt>
      <trkpt lat="45.20202" lon="6.179">
        <ele>2494</ele>
        <time>2013-07-01T04:26:41Z</time>
      </trkpt>
      <trkpt lat="45.20202" lon="6.17899">
        <ele>2494</ele>
        <time>2013-07-01T04:26:46Z</time>
      </trkpt>
      <trkpt lat="45.202" lon="6.17899">
        <ele>2494</ele>
        <time>2013-07-01T04:26:51Z</time>
      </trkpt>
      <trkpt lat="45.20195" lon="6.17899">
        <ele>2494</ele>
        <time>2013-07-01T04:26:56Z</time>
      </trkpt>
      <trkpt lat="45.2019" lon="6.179">
        <ele>2494</ele>
        <time>2013-07-01T04:27:01Z</time>
      </trkpt>
      <trkpt lat="45.20184" lon="6.17901">
        <ele>2494</ele>
        <time>2013-07-01T04:27:06Z</time>
      </trkpt>
      <trkpt lat="45.2018" lon="6.17901">
        <ele>2493</ele>
        <time>2013-07-01T04:27:11Z</time>
      </trkpt>
      <trkpt lat="45.20175" lon="6.17901">
        <ele>2493</ele>
        <time>2013-07-01T04:27:16Z</time>
      </trkpt>
      <trkpt lat="45.2017" lon="6.179">
        <ele>2493</ele>
        <time>2013-07-01T04:27:21Z</time>
      </trkpt>
      <trkpt lat="45.20165" lon="6.179">
        <ele>2492</ele>
        <time>2013-07-01T04:27:26Z</time>
      </trkpt>
      <trkpt lat="45.20161" lon="6.17899">
        <ele>2492</ele>
        <time>2013-07-01T04:27:31Z</time>
      </trkpt>
      <trkpt lat="45.20157" lon="6.17898">
        <ele>2491</ele>
        <time>2013-07-01T04:27:36Z</time>
      </trkpt>
      <trkpt lat="45.20152" lon="6.17897">
        <ele>2491</ele>
        <time>2013-07-01T04:27:41Z</time>
      </trkpt>
      <trkpt lat="45.20151" lon="6.17897">
        <ele>2490</ele>
        <time>2013-07-01T04:27:46Z</time>
      </trkpt>
      <trkpt lat="45.20151" lon="6.17897">
        <ele>2490</ele>
        <time>2013-07-01T04:27:51Z</time>
      </trkpt>
      <trkpt lat="45.20151" lon="6.17897">
        <ele>2490</ele>
        <time>2013-07-01T04:27:56Z</time>
      </trkpt>
      <trkpt lat="45.20151" lon="6.17896">
        <ele>2490</ele>
        <time>2013-07-01T04:28:01Z</time>
      </trkpt>
      <trkpt lat="45.20151" lon="6.17896">
        <ele>2490</ele>
        <time>2013-07-01T04:28:06Z</time>
      </trkpt>
      <trkpt lat="45.20151" lon="6.17896">
        <ele>2489</ele>
        <time>2013-07-01T04:28:11Z</time>
      </trkpt>
      <trkpt lat="45.20151" lon="6.17896">
        <ele>2489</ele>
        <time>2013-07-01T04:28:16Z</time>
      </trkpt>
      <trkpt lat="45.20151" lon="6.17896">
        <ele>2489</ele>
        <time>2013-07-01T04:28:21Z</time>
      </trkpt>
      <trkpt lat="45.20151" lon="6.17896">
        <ele>2489</ele>
        <time>2013-07-01T04:28:26Z</time>
      </trkpt>
      <trkpt lat="45.20151" lon="6.17896">
        <ele>2489</ele>
        <time>2013-07-01T04:28:31Z</time>
      </trkpt>
      <trkpt lat="45.20151" lon="6.17896">
        <ele>2489</ele>
        <time>2013-07-01T04:28:36Z</time>
      </trkpt>
      <trkpt lat="45.2015" lon="6.17897">
        <ele>2489</ele>
        <time>2013-07-01T04:28:41Z</time>
      </trkpt>
      <trkpt lat="45.20147" lon="6.17897">
        <ele>2489</ele>
        <time>2013-07-01T04:28:46Z</time>
      </trkpt>
      <trkpt lat="45.20144" lon="6.17895">
        <ele>2488</ele>
        <time>2013-07-01T04:28:51Z</time>
      </trkpt>
      <trkpt lat="45.20139" lon="6.17893">
        <ele>2486</ele>
        <time>2013-07-01T04:28:56Z</time>
      </trkpt>
      <trkpt lat="45.20135" lon="6.1789">
        <ele>2486</ele>
        <time>2013-07-01T04:29:01Z</time>
      </trkpt>
      <trkpt lat="45.20129" lon="6.17888">
        <ele>2486</ele>
        <time>2013-07-01T04:29:06Z</time>
      </trkpt>
      <trkpt lat="45.20123" lon="6.17886">
        <ele>2485</ele>
        <time>2013-07-01T04:29:11Z</time>
      </trkpt>
      <trkpt lat="45.20118" lon="6.17883">
        <ele>2484</ele>
        <time>2013-07-01T04:29:16Z</time>
      </trkpt>
      <trkpt lat="45.20112" lon="6.17882">
        <ele>2484</ele>
        <time>2013-07-01T04:29:21Z</time>
      </trkpt>
      <trkpt lat="45.20107" lon="6.1788">
        <ele>2485</ele>
        <time>2013-07-01T04:29:26Z</time>
      </trkpt>
      <trkpt lat="45.20101" lon="6.17877">
        <ele>2485</ele>
        <time>2013-07-01T04:29:31Z</time>
      </trkpt>
      <trkpt lat="45.20096" lon="6.17875">
        <ele>2484</ele>
        <time>2013-07-01T04:29:36Z</time>
      </trkpt>
      <trkpt lat="45.20092" lon="6.17873">
        <ele>2483</ele>
        <time>2013-07-01T04:29:41Z</time>
      </trkpt>
      <trkpt lat="45.20088" lon="6.17871">
        <ele>2482</ele>
        <time>2013-07-01T04:29:46Z</time>
      </trkpt>
      <trkpt lat="45.20085" lon="6.17871">
        <ele>2482</ele>
        <time>2013-07-01T04:29:51Z</time>
      </trkpt>
      <trkpt lat="45.20081" lon="6.17868">
        <ele>2482</ele>
        <time>2013-07-01T04:29:56Z</time>
      </trkpt>
      <trkpt lat="45.20076" lon="6.17865">
        <ele>2482</ele>
        <time>2013-07-01T04:30:01Z</time>
      </trkpt>
      <trkpt lat="45.20072" lon="6.17863">
        <ele>2482</ele>
        <time>2013-07-01T04:30:06Z</time>
      </trkpt>
      <trkpt lat="45.20067" lon="6.17862">
        <ele>2482</ele>
        <time>2013-07-01T04:30:11Z</time>
      </trkpt>
      <trkpt lat="45.20064" lon="6.17863">
        <ele>2482</ele>
        <time>2013-07-01T04:30:16Z</time>
      </trkpt>
      <trkpt lat="45.2006" lon="6.17862">
        <ele>2482</ele>
        <time>2013-07-01T04:30:21Z</time>
      </trkpt>
      <trkpt lat="45.20056" lon="6.17862">
        <ele>2483</ele>
        <time>2013-07-01T04:30:26Z</time>
      </trkpt>
      <trkpt lat="45.20052" lon="6.17861">
        <ele>2484</ele>
        <time>2013-07-01T04:30:31Z</time>
      </trkpt>
      <trkpt lat="45.20047" lon="6.17861">
        <ele>2484</ele>
        <time>2013-07-01T04:30:36Z</time>
      </trkpt>
      <trkpt lat="45.20043" lon="6.17859">
        <ele>2484</ele>
        <time>2013-07-01T04:30:41Z</time>
      </trkpt>
      <trkpt lat="45.20038" lon="6.17859">
        <ele>2484</ele>
        <time>2013-07-01T04:30:46Z</time>
      </trkpt>
      <trkpt lat="45.20034" lon="6.17859">
        <ele>2485</ele>
        <time>2013-07-01T04:30:51Z</time>
      </trkpt>
      <trkpt lat="45.2003" lon="6.17859">
        <ele>2485</ele>
        <time>2013-07-01T04:30:56Z</time>
      </trkpt>
      <trkpt lat="45.20024" lon="6.17858">
        <ele>2485</ele>
        <time>2013-07-01T04:31:01Z</time>
      </trkpt>
      <trkpt lat="45.2002" lon="6.17857">
        <ele>2484</ele>
        <time>2013-07-01T04:31:06Z</time>
      </trkpt>
      <trkpt lat="45.20015" lon="6.17856">
        <ele>2484</ele>
        <time>2013-07-01T04:31:11Z</time>
      </trkpt>
      <trkpt lat="45.20012" lon="6.17856">
        <ele>2485</ele>
        <time>2013-07-01T04:31:16Z</time>
      </trkpt>
      <trkpt lat="45.20007" lon="6.17856">
        <ele>2486</ele>
        <time>2013-07-01T04:31:21Z</time>
      </trkpt>
      <trkpt lat="45.20002" lon="6.17853">
        <ele>2486</ele>
        <time>2013-07-01T04:31:26Z</time>
      </trkpt>
      <trkpt lat="45.19998" lon="6.17853">
        <ele>2486</ele>
        <time>2013-07-01T04:31:31Z</time>
      </trkpt>
      <trkpt lat="45.19993" lon="6.1785">
        <ele>2486</ele>
        <time>2013-07-01T04:31:36Z</time>
      </trkpt>
      <trkpt lat="45.19987" lon="6.17847">
        <ele>2485</ele>
        <time>2013-07-01T04:31:41Z</time>
      </trkpt>
      <trkpt lat="45.19982" lon="6.17845">
        <ele>2485</ele>
        <time>2013-07-01T04:31:46Z</time>
      </trkpt>
      <trkpt lat="45.19977" lon="6.17843">
        <ele>2485</ele>
        <time>2013-07-01T04:31:51Z</time>
      </trkpt>
      <trkpt lat="45.19975" lon="6.17843">
        <ele>2485</ele>
        <time>2013-07-01T04:31:56Z</time>
      </trkpt>
      <trkpt lat="45.19973" lon="6.17842">
        <ele>2485</ele>
        <time>2013-07-01T04:32:01Z</time>
      </trkpt>
      <trkpt lat="45.19972" lon="6.1784">
        <ele>2485</ele>
        <time>2013-07-01T04:32:06Z</time>
      </trkpt>
      <trkpt lat="45.19971" lon="6.1784">
        <ele>2485</ele>
        <time>2013-07-01T04:32:11Z</time>
      </trkpt>
      <trkpt lat="45.19968" lon="6.17838">
        <ele>2485</ele>
        <time>2013-07-01T04:32:16Z</time>
      </trkpt>
      <trkpt lat="45.19966" lon="6.17837">
        <ele>2485</ele>
        <time>2013-07-01T04:32:21Z</time>
      </trkpt>
      <trkpt lat="45.19963" lon="6.17836">
        <ele>2484</ele>
        <time>2013-07-01T04:32:26Z</time>
      </trkpt>
      <trkpt lat="45.19959" lon="6.17834">
        <ele>2484</ele>
        <time>2013-07-01T04:32:31Z</time>
      </trkpt>
      <trkpt lat="45.19957" lon="6.17833">
        <ele>2483</ele>
        <time>2013-07-01T04:32:36Z</time>
      </trkpt>
      <trkpt lat="45.19953" lon="6.17829">
        <ele>2481</ele>
        <time>2013-07-01T04:32:41Z</time>
      </trkpt>
      <trkpt lat="45.1995" lon="6.17828">
        <ele>2481</ele>
        <time>2013-07-01T04:32:46Z</time>
      </trkpt>
      <trkpt lat="45.19947" lon="6.17825">
        <ele>2481</ele>
        <time>2013-07-01T04:32:51Z</time>
      </trkpt>
      <trkpt lat="45.19945" lon="6.17824">
        <ele>2480</ele>
        <time>2013-07-01T04:32:56Z</time>
      </trkpt>
      <trkpt lat="45.19942" lon="6.17821">
        <ele>2479</ele>
        <time>2013-07-01T04:33:01Z</time>
      </trkpt>
      <trkpt lat="45.19938" lon="6.17819">
        <ele>2478</ele>
        <time>2013-07-01T04:33:06Z</time>
      </trkpt>
      <trkpt lat="45.19934" lon="6.17816">
        <ele>2477</ele>
        <time>2013-07-01T04:33:11Z</time>
      </trkpt>
      <trkpt lat="45.19929" lon="6.17813">
        <ele>2477</ele>
        <time>2013-07-01T04:33:16Z</time>
      </trkpt>
      <trkpt lat="45.19926" lon="6.1781">
        <ele>2477</ele>
        <time>2013-07-01T04:33:21Z</time>
      </trkpt>
      <trkpt lat="45.19923" lon="6.17808">
        <ele>2476</ele>
        <time>2013-07-01T04:33:26Z</time>
      </trkpt>
      <trkpt lat="45.19919" lon="6.17805">
        <ele>2476</ele>
        <time>2013-07-01T04:33:31Z</time>
      </trkpt>
      <trkpt lat="45.19915" lon="6.17803">
        <ele>2477</ele>
        <time>2013-07-01T04:33:36Z</time>
      </trkpt>
      <trkpt lat="45.19911" lon="6.178">
        <ele>2476</ele>
        <time>2013-07-01T04:33:41Z</time>
      </trkpt>
      <trkpt lat="45.19907" lon="6.17797">
        <ele>2476</ele>
        <time>2013-07-01T04:33:46Z</time>
      </trkpt>
      <trkpt lat="45.19903" lon="6.17794">
        <ele>2476</ele>
        <time>2013-07-01T04:33:51Z</time>
      </trkpt>
      <trkpt lat="45.19899" lon="6.17791">
        <ele>2476</ele>
        <time>2013-07-01T04:33:56Z</time>
      </trkpt>
      <trkpt lat="45.19895" lon="6.17789">
        <ele>2477</ele>
        <time>2013-07-01T04:34:01Z</time>
      </trkpt>
      <trkpt lat="45.19892" lon="6.17786">
        <ele>2477</ele>
        <time>2013-07-01T04:34:06Z</time>
      </trkpt>
      <trkpt lat="45.19888" lon="6.17784">
        <ele>2477</ele>
        <time>2013-07-01T04:34:11Z</time>
      </trkpt>
      <trkpt lat="45.19884" lon="6.17781">
        <ele>2477</ele>
        <time>2013-07-01T04:34:16Z</time>
      </trkpt>
      <trkpt lat="45.1988" lon="6.17778">
        <ele>2477</ele>
        <time>2013-07-01T04:34:21Z</time>
      </trkpt>
      <trkpt lat="45.19875" lon="6.17773">
        <ele>2476</ele>
        <time>2013-07-01T04:34:26Z</time>
      </trkpt>
      <trkpt lat="45.1987" lon="6.17769">
        <ele>2476</ele>
        <time>2013-07-01T04:34:31Z</time>
      </trkpt>
      <trkpt lat="45.19866" lon="6.17765">
        <ele>2476</ele>
        <time>2013-07-01T04:34:36Z</time>
      </trkpt>
      <trkpt lat="45.19862" lon="6.17761">
        <ele>2475</ele>
        <time>2013-07-01T04:34:41Z</time>
      </trkpt>
      <trkpt lat="45.19857" lon="6.17756">
        <ele>2475</ele>
        <time>2013-07-01T04:34:46Z</time>
      </trkpt>
      <trkpt lat="45.19853" lon="6.17751">
        <ele>2475</ele>
        <time>2013-07-01T04:34:51Z</time>
      </trkpt>
      <trkpt lat="45.19849" lon="6.17747">
        <ele>2475</ele>
        <time>2013-07-01T04:34:56Z</time>
      </trkpt>
      <trkpt lat="45.19845" lon="6.17743">
        <ele>2475</ele>
        <time>2013-07-01T04:35:01Z</time>
      </trkpt>
      <trkpt lat="45.19841" lon="6.17738">
        <ele>2475</ele>
        <time>2013-07-01T04:35:06Z</time>
      </trkpt>
      <trkpt lat="45.19837" lon="6.17733">
        <ele>2475</ele>
        <time>2013-07-01T04:35:11Z</time>
      </trkpt>
      <trkpt lat="45.19833" lon="6.17727">
        <ele>2475</ele>
        <time>2013-07-01T04:35:16Z</time>
      </trkpt>
      <trkpt lat="45.19829" lon="6.17723">
        <ele>2475</ele>
        <time>2013-07-01T04:35:21Z</time>
      </trkpt>
      <trkpt lat="45.19825" lon="6.17718">
        <ele>2475</ele>
        <time>2013-07-01T04:35:26Z</time>
      </trkpt>
      <trkpt lat="45.19822" lon="6.17714">
        <ele>2474</ele>
        <time>2013-07-01T04:35:31Z</time>
      </trkpt>
      <trkpt lat="45.19818" lon="6.1771">
        <ele>2474</ele>
        <time>2013-07-01T04:35:36Z</time>
      </trkpt>
      <trkpt lat="45.19815" lon="6.17706">
        <ele>2474</ele>
        <time>2013-07-01T04:35:41Z</time>
      </trkpt>
      <trkpt lat="45.19812" lon="6.17702">
        <ele>2475</ele>
        <time>2013-07-01T04:35:46Z</time>
      </trkpt>
      <trkpt lat="45.19809" lon="6.17697">
        <ele>2475</ele>
        <time>2013-07-01T04:35:51Z</time>
      </trkpt>
      <trkpt lat="45.19805" lon="6.17692">
        <ele>2475</ele>
        <time>2013-07-01T04:35:56Z</time>
      </trkpt>
      <trkpt lat="45.19802" lon="6.17687">
        <ele>2474</ele>
        <time>2013-07-01T04:36:01Z</time>
      </trkpt>
      <trkpt lat="45.198" lon="6.17683">
        <ele>2474</ele>
        <time>2013-07-01T04:36:06Z</time>
      </trkpt>
      <trkpt lat="45.19796" lon="6.17679">
        <ele>2474</ele>
        <time>2013-07-01T04:36:11Z</time>
      </trkpt>
      <trkpt lat="45.19793" lon="6.17677">
        <ele>2475</ele>
        <time>2013-07-01T04:36:16Z</time>
      </trkpt>
      <trkpt lat="45.1979" lon="6.17674">
        <ele>2476</ele>
        <time>2013-07-01T04:36:21Z</time>
      </trkpt>
      <trkpt lat="45.19787" lon="6.17671">
        <ele>2476</ele>
        <time>2013-07-01T04:36:26Z</time>
      </trkpt>
      <trkpt lat="45.19784" lon="6.17668">
        <ele>2476</ele>
        <time>2013-07-01T04:36:31Z</time>
      </trkpt>
      <trkpt lat="45.19781" lon="6.17664">
        <ele>2476</ele>
        <time>2013-07-01T04:36:36Z</time>
      </trkpt>
      <trkpt lat="45.19778" lon="6.1766">
        <ele>2475</ele>
        <time>2013-07-01T04:36:41Z</time>
      </trkpt>
      <trkpt lat="45.19775" lon="6.17656">
        <ele>2475</ele>
        <time>2013-07-01T04:36:46Z</time>
      </trkpt>
      <trkpt lat="45.19771" lon="6.17653">
        <ele>2475</ele>
        <time>2013-07-01T04:36:51Z</time>
      </trkpt>
      <trkpt lat="45.19768" lon="6.1765">
        <ele>2476</ele>
        <time>2013-07-01T04:36:56Z</time>
      </trkpt>
      <trkpt lat="45.19765" lon="6.17646">
        <ele>2475</ele>
        <time>2013-07-01T04:37:01Z</time>
      </trkpt>
      <trkpt lat="45.19761" lon="6.17643">
        <ele>2475</ele>
        <time>2013-07-01T04:37:06Z</time>
      </trkpt>
      <trkpt lat="45.19759" lon="6.17639">
        <ele>2475</ele>
        <time>2013-07-01T04:37:11Z</time>
      </trkpt>
      <trkpt lat="45.19755" lon="6.17636">
        <ele>2475</ele>
        <time>2013-07-01T04:37:16Z</time>
      </trkpt>
      <trkpt lat="45.19752" lon="6.17631">
        <ele>2475</ele>
        <time>2013-07-01T04:37:21Z</time>
      </trkpt>
      <trkpt lat="45.19748" lon="6.17627">
        <ele>2476</ele>
        <time>2013-07-01T04:37:26Z</time>
      </trkpt>
      <trkpt lat="45.19744" lon="6.17623">
        <ele>2476</ele>
        <time>2013-07-01T04:37:31Z</time>
      </trkpt>
      <trkpt lat="45.19741" lon="6.1762">
        <ele>2476</ele>
        <time>2013-07-01T04:37:36Z</time>
      </trkpt>
      <trkpt lat="45.19737" lon="6.17616">
        <ele>2477</ele>
        <time>2013-07-01T04:37:41Z</time>
      </trkpt>
      <trkpt lat="45.19734" lon="6.17613">
        <ele>2477</ele>
        <time>2013-07-01T04:37:46Z</time>
      </trkpt>
      <trkpt lat="45.19731" lon="6.1761">
        <ele>2477</ele>
        <time>2013-07-01T04:37:51Z</time>
      </trkpt>
      <trkpt lat="45.19727" lon="6.17606">
        <ele>2477</ele>
        <time>2013-07-01T04:37:56Z</time>
      </trkpt>
      <trkpt lat="45.19724" lon="6.17603">
        <ele>2478</ele>
        <time>2013-07-01T04:38:01Z</time>
      </trkpt>
      <trkpt lat="45.19721" lon="6.17599">
        <ele>2478</ele>
        <time>2013-07-01T04:38:06Z</time>
      </trkpt>
      <trkpt lat="45.19717" lon="6.17595">
        <ele>2479</ele>
        <time>2013-07-01T04:38:11Z</time>
      </trkpt>
      <trkpt lat="45.19713" lon="6.17592">
        <ele>2479</ele>
        <time>2013-07-01T04:38:16Z</time>
      </trkpt>
      <trkpt lat="45.19709" lon="6.17589">
        <ele>2480</ele>
        <time>2013-07-01T04:38:21Z</time>
      </trkpt>
      <trkpt lat="45.19705" lon="6.17585">
        <ele>2480</ele>
        <time>2013-07-01T04:38:26Z</time>
      </trkpt>
      <trkpt lat="45.19701" lon="6.17583">
        <ele>2479</ele>
        <time>2013-07-01T04:38:31Z</time>
      </trkpt>
      <trkpt lat="45.19698" lon="6.1758">
        <ele>2480</ele>
        <time>2013-07-01T04:38:36Z</time>
      </trkpt>
      <trkpt lat="45.19693" lon="6.17577">
        <ele>2480</ele>
        <time>2013-07-01T04:38:41Z</time>
      </trkpt>
      <trkpt lat="45.19689" lon="6.17575">
        <ele>2480</ele>
        <time>2013-07-01T04:38:46Z</time>
      </trkpt>
      <trkpt lat="45.19684" lon="6.17572">
        <ele>2480</ele>
        <time>2013-07-01T04:38:51Z</time>
      </trkpt>
      <trkpt lat="45.19679" lon="6.1757">
        <ele>2480</ele>
        <time>2013-07-01T04:38:56Z</time>
      </trkpt>
      <trkpt lat="45.19675" lon="6.17568">
        <ele>2480</ele>
        <time>2013-07-01T04:39:01Z</time>
      </trkpt>
      <trkpt lat="45.19674" lon="6.17567">
        <ele>2481</ele>
        <time>2013-07-01T04:39:06Z</time>
      </trkpt>
      <trkpt lat="45.19674" lon="6.17567">
        <ele>2480</ele>
        <time>2013-07-01T04:39:11Z</time>
      </trkpt>
      <trkpt lat="45.19674" lon="6.17566">
        <ele>2481</ele>
        <time>2013-07-01T04:39:16Z</time>
      </trkpt>
      <trkpt lat="45.19674" lon="6.17566">
        <ele>2481</ele>
        <time>2013-07-01T04:39:21Z</time>
      </trkpt>
      <trkpt lat="45.19671" lon="6.17564">
        <ele>2481</ele>
        <time>2013-07-01T04:39:26Z</time>
      </trkpt>
      <trkpt lat="45.19666" lon="6.17561">
        <ele>2482</ele>
        <time>2013-07-01T04:39:31Z</time>
      </trkpt>
      <trkpt lat="45.19661" lon="6.17555">
        <ele>2481</ele>
        <time>2013-07-01T04:39:36Z</time>
      </trkpt>
      <trkpt lat="45.19656" lon="6.17552">
        <ele>2481</ele>
        <time>2013-07-01T04:39:41Z</time>
      </trkpt>
      <trkpt lat="45.19652" lon="6.17549">
        <ele>2481</ele>
        <time>2013-07-01T04:39:46Z</time>
      </trkpt>
      <trkpt lat="45.19648" lon="6.17545">
        <ele>2482</ele>
        <time>2013-07-01T04:39:51Z</time>
      </trkpt>
      <trkpt lat="45.19643" lon="6.17541">
        <ele>2482</ele>
        <time>2013-07-01T04:39:56Z</time>
      </trkpt>
      <trkpt lat="45.19639" lon="6.17536">
        <ele>2482</ele>
        <time>2013-07-01T04:40:01Z</time>
      </trkpt>
      <trkpt lat="45.19634" lon="6.17531">
        <ele>2482</ele>
        <time>2013-07-01T04:40:06Z</time>
      </trkpt>
      <trkpt lat="45.19631" lon="6.17524">
        <ele>2481</ele>
        <time>2013-07-01T04:40:11Z</time>
      </trkpt>
      <trkpt lat="45.19627" lon="6.17517">
        <ele>2481</ele>
        <time>2013-07-01T04:40:16Z</time>
      </trkpt>
      <trkpt lat="45.19621" lon="6.17515">
        <ele>2481</ele>
        <time>2013-07-01T04:40:21Z</time>
      </trkpt>
      <trkpt lat="45.19616" lon="6.17514">
        <ele>2482</ele>
        <time>2013-07-01T04:40:26Z</time>
      </trkpt>
      <trkpt lat="45.19611" lon="6.17515">
        <ele>2483</ele>
        <time>2013-07-01T04:40:31Z</time>
      </trkpt>
      <trkpt lat="45.19605" lon="6.17515">
        <ele>2484</ele>
        <time>2013-07-01T04:40:36Z</time>
      </trkpt>
      <trkpt lat="45.196" lon="6.17514">
        <ele>2484</ele>
        <time>2013-07-01T04:40:41Z</time>
      </trkpt>
      <trkpt lat="45.19595" lon="6.17514">
        <ele>2485</ele>
        <time>2013-07-01T04:40:46Z</time>
      </trkpt>
      <trkpt lat="45.19589" lon="6.17516">
        <ele>2485</ele>
        <time>2013-07-01T04:40:51Z</time>
      </trkpt>
      <trkpt lat="45.19584" lon="6.17519">
        <ele>2485</ele>
        <time>2013-07-01T04:40:56Z</time>
      </trkpt>
      <trkpt lat="45.19578" lon="6.17521">
        <ele>2485</ele>
        <time>2013-07-01T04:41:01Z</time>
      </trkpt>
      <trkpt lat="45.19574" lon="6.17513">
        <ele>2483</ele>
        <time>2013-07-01T04:41:06Z</time>
      </trkpt>
      <trkpt lat="45.19571" lon="6.17506">
        <ele>2482</ele>
        <time>2013-07-01T04:41:11Z</time>
      </trkpt>
      <trkpt lat="45.19568" lon="6.17498">
        <ele>2481</ele>
        <time>2013-07-01T04:41:16Z</time>
      </trkpt>
      <trkpt lat="45.19564" lon="6.1749">
        <ele>2480</ele>
        <time>2013-07-01T04:41:21Z</time>
      </trkpt>
      <trkpt lat="45.19561" lon="6.17481">
        <ele>2479</ele>
        <time>2013-07-01T04:41:26Z</time>
      </trkpt>
      <trkpt lat="45.19559" lon="6.17473">
        <ele>2479</ele>
        <time>2013-07-01T04:41:31Z</time>
      </trkpt>
      <trkpt lat="45.19557" lon="6.17464">
        <ele>2478</ele>
        <time>2013-07-01T04:41:36Z</time>
      </trkpt>
      <trkpt lat="45.19554" lon="6.17456">
        <ele>2478</ele>
        <time>2013-07-01T04:41:41Z</time>
      </trkpt>
      <trkpt lat="45.19551" lon="6.17447">
        <ele>2477</ele>
        <time>2013-07-01T04:41:46Z</time>
      </trkpt>
      <trkpt lat="45.19549" lon="6.17439">
        <ele>2477</ele>
        <time>2013-07-01T04:41:51Z</time>
      </trkpt>
      <trkpt lat="45.19547" lon="6.1743">
        <ele>2477</ele>
        <time>2013-07-01T04:41:56Z</time>
      </trkpt>
      <trkpt lat="45.19544" lon="6.17422">
        <ele>2477</ele>
        <time>2013-07-01T04:42:01Z</time>
      </trkpt>
      <trkpt lat="45.19541" lon="6.17414">
        <ele>2476</ele>
        <time>2013-07-01T04:42:06Z</time>
      </trkpt>
      <trkpt lat="45.19538" lon="6.17406">
        <ele>2476</ele>
        <time>2013-07-01T04:42:11Z</time>
      </trkpt>
      <trkpt lat="45.19537" lon="6.17404">
        <ele>2476</ele>
        <time>2013-07-01T04:42:16Z</time>
      </trkpt>
      <trkpt lat="45.19537" lon="6.17404">
        <ele>2476</ele>
        <time>2013-07-01T04:42:21Z</time>
      </trkpt>
      <trkpt lat="45.19537" lon="6.17404">
        <ele>2477</ele>
        <time>2013-07-01T04:42:26Z</time>
      </trkpt>
      <trkpt lat="45.19537" lon="6.17404">
        <ele>2477</ele>
        <time>2013-07-01T04:42:31Z</time>
      </trkpt>
      <trkpt lat="45.19537" lon="6.17404">
        <ele>2477</ele>
        <time>2013-07-01T04:42:36Z</time>
      </trkpt>
      <trkpt lat="45.19538" lon="6.17405">
        <ele>2478</ele>
        <time>2013-07-01T04:42:41Z</time>
      </trkpt>
      <trkpt lat="45.19537" lon="6.174">
        <ele>2478</ele>
        <time>2013-07-01T04:42:46Z</time>
      </trkpt>
      <trkpt lat="45.19536" lon="6.17393">
        <ele>2478</ele>
        <time>2013-07-01T04:42:51Z</time>
      </trkpt>
      <trkpt lat="45.19535" lon="6.1739">
        <ele>2478</ele>
        <time>2013-07-01T04:42:56Z</time>
      </trkpt>
      <trkpt lat="45.19532" lon="6.17385">
        <ele>2479</ele>
        <time>2013-07-01T04:43:01Z</time>
      </trkpt>
      <trkpt lat="45.19527" lon="6.17384">
        <ele>2479</ele>
        <time>2013-07-01T04:43:06Z</time>
      </trkpt>
      <trkpt lat="45.19522" lon="6.17383">
        <ele>2479</ele>
        <time>2013-07-01T04:43:11Z</time>
      </trkpt>
      <trkpt lat="45.19516" lon="6.17383">
        <ele>2479</ele>
        <time>2013-07-01T04:43:16Z</time>
      </trkpt>
      <trkpt lat="45.19511" lon="6.17383">
        <ele>2480</ele>
        <time>2013-07-01T04:43:21Z</time>
      </trkpt>
      <trkpt lat="45.19506" lon="6.17383">
        <ele>2480</ele>
        <time>2013-07-01T04:43:26Z</time>
      </trkpt>
      <trkpt lat="45.195" lon="6.17382">
        <ele>2481</ele>
        <time>2013-07-01T04:43:31Z</time>
      </trkpt>
      <trkpt lat="45.19495" lon="6.17383">
        <ele>2481</ele>
        <time>2013-07-01T04:43:36Z</time>
      </trkpt>
      <trkpt lat="45.1949" lon="6.17381">
        <ele>2481</ele>
        <time>2013-07-01T04:43:41Z</time>
      </trkpt>
      <trkpt lat="45.19485" lon="6.1738">
        <ele>2481</ele>
        <time>2013-07-01T04:43:46Z</time>
      </trkpt>
      <trkpt lat="45.19479" lon="6.17378">
        <ele>2481</ele>
        <time>2013-07-01T04:43:51Z</time>
      </trkpt>
      <trkpt lat="45.19474" lon="6.17376">
        <ele>2482</ele>
        <time>2013-07-01T04:43:56Z</time>
      </trkpt>
      <trkpt lat="45.19469" lon="6.17375">
        <ele>2482</ele>
        <time>2013-07-01T04:44:01Z</time>
      </trkpt>
      <trkpt lat="45.19463" lon="6.17372">
        <ele>2482</ele>
        <time>2013-07-01T04:44:06Z</time>
      </trkpt>
      <trkpt lat="45.19458" lon="6.17368">
        <ele>2482</ele>
        <time>2013-07-01T04:44:11Z</time>
      </trkpt>
      <trkpt lat="45.19453" lon="6.17363">
        <ele>2481</ele>
        <time>2013-07-01T04:44:16Z</time>
      </trkpt>
      <trkpt lat="45.19447" lon="6.1736">
        <ele>2481</ele>
        <time>2013-07-01T04:44:21Z</time>
      </trkpt>
      <trkpt lat="45.19441" lon="6.17357">
        <ele>2480</ele>
        <time>2013-07-01T04:44:26Z</time>
      </trkpt>
      <trkpt lat="45.19436" lon="6.17355">
        <ele>2480</ele>
        <time>2013-07-01T04:44:31Z</time>
      </trkpt>
      <trkpt lat="45.1943" lon="6.17351">
        <ele>2479</ele>
        <time>2013-07-01T04:44:36Z</time>
      </trkpt>
      <trkpt lat="45.19425" lon="6.17348">
        <ele>2479</ele>
        <time>2013-07-01T04:44:41Z</time>
      </trkpt>
      <trkpt lat="45.1942" lon="6.17346">
        <ele>2479</ele>
        <time>2013-07-01T04:44:46Z</time>
      </trkpt>
      <trkpt lat="45.19414" lon="6.17344">
        <ele>2479</ele>
        <time>2013-07-01T04:44:51Z</time>
      </trkpt>
      <trkpt lat="45.19409" lon="6.17342">
        <ele>2479</ele>
        <time>2013-07-01T04:44:56Z</time>
      </trkpt>
      <trkpt lat="45.19404" lon="6.17341">
        <ele>2479</ele>
        <time>2013-07-01T04:45:01Z</time>
      </trkpt>
      <trkpt lat="45.19399" lon="6.1734">
        <ele>2478</ele>
        <time>2013-07-01T04:45:06Z</time>
      </trkpt>
      <trkpt lat="45.19395" lon="6.17338">
        <ele>2479</ele>
        <time>2013-07-01T04:45:11Z</time>
      </trkpt>
      <trkpt lat="45.1939" lon="6.17336">
        <ele>2479</ele>
        <time>2013-07-01T04:45:16Z</time>
      </trkpt>
      <trkpt lat="45.19384" lon="6.17335">
        <ele>2479</ele>
        <time>2013-07-01T04:45:21Z</time>
      </trkpt>
      <trkpt lat="45.19378" lon="6.17334">
        <ele>2479</ele>
        <time>2013-07-01T04:45:26Z</time>
      </trkpt>
      <trkpt lat="45.19373" lon="6.17334">
        <ele>2479</ele>
        <time>2013-07-01T04:45:31Z</time>
      </trkpt>
      <trkpt lat="45.19368" lon="6.17333">
        <ele>2478</ele>
        <time>2013-07-01T04:45:36Z</time>
      </trkpt>
      <trkpt lat="45.19363" lon="6.17333">
        <ele>2477</ele>
        <time>2013-07-01T04:45:41Z</time>
      </trkpt>
      <trkpt lat="45.19357" lon="6.17332">
        <ele>2477</ele>
        <time>2013-07-01T04:45:46Z</time>
      </trkpt>
      <trkpt lat="45.19351" lon="6.17331">
        <ele>2477</ele>
        <time>2013-07-01T04:45:51Z</time>
      </trkpt>
      <trkpt lat="45.19346" lon="6.17328">
        <ele>2477</ele>
        <time>2013-07-01T04:45:56Z</time>
      </trkpt>
      <trkpt lat="45.19341" lon="6.17327">
        <ele>2478</ele>
        <time>2013-07-01T04:46:01Z</time>
      </trkpt>
      <trkpt lat="45.19336" lon="6.17325">
        <ele>2478</ele>
        <time>2013-07-01T04:46:06Z</time>
      </trkpt>
      <trkpt lat="45.1933" lon="6.17324">
        <ele>2478</ele>
        <time>2013-07-01T04:46:11Z</time>
      </trkpt>
      <trkpt lat="45.19325" lon="6.17322">
        <ele>2478</ele>
        <time>2013-07-01T04:46:16Z</time>
      </trkpt>
      <trkpt lat="45.19319" lon="6.1732">
        <ele>2478</ele>
        <time>2013-07-01T04:46:21Z</time>
      </trkpt>
      <trkpt lat="45.19313" lon="6.17319">
        <ele>2478</ele>
        <time>2013-07-01T04:46:26Z</time>
      </trkpt>
      <trkpt lat="45.19307" lon="6.17316">
        <ele>2478</ele>
        <time>2013-07-01T04:46:31Z</time>
      </trkpt>
      <trkpt lat="45.19302" lon="6.17313">
        <ele>2477</ele>
        <time>2013-07-01T04:46:36Z</time>
      </trkpt>
      <trkpt lat="45.19297" lon="6.17312">
        <ele>2477</ele>
        <time>2013-07-01T04:46:41Z</time>
      </trkpt>
      <trkpt lat="45.19291" lon="6.17311">
        <ele>2477</ele>
        <time>2013-07-01T04:46:46Z</time>
      </trkpt>
      <trkpt lat="45.19287" lon="6.17309">
        <ele>2477</ele>
        <time>2013-07-01T04:46:51Z</time>
      </trkpt>
      <trkpt lat="45.19282" lon="6.17308">
        <ele>2476</ele>
        <time>2013-07-01T04:46:56Z</time>
      </trkpt>
      <trkpt lat="45.19277" lon="6.17306">
        <ele>2476</ele>
        <time>2013-07-01T04:47:01Z</time>
      </trkpt>
      <trkpt lat="45.19273" lon="6.17303">
        <ele>2477</ele>
        <time>2013-07-01T04:47:06Z</time>
      </trkpt>
      <trkpt lat="45.19269" lon="6.17301">
        <ele>2477</ele>
        <time>2013-07-01T04:47:11Z</time>
      </trkpt>
      <trkpt lat="45.19265" lon="6.17298">
        <ele>2477</ele>
        <time>2013-07-01T04:47:16Z</time>
      </trkpt>
      <trkpt lat="45.1926" lon="6.17296">
        <ele>2477</ele>
        <time>2013-07-01T04:47:21Z</time>
      </trkpt>
      <trkpt lat="45.19256" lon="6.17294">
        <ele>2477</ele>
        <time>2013-07-01T04:47:26Z</time>
      </trkpt>
      <trkpt lat="45.19251" lon="6.17293">
        <ele>2477</ele>
        <time>2013-07-01T04:47:31Z</time>
      </trkpt>
      <trkpt lat="45.19245" lon="6.17291">
        <ele>2477</ele>
        <time>2013-07-01T04:47:36Z</time>
      </trkpt>
      <trkpt lat="45.19241" lon="6.17289">
        <ele>2478</ele>
        <time>2013-07-01T04:47:41Z</time>
      </trkpt>
      <trkpt lat="45.19236" lon="6.17286">
        <ele>2478</ele>
        <time>2013-07-01T04:47:46Z</time>
      </trkpt>
      <trkpt lat="45.19232" lon="6.17283">
        <ele>2478</ele>
        <time>2013-07-01T04:47:51Z</time>
      </trkpt>
      <trkpt lat="45.19228" lon="6.17281">
        <ele>2478</ele>
        <time>2013-07-01T04:47:56Z</time>
      </trkpt>
      <trkpt lat="45.19224" lon="6.17279">
        <ele>2478</ele>
        <time>2013-07-01T04:48:01Z</time>
      </trkpt>
      <trkpt lat="45.19219" lon="6.17275">
        <ele>2478</ele>
        <time>2013-07-01T04:48:06Z</time>
      </trkpt>
      <trkpt lat="45.19214" lon="6.17272">
        <ele>2477</ele>
        <time>2013-07-01T04:48:11Z</time>
      </trkpt>
      <trkpt lat="45.19209" lon="6.17269">
        <ele>2477</ele>
        <time>2013-07-01T04:48:16Z</time>
      </trkpt>
      <trkpt lat="45.19203" lon="6.17266">
        <ele>2477</ele>
        <time>2013-07-01T04:48:21Z</time>
      </trkpt>
      <trkpt lat="45.19199" lon="6.17263">
        <ele>2477</ele>
        <time>2013-07-01T04:48:26Z</time>
      </trkpt>
      <trkpt lat="45.19195" lon="6.17258">
        <ele>2477</ele>
        <time>2013-07-01T04:48:31Z</time>
      </trkpt>
      <trkpt lat="45.19191" lon="6.17253">
        <ele>2477</ele>
        <time>2013-07-01T04:48:36Z</time>
      </trkpt>
      <trkpt lat="45.19187" lon="6.17251">
        <ele>2477</ele>
        <time>2013-07-01T04:48:41Z</time>
      </trkpt>
      <trkpt lat="45.19183" lon="6.17248">
        <ele>2477</ele>
        <time>2013-07-01T04:48:46Z</time>
      </trkpt>
      <trkpt lat="45.19179" lon="6.17245">
        <ele>2477</ele>
        <time>2013-07-01T04:48:51Z</time>
      </trkpt>
      <trkpt lat="45.19175" lon="6.17243">
        <ele>2477</ele>
        <time>2013-07-01T04:48:56Z</time>
      </trkpt>
      <trkpt lat="45.1917" lon="6.17242">
        <ele>2478</ele>
        <time>2013-07-01T04:49:01Z</time>
      </trkpt>
      <trkpt lat="45.19165" lon="6.17241">
        <ele>2478</ele>
        <time>2013-07-01T04:49:06Z</time>
      </trkpt>
      <trkpt lat="45.19161" lon="6.17239">
        <ele>2478</ele>
        <time>2013-07-01T04:49:11Z</time>
      </trkpt>
      <trkpt lat="45.19156" lon="6.17237">
        <ele>2479</ele>
        <time>2013-07-01T04:49:16Z</time>
      </trkpt>
      <trkpt lat="45.19151" lon="6.17235">
        <ele>2479</ele>
        <time>2013-07-01T04:49:21Z</time>
      </trkpt>
      <trkpt lat="45.19146" lon="6.17235">
        <ele>2479</ele>
        <time>2013-07-01T04:49:26Z</time>
      </trkpt>
      <trkpt lat="45.19141" lon="6.17233">
        <ele>2479</ele>
        <time>2013-07-01T04:49:31Z</time>
      </trkpt>
      <trkpt lat="45.19139" lon="6.17233">
        <ele>2479</ele>
        <time>2013-07-01T04:49:36Z</time>
      </trkpt>
      <trkpt lat="45.19139" lon="6.17233">
        <ele>2479</ele>
        <time>2013-07-01T04:49:41Z</time>
      </trkpt>
      <trkpt lat="45.19139" lon="6.17233">
        <ele>2479</ele>
        <time>2013-07-01T04:49:46Z</time>
      </trkpt>
      <trkpt lat="45.19139" lon="6.17234">
        <ele>2479</ele>
        <time>2013-07-01T04:49:51Z</time>
      </trkpt>
      <trkpt lat="45.19137" lon="6.17232">
        <ele>2476</ele>
        <time>2013-07-01T04:54:51Z</time>
      </trkpt>
      <trkpt lat="45.19135" lon="6.17232">
        <ele>2476</ele>
        <time>2013-07-01T04:54:56Z</time>
      </trkpt>
      <trkpt lat="45.19133" lon="6.17232">
        <ele>2476</ele>
        <time>2013-07-01T04:55:01Z</time>
      </trkpt>
      <trkpt lat="45.19129" lon="6.17231">
        <ele>2476</ele>
        <time>2013-07-01T04:55:06Z</time>
      </trkpt>
      <trkpt lat="45.19124" lon="6.17231">
        <ele>2477</ele>
        <time>2013-07-01T04:55:11Z</time>
      </trkpt>
      <trkpt lat="45.1912" lon="6.17231">
        <ele>2477</ele>
        <time>2013-07-01T04:55:16Z</time>
      </trkpt>
      <trkpt lat="45.19114" lon="6.17232">
        <ele>2478</ele>
        <time>2013-07-01T04:55:21Z</time>
      </trkpt>
      <trkpt lat="45.19111" lon="6.17232">
        <ele>2478</ele>
        <time>2013-07-01T04:55:26Z</time>
      </trkpt>
      <trkpt lat="45.19106" lon="6.17233">
        <ele>2479</ele>
        <time>2013-07-01T04:55:31Z</time>
      </trkpt>
      <trkpt lat="45.19102" lon="6.17234">
        <ele>2479</ele>
        <time>2013-07-01T04:55:36Z</time>
      </trkpt>
      <trkpt lat="45.19098" lon="6.17235">
        <ele>2480</ele>
        <time>2013-07-01T04:55:41Z</time>
      </trkpt>
      <trkpt lat="45.19094" lon="6.17236">
        <ele>2480</ele>
        <time>2013-07-01T04:55:46Z</time>
      </trkpt>
      <trkpt lat="45.1909" lon="6.17237">
        <ele>2481</ele>
        <time>2013-07-01T04:55:51Z</time>
      </trkpt>
      <trkpt lat="45.19086" lon="6.17238">
        <ele>2481</ele>
        <time>2013-07-01T04:55:56Z</time>
      </trkpt>
      <trkpt lat="45.19082" lon="6.17239">
        <ele>2482</ele>
        <time>2013-07-01T04:56:01Z</time>
      </trkpt>
      <trkpt lat="45.19078" lon="6.17242">
        <ele>2482</ele>
        <time>2013-07-01T04:56:06Z</time>
      </trkpt>
      <trkpt lat="45.19074" lon="6.17243">
        <ele>2483</ele>
        <time>2013-07-01T04:56:11Z</time>
      </trkpt>
      <trkpt lat="45.19069" lon="6.17244">
        <ele>2483</ele>
        <time>2013-07-01T04:56:16Z</time>
      </trkpt>
      <trkpt lat="45.19065" lon="6.17245">
        <ele>2483</ele>
        <time>2013-07-01T04:56:21Z</time>
      </trkpt>
      <trkpt lat="45.19061" lon="6.17245">
        <ele>2484</ele>
        <time>2013-07-01T04:56:26Z</time>
      </trkpt>
      <trkpt lat="45.19057" lon="6.17247">
        <ele>2485</ele>
        <time>2013-07-01T04:56:31Z</time>
      </trkpt>
      <trkpt lat="45.19054" lon="6.17248">
        <ele>2485</ele>
        <time>2013-07-01T04:56:36Z</time>
      </trkpt>
      <trkpt lat="45.1905" lon="6.1725">
        <ele>2486</ele>
        <time>2013-07-01T04:56:41Z</time>
      </trkpt>
      <trkpt lat="45.19046" lon="6.17251">
        <ele>2487</ele>
        <time>2013-07-01T04:56:46Z</time>
      </trkpt>
      <trkpt lat="45.19043" lon="6.17253">
        <ele>2487</ele>
        <time>2013-07-01T04:56:51Z</time>
      </trkpt>
      <trkpt lat="45.19043" lon="6.17253">
        <ele>2487</ele>
        <time>2013-07-01T04:56:56Z</time>
      </trkpt>
      <trkpt lat="45.19043" lon="6.17252">
        <ele>2488</ele>
        <time>2013-07-01T04:57:01Z</time>
      </trkpt>
      <trkpt lat="45.19043" lon="6.17253">
        <ele>2488</ele>
        <time>2013-07-01T04:57:06Z</time>
      </trkpt>
      <trkpt lat="45.19042" lon="6.17252">
        <ele>2488</ele>
        <time>2013-07-01T04:57:11Z</time>
      </trkpt>
      <trkpt lat="45.19043" lon="6.17252">
        <ele>2488</ele>
        <time>2013-07-01T04:57:16Z</time>
      </trkpt>
      <trkpt lat="45.19043" lon="6.17252">
        <ele>2488</ele>
        <time>2013-07-01T04:57:21Z</time>
      </trkpt>
      <trkpt lat="45.19042" lon="6.17252">
        <ele>2488</ele>
        <time>2013-07-01T04:57:26Z</time>
      </trkpt>
      <trkpt lat="45.19038" lon="6.17253">
        <ele>2488</ele>
        <time>2013-07-01T04:57:31Z</time>
      </trkpt>
      <trkpt lat="45.19033" lon="6.17253">
        <ele>2489</ele>
        <time>2013-07-01T04:57:36Z</time>
      </trkpt>
      <trkpt lat="45.19029" lon="6.17253">
        <ele>2489</ele>
        <time>2013-07-01T04:57:41Z</time>
      </trkpt>
      <trkpt lat="45.19024" lon="6.17252">
        <ele>2490</ele>
        <time>2013-07-01T04:57:46Z</time>
      </trkpt>
      <trkpt lat="45.1902" lon="6.17251">
        <ele>2490</ele>
        <time>2013-07-01T04:57:51Z</time>
      </trkpt>
      <trkpt lat="45.19016" lon="6.1725">
        <ele>2491</ele>
        <time>2013-07-01T04:57:56Z</time>
      </trkpt>
      <trkpt lat="45.19012" lon="6.1725">
        <ele>2492</ele>
        <time>2013-07-01T04:58:01Z</time>
      </trkpt>
      <trkpt lat="45.19008" lon="6.17249">
        <ele>2493</ele>
        <time>2013-07-01T04:58:06Z</time>
      </trkpt>
      <trkpt lat="45.19005" lon="6.17248">
        <ele>2494</ele>
        <time>2013-07-01T04:58:11Z</time>
      </trkpt>
      <trkpt lat="45.19001" lon="6.17246">
        <ele>2494</ele>
        <time>2013-07-01T04:58:16Z</time>
      </trkpt>
      <trkpt lat="45.18998" lon="6.17244">
        <ele>2495</ele>
        <time>2013-07-01T04:58:21Z</time>
      </trkpt>
      <trkpt lat="45.18995" lon="6.17242">
        <ele>2496</ele>
        <time>2013-07-01T04:58:26Z</time>
      </trkpt>
      <trkpt lat="45.18991" lon="6.17241">
        <ele>2497</ele>
        <time>2013-07-01T04:58:31Z</time>
      </trkpt>
      <trkpt lat="45.18987" lon="6.1724">
        <ele>2497</ele>
        <time>2013-07-01T04:58:36Z</time>
      </trkpt>
      <trkpt lat="45.18984" lon="6.17239">
        <ele>2498</ele>
        <time>2013-07-01T04:58:41Z</time>
      </trkpt>
      <trkpt lat="45.1898" lon="6.17238">
        <ele>2498</ele>
        <time>2013-07-01T04:58:46Z</time>
      </trkpt>
      <trkpt lat="45.18977" lon="6.17237">
        <ele>2499</ele>
        <time>2013-07-01T04:58:51Z</time>
      </trkpt>
      <trkpt lat="45.18973" lon="6.17236">
        <ele>2500</ele>
        <time>2013-07-01T04:58:56Z</time>
      </trkpt>
      <trkpt lat="45.18969" lon="6.17237">
        <ele>2500</ele>
        <time>2013-07-01T04:59:01Z</time>
      </trkpt>
      <trkpt lat="45.18966" lon="6.17238">
        <ele>2501</ele>
        <time>2013-07-01T04:59:06Z</time>
      </trkpt>
      <trkpt lat="45.18963" lon="6.17238">
        <ele>2501</ele>
        <time>2013-07-01T04:59:11Z</time>
      </trkpt>
      <trkpt lat="45.18959" lon="6.17239">
        <ele>2502</ele>
        <time>2013-07-01T04:59:16Z</time>
      </trkpt>
      <trkpt lat="45.18956" lon="6.1724">
        <ele>2503</ele>
        <time>2013-07-01T04:59:21Z</time>
      </trkpt>
      <trkpt lat="45.18953" lon="6.17242">
        <ele>2503</ele>
        <time>2013-07-01T04:59:26Z</time>
      </trkpt>
      <trkpt lat="45.18951" lon="6.17244">
        <ele>2504</ele>
        <time>2013-07-01T04:59:31Z</time>
      </trkpt>
      <trkpt lat="45.18948" lon="6.17245">
        <ele>2505</ele>
        <time>2013-07-01T04:59:36Z</time>
      </trkpt>
      <trkpt lat="45.18945" lon="6.17246">
        <ele>2505</ele>
        <time>2013-07-01T04:59:41Z</time>
      </trkpt>
      <trkpt lat="45.18942" lon="6.17248">
        <ele>2506</ele>
        <time>2013-07-01T04:59:46Z</time>
      </trkpt>
      <trkpt lat="45.18938" lon="6.1725">
        <ele>2507</ele>
        <time>2013-07-01T04:59:51Z</time>
      </trkpt>
      <trkpt lat="45.18935" lon="6.1725">
        <ele>2508</ele>
        <time>2013-07-01T04:59:56Z</time>
      </trkpt>
      <trkpt lat="45.18932" lon="6.17252">
        <ele>2508</ele>
        <time>2013-07-01T05:00:01Z</time>
      </trkpt>
      <trkpt lat="45.18929" lon="6.17254">
        <ele>2509</ele>
        <time>2013-07-01T05:00:06Z</time>
      </trkpt>
      <trkpt lat="45.18926" lon="6.17257">
        <ele>2510</ele>
        <time>2013-07-01T05:00:11Z</time>
      </trkpt>
      <trkpt lat="45.18923" lon="6.1726">
        <ele>2511</ele>
        <time>2013-07-01T05:00:16Z</time>
      </trkpt>
      <trkpt lat="45.1892" lon="6.17261">
        <ele>2512</ele>
        <time>2013-07-01T05:00:21Z</time>
      </trkpt>
      <trkpt lat="45.18918" lon="6.17262">
        <ele>2513</ele>
        <time>2013-07-01T05:00:26Z</time>
      </trkpt>
      <trkpt lat="45.18915" lon="6.17263">
        <ele>2514</ele>
        <time>2013-07-01T05:00:31Z</time>
      </trkpt>
      <trkpt lat="45.18913" lon="6.17265">
        <ele>2514</ele>
        <time>2013-07-01T05:00:36Z</time>
      </trkpt>
      <trkpt lat="45.1891" lon="6.17266">
        <ele>2515</ele>
        <time>2013-07-01T05:00:41Z</time>
      </trkpt>
      <trkpt lat="45.18907" lon="6.17267">
        <ele>2516</ele>
        <time>2013-07-01T05:00:46Z</time>
      </trkpt>
      <trkpt lat="45.18903" lon="6.17268">
        <ele>2517</ele>
        <time>2013-07-01T05:00:51Z</time>
      </trkpt>
      <trkpt lat="45.189" lon="6.17268">
        <ele>2517</ele>
        <time>2013-07-01T05:00:56Z</time>
      </trkpt>
      <trkpt lat="45.18897" lon="6.17268">
        <ele>2518</ele>
        <time>2013-07-01T05:01:01Z</time>
      </trkpt>
      <trkpt lat="45.18893" lon="6.17266">
        <ele>2518</ele>
        <time>2013-07-01T05:01:06Z</time>
      </trkpt>
      <trkpt lat="45.1889" lon="6.17264">
        <ele>2518</ele>
        <time>2013-07-01T05:01:11Z</time>
      </trkpt>
      <trkpt lat="45.18886" lon="6.17263">
        <ele>2519</ele>
        <time>2013-07-01T05:01:16Z</time>
      </trkpt>
      <trkpt lat="45.18883" lon="6.17261">
        <ele>2519</ele>
        <time>2013-07-01T05:01:21Z</time>
      </trkpt>
      <trkpt lat="45.18879" lon="6.1726">
        <ele>2519</ele>
        <time>2013-07-01T05:01:26Z</time>
      </trkpt>
      <trkpt lat="45.18874" lon="6.17259">
        <ele>2520</ele>
        <time>2013-07-01T05:01:31Z</time>
      </trkpt>
      <trkpt lat="45.1887" lon="6.17259">
        <ele>2520</ele>
        <time>2013-07-01T05:01:36Z</time>
      </trkpt>
      <trkpt lat="45.18865" lon="6.17259">
        <ele>2520</ele>
        <time>2013-07-01T05:01:41Z</time>
      </trkpt>
      <trkpt lat="45.1886" lon="6.1726">
        <ele>2520</ele>
        <time>2013-07-01T05:01:46Z</time>
      </trkpt>
      <trkpt lat="45.18856" lon="6.17261">
        <ele>2520</ele>
        <time>2013-07-01T05:01:51Z</time>
      </trkpt>
      <trkpt lat="45.1885" lon="6.17264">
        <ele>2519</ele>
        <time>2013-07-01T05:01:56Z</time>
      </trkpt>
      <trkpt lat="45.18845" lon="6.17263">
        <ele>2520</ele>
        <time>2013-07-01T05:02:01Z</time>
      </trkpt>
      <trkpt lat="45.1884" lon="6.17262">
        <ele>2519</ele>
        <time>2013-07-01T05:02:06Z</time>
      </trkpt>
      <trkpt lat="45.18834" lon="6.17261">
        <ele>2519</ele>
        <time>2013-07-01T05:02:11Z</time>
      </trkpt>
      <trkpt lat="45.18829" lon="6.1726">
        <ele>2519</ele>
        <time>2013-07-01T05:02:16Z</time>
      </trkpt>
      <trkpt lat="45.18821" lon="6.17262">
        <ele>2516</ele>
        <time>2013-07-01T05:02:21Z</time>
      </trkpt>
      <trkpt lat="45.18813" lon="6.17262">
        <ele>2515</ele>
        <time>2013-07-01T05:02:26Z</time>
      </trkpt>
      <trkpt lat="45.18805" lon="6.17262">
        <ele>2514</ele>
        <time>2013-07-01T05:02:31Z</time>
      </trkpt>
      <trkpt lat="45.18794" lon="6.17266">
        <ele>2512</ele>
        <time>2013-07-01T05:02:36Z</time>
      </trkpt>
      <trkpt lat="45.18788" lon="6.17272">
        <ele>2512</ele>
        <time>2013-07-01T05:02:41Z</time>
      </trkpt>
      <trkpt lat="45.18784" lon="6.17278">
        <ele>2512</ele>
        <time>2013-07-01T05:02:46Z</time>
      </trkpt>
      <trkpt lat="45.1878" lon="6.17282">
        <ele>2512</ele>
        <time>2013-07-01T05:02:51Z</time>
      </trkpt>
      <trkpt lat="45.18776" lon="6.17286">
        <ele>2512</ele>
        <time>2013-07-01T05:02:56Z</time>
      </trkpt>
      <trkpt lat="45.18775" lon="6.17287">
        <ele>2512</ele>
        <time>2013-07-01T05:03:01Z</time>
      </trkpt>
      <trkpt lat="45.1877" lon="6.17293">
        <ele>2512</ele>
        <time>2013-07-01T05:03:06Z</time>
      </trkpt>
      <trkpt lat="45.18764" lon="6.17296">
        <ele>2511</ele>
        <time>2013-07-01T05:03:11Z</time>
      </trkpt>
      <trkpt lat="45.18757" lon="6.17296">
        <ele>2511</ele>
        <time>2013-07-01T05:03:16Z</time>
      </trkpt>
      <trkpt lat="45.1875" lon="6.17295">
        <ele>2510</ele>
        <time>2013-07-01T05:03:21Z</time>
      </trkpt>
      <trkpt lat="45.18744" lon="6.17293">
        <ele>2510</ele>
        <time>2013-07-01T05:03:26Z</time>
      </trkpt>
      <trkpt lat="45.18737" lon="6.1729">
        <ele>2509</ele>
        <time>2013-07-01T05:03:31Z</time>
      </trkpt>
      <trkpt lat="45.1873" lon="6.17288">
        <ele>2508</ele>
        <time>2013-07-01T05:03:36Z</time>
      </trkpt>
      <trkpt lat="45.18722" lon="6.17286">
        <ele>2507</ele>
        <time>2013-07-01T05:03:41Z</time>
      </trkpt>
      <trkpt lat="45.18714" lon="6.17283">
        <ele>2506</ele>
        <time>2013-07-01T05:03:46Z</time>
      </trkpt>
      <trkpt lat="45.18706" lon="6.17281">
        <ele>2506</ele>
        <time>2013-07-01T05:03:51Z</time>
      </trkpt>
      <trkpt lat="45.18698" lon="6.17279">
        <ele>2505</ele>
        <time>2013-07-01T05:03:56Z</time>
      </trkpt>
      <trkpt lat="45.18691" lon="6.17278">
        <ele>2504</ele>
        <time>2013-07-01T05:04:01Z</time>
      </trkpt>
      <trkpt lat="45.18684" lon="6.17276">
        <ele>2504</ele>
        <time>2013-07-01T05:04:06Z</time>
      </trkpt>
      <trkpt lat="45.18677" lon="6.17274">
        <ele>2503</ele>
        <time>2013-07-01T05:04:11Z</time>
      </trkpt>
      <trkpt lat="45.18671" lon="6.17273">
        <ele>2503</ele>
        <time>2013-07-01T05:04:16Z</time>
      </trkpt>
      <trkpt lat="45.18665" lon="6.17272">
        <ele>2503</ele>
        <time>2013-07-01T05:04:21Z</time>
      </trkpt>
      <trkpt lat="45.18659" lon="6.1727">
        <ele>2503</ele>
        <time>2013-07-01T05:04:26Z</time>
      </trkpt>
      <trkpt lat="45.18653" lon="6.17269">
        <ele>2503</ele>
        <time>2013-07-01T05:04:31Z</time>
      </trkpt>
      <trkpt lat="45.18648" lon="6.17267">
        <ele>2503</ele>
        <time>2013-07-01T05:04:36Z</time>
      </trkpt>
      <trkpt lat="45.18642" lon="6.17267">
        <ele>2503</ele>
        <time>2013-07-01T05:04:41Z</time>
      </trkpt>
      <trkpt lat="45.18636" lon="6.17266">
        <ele>2503</ele>
        <time>2013-07-01T05:04:46Z</time>
      </trkpt>
      <trkpt lat="45.18631" lon="6.17264">
        <ele>2503</ele>
        <time>2013-07-01T05:04:51Z</time>
      </trkpt>
      <trkpt lat="45.18629" lon="6.17262">
        <ele>2503</ele>
        <time>2013-07-01T05:04:56Z</time>
      </trkpt>
      <trkpt lat="45.18629" lon="6.17262">
        <ele>2503</ele>
        <time>2013-07-01T05:05:01Z</time>
      </trkpt>
      <trkpt lat="45.18628" lon="6.17262">
        <ele>2503</ele>
        <time>2013-07-01T05:05:06Z</time>
      </trkpt>
      <trkpt lat="45.18624" lon="6.1726">
        <ele>2503</ele>
        <time>2013-07-01T05:05:11Z</time>
      </trkpt>
      <trkpt lat="45.18619" lon="6.17258">
        <ele>2503</ele>
        <time>2013-07-01T05:05:16Z</time>
      </trkpt>
      <trkpt lat="45.18613" lon="6.17257">
        <ele>2503</ele>
        <time>2013-07-01T05:05:21Z</time>
      </trkpt>
      <trkpt lat="45.18607" lon="6.17257">
        <ele>2503</ele>
        <time>2013-07-01T05:05:26Z</time>
      </trkpt>
      <trkpt lat="45.18601" lon="6.17255">
        <ele>2503</ele>
        <time>2013-07-01T05:05:31Z</time>
      </trkpt>
      <trkpt lat="45.18595" lon="6.17253">
        <ele>2503</ele>
        <time>2013-07-01T05:05:36Z</time>
      </trkpt>
      <trkpt lat="45.18588" lon="6.17251">
        <ele>2503</ele>
        <time>2013-07-01T05:05:41Z</time>
      </trkpt>
      <trkpt lat="45.18582" lon="6.17248">
        <ele>2503</ele>
        <time>2013-07-01T05:05:46Z</time>
      </trkpt>
      <trkpt lat="45.18575" lon="6.17246">
        <ele>2503</ele>
        <time>2013-07-01T05:05:51Z</time>
      </trkpt>
      <trkpt lat="45.18572" lon="6.17244">
        <ele>2503</ele>
        <time>2013-07-01T05:05:56Z</time>
      </trkpt>
      <trkpt lat="45.18572" lon="6.17244">
        <ele>2502</ele>
        <time>2013-07-01T05:06:01Z</time>
      </trkpt>
      <trkpt lat="45.18572" lon="6.17244">
        <ele>2503</ele>
        <time>2013-07-01T05:06:06Z</time>
      </trkpt>
      <trkpt lat="45.18569" lon="6.17243">
        <ele>2503</ele>
        <time>2013-07-01T05:06:11Z</time>
      </trkpt>
      <trkpt lat="45.18568" lon="6.17242">
        <ele>2503</ele>
        <time>2013-07-01T05:06:16Z</time>
      </trkpt>
      <trkpt lat="45.18565" lon="6.1724">
        <ele>2503</ele>
        <time>2013-07-01T05:06:21Z</time>
      </trkpt>
      <trkpt lat="45.1856" lon="6.17238">
        <ele>2503</ele>
        <time>2013-07-01T05:06:26Z</time>
      </trkpt>
      <trkpt lat="45.18554" lon="6.17236">
        <ele>2503</ele>
        <time>2013-07-01T05:06:31Z</time>
      </trkpt>
      <trkpt lat="45.18547" lon="6.17234">
        <ele>2503</ele>
        <time>2013-07-01T05:06:36Z</time>
      </trkpt>
      <trkpt lat="45.18541" lon="6.17233">
        <ele>2504</ele>
        <time>2013-07-01T05:06:41Z</time>
      </trkpt>
      <trkpt lat="45.18536" lon="6.17231">
        <ele>2504</ele>
        <time>2013-07-01T05:06:46Z</time>
      </trkpt>
      <trkpt lat="45.1853" lon="6.1723">
        <ele>2504</ele>
        <time>2013-07-01T05:06:51Z</time>
      </trkpt>
      <trkpt lat="45.18525" lon="6.17229">
        <ele>2504</ele>
        <time>2013-07-01T05:06:56Z</time>
      </trkpt>
      <trkpt lat="45.1852" lon="6.17226">
        <ele>2504</ele>
        <time>2013-07-01T05:07:01Z</time>
      </trkpt>
      <trkpt lat="45.18514" lon="6.17224">
        <ele>2504</ele>
        <time>2013-07-01T05:07:06Z</time>
      </trkpt>
      <trkpt lat="45.18509" lon="6.17221">
        <ele>2504</ele>
        <time>2013-07-01T05:07:11Z</time>
      </trkpt>
      <trkpt lat="45.18504" lon="6.17219">
        <ele>2504</ele>
        <time>2013-07-01T05:07:16Z</time>
      </trkpt>
      <trkpt lat="45.18498" lon="6.17217">
        <ele>2504</ele>
        <time>2013-07-01T05:07:21Z</time>
      </trkpt>
      <trkpt lat="45.18493" lon="6.17216">
        <ele>2504</ele>
        <time>2013-07-01T05:07:26Z</time>
      </trkpt>
      <trkpt lat="45.18488" lon="6.17214">
        <ele>2504</ele>
        <time>2013-07-01T05:07:31Z</time>
      </trkpt>
      <trkpt lat="45.18483" lon="6.17211">
        <ele>2504</ele>
        <time>2013-07-01T05:07:36Z</time>
      </trkpt>
      <trkpt lat="45.18478" lon="6.1721">
        <ele>2505</ele>
        <time>2013-07-01T05:07:41Z</time>
      </trkpt>
      <trkpt lat="45.18472" lon="6.17208">
        <ele>2505</ele>
        <time>2013-07-01T05:07:46Z</time>
      </trkpt>
      <trkpt lat="45.18467" lon="6.17206">
        <ele>2505</ele>
        <time>2013-07-01T05:07:51Z</time>
      </trkpt>
      <trkpt lat="45.18462" lon="6.17203">
        <ele>2505</ele>
        <time>2013-07-01T05:07:56Z</time>
      </trkpt>
      <trkpt lat="45.18457" lon="6.17202">
        <ele>2505</ele>
        <time>2013-07-01T05:08:01Z</time>
      </trkpt>
      <trkpt lat="45.18452" lon="6.172">
        <ele>2505</ele>
        <time>2013-07-01T05:08:06Z</time>
      </trkpt>
      <trkpt lat="45.18446" lon="6.17197">
        <ele>2505</ele>
        <time>2013-07-01T05:08:11Z</time>
      </trkpt>
      <trkpt lat="45.18441" lon="6.17195">
        <ele>2505</ele>
        <time>2013-07-01T05:08:16Z</time>
      </trkpt>
      <trkpt lat="45.18436" lon="6.17192">
        <ele>2505</ele>
        <time>2013-07-01T05:08:21Z</time>
      </trkpt>
      <trkpt lat="45.18431" lon="6.1719">
        <ele>2505</ele>
        <time>2013-07-01T05:08:26Z</time>
      </trkpt>
      <trkpt lat="45.18426" lon="6.17188">
        <ele>2506</ele>
        <time>2013-07-01T05:08:31Z</time>
      </trkpt>
      <trkpt lat="45.1842" lon="6.17186">
        <ele>2506</ele>
        <time>2013-07-01T05:08:36Z</time>
      </trkpt>
      <trkpt lat="45.18416" lon="6.17183">
        <ele>2506</ele>
        <time>2013-07-01T05:08:41Z</time>
      </trkpt>
      <trkpt lat="45.18411" lon="6.1718">
        <ele>2506</ele>
        <time>2013-07-01T05:08:46Z</time>
      </trkpt>
      <trkpt lat="45.18407" lon="6.17177">
        <ele>2506</ele>
        <time>2013-07-01T05:08:51Z</time>
      </trkpt>
      <trkpt lat="45.18402" lon="6.17175">
        <ele>2507</ele>
        <time>2013-07-01T05:08:56Z</time>
      </trkpt>
      <trkpt lat="45.18397" lon="6.17173">
        <ele>2507</ele>
        <time>2013-07-01T05:09:01Z</time>
      </trkpt>
      <trkpt lat="45.18392" lon="6.17171">
        <ele>2507</ele>
        <time>2013-07-01T05:09:06Z</time>
      </trkpt>
      <trkpt lat="45.18387" lon="6.17168">
        <ele>2507</ele>
        <time>2013-07-01T05:09:11Z</time>
      </trkpt>
      <trkpt lat="45.18382" lon="6.17166">
        <ele>2507</ele>
        <time>2013-07-01T05:09:16Z</time>
      </trkpt>
      <trkpt lat="45.18377" lon="6.17163">
        <ele>2508</ele>
        <time>2013-07-01T05:09:21Z</time>
      </trkpt>
      <trkpt lat="45.18373" lon="6.1716">
        <ele>2508</ele>
        <time>2013-07-01T05:09:26Z</time>
      </trkpt>
      <trkpt lat="45.18369" lon="6.17156">
        <ele>2508</ele>
        <time>2013-07-01T05:09:31Z</time>
      </trkpt>
      <trkpt lat="45.18364" lon="6.17153">
        <ele>2508</ele>
        <time>2013-07-01T05:09:36Z</time>
      </trkpt>
      <trkpt lat="45.1836" lon="6.17149">
        <ele>2508</ele>
        <time>2013-07-01T05:09:41Z</time>
      </trkpt>
      <trkpt lat="45.18355" lon="6.17146">
        <ele>2509</ele>
        <time>2013-07-01T05:09:46Z</time>
      </trkpt>
      <trkpt lat="45.18351" lon="6.17143">
        <ele>2509</ele>
        <time>2013-07-01T05:09:51Z</time>
      </trkpt>
      <trkpt lat="45.18346" lon="6.17139">
        <ele>2509</ele>
        <time>2013-07-01T05:09:56Z</time>
      </trkpt>
      <trkpt lat="45.18342" lon="6.17134">
        <ele>2509</ele>
        <time>2013-07-01T05:10:01Z</time>
      </trkpt>
      <trkpt lat="45.18337" lon="6.1713">
        <ele>2509</ele>
        <time>2013-07-01T05:10:06Z</time>
      </trkpt>
      <trkpt lat="45.18333" lon="6.17126">
        <ele>2509</ele>
        <time>2013-07-01T05:10:11Z</time>
      </trkpt>
      <trkpt lat="45.18329" lon="6.17121">
        <ele>2510</ele>
        <time>2013-07-01T05:10:16Z</time>
      </trkpt>
      <trkpt lat="45.18325" lon="6.17117">
        <ele>2510</ele>
        <time>2013-07-01T05:10:21Z</time>
      </trkpt>
      <trkpt lat="45.18321" lon="6.17112">
        <ele>2510</ele>
        <time>2013-07-01T05:10:26Z</time>
      </trkpt>
      <trkpt lat="45.18317" lon="6.17108">
        <ele>2510</ele>
        <time>2013-07-01T05:10:31Z</time>
      </trkpt>
      <trkpt lat="45.18312" lon="6.17106">
        <ele>2511</ele>
        <time>2013-07-01T05:10:36Z</time>
      </trkpt>
      <trkpt lat="45.18308" lon="6.17103">
        <ele>2511</ele>
        <time>2013-07-01T05:10:41Z</time>
      </trkpt>
      <trkpt lat="45.18303" lon="6.171">
        <ele>2511</ele>
        <time>2013-07-01T05:10:46Z</time>
      </trkpt>
      <trkpt lat="45.18298" lon="6.17097">
        <ele>2512</ele>
        <time>2013-07-01T05:10:51Z</time>
      </trkpt>
      <trkpt lat="45.18294" lon="6.17094">
        <ele>2512</ele>
        <time>2013-07-01T05:10:56Z</time>
      </trkpt>
      <trkpt lat="45.18289" lon="6.17092">
        <ele>2512</ele>
        <time>2013-07-01T05:11:01Z</time>
      </trkpt>
      <trkpt lat="45.18284" lon="6.1709">
        <ele>2513</ele>
        <time>2013-07-01T05:11:06Z</time>
      </trkpt>
      <trkpt lat="45.18279" lon="6.17088">
        <ele>2513</ele>
        <time>2013-07-01T05:11:11Z</time>
      </trkpt>
      <trkpt lat="45.18274" lon="6.17084">
        <ele>2513</ele>
        <time>2013-07-01T05:11:16Z</time>
      </trkpt>
      <trkpt lat="45.1827" lon="6.17082">
        <ele>2514</ele>
        <time>2013-07-01T05:11:21Z</time>
      </trkpt>
      <trkpt lat="45.18265" lon="6.1708">
        <ele>2514</ele>
        <time>2013-07-01T05:11:26Z</time>
      </trkpt>
      <trkpt lat="45.18261" lon="6.17078">
        <ele>2514</ele>
        <time>2013-07-01T05:11:31Z</time>
      </trkpt>
      <trkpt lat="45.18257" lon="6.17075">
        <ele>2515</ele>
        <time>2013-07-01T05:11:36Z</time>
      </trkpt>
      <trkpt lat="45.18253" lon="6.17072">
        <ele>2515</ele>
        <time>2013-07-01T05:11:41Z</time>
      </trkpt>
      <trkpt lat="45.18248" lon="6.1707">
        <ele>2516</ele>
        <time>2013-07-01T05:11:46Z</time>
      </trkpt>
      <trkpt lat="45.18244" lon="6.17067">
        <ele>2516</ele>
        <time>2013-07-01T05:11:51Z</time>
      </trkpt>
      <trkpt lat="45.1824" lon="6.17065">
        <ele>2517</ele>
        <time>2013-07-01T05:11:56Z</time>
      </trkpt>
      <trkpt lat="45.18236" lon="6.17063">
        <ele>2517</ele>
        <time>2013-07-01T05:12:01Z</time>
      </trkpt>
      <trkpt lat="45.18231" lon="6.1706">
        <ele>2517</ele>
        <time>2013-07-01T05:12:06Z</time>
      </trkpt>
      <trkpt lat="45.18227" lon="6.17057">
        <ele>2517</ele>
        <time>2013-07-01T05:12:11Z</time>
      </trkpt>
      <trkpt lat="45.18223" lon="6.17054">
        <ele>2518</ele>
        <time>2013-07-01T05:12:16Z</time>
      </trkpt>
      <trkpt lat="45.18219" lon="6.17051">
        <ele>2518</ele>
        <time>2013-07-01T05:12:21Z</time>
      </trkpt>
      <trkpt lat="45.18215" lon="6.17049">
        <ele>2518</ele>
        <time>2013-07-01T05:12:26Z</time>
      </trkpt>
      <trkpt lat="45.18211" lon="6.17047">
        <ele>2519</ele>
        <time>2013-07-01T05:12:31Z</time>
      </trkpt>
      <trkpt lat="45.18206" lon="6.17044">
        <ele>2520</ele>
        <time>2013-07-01T05:12:36Z</time>
      </trkpt>
      <trkpt lat="45.18202" lon="6.17042">
        <ele>2520</ele>
        <time>2013-07-01T05:12:41Z</time>
      </trkpt>
      <trkpt lat="45.18198" lon="6.1704">
        <ele>2521</ele>
        <time>2013-07-01T05:12:46Z</time>
      </trkpt>
      <trkpt lat="45.18194" lon="6.17038">
        <ele>2521</ele>
        <time>2013-07-01T05:12:51Z</time>
      </trkpt>
      <trkpt lat="45.1819" lon="6.17037">
        <ele>2522</ele>
        <time>2013-07-01T05:12:56Z</time>
      </trkpt>
      <trkpt lat="45.18186" lon="6.17035">
        <ele>2522</ele>
        <time>2013-07-01T05:13:01Z</time>
      </trkpt>
      <trkpt lat="45.18182" lon="6.17033">
        <ele>2523</ele>
        <time>2013-07-01T05:13:06Z</time>
      </trkpt>
      <trkpt lat="45.18178" lon="6.17031">
        <ele>2523</ele>
        <time>2013-07-01T05:13:11Z</time>
      </trkpt>
      <trkpt lat="45.18173" lon="6.17028">
        <ele>2524</ele>
        <time>2013-07-01T05:13:16Z</time>
      </trkpt>
      <trkpt lat="45.18169" lon="6.17025">
        <ele>2524</ele>
        <time>2013-07-01T05:13:21Z</time>
      </trkpt>
      <trkpt lat="45.18165" lon="6.17023">
        <ele>2525</ele>
        <time>2013-07-01T05:13:26Z</time>
      </trkpt>
      <trkpt lat="45.18161" lon="6.17019">
        <ele>2525</ele>
        <time>2013-07-01T05:13:31Z</time>
      </trkpt>
      <trkpt lat="45.18157" lon="6.17017">
        <ele>2525</ele>
        <time>2013-07-01T05:13:36Z</time>
      </trkpt>
      <trkpt lat="45.18153" lon="6.17014">
        <ele>2526</ele>
        <time>2013-07-01T05:13:41Z</time>
      </trkpt>
      <trkpt lat="45.18149" lon="6.17011">
        <ele>2527</ele>
        <time>2013-07-01T05:13:46Z</time>
      </trkpt>
      <trkpt lat="45.18146" lon="6.17009">
        <ele>2527</ele>
        <time>2013-07-01T05:13:51Z</time>
      </trkpt>
      <trkpt lat="45.18143" lon="6.17007">
        <ele>2528</ele>
        <time>2013-07-01T05:13:56Z</time>
      </trkpt>
      <trkpt lat="45.18139" lon="6.17006">
        <ele>2529</ele>
        <time>2013-07-01T05:14:01Z</time>
      </trkpt>
      <trkpt lat="45.18136" lon="6.17004">
        <ele>2530</ele>
        <time>2013-07-01T05:14:06Z</time>
      </trkpt>
      <trkpt lat="45.18133" lon="6.17001">
        <ele>2530</ele>
        <time>2013-07-01T05:14:11Z</time>
      </trkpt>
      <trkpt lat="45.1813" lon="6.16997">
        <ele>2531</ele>
        <time>2013-07-01T05:14:16Z</time>
      </trkpt>
      <trkpt lat="45.18128" lon="6.16993">
        <ele>2532</ele>
        <time>2013-07-01T05:14:21Z</time>
      </trkpt>
      <trkpt lat="45.18125" lon="6.16989">
        <ele>2533</ele>
        <time>2013-07-01T05:14:26Z</time>
      </trkpt>
      <trkpt lat="45.18123" lon="6.16986">
        <ele>2534</ele>
        <time>2013-07-01T05:14:31Z</time>
      </trkpt>
      <trkpt lat="45.18121" lon="6.16985">
        <ele>2535</ele>
        <time>2013-07-01T05:14:36Z</time>
      </trkpt>
      <trkpt lat="45.1812" lon="6.16983">
        <ele>2536</ele>
        <time>2013-07-01T05:14:41Z</time>
      </trkpt>
      <trkpt lat="45.18117" lon="6.16981">
        <ele>2537</ele>
        <time>2013-07-01T05:14:46Z</time>
      </trkpt>
      <trkpt lat="45.18114" lon="6.1698">
        <ele>2537</ele>
        <time>2013-07-01T05:14:51Z</time>
      </trkpt>
      <trkpt lat="45.18114" lon="6.1698">
        <ele>2538</ele>
        <time>2013-07-01T05:14:56Z</time>
      </trkpt>
      <trkpt lat="45.18114" lon="6.16979">
        <ele>2537</ele>
        <time>2013-07-01T05:15:01Z</time>
      </trkpt>
      <trkpt lat="45.18113" lon="6.1698">
        <ele>2537</ele>
        <time>2013-07-01T05:15:06Z</time>
      </trkpt>
      <trkpt lat="45.18113" lon="6.1698">
        <ele>2536</ele>
        <time>2013-07-01T05:15:11Z</time>
      </trkpt>
      <trkpt lat="45.18112" lon="6.16981">
        <ele>2534</ele>
        <time>2013-07-01T05:15:16Z</time>
      </trkpt>
      <trkpt lat="45.18112" lon="6.16981">
        <ele>2532</ele>
        <time>2013-07-01T05:15:21Z</time>
      </trkpt>
      <trkpt lat="45.18112" lon="6.16981">
        <ele>2530</ele>
        <time>2013-07-01T05:15:26Z</time>
      </trkpt>
      <trkpt lat="45.18112" lon="6.1698">
        <ele>2528</ele>
        <time>2013-07-01T05:15:31Z</time>
      </trkpt>
      <trkpt lat="45.18112" lon="6.16981">
        <ele>2530</ele>
        <time>2013-07-01T05:15:36Z</time>
      </trkpt>
      <trkpt lat="45.18112" lon="6.16981">
        <ele>2535</ele>
        <time>2013-07-01T05:15:41Z</time>
      </trkpt>
      <trkpt lat="45.18113" lon="6.16981">
        <ele>2540</ele>
        <time>2013-07-01T05:15:46Z</time>
      </trkpt>
      <trkpt lat="45.18113" lon="6.1698">
        <ele>2540</ele>
        <time>2013-07-01T05:15:51Z</time>
      </trkpt>
      <trkpt lat="45.18113" lon="6.1698">
        <ele>2540</ele>
        <time>2013-07-01T05:15:56Z</time>
      </trkpt>
      <trkpt lat="45.18113" lon="6.16979">
        <ele>2540</ele>
        <time>2013-07-01T05:16:01Z</time>
      </trkpt>
      <trkpt lat="45.18108" lon="6.16979">
        <ele>2541</ele>
        <time>2013-07-01T05:16:06Z</time>
      </trkpt>
      <trkpt lat="45.18105" lon="6.16979">
        <ele>2542</ele>
        <time>2013-07-01T05:16:11Z</time>
      </trkpt>
      <trkpt lat="45.18102" lon="6.16979">
        <ele>2542</ele>
        <time>2013-07-01T05:16:16Z</time>
      </trkpt>
      <trkpt lat="45.18098" lon="6.16978">
        <ele>2543</ele>
        <time>2013-07-01T05:16:21Z</time>
      </trkpt>
      <trkpt lat="45.18094" lon="6.16978">
        <ele>2544</ele>
        <time>2013-07-01T05:16:26Z</time>
      </trkpt>
      <trkpt lat="45.18091" lon="6.16978">
        <ele>2544</ele>
        <time>2013-07-01T05:16:31Z</time>
      </trkpt>
      <trkpt lat="45.18087" lon="6.16978">
        <ele>2545</ele>
        <time>2013-07-01T05:16:36Z</time>
      </trkpt>
      <trkpt lat="45.18084" lon="6.16978">
        <ele>2545</ele>
        <time>2013-07-01T05:16:41Z</time>
      </trkpt>
      <trkpt lat="45.1808" lon="6.1698">
        <ele>2545</ele>
        <time>2013-07-01T05:16:46Z</time>
      </trkpt>
      <trkpt lat="45.18076" lon="6.16981">
        <ele>2546</ele>
        <time>2013-07-01T05:16:51Z</time>
      </trkpt>
      <trkpt lat="45.18073" lon="6.16983">
        <ele>2546</ele>
        <time>2013-07-01T05:16:56Z</time>
      </trkpt>
      <trkpt lat="45.1807" lon="6.16985">
        <ele>2547</ele>
        <time>2013-07-01T05:17:01Z</time>
      </trkpt>
      <trkpt lat="45.18068" lon="6.16985">
        <ele>2548</ele>
        <time>2013-07-01T05:17:06Z</time>
      </trkpt>
      <trkpt lat="45.18065" lon="6.16986">
        <ele>2549</ele>
        <time>2013-07-01T05:17:11Z</time>
      </trkpt>
      <trkpt lat="45.18063" lon="6.16987">
        <ele>2549</ele>
        <time>2013-07-01T05:17:16Z</time>
      </trkpt>
      <trkpt lat="45.1806" lon="6.16988">
        <ele>2550</ele>
        <time>2013-07-01T05:17:21Z</time>
      </trkpt>
      <trkpt lat="45.18057" lon="6.16988">
        <ele>2551</ele>
        <time>2013-07-01T05:17:26Z</time>
      </trkpt>
      <trkpt lat="45.18055" lon="6.16988">
        <ele>2552</ele>
        <time>2013-07-01T05:17:31Z</time>
      </trkpt>
      <trkpt lat="45.18052" lon="6.16986">
        <ele>2553</ele>
        <time>2013-07-01T05:17:36Z</time>
      </trkpt>
      <trkpt lat="45.1805" lon="6.16984">
        <ele>2553</ele>
        <time>2013-07-01T05:17:41Z</time>
      </trkpt>
      <trkpt lat="45.18048" lon="6.16982">
        <ele>2554</ele>
        <time>2013-07-01T05:17:46Z</time>
      </trkpt>
      <trkpt lat="45.18046" lon="6.1698">
        <ele>2555</ele>
        <time>2013-07-01T05:17:51Z</time>
      </trkpt>
      <trkpt lat="45.18044" lon="6.16978">
        <ele>2556</ele>
        <time>2013-07-01T05:17:56Z</time>
      </trkpt>
      <trkpt lat="45.18042" lon="6.16976">
        <ele>2556</ele>
        <time>2013-07-01T05:18:01Z</time>
      </trkpt>
      <trkpt lat="45.18039" lon="6.16974">
        <ele>2557</ele>
        <time>2013-07-01T05:18:06Z</time>
      </trkpt>
      <trkpt lat="45.18037" lon="6.16973">
        <ele>2558</ele>
        <time>2013-07-01T05:18:11Z</time>
      </trkpt>
      <trkpt lat="45.18034" lon="6.16973">
        <ele>2558</ele>
        <time>2013-07-01T05:18:16Z</time>
      </trkpt>
      <trkpt lat="45.18032" lon="6.16974">
        <ele>2560</ele>
        <time>2013-07-01T05:18:21Z</time>
      </trkpt>
      <trkpt lat="45.1803" lon="6.16976">
        <ele>2561</ele>
        <time>2013-07-01T05:18:26Z</time>
      </trkpt>
      <trkpt lat="45.18028" lon="6.16978">
        <ele>2562</ele>
        <time>2013-07-01T05:18:31Z</time>
      </trkpt>
      <trkpt lat="45.18025" lon="6.16978">
        <ele>2562</ele>
        <time>2013-07-01T05:18:36Z</time>
      </trkpt>
      <trkpt lat="45.18023" lon="6.16976">
        <ele>2563</ele>
        <time>2013-07-01T05:18:41Z</time>
      </trkpt>
      <trkpt lat="45.18021" lon="6.16975">
        <ele>2563</ele>
        <time>2013-07-01T05:18:46Z</time>
      </trkpt>
      <trkpt lat="45.18019" lon="6.16973">
        <ele>2564</ele>
        <time>2013-07-01T05:18:51Z</time>
      </trkpt>
      <trkpt lat="45.18017" lon="6.16971">
        <ele>2565</ele>
        <time>2013-07-01T05:18:56Z</time>
      </trkpt>
      <trkpt lat="45.18015" lon="6.16969">
        <ele>2565</ele>
        <time>2013-07-01T05:19:01Z</time>
      </trkpt>
      <trkpt lat="45.18013" lon="6.16969">
        <ele>2566</ele>
        <time>2013-07-01T05:19:06Z</time>
      </trkpt>
      <trkpt lat="45.1801" lon="6.16969">
        <ele>2567</ele>
        <time>2013-07-01T05:19:11Z</time>
      </trkpt>
      <trkpt lat="45.18008" lon="6.16968">
        <ele>2567</ele>
        <time>2013-07-01T05:19:16Z</time>
      </trkpt>
      <trkpt lat="45.18006" lon="6.16968">
        <ele>2568</ele>
        <time>2013-07-01T05:19:21Z</time>
      </trkpt>
      <trkpt lat="45.18003" lon="6.16968">
        <ele>2569</ele>
        <time>2013-07-01T05:19:26Z</time>
      </trkpt>
      <trkpt lat="45.18001" lon="6.16967">
        <ele>2569</ele>
        <time>2013-07-01T05:19:31Z</time>
      </trkpt>
      <trkpt lat="45.17999" lon="6.16964">
        <ele>2570</ele>
        <time>2013-07-01T05:19:36Z</time>
      </trkpt>
      <trkpt lat="45.17996" lon="6.16963">
        <ele>2571</ele>
        <time>2013-07-01T05:19:41Z</time>
      </trkpt>
      <trkpt lat="45.17995" lon="6.1696">
        <ele>2571</ele>
        <time>2013-07-01T05:19:46Z</time>
      </trkpt>
      <trkpt lat="45.17993" lon="6.16958">
        <ele>2572</ele>
        <time>2013-07-01T05:19:51Z</time>
      </trkpt>
      <trkpt lat="45.1799" lon="6.1696">
        <ele>2573</ele>
        <time>2013-07-01T05:19:56Z</time>
      </trkpt>
      <trkpt lat="45.17988" lon="6.16963">
        <ele>2574</ele>
        <time>2013-07-01T05:20:01Z</time>
      </trkpt>
      <trkpt lat="45.17986" lon="6.16965">
        <ele>2574</ele>
        <time>2013-07-01T05:20:06Z</time>
      </trkpt>
      <trkpt lat="45.17984" lon="6.16967">
        <ele>2574</ele>
        <time>2013-07-01T05:20:11Z</time>
      </trkpt>
      <trkpt lat="45.17981" lon="6.16965">
        <ele>2575</ele>
        <time>2013-07-01T05:20:16Z</time>
      </trkpt>
      <trkpt lat="45.17979" lon="6.16963">
        <ele>2575</ele>
        <time>2013-07-01T05:20:21Z</time>
      </trkpt>
      <trkpt lat="45.17976" lon="6.16961">
        <ele>2576</ele>
        <time>2013-07-01T05:20:26Z</time>
      </trkpt>
      <trkpt lat="45.17974" lon="6.16959">
        <ele>2576</ele>
        <time>2013-07-01T05:20:31Z</time>
      </trkpt>
      <trkpt lat="45.17972" lon="6.16957">
        <ele>2577</ele>
        <time>2013-07-01T05:20:36Z</time>
      </trkpt>
      <trkpt lat="45.1797" lon="6.16956">
        <ele>2578</ele>
        <time>2013-07-01T05:20:41Z</time>
      </trkpt>
      <trkpt lat="45.17967" lon="6.16956">
        <ele>2578</ele>
        <time>2013-07-01T05:20:46Z</time>
      </trkpt>
      <trkpt lat="45.17964" lon="6.16956">
        <ele>2579</ele>
        <time>2013-07-01T05:20:51Z</time>
      </trkpt>
      <trkpt lat="45.17962" lon="6.16956">
        <ele>2580</ele>
        <time>2013-07-01T05:20:56Z</time>
      </trkpt>
      <trkpt lat="45.17959" lon="6.16955">
        <ele>2580</ele>
        <time>2013-07-01T05:21:01Z</time>
      </trkpt>
      <trkpt lat="45.17957" lon="6.16954">
        <ele>2581</ele>
        <time>2013-07-01T05:21:06Z</time>
      </trkpt>
      <trkpt lat="45.17954" lon="6.16954">
        <ele>2581</ele>
        <time>2013-07-01T05:21:11Z</time>
      </trkpt>
      <trkpt lat="45.17951" lon="6.16953">
        <ele>2582</ele>
        <time>2013-07-01T05:21:16Z</time>
      </trkpt>
      <trkpt lat="45.17949" lon="6.16952">
        <ele>2582</ele>
        <time>2013-07-01T05:21:21Z</time>
      </trkpt>
      <trkpt lat="45.17946" lon="6.16952">
        <ele>2583</ele>
        <time>2013-07-01T05:21:26Z</time>
      </trkpt>
      <trkpt lat="45.17943" lon="6.16952">
        <ele>2584</ele>
        <time>2013-07-01T05:21:31Z</time>
      </trkpt>
      <trkpt lat="45.17941" lon="6.1695">
        <ele>2584</ele>
        <time>2013-07-01T05:21:36Z</time>
      </trkpt>
      <trkpt lat="45.17939" lon="6.16948">
        <ele>2585</ele>
        <time>2013-07-01T05:21:41Z</time>
      </trkpt>
      <trkpt lat="45.17937" lon="6.16949">
        <ele>2586</ele>
        <time>2013-07-01T05:21:46Z</time>
      </trkpt>
      <trkpt lat="45.17935" lon="6.16951">
        <ele>2586</ele>
        <time>2013-07-01T05:21:51Z</time>
      </trkpt>
      <trkpt lat="45.17933" lon="6.16952">
        <ele>2587</ele>
        <time>2013-07-01T05:21:56Z</time>
      </trkpt>
      <trkpt lat="45.17931" lon="6.1695">
        <ele>2588</ele>
        <time>2013-07-01T05:22:01Z</time>
      </trkpt>
      <trkpt lat="45.1793" lon="6.16947">
        <ele>2588</ele>
        <time>2013-07-01T05:22:06Z</time>
      </trkpt>
      <trkpt lat="45.17928" lon="6.16945">
        <ele>2589</ele>
        <time>2013-07-01T05:22:11Z</time>
      </trkpt>
      <trkpt lat="45.17925" lon="6.16945">
        <ele>2590</ele>
        <time>2013-07-01T05:22:16Z</time>
      </trkpt>
      <trkpt lat="45.17923" lon="6.16948">
        <ele>2590</ele>
        <time>2013-07-01T05:22:21Z</time>
      </trkpt>
      <trkpt lat="45.17922" lon="6.16948">
        <ele>2591</ele>
        <time>2013-07-01T05:22:26Z</time>
      </trkpt>
      <trkpt lat="45.1792" lon="6.16946">
        <ele>2592</ele>
        <time>2013-07-01T05:22:31Z</time>
      </trkpt>
      <trkpt lat="45.17918" lon="6.16943">
        <ele>2592</ele>
        <time>2013-07-01T05:22:36Z</time>
      </trkpt>
      <trkpt lat="45.17917" lon="6.1694">
        <ele>2593</ele>
        <time>2013-07-01T05:22:41Z</time>
      </trkpt>
      <trkpt lat="45.17915" lon="6.16937">
        <ele>2594</ele>
        <time>2013-07-01T05:22:46Z</time>
      </trkpt>
      <trkpt lat="45.17913" lon="6.16937">
        <ele>2595</ele>
        <time>2013-07-01T05:22:51Z</time>
      </trkpt>
      <trkpt lat="45.1791" lon="6.16938">
        <ele>2596</ele>
        <time>2013-07-01T05:22:56Z</time>
      </trkpt>
      <trkpt lat="45.17908" lon="6.16939">
        <ele>2597</ele>
        <time>2013-07-01T05:23:01Z</time>
      </trkpt>
      <trkpt lat="45.17905" lon="6.16939">
        <ele>2598</ele>
        <time>2013-07-01T05:23:06Z</time>
      </trkpt>
      <trkpt lat="45.17903" lon="6.16938">
        <ele>2599</ele>
        <time>2013-07-01T05:23:11Z</time>
      </trkpt>
      <trkpt lat="45.17901" lon="6.16935">
        <ele>2600</ele>
        <time>2013-07-01T05:23:16Z</time>
      </trkpt>
      <trkpt lat="45.17898" lon="6.16933">
        <ele>2601</ele>
        <time>2013-07-01T05:23:21Z</time>
      </trkpt>
      <trkpt lat="45.17896" lon="6.16931">
        <ele>2601</ele>
        <time>2013-07-01T05:23:26Z</time>
      </trkpt>
      <trkpt lat="45.17895" lon="6.16929">
        <ele>2602</ele>
        <time>2013-07-01T05:23:31Z</time>
      </trkpt>
      <trkpt lat="45.17892" lon="6.16927">
        <ele>2602</ele>
        <time>2013-07-01T05:23:36Z</time>
      </trkpt>
      <trkpt lat="45.17889" lon="6.16925">
        <ele>2603</ele>
        <time>2013-07-01T05:23:41Z</time>
      </trkpt>
      <trkpt lat="45.17887" lon="6.16923">
        <ele>2604</ele>
        <time>2013-07-01T05:23:46Z</time>
      </trkpt>
      <trkpt lat="45.17885" lon="6.16921">
        <ele>2605</ele>
        <time>2013-07-01T05:23:51Z</time>
      </trkpt>
      <trkpt lat="45.17883" lon="6.1692">
        <ele>2605</ele>
        <time>2013-07-01T05:23:56Z</time>
      </trkpt>
      <trkpt lat="45.17883" lon="6.1692">
        <ele>2605</ele>
        <time>2013-07-01T05:24:01Z</time>
      </trkpt>
      <trkpt lat="45.1788" lon="6.16918">
        <ele>2606</ele>
        <time>2013-07-01T05:24:06Z</time>
      </trkpt>
      <trkpt lat="45.17877" lon="6.16916">
        <ele>2606</ele>
        <time>2013-07-01T05:24:11Z</time>
      </trkpt>
      <trkpt lat="45.17875" lon="6.16914">
        <ele>2607</ele>
        <time>2013-07-01T05:24:16Z</time>
      </trkpt>
      <trkpt lat="45.17872" lon="6.16912">
        <ele>2608</ele>
        <time>2013-07-01T05:24:21Z</time>
      </trkpt>
      <trkpt lat="45.17869" lon="6.16909">
        <ele>2608</ele>
        <time>2013-07-01T05:24:26Z</time>
      </trkpt>
      <trkpt lat="45.17865" lon="6.16907">
        <ele>2609</ele>
        <time>2013-07-01T05:24:31Z</time>
      </trkpt>
      <trkpt lat="45.17862" lon="6.16905">
        <ele>2609</ele>
        <time>2013-07-01T05:24:36Z</time>
      </trkpt>
      <trkpt lat="45.17859" lon="6.16902">
        <ele>2610</ele>
        <time>2013-07-01T05:24:41Z</time>
      </trkpt>
      <trkpt lat="45.17856" lon="6.169">
        <ele>2610</ele>
        <time>2013-07-01T05:24:46Z</time>
      </trkpt>
      <trkpt lat="45.17853" lon="6.16898">
        <ele>2611</ele>
        <time>2013-07-01T05:24:51Z</time>
      </trkpt>
      <trkpt lat="45.17849" lon="6.16896">
        <ele>2611</ele>
        <time>2013-07-01T05:24:56Z</time>
      </trkpt>
      <trkpt lat="45.17846" lon="6.16893">
        <ele>2611</ele>
        <time>2013-07-01T05:25:01Z</time>
      </trkpt>
      <trkpt lat="45.17844" lon="6.16891">
        <ele>2612</ele>
        <time>2013-07-01T05:25:06Z</time>
      </trkpt>
      <trkpt lat="45.17844" lon="6.16891">
        <ele>2612</ele>
        <time>2013-07-01T05:25:11Z</time>
      </trkpt>
      <trkpt lat="45.1784" lon="6.16888">
        <ele>2612</ele>
        <time>2013-07-01T05:25:16Z</time>
      </trkpt>
      <trkpt lat="45.17836" lon="6.16884">
        <ele>2612</ele>
        <time>2013-07-01T05:25:21Z</time>
      </trkpt>
      <trkpt lat="45.17832" lon="6.16881">
        <ele>2613</ele>
        <time>2013-07-01T05:25:26Z</time>
      </trkpt>
      <trkpt lat="45.17828" lon="6.16876">
        <ele>2613</ele>
        <time>2013-07-01T05:25:31Z</time>
      </trkpt>
      <trkpt lat="45.17825" lon="6.16871">
        <ele>2613</ele>
        <time>2013-07-01T05:25:36Z</time>
      </trkpt>
      <trkpt lat="45.17822" lon="6.16866">
        <ele>2613</ele>
        <time>2013-07-01T05:25:41Z</time>
      </trkpt>
      <trkpt lat="45.17818" lon="6.16861">
        <ele>2614</ele>
        <time>2013-07-01T05:25:46Z</time>
      </trkpt>
      <trkpt lat="45.17815" lon="6.16857">
        <ele>2614</ele>
        <time>2013-07-01T05:25:51Z</time>
      </trkpt>
      <trkpt lat="45.17812" lon="6.16853">
        <ele>2615</ele>
        <time>2013-07-01T05:25:56Z</time>
      </trkpt>
      <trkpt lat="45.17809" lon="6.1685">
        <ele>2616</ele>
        <time>2013-07-01T05:26:01Z</time>
      </trkpt>
      <trkpt lat="45.17806" lon="6.16847">
        <ele>2616</ele>
        <time>2013-07-01T05:26:06Z</time>
      </trkpt>
      <trkpt lat="45.17803" lon="6.16845">
        <ele>2617</ele>
        <time>2013-07-01T05:26:11Z</time>
      </trkpt>
      <trkpt lat="45.17799" lon="6.16843">
        <ele>2617</ele>
        <time>2013-07-01T05:26:16Z</time>
      </trkpt>
      <trkpt lat="45.17796" lon="6.1684">
        <ele>2618</ele>
        <time>2013-07-01T05:26:21Z</time>
      </trkpt>
      <trkpt lat="45.17796" lon="6.1684">
        <ele>2618</ele>
        <time>2013-07-01T05:26:26Z</time>
      </trkpt>
      <trkpt lat="45.17794" lon="6.16838">
        <ele>2619</ele>
        <time>2013-07-01T05:26:31Z</time>
      </trkpt>
      <trkpt lat="45.17791" lon="6.16835">
        <ele>2619</ele>
        <time>2013-07-01T05:26:36Z</time>
      </trkpt>
      <trkpt lat="45.17788" lon="6.16833">
        <ele>2620</ele>
        <time>2013-07-01T05:26:41Z</time>
      </trkpt>
      <trkpt lat="45.17785" lon="6.16831">
        <ele>2621</ele>
        <time>2013-07-01T05:26:46Z</time>
      </trkpt>
      <trkpt lat="45.17782" lon="6.16828">
        <ele>2621</ele>
        <time>2013-07-01T05:26:51Z</time>
      </trkpt>
      <trkpt lat="45.17779" lon="6.16826">
        <ele>2622</ele>
        <time>2013-07-01T05:26:56Z</time>
      </trkpt>
      <trkpt lat="45.17777" lon="6.16824">
        <ele>2623</ele>
        <time>2013-07-01T05:27:01Z</time>
      </trkpt>
      <trkpt lat="45.17774" lon="6.16822">
        <ele>2623</ele>
        <time>2013-07-01T05:27:06Z</time>
      </trkpt>
      <trkpt lat="45.17771" lon="6.16819">
        <ele>2624</ele>
        <time>2013-07-01T05:27:11Z</time>
      </trkpt>
      <trkpt lat="45.17768" lon="6.16817">
        <ele>2625</ele>
        <time>2013-07-01T05:27:16Z</time>
      </trkpt>
      <trkpt lat="45.17765" lon="6.16815">
        <ele>2625</ele>
        <time>2013-07-01T05:27:21Z</time>
      </trkpt>
      <trkpt lat="45.17762" lon="6.16813">
        <ele>2626</ele>
        <time>2013-07-01T05:27:26Z</time>
      </trkpt>
      <trkpt lat="45.1776" lon="6.1681">
        <ele>2626</ele>
        <time>2013-07-01T05:27:31Z</time>
      </trkpt>
      <trkpt lat="45.17757" lon="6.16808">
        <ele>2627</ele>
        <time>2013-07-01T05:27:36Z</time>
      </trkpt>
      <trkpt lat="45.17755" lon="6.16806">
        <ele>2627</ele>
        <time>2013-07-01T05:27:41Z</time>
      </trkpt>
      <trkpt lat="45.17752" lon="6.16804">
        <ele>2628</ele>
        <time>2013-07-01T05:27:46Z</time>
      </trkpt>
      <trkpt lat="45.17749" lon="6.16802">
        <ele>2629</ele>
        <time>2013-07-01T05:27:51Z</time>
      </trkpt>
      <trkpt lat="45.17746" lon="6.16799">
        <ele>2629</ele>
        <time>2013-07-01T05:27:56Z</time>
      </trkpt>
      <trkpt lat="45.17744" lon="6.16797">
        <ele>2630</ele>
        <time>2013-07-01T05:28:01Z</time>
      </trkpt>
      <trkpt lat="45.17741" lon="6.16795">
        <ele>2630</ele>
        <time>2013-07-01T05:28:06Z</time>
      </trkpt>
      <trkpt lat="45.17738" lon="6.16793">
        <ele>2631</ele>
        <time>2013-07-01T05:28:11Z</time>
      </trkpt>
      <trkpt lat="45.17735" lon="6.1679">
        <ele>2632</ele>
        <time>2013-07-01T05:28:16Z</time>
      </trkpt>
      <trkpt lat="45.17732" lon="6.16788">
        <ele>2632</ele>
        <time>2013-07-01T05:28:21Z</time>
      </trkpt>
      <trkpt lat="45.1773" lon="6.16786">
        <ele>2633</ele>
        <time>2013-07-01T05:28:26Z</time>
      </trkpt>
      <trkpt lat="45.17727" lon="6.16784">
        <ele>2633</ele>
        <time>2013-07-01T05:28:31Z</time>
      </trkpt>
      <trkpt lat="45.17724" lon="6.16782">
        <ele>2634</ele>
        <time>2013-07-01T05:28:36Z</time>
      </trkpt>
      <trkpt lat="45.1772" lon="6.1678">
        <ele>2635</ele>
        <time>2013-07-01T05:28:41Z</time>
      </trkpt>
      <trkpt lat="45.17717" lon="6.16778">
        <ele>2635</ele>
        <time>2013-07-01T05:28:46Z</time>
      </trkpt>
      <trkpt lat="45.17715" lon="6.16776">
        <ele>2635</ele>
        <time>2013-07-01T05:28:51Z</time>
      </trkpt>
      <trkpt lat="45.17712" lon="6.16774">
        <ele>2636</ele>
        <time>2013-07-01T05:28:56Z</time>
      </trkpt>
      <trkpt lat="45.17709" lon="6.16772">
        <ele>2637</ele>
        <time>2013-07-01T05:29:01Z</time>
      </trkpt>
      <trkpt lat="45.17707" lon="6.1677">
        <ele>2638</ele>
        <time>2013-07-01T05:29:06Z</time>
      </trkpt>
      <trkpt lat="45.17704" lon="6.16768">
        <ele>2638</ele>
        <time>2013-07-01T05:29:11Z</time>
      </trkpt>
      <trkpt lat="45.17702" lon="6.16766">
        <ele>2639</ele>
        <time>2013-07-01T05:29:16Z</time>
      </trkpt>
      <trkpt lat="45.177" lon="6.16764">
        <ele>2640</ele>
        <time>2013-07-01T05:29:21Z</time>
      </trkpt>
      <trkpt lat="45.17696" lon="6.16762">
        <ele>2640</ele>
        <time>2013-07-01T05:29:26Z</time>
      </trkpt>
      <trkpt lat="45.17694" lon="6.1676">
        <ele>2641</ele>
        <time>2013-07-01T05:29:31Z</time>
      </trkpt>
      <trkpt lat="45.17692" lon="6.16758">
        <ele>2642</ele>
        <time>2013-07-01T05:29:36Z</time>
      </trkpt>
      <trkpt lat="45.17689" lon="6.16756">
        <ele>2643</ele>
        <time>2013-07-01T05:29:41Z</time>
      </trkpt>
      <trkpt lat="45.17687" lon="6.16754">
        <ele>2644</ele>
        <time>2013-07-01T05:29:46Z</time>
      </trkpt>
      <trkpt lat="45.17684" lon="6.16751">
        <ele>2644</ele>
        <time>2013-07-01T05:29:51Z</time>
      </trkpt>
      <trkpt lat="45.17681" lon="6.16749">
        <ele>2645</ele>
        <time>2013-07-01T05:29:56Z</time>
      </trkpt>
      <trkpt lat="45.17679" lon="6.16747">
        <ele>2646</ele>
        <time>2013-07-01T05:30:01Z</time>
      </trkpt>
      <trkpt lat="45.17675" lon="6.16745">
        <ele>2647</ele>
        <time>2013-07-01T05:30:06Z</time>
      </trkpt>
      <trkpt lat="45.17673" lon="6.16743">
        <ele>2648</ele>
        <time>2013-07-01T05:30:11Z</time>
      </trkpt>
      <trkpt lat="45.1767" lon="6.16741">
        <ele>2648</ele>
        <time>2013-07-01T05:30:16Z</time>
      </trkpt>
      <trkpt lat="45.17667" lon="6.16739">
        <ele>2649</ele>
        <time>2013-07-01T05:30:21Z</time>
      </trkpt>
      <trkpt lat="45.17665" lon="6.16736">
        <ele>2650</ele>
        <time>2013-07-01T05:30:26Z</time>
      </trkpt>
      <trkpt lat="45.17662" lon="6.16734">
        <ele>2650</ele>
        <time>2013-07-01T05:30:31Z</time>
      </trkpt>
      <trkpt lat="45.17659" lon="6.16733">
        <ele>2651</ele>
        <time>2013-07-01T05:30:36Z</time>
      </trkpt>
      <trkpt lat="45.17656" lon="6.1673">
        <ele>2651</ele>
        <time>2013-07-01T05:30:41Z</time>
      </trkpt>
      <trkpt lat="45.17654" lon="6.16728">
        <ele>2652</ele>
        <time>2013-07-01T05:30:46Z</time>
      </trkpt>
      <trkpt lat="45.17651" lon="6.16726">
        <ele>2652</ele>
        <time>2013-07-01T05:30:51Z</time>
      </trkpt>
      <trkpt lat="45.17648" lon="6.16725">
        <ele>2653</ele>
        <time>2013-07-01T05:30:56Z</time>
      </trkpt>
      <trkpt lat="45.17646" lon="6.16723">
        <ele>2654</ele>
        <time>2013-07-01T05:31:01Z</time>
      </trkpt>
      <trkpt lat="45.17643" lon="6.16722">
        <ele>2655</ele>
        <time>2013-07-01T05:31:06Z</time>
      </trkpt>
      <trkpt lat="45.1764" lon="6.16721">
        <ele>2656</ele>
        <time>2013-07-01T05:31:11Z</time>
      </trkpt>
      <trkpt lat="45.17637" lon="6.16719">
        <ele>2657</ele>
        <time>2013-07-01T05:31:16Z</time>
      </trkpt>
      <trkpt lat="45.17635" lon="6.16718">
        <ele>2658</ele>
        <time>2013-07-01T05:31:21Z</time>
      </trkpt>
      <trkpt lat="45.17632" lon="6.16716">
        <ele>2658</ele>
        <time>2013-07-01T05:31:26Z</time>
      </trkpt>
      <trkpt lat="45.1763" lon="6.16715">
        <ele>2659</ele>
        <time>2013-07-01T05:31:31Z</time>
      </trkpt>
      <trkpt lat="45.17627" lon="6.16714">
        <ele>2660</ele>
        <time>2013-07-01T05:31:36Z</time>
      </trkpt>
      <trkpt lat="45.17624" lon="6.16712">
        <ele>2660</ele>
        <time>2013-07-01T05:31:41Z</time>
      </trkpt>
      <trkpt lat="45.17622" lon="6.1671">
        <ele>2661</ele>
        <time>2013-07-01T05:31:46Z</time>
      </trkpt>
      <trkpt lat="45.17619" lon="6.16708">
        <ele>2661</ele>
        <time>2013-07-01T05:31:51Z</time>
      </trkpt>
      <trkpt lat="45.17616" lon="6.16706">
        <ele>2662</ele>
        <time>2013-07-01T05:31:56Z</time>
      </trkpt>
      <trkpt lat="45.17614" lon="6.16704">
        <ele>2662</ele>
        <time>2013-07-01T05:32:01Z</time>
      </trkpt>
      <trkpt lat="45.17611" lon="6.16703">
        <ele>2663</ele>
        <time>2013-07-01T05:32:06Z</time>
      </trkpt>
      <trkpt lat="45.17608" lon="6.16702">
        <ele>2663</ele>
        <time>2013-07-01T05:32:11Z</time>
      </trkpt>
      <trkpt lat="45.17605" lon="6.167">
        <ele>2663</ele>
        <time>2013-07-01T05:32:16Z</time>
      </trkpt>
      <trkpt lat="45.17601" lon="6.16698">
        <ele>2664</ele>
        <time>2013-07-01T05:32:21Z</time>
      </trkpt>
      <trkpt lat="45.17598" lon="6.16697">
        <ele>2664</ele>
        <time>2013-07-01T05:32:26Z</time>
      </trkpt>
      <trkpt lat="45.17594" lon="6.16696">
        <ele>2665</ele>
        <time>2013-07-01T05:32:31Z</time>
      </trkpt>
      <trkpt lat="45.17591" lon="6.16696">
        <ele>2665</ele>
        <time>2013-07-01T05:32:36Z</time>
      </trkpt>
      <trkpt lat="45.17588" lon="6.16695">
        <ele>2666</ele>
        <time>2013-07-01T05:32:41Z</time>
      </trkpt>
      <trkpt lat="45.17585" lon="6.16695">
        <ele>2666</ele>
        <time>2013-07-01T05:32:46Z</time>
      </trkpt>
      <trkpt lat="45.17582" lon="6.16695">
        <ele>2667</ele>
        <time>2013-07-01T05:32:51Z</time>
      </trkpt>
      <trkpt lat="45.17579" lon="6.16695">
        <ele>2667</ele>
        <time>2013-07-01T05:32:56Z</time>
      </trkpt>
      <trkpt lat="45.17576" lon="6.16695">
        <ele>2668</ele>
        <time>2013-07-01T05:33:01Z</time>
      </trkpt>
      <trkpt lat="45.17573" lon="6.16695">
        <ele>2669</ele>
        <time>2013-07-01T05:33:06Z</time>
      </trkpt>
      <trkpt lat="45.1757" lon="6.16695">
        <ele>2669</ele>
        <time>2013-07-01T05:33:11Z</time>
      </trkpt>
      <trkpt lat="45.17567" lon="6.16695">
        <ele>2669</ele>
        <time>2013-07-01T05:33:16Z</time>
      </trkpt>
      <trkpt lat="45.17564" lon="6.16695">
        <ele>2670</ele>
        <time>2013-07-01T05:33:21Z</time>
      </trkpt>
      <trkpt lat="45.17561" lon="6.16695">
        <ele>2670</ele>
        <time>2013-07-01T05:33:26Z</time>
      </trkpt>
      <trkpt lat="45.17558" lon="6.16694">
        <ele>2671</ele>
        <time>2013-07-01T05:33:31Z</time>
      </trkpt>
      <trkpt lat="45.17555" lon="6.16694">
        <ele>2671</ele>
        <time>2013-07-01T05:33:36Z</time>
      </trkpt>
      <trkpt lat="45.17552" lon="6.16693">
        <ele>2672</ele>
        <time>2013-07-01T05:33:41Z</time>
      </trkpt>
      <trkpt lat="45.17549" lon="6.16692">
        <ele>2673</ele>
        <time>2013-07-01T05:33:46Z</time>
      </trkpt>
      <trkpt lat="45.17546" lon="6.16691">
        <ele>2673</ele>
        <time>2013-07-01T05:33:51Z</time>
      </trkpt>
      <trkpt lat="45.17543" lon="6.1669">
        <ele>2674</ele>
        <time>2013-07-01T05:33:56Z</time>
      </trkpt>
      <trkpt lat="45.1754" lon="6.16688">
        <ele>2674</ele>
        <time>2013-07-01T05:34:01Z</time>
      </trkpt>
      <trkpt lat="45.17536" lon="6.16687">
        <ele>2675</ele>
        <time>2013-07-01T05:34:06Z</time>
      </trkpt>
      <trkpt lat="45.17533" lon="6.16685">
        <ele>2675</ele>
        <time>2013-07-01T05:34:11Z</time>
      </trkpt>
      <trkpt lat="45.1753" lon="6.16684">
        <ele>2676</ele>
        <time>2013-07-01T05:34:16Z</time>
      </trkpt>
      <trkpt lat="45.17527" lon="6.16682">
        <ele>2676</ele>
        <time>2013-07-01T05:34:21Z</time>
      </trkpt>
      <trkpt lat="45.17523" lon="6.16681">
        <ele>2677</ele>
        <time>2013-07-01T05:34:26Z</time>
      </trkpt>
      <trkpt lat="45.1752" lon="6.16681">
        <ele>2677</ele>
        <time>2013-07-01T05:34:31Z</time>
      </trkpt>
      <trkpt lat="45.17517" lon="6.1668">
        <ele>2678</ele>
        <time>2013-07-01T05:34:36Z</time>
      </trkpt>
      <trkpt lat="45.17514" lon="6.1668">
        <ele>2678</ele>
        <time>2013-07-01T05:34:41Z</time>
      </trkpt>
      <trkpt lat="45.17511" lon="6.16679">
        <ele>2679</ele>
        <time>2013-07-01T05:34:46Z</time>
      </trkpt>
      <trkpt lat="45.17508" lon="6.16679">
        <ele>2679</ele>
        <time>2013-07-01T05:34:51Z</time>
      </trkpt>
      <trkpt lat="45.17505" lon="6.16679">
        <ele>2680</ele>
        <time>2013-07-01T05:34:56Z</time>
      </trkpt>
      <trkpt lat="45.17502" lon="6.16679">
        <ele>2681</ele>
        <time>2013-07-01T05:35:01Z</time>
      </trkpt>
      <trkpt lat="45.17499" lon="6.16679">
        <ele>2681</ele>
        <time>2013-07-01T05:35:06Z</time>
      </trkpt>
      <trkpt lat="45.17497" lon="6.16679">
        <ele>2682</ele>
        <time>2013-07-01T05:35:11Z</time>
      </trkpt>
      <trkpt lat="45.17494" lon="6.16679">
        <ele>2682</ele>
        <time>2013-07-01T05:35:16Z</time>
      </trkpt>
      <trkpt lat="45.1749" lon="6.16679">
        <ele>2683</ele>
        <time>2013-07-01T05:35:21Z</time>
      </trkpt>
      <trkpt lat="45.17487" lon="6.16679">
        <ele>2683</ele>
        <time>2013-07-01T05:35:26Z</time>
      </trkpt>
      <trkpt lat="45.17484" lon="6.16679">
        <ele>2684</ele>
        <time>2013-07-01T05:35:31Z</time>
      </trkpt>
      <trkpt lat="45.17481" lon="6.16678">
        <ele>2685</ele>
        <time>2013-07-01T05:35:36Z</time>
      </trkpt>
      <trkpt lat="45.17478" lon="6.16677">
        <ele>2685</ele>
        <time>2013-07-01T05:35:41Z</time>
      </trkpt>
      <trkpt lat="45.17475" lon="6.16675">
        <ele>2686</ele>
        <time>2013-07-01T05:35:46Z</time>
      </trkpt>
      <trkpt lat="45.17471" lon="6.16674">
        <ele>2686</ele>
        <time>2013-07-01T05:35:51Z</time>
      </trkpt>
      <trkpt lat="45.17468" lon="6.16674">
        <ele>2687</ele>
        <time>2013-07-01T05:35:56Z</time>
      </trkpt>
      <trkpt lat="45.17465" lon="6.16673">
        <ele>2687</ele>
        <time>2013-07-01T05:36:01Z</time>
      </trkpt>
      <trkpt lat="45.17461" lon="6.16672">
        <ele>2688</ele>
        <time>2013-07-01T05:36:06Z</time>
      </trkpt>
      <trkpt lat="45.17458" lon="6.16671">
        <ele>2688</ele>
        <time>2013-07-01T05:36:11Z</time>
      </trkpt>
      <trkpt lat="45.17458" lon="6.16671">
        <ele>2688</ele>
        <time>2013-07-01T05:36:16Z</time>
      </trkpt>
      <trkpt lat="45.17456" lon="6.1667">
        <ele>2689</ele>
        <time>2013-07-01T05:36:21Z</time>
      </trkpt>
      <trkpt lat="45.17452" lon="6.16669">
        <ele>2689</ele>
        <time>2013-07-01T05:36:26Z</time>
      </trkpt>
      <trkpt lat="45.17448" lon="6.16668">
        <ele>2689</ele>
        <time>2013-07-01T05:36:31Z</time>
      </trkpt>
      <trkpt lat="45.17443" lon="6.16666">
        <ele>2690</ele>
        <time>2013-07-01T05:36:36Z</time>
      </trkpt>
      <trkpt lat="45.17439" lon="6.16665">
        <ele>2690</ele>
        <time>2013-07-01T05:36:41Z</time>
      </trkpt>
      <trkpt lat="45.17434" lon="6.16665">
        <ele>2690</ele>
        <time>2013-07-01T05:36:46Z</time>
      </trkpt>
      <trkpt lat="45.17428" lon="6.16665">
        <ele>2689</ele>
        <time>2013-07-01T05:36:51Z</time>
      </trkpt>
      <trkpt lat="45.17423" lon="6.16665">
        <ele>2689</ele>
        <time>2013-07-01T05:36:56Z</time>
      </trkpt>
      <trkpt lat="45.17418" lon="6.16664">
        <ele>2689</ele>
        <time>2013-07-01T05:37:01Z</time>
      </trkpt>
      <trkpt lat="45.17413" lon="6.16663">
        <ele>2689</ele>
        <time>2013-07-01T05:37:06Z</time>
      </trkpt>
      <trkpt lat="45.17407" lon="6.16663">
        <ele>2689</ele>
        <time>2013-07-01T05:37:11Z</time>
      </trkpt>
      <trkpt lat="45.17402" lon="6.16661">
        <ele>2688</ele>
        <time>2013-07-01T05:37:16Z</time>
      </trkpt>
      <trkpt lat="45.17397" lon="6.16658">
        <ele>2688</ele>
        <time>2013-07-01T05:37:21Z</time>
      </trkpt>
      <trkpt lat="45.17394" lon="6.16653">
        <ele>2689</ele>
        <time>2013-07-01T05:37:26Z</time>
      </trkpt>
      <trkpt lat="45.17392" lon="6.16651">
        <ele>2689</ele>
        <time>2013-07-01T05:37:31Z</time>
      </trkpt>
      <trkpt lat="45.17392" lon="6.16651">
        <ele>2689</ele>
        <time>2013-07-01T05:37:36Z</time>
      </trkpt>
      <trkpt lat="45.17393" lon="6.16651">
        <ele>2689</ele>
        <time>2013-07-01T05:37:41Z</time>
      </trkpt>
      <trkpt lat="45.17393" lon="6.16651">
        <ele>2689</ele>
        <time>2013-07-01T05:37:46Z</time>
      </trkpt>
      <trkpt lat="45.17391" lon="6.16649">
        <ele>2689</ele>
        <time>2013-07-01T05:37:51Z</time>
      </trkpt>
      <trkpt lat="45.17388" lon="6.16644">
        <ele>2690</ele>
        <time>2013-07-01T05:37:56Z</time>
      </trkpt>
      <trkpt lat="45.17384" lon="6.16639">
        <ele>2690</ele>
        <time>2013-07-01T05:38:01Z</time>
      </trkpt>
      <trkpt lat="45.17381" lon="6.16635">
        <ele>2690</ele>
        <time>2013-07-01T05:38:06Z</time>
      </trkpt>
      <trkpt lat="45.17378" lon="6.1663">
        <ele>2691</ele>
        <time>2013-07-01T05:38:11Z</time>
      </trkpt>
      <trkpt lat="45.17376" lon="6.16624">
        <ele>2691</ele>
        <time>2013-07-01T05:38:16Z</time>
      </trkpt>
      <trkpt lat="45.17373" lon="6.1662">
        <ele>2692</ele>
        <time>2013-07-01T05:38:21Z</time>
      </trkpt>
      <trkpt lat="45.17369" lon="6.16615">
        <ele>2692</ele>
        <time>2013-07-01T05:38:26Z</time>
      </trkpt>
      <trkpt lat="45.17366" lon="6.16611">
        <ele>2693</ele>
        <time>2013-07-01T05:38:31Z</time>
      </trkpt>
      <trkpt lat="45.17363" lon="6.16606">
        <ele>2693</ele>
        <time>2013-07-01T05:38:36Z</time>
      </trkpt>
      <trkpt lat="45.1736" lon="6.16602">
        <ele>2693</ele>
        <time>2013-07-01T05:38:41Z</time>
      </trkpt>
      <trkpt lat="45.17357" lon="6.16598">
        <ele>2694</ele>
        <time>2013-07-01T05:38:46Z</time>
      </trkpt>
      <trkpt lat="45.17354" lon="6.16594">
        <ele>2694</ele>
        <time>2013-07-01T05:38:51Z</time>
      </trkpt>
      <trkpt lat="45.1735" lon="6.16591">
        <ele>2695</ele>
        <time>2013-07-01T05:38:56Z</time>
      </trkpt>
      <trkpt lat="45.17347" lon="6.16589">
        <ele>2695</ele>
        <time>2013-07-01T05:39:01Z</time>
      </trkpt>
      <trkpt lat="45.17344" lon="6.16586">
        <ele>2696</ele>
        <time>2013-07-01T05:39:06Z</time>
      </trkpt>
      <trkpt lat="45.17341" lon="6.16584">
        <ele>2697</ele>
        <time>2013-07-01T05:39:11Z</time>
      </trkpt>
      <trkpt lat="45.17337" lon="6.16581">
        <ele>2697</ele>
        <time>2013-07-01T05:39:16Z</time>
      </trkpt>
      <trkpt lat="45.17334" lon="6.16579">
        <ele>2698</ele>
        <time>2013-07-01T05:39:21Z</time>
      </trkpt>
      <trkpt lat="45.17331" lon="6.16576">
        <ele>2698</ele>
        <time>2013-07-01T05:39:26Z</time>
      </trkpt>
      <trkpt lat="45.17328" lon="6.16574">
        <ele>2699</ele>
        <time>2013-07-01T05:39:31Z</time>
      </trkpt>
      <trkpt lat="45.17325" lon="6.16571">
        <ele>2699</ele>
        <time>2013-07-01T05:39:36Z</time>
      </trkpt>
      <trkpt lat="45.17321" lon="6.16568">
        <ele>2700</ele>
        <time>2013-07-01T05:39:41Z</time>
      </trkpt>
      <trkpt lat="45.17318" lon="6.16565">
        <ele>2701</ele>
        <time>2013-07-01T05:39:46Z</time>
      </trkpt>
      <trkpt lat="45.17316" lon="6.16562">
        <ele>2701</ele>
        <time>2013-07-01T05:39:51Z</time>
      </trkpt>
      <trkpt lat="45.17313" lon="6.16559">
        <ele>2702</ele>
        <time>2013-07-01T05:39:56Z</time>
      </trkpt>
      <trkpt lat="45.17311" lon="6.16556">
        <ele>2702</ele>
        <time>2013-07-01T05:40:01Z</time>
      </trkpt>
      <trkpt lat="45.17308" lon="6.16553">
        <ele>2703</ele>
        <time>2013-07-01T05:40:06Z</time>
      </trkpt>
      <trkpt lat="45.17307" lon="6.16551">
        <ele>2703</ele>
        <time>2013-07-01T05:40:11Z</time>
      </trkpt>
      <trkpt lat="45.17307" lon="6.16551">
        <ele>2703</ele>
        <time>2013-07-01T05:40:16Z</time>
      </trkpt>
      <trkpt lat="45.17302" lon="6.16549">
        <ele>2701</ele>
        <time>2013-07-01T05:47:51Z</time>
      </trkpt>
      <trkpt lat="45.173" lon="6.16547">
        <ele>2701</ele>
        <time>2013-07-01T05:47:56Z</time>
      </trkpt>
      <trkpt lat="45.17296" lon="6.16543">
        <ele>2701</ele>
        <time>2013-07-01T05:48:01Z</time>
      </trkpt>
      <trkpt lat="45.17287" lon="6.1654">
        <ele>2699</ele>
        <time>2013-07-01T05:48:06Z</time>
      </trkpt>
      <trkpt lat="45.17279" lon="6.16536">
        <ele>2697</ele>
        <time>2013-07-01T05:48:11Z</time>
      </trkpt>
      <trkpt lat="45.17272" lon="6.16531">
        <ele>2696</ele>
        <time>2013-07-01T05:48:16Z</time>
      </trkpt>
      <trkpt lat="45.17267" lon="6.16527">
        <ele>2695</ele>
        <time>2013-07-01T05:48:21Z</time>
      </trkpt>
      <trkpt lat="45.17262" lon="6.16524">
        <ele>2694</ele>
        <time>2013-07-01T05:48:26Z</time>
      </trkpt>
      <trkpt lat="45.17256" lon="6.16522">
        <ele>2693</ele>
        <time>2013-07-01T05:48:31Z</time>
      </trkpt>
      <trkpt lat="45.17246" lon="6.16518">
        <ele>2691</ele>
        <time>2013-07-01T05:48:36Z</time>
      </trkpt>
      <trkpt lat="45.17239" lon="6.16514">
        <ele>2690</ele>
        <time>2013-07-01T05:48:41Z</time>
      </trkpt>
      <trkpt lat="45.17234" lon="6.1651">
        <ele>2690</ele>
        <time>2013-07-01T05:48:46Z</time>
      </trkpt>
      <trkpt lat="45.1723" lon="6.16506">
        <ele>2690</ele>
        <time>2013-07-01T05:48:51Z</time>
      </trkpt>
      <trkpt lat="45.17227" lon="6.16502">
        <ele>2691</ele>
        <time>2013-07-01T05:48:56Z</time>
      </trkpt>
      <trkpt lat="45.17223" lon="6.16498">
        <ele>2691</ele>
        <time>2013-07-01T05:49:01Z</time>
      </trkpt>
      <trkpt lat="45.17219" lon="6.16495">
        <ele>2692</ele>
        <time>2013-07-01T05:49:06Z</time>
      </trkpt>
      <trkpt lat="45.17215" lon="6.16492">
        <ele>2692</ele>
        <time>2013-07-01T05:49:11Z</time>
      </trkpt>
      <trkpt lat="45.17211" lon="6.1649">
        <ele>2692</ele>
        <time>2013-07-01T05:49:16Z</time>
      </trkpt>
      <trkpt lat="45.17207" lon="6.16486">
        <ele>2693</ele>
        <time>2013-07-01T05:49:21Z</time>
      </trkpt>
      <trkpt lat="45.17204" lon="6.16482">
        <ele>2693</ele>
        <time>2013-07-01T05:49:26Z</time>
      </trkpt>
      <trkpt lat="45.172" lon="6.16479">
        <ele>2693</ele>
        <time>2013-07-01T05:49:31Z</time>
      </trkpt>
      <trkpt lat="45.17196" lon="6.16476">
        <ele>2694</ele>
        <time>2013-07-01T05:49:36Z</time>
      </trkpt>
      <trkpt lat="45.17194" lon="6.16474">
        <ele>2694</ele>
        <time>2013-07-01T05:49:41Z</time>
      </trkpt>
      <trkpt lat="45.17191" lon="6.16472">
        <ele>2694</ele>
        <time>2013-07-01T05:49:46Z</time>
      </trkpt>
      <trkpt lat="45.17186" lon="6.1647">
        <ele>2694</ele>
        <time>2013-07-01T05:49:51Z</time>
      </trkpt>
      <trkpt lat="45.17182" lon="6.16467">
        <ele>2695</ele>
        <time>2013-07-01T05:49:56Z</time>
      </trkpt>
      <trkpt lat="45.17179" lon="6.16464">
        <ele>2695</ele>
        <time>2013-07-01T05:50:01Z</time>
      </trkpt>
      <trkpt lat="45.17175" lon="6.16462">
        <ele>2695</ele>
        <time>2013-07-01T05:50:06Z</time>
      </trkpt>
      <trkpt lat="45.17171" lon="6.16459">
        <ele>2695</ele>
        <time>2013-07-01T05:50:11Z</time>
      </trkpt>
      <trkpt lat="45.17168" lon="6.16457">
        <ele>2696</ele>
        <time>2013-07-01T05:50:16Z</time>
      </trkpt>
      <trkpt lat="45.17164" lon="6.16455">
        <ele>2696</ele>
        <time>2013-07-01T05:50:21Z</time>
      </trkpt>
      <trkpt lat="45.17159" lon="6.16452">
        <ele>2695</ele>
        <time>2013-07-01T05:50:26Z</time>
      </trkpt>
      <trkpt lat="45.17155" lon="6.1645">
        <ele>2695</ele>
        <time>2013-07-01T05:50:31Z</time>
      </trkpt>
      <trkpt lat="45.17152" lon="6.16447">
        <ele>2696</ele>
        <time>2013-07-01T05:50:36Z</time>
      </trkpt>
      <trkpt lat="45.17148" lon="6.16445">
        <ele>2696</ele>
        <time>2013-07-01T05:50:41Z</time>
      </trkpt>
      <trkpt lat="45.17144" lon="6.16442">
        <ele>2696</ele>
        <time>2013-07-01T05:50:46Z</time>
      </trkpt>
      <trkpt lat="45.17141" lon="6.16439">
        <ele>2696</ele>
        <time>2013-07-01T05:50:51Z</time>
      </trkpt>
      <trkpt lat="45.17138" lon="6.16435">
        <ele>2696</ele>
        <time>2013-07-01T05:50:56Z</time>
      </trkpt>
      <trkpt lat="45.17134" lon="6.16432">
        <ele>2697</ele>
        <time>2013-07-01T05:51:01Z</time>
      </trkpt>
      <trkpt lat="45.17131" lon="6.16428">
        <ele>2697</ele>
        <time>2013-07-01T05:51:06Z</time>
      </trkpt>
      <trkpt lat="45.17127" lon="6.16424">
        <ele>2697</ele>
        <time>2013-07-01T05:51:11Z</time>
      </trkpt>
      <trkpt lat="45.17124" lon="6.16421">
        <ele>2697</ele>
        <time>2013-07-01T05:51:16Z</time>
      </trkpt>
      <trkpt lat="45.1712" lon="6.16418">
        <ele>2698</ele>
        <time>2013-07-01T05:51:21Z</time>
      </trkpt>
      <trkpt lat="45.17117" lon="6.16416">
        <ele>2698</ele>
        <time>2013-07-01T05:51:26Z</time>
      </trkpt>
      <trkpt lat="45.17112" lon="6.16413">
        <ele>2698</ele>
        <time>2013-07-01T05:51:31Z</time>
      </trkpt>
      <trkpt lat="45.17109" lon="6.16411">
        <ele>2698</ele>
        <time>2013-07-01T05:51:36Z</time>
      </trkpt>
      <trkpt lat="45.17105" lon="6.16408">
        <ele>2698</ele>
        <time>2013-07-01T05:51:41Z</time>
      </trkpt>
      <trkpt lat="45.17101" lon="6.16405">
        <ele>2699</ele>
        <time>2013-07-01T05:51:46Z</time>
      </trkpt>
      <trkpt lat="45.17098" lon="6.16401">
        <ele>2699</ele>
        <time>2013-07-01T05:51:51Z</time>
      </trkpt>
      <trkpt lat="45.17094" lon="6.16398">
        <ele>2699</ele>
        <time>2013-07-01T05:51:56Z</time>
      </trkpt>
      <trkpt lat="45.17091" lon="6.16395">
        <ele>2699</ele>
        <time>2013-07-01T05:52:01Z</time>
      </trkpt>
      <trkpt lat="45.17086" lon="6.16392">
        <ele>2699</ele>
        <time>2013-07-01T05:52:06Z</time>
      </trkpt>
      <trkpt lat="45.17083" lon="6.1639">
        <ele>2699</ele>
        <time>2013-07-01T05:52:11Z</time>
      </trkpt>
      <trkpt lat="45.17079" lon="6.16387">
        <ele>2700</ele>
        <time>2013-07-01T05:52:16Z</time>
      </trkpt>
      <trkpt lat="45.17074" lon="6.16386">
        <ele>2700</ele>
        <time>2013-07-01T05:52:21Z</time>
      </trkpt>
      <trkpt lat="45.1707" lon="6.16384">
        <ele>2700</ele>
        <time>2013-07-01T05:52:26Z</time>
      </trkpt>
      <trkpt lat="45.17067" lon="6.16382">
        <ele>2700</ele>
        <time>2013-07-01T05:52:31Z</time>
      </trkpt>
      <trkpt lat="45.17062" lon="6.1638">
        <ele>2700</ele>
        <time>2013-07-01T05:52:36Z</time>
      </trkpt>
      <trkpt lat="45.17057" lon="6.16377">
        <ele>2700</ele>
        <time>2013-07-01T05:52:41Z</time>
      </trkpt>
      <trkpt lat="45.17051" lon="6.16374">
        <ele>2700</ele>
        <time>2013-07-01T05:52:46Z</time>
      </trkpt>
      <trkpt lat="45.17046" lon="6.16371">
        <ele>2699</ele>
        <time>2013-07-01T05:52:51Z</time>
      </trkpt>
      <trkpt lat="45.17039" lon="6.16369">
        <ele>2699</ele>
        <time>2013-07-01T05:52:56Z</time>
      </trkpt>
      <trkpt lat="45.17034" lon="6.16366">
        <ele>2699</ele>
        <time>2013-07-01T05:53:01Z</time>
      </trkpt>
      <trkpt lat="45.17028" lon="6.16364">
        <ele>2699</ele>
        <time>2013-07-01T05:53:06Z</time>
      </trkpt>
      <trkpt lat="45.17022" lon="6.16362">
        <ele>2699</ele>
        <time>2013-07-01T05:53:11Z</time>
      </trkpt>
      <trkpt lat="45.17017" lon="6.16359">
        <ele>2698</ele>
        <time>2013-07-01T05:53:16Z</time>
      </trkpt>
      <trkpt lat="45.17012" lon="6.16357">
        <ele>2699</ele>
        <time>2013-07-01T05:53:21Z</time>
      </trkpt>
      <trkpt lat="45.17008" lon="6.16355">
        <ele>2699</ele>
        <time>2013-07-01T05:53:26Z</time>
      </trkpt>
      <trkpt lat="45.17004" lon="6.16354">
        <ele>2699</ele>
        <time>2013-07-01T05:53:31Z</time>
      </trkpt>
      <trkpt lat="45.16999" lon="6.16353">
        <ele>2699</ele>
        <time>2013-07-01T05:53:36Z</time>
      </trkpt>
      <trkpt lat="45.16995" lon="6.16351">
        <ele>2699</ele>
        <time>2013-07-01T05:53:41Z</time>
      </trkpt>
      <trkpt lat="45.1699" lon="6.1635">
        <ele>2699</ele>
        <time>2013-07-01T05:53:46Z</time>
      </trkpt>
      <trkpt lat="45.16985" lon="6.16349">
        <ele>2699</ele>
        <time>2013-07-01T05:53:51Z</time>
      </trkpt>
      <trkpt lat="45.16981" lon="6.16347">
        <ele>2699</ele>
        <time>2013-07-01T05:53:56Z</time>
      </trkpt>
      <trkpt lat="45.16975" lon="6.16345">
        <ele>2699</ele>
        <time>2013-07-01T05:54:01Z</time>
      </trkpt>
      <trkpt lat="45.1697" lon="6.16343">
        <ele>2699</ele>
        <time>2013-07-01T05:54:06Z</time>
      </trkpt>
      <trkpt lat="45.16966" lon="6.16341">
        <ele>2699</ele>
        <time>2013-07-01T05:54:11Z</time>
      </trkpt>
      <trkpt lat="45.16961" lon="6.16339">
        <ele>2700</ele>
        <time>2013-07-01T05:54:16Z</time>
      </trkpt>
      <trkpt lat="45.16959" lon="6.16338">
        <ele>2700</ele>
        <time>2013-07-01T05:54:21Z</time>
      </trkpt>
      <trkpt lat="45.16959" lon="6.16338">
        <ele>2700</ele>
        <time>2013-07-01T05:54:26Z</time>
      </trkpt>
      <trkpt lat="45.16956" lon="6.16336">
        <ele>2701</ele>
        <time>2013-07-01T05:54:31Z</time>
      </trkpt>
      <trkpt lat="45.16952" lon="6.16334">
        <ele>2701</ele>
        <time>2013-07-01T05:54:36Z</time>
      </trkpt>
      <trkpt lat="45.16949" lon="6.16332">
        <ele>2702</ele>
        <time>2013-07-01T05:54:41Z</time>
      </trkpt>
      <trkpt lat="45.16945" lon="6.1633">
        <ele>2702</ele>
        <time>2013-07-01T05:54:46Z</time>
      </trkpt>
      <trkpt lat="45.16942" lon="6.16328">
        <ele>2703</ele>
        <time>2013-07-01T05:54:51Z</time>
      </trkpt>
      <trkpt lat="45.16938" lon="6.16326">
        <ele>2703</ele>
        <time>2013-07-01T05:54:56Z</time>
      </trkpt>
      <trkpt lat="45.16935" lon="6.16324">
        <ele>2703</ele>
        <time>2013-07-01T05:55:01Z</time>
      </trkpt>
      <trkpt lat="45.16931" lon="6.16322">
        <ele>2704</ele>
        <time>2013-07-01T05:55:06Z</time>
      </trkpt>
      <trkpt lat="45.16927" lon="6.16321">
        <ele>2704</ele>
        <time>2013-07-01T05:55:11Z</time>
      </trkpt>
      <trkpt lat="45.16924" lon="6.1632">
        <ele>2704</ele>
        <time>2013-07-01T05:55:16Z</time>
      </trkpt>
      <trkpt lat="45.1692" lon="6.16318">
        <ele>2705</ele>
        <time>2013-07-01T05:55:21Z</time>
      </trkpt>
      <trkpt lat="45.16917" lon="6.16317">
        <ele>2705</ele>
        <time>2013-07-01T05:55:26Z</time>
      </trkpt>
      <trkpt lat="45.16913" lon="6.16315">
        <ele>2705</ele>
        <time>2013-07-01T05:55:31Z</time>
      </trkpt>
      <trkpt lat="45.16909" lon="6.16314">
        <ele>2706</ele>
        <time>2013-07-01T05:55:36Z</time>
      </trkpt>
      <trkpt lat="45.16906" lon="6.16312">
        <ele>2706</ele>
        <time>2013-07-01T05:55:41Z</time>
      </trkpt>
      <trkpt lat="45.16902" lon="6.1631">
        <ele>2707</ele>
        <time>2013-07-01T05:55:46Z</time>
      </trkpt>
      <trkpt lat="45.16899" lon="6.16308">
        <ele>2707</ele>
        <time>2013-07-01T05:55:51Z</time>
      </trkpt>
      <trkpt lat="45.16896" lon="6.16306">
        <ele>2708</ele>
        <time>2013-07-01T05:55:56Z</time>
      </trkpt>
      <trkpt lat="45.16892" lon="6.16304">
        <ele>2708</ele>
        <time>2013-07-01T05:56:01Z</time>
      </trkpt>
      <trkpt lat="45.1689" lon="6.16303">
        <ele>2709</ele>
        <time>2013-07-01T05:56:06Z</time>
      </trkpt>
      <trkpt lat="45.16887" lon="6.16301">
        <ele>2709</ele>
        <time>2013-07-01T05:56:11Z</time>
      </trkpt>
      <trkpt lat="45.16883" lon="6.16299">
        <ele>2710</ele>
        <time>2013-07-01T05:56:16Z</time>
      </trkpt>
      <trkpt lat="45.1688" lon="6.16298">
        <ele>2710</ele>
        <time>2013-07-01T05:56:21Z</time>
      </trkpt>
      <trkpt lat="45.16877" lon="6.16296">
        <ele>2711</ele>
        <time>2013-07-01T05:56:26Z</time>
      </trkpt>
      <trkpt lat="45.16874" lon="6.16294">
        <ele>2711</ele>
        <time>2013-07-01T05:56:31Z</time>
      </trkpt>
      <trkpt lat="45.1687" lon="6.16292">
        <ele>2712</ele>
        <time>2013-07-01T05:56:36Z</time>
      </trkpt>
      <trkpt lat="45.16866" lon="6.16291">
        <ele>2712</ele>
        <time>2013-07-01T05:56:41Z</time>
      </trkpt>
      <trkpt lat="45.16863" lon="6.1629">
        <ele>2713</ele>
        <time>2013-07-01T05:56:46Z</time>
      </trkpt>
      <trkpt lat="45.16859" lon="6.1629">
        <ele>2713</ele>
        <time>2013-07-01T05:56:51Z</time>
      </trkpt>
      <trkpt lat="45.16855" lon="6.16289">
        <ele>2713</ele>
        <time>2013-07-01T05:56:56Z</time>
      </trkpt>
      <trkpt lat="45.16852" lon="6.16288">
        <ele>2714</ele>
        <time>2013-07-01T05:57:01Z</time>
      </trkpt>
      <trkpt lat="45.16848" lon="6.16287">
        <ele>2714</ele>
        <time>2013-07-01T05:57:06Z</time>
      </trkpt>
      <trkpt lat="45.16845" lon="6.16286">
        <ele>2715</ele>
        <time>2013-07-01T05:57:11Z</time>
      </trkpt>
      <trkpt lat="45.16841" lon="6.16285">
        <ele>2715</ele>
        <time>2013-07-01T05:57:16Z</time>
      </trkpt>
      <trkpt lat="45.16837" lon="6.16283">
        <ele>2715</ele>
        <time>2013-07-01T05:57:21Z</time>
      </trkpt>
      <trkpt lat="45.16833" lon="6.16282">
        <ele>2716</ele>
        <time>2013-07-01T05:57:26Z</time>
      </trkpt>
      <trkpt lat="45.16829" lon="6.16281">
        <ele>2716</ele>
        <time>2013-07-01T05:57:31Z</time>
      </trkpt>
      <trkpt lat="45.16825" lon="6.1628">
        <ele>2716</ele>
        <time>2013-07-01T05:57:36Z</time>
      </trkpt>
      <trkpt lat="45.16821" lon="6.16278">
        <ele>2717</ele>
        <time>2013-07-01T05:57:41Z</time>
      </trkpt>
      <trkpt lat="45.16817" lon="6.16277">
        <ele>2717</ele>
        <time>2013-07-01T05:57:46Z</time>
      </trkpt>
      <trkpt lat="45.16813" lon="6.16276">
        <ele>2717</ele>
        <time>2013-07-01T05:57:51Z</time>
      </trkpt>
      <trkpt lat="45.1681" lon="6.16275">
        <ele>2718</ele>
        <time>2013-07-01T05:57:56Z</time>
      </trkpt>
      <trkpt lat="45.16805" lon="6.16274">
        <ele>2718</ele>
        <time>2013-07-01T05:58:01Z</time>
      </trkpt>
      <trkpt lat="45.16801" lon="6.16272">
        <ele>2718</ele>
        <time>2013-07-01T05:58:06Z</time>
      </trkpt>
      <trkpt lat="45.16797" lon="6.16271">
        <ele>2719</ele>
        <time>2013-07-01T05:58:11Z</time>
      </trkpt>
      <trkpt lat="45.16793" lon="6.1627">
        <ele>2719</ele>
        <time>2013-07-01T05:58:16Z</time>
      </trkpt>
      <trkpt lat="45.16789" lon="6.16269">
        <ele>2719</ele>
        <time>2013-07-01T05:58:21Z</time>
      </trkpt>
      <trkpt lat="45.16784" lon="6.16269">
        <ele>2719</ele>
        <time>2013-07-01T05:58:26Z</time>
      </trkpt>
      <trkpt lat="45.1678" lon="6.16268">
        <ele>2719</ele>
        <time>2013-07-01T05:58:31Z</time>
      </trkpt>
      <trkpt lat="45.16776" lon="6.16268">
        <ele>2719</ele>
        <time>2013-07-01T05:58:36Z</time>
      </trkpt>
      <trkpt lat="45.16772" lon="6.16267">
        <ele>2720</ele>
        <time>2013-07-01T05:58:41Z</time>
      </trkpt>
      <trkpt lat="45.16768" lon="6.16265">
        <ele>2720</ele>
        <time>2013-07-01T05:58:46Z</time>
      </trkpt>
      <trkpt lat="45.16765" lon="6.16264">
        <ele>2720</ele>
        <time>2013-07-01T05:58:51Z</time>
      </trkpt>
      <trkpt lat="45.1676" lon="6.16263">
        <ele>2721</ele>
        <time>2013-07-01T05:58:56Z</time>
      </trkpt>
      <trkpt lat="45.16757" lon="6.16262">
        <ele>2721</ele>
        <time>2013-07-01T05:59:01Z</time>
      </trkpt>
      <trkpt lat="45.16753" lon="6.16261">
        <ele>2722</ele>
        <time>2013-07-01T05:59:06Z</time>
      </trkpt>
      <trkpt lat="45.16749" lon="6.1626">
        <ele>2722</ele>
        <time>2013-07-01T05:59:11Z</time>
      </trkpt>
      <trkpt lat="45.16745" lon="6.16259">
        <ele>2723</ele>
        <time>2013-07-01T05:59:16Z</time>
      </trkpt>
      <trkpt lat="45.16742" lon="6.16258">
        <ele>2723</ele>
        <time>2013-07-01T05:59:21Z</time>
      </trkpt>
      <trkpt lat="45.16738" lon="6.16256">
        <ele>2724</ele>
        <time>2013-07-01T05:59:26Z</time>
      </trkpt>
      <trkpt lat="45.16734" lon="6.16255">
        <ele>2724</ele>
        <time>2013-07-01T05:59:31Z</time>
      </trkpt>
      <trkpt lat="45.16731" lon="6.16254">
        <ele>2725</ele>
        <time>2013-07-01T05:59:36Z</time>
      </trkpt>
      <trkpt lat="45.16727" lon="6.16253">
        <ele>2725</ele>
        <time>2013-07-01T05:59:41Z</time>
      </trkpt>
      <trkpt lat="45.16723" lon="6.16251">
        <ele>2726</ele>
        <time>2013-07-01T05:59:46Z</time>
      </trkpt>
      <trkpt lat="45.1672" lon="6.1625">
        <ele>2726</ele>
        <time>2013-07-01T05:59:51Z</time>
      </trkpt>
      <trkpt lat="45.16716" lon="6.16249">
        <ele>2727</ele>
        <time>2013-07-01T05:59:56Z</time>
      </trkpt>
      <trkpt lat="45.16713" lon="6.16248">
        <ele>2727</ele>
        <time>2013-07-01T06:00:01Z</time>
      </trkpt>
      <trkpt lat="45.1671" lon="6.16247">
        <ele>2728</ele>
        <time>2013-07-01T06:00:06Z</time>
      </trkpt>
      <trkpt lat="45.16706" lon="6.16247">
        <ele>2729</ele>
        <time>2013-07-01T06:00:11Z</time>
      </trkpt>
      <trkpt lat="45.16702" lon="6.16246">
        <ele>2729</ele>
        <time>2013-07-01T06:00:16Z</time>
      </trkpt>
      <trkpt lat="45.16699" lon="6.16246">
        <ele>2730</ele>
        <time>2013-07-01T06:00:21Z</time>
      </trkpt>
      <trkpt lat="45.16695" lon="6.16245">
        <ele>2730</ele>
        <time>2013-07-01T06:00:26Z</time>
      </trkpt>
      <trkpt lat="45.16692" lon="6.16243">
        <ele>2731</ele>
        <time>2013-07-01T06:00:31Z</time>
      </trkpt>
      <trkpt lat="45.16688" lon="6.16241">
        <ele>2731</ele>
        <time>2013-07-01T06:00:36Z</time>
      </trkpt>
      <trkpt lat="45.16684" lon="6.1624">
        <ele>2732</ele>
        <time>2013-07-01T06:00:41Z</time>
      </trkpt>
      <trkpt lat="45.16681" lon="6.16238">
        <ele>2732</ele>
        <time>2013-07-01T06:00:46Z</time>
      </trkpt>
      <trkpt lat="45.16677" lon="6.16236">
        <ele>2733</ele>
        <time>2013-07-01T06:00:51Z</time>
      </trkpt>
      <trkpt lat="45.16674" lon="6.16235">
        <ele>2733</ele>
        <time>2013-07-01T06:00:56Z</time>
      </trkpt>
      <trkpt lat="45.1667" lon="6.16234">
        <ele>2734</ele>
        <time>2013-07-01T06:01:01Z</time>
      </trkpt>
      <trkpt lat="45.16666" lon="6.16232">
        <ele>2734</ele>
        <time>2013-07-01T06:01:06Z</time>
      </trkpt>
      <trkpt lat="45.16663" lon="6.16231">
        <ele>2735</ele>
        <time>2013-07-01T06:01:11Z</time>
      </trkpt>
      <trkpt lat="45.16659" lon="6.16229">
        <ele>2735</ele>
        <time>2013-07-01T06:01:16Z</time>
      </trkpt>
      <trkpt lat="45.16656" lon="6.16228">
        <ele>2736</ele>
        <time>2013-07-01T06:01:21Z</time>
      </trkpt>
      <trkpt lat="45.16652" lon="6.16226">
        <ele>2736</ele>
        <time>2013-07-01T06:01:26Z</time>
      </trkpt>
      <trkpt lat="45.16649" lon="6.16224">
        <ele>2736</ele>
        <time>2013-07-01T06:01:31Z</time>
      </trkpt>
      <trkpt lat="45.16645" lon="6.16222">
        <ele>2737</ele>
        <time>2013-07-01T06:01:36Z</time>
      </trkpt>
      <trkpt lat="45.16641" lon="6.1622">
        <ele>2737</ele>
        <time>2013-07-01T06:01:41Z</time>
      </trkpt>
      <trkpt lat="45.16638" lon="6.16219">
        <ele>2738</ele>
        <time>2013-07-01T06:01:46Z</time>
      </trkpt>
      <trkpt lat="45.16634" lon="6.16217">
        <ele>2738</ele>
        <time>2013-07-01T06:01:51Z</time>
      </trkpt>
      <trkpt lat="45.1663" lon="6.16215">
        <ele>2739</ele>
        <time>2013-07-01T06:01:56Z</time>
      </trkpt>
      <trkpt lat="45.16627" lon="6.16214">
        <ele>2739</ele>
        <time>2013-07-01T06:02:01Z</time>
      </trkpt>
      <trkpt lat="45.16623" lon="6.16212">
        <ele>2740</ele>
        <time>2013-07-01T06:02:06Z</time>
      </trkpt>
      <trkpt lat="45.1662" lon="6.1621">
        <ele>2740</ele>
        <time>2013-07-01T06:02:11Z</time>
      </trkpt>
      <trkpt lat="45.16617" lon="6.16209">
        <ele>2740</ele>
        <time>2013-07-01T06:02:16Z</time>
      </trkpt>
      <trkpt lat="45.16614" lon="6.16207">
        <ele>2741</ele>
        <time>2013-07-01T06:02:21Z</time>
      </trkpt>
      <trkpt lat="45.1661" lon="6.16205">
        <ele>2741</ele>
        <time>2013-07-01T06:02:26Z</time>
      </trkpt>
      <trkpt lat="45.16607" lon="6.16203">
        <ele>2742</ele>
        <time>2013-07-01T06:02:31Z</time>
      </trkpt>
      <trkpt lat="45.16604" lon="6.16201">
        <ele>2742</ele>
        <time>2013-07-01T06:02:36Z</time>
      </trkpt>
      <trkpt lat="45.16601" lon="6.16199">
        <ele>2743</ele>
        <time>2013-07-01T06:02:41Z</time>
      </trkpt>
      <trkpt lat="45.16597" lon="6.16197">
        <ele>2743</ele>
        <time>2013-07-01T06:02:46Z</time>
      </trkpt>
      <trkpt lat="45.16594" lon="6.16195">
        <ele>2744</ele>
        <time>2013-07-01T06:02:51Z</time>
      </trkpt>
      <trkpt lat="45.16591" lon="6.16193">
        <ele>2744</ele>
        <time>2013-07-01T06:02:56Z</time>
      </trkpt>
      <trkpt lat="45.16588" lon="6.16191">
        <ele>2745</ele>
        <time>2013-07-01T06:03:01Z</time>
      </trkpt>
      <trkpt lat="45.16585" lon="6.16189">
        <ele>2745</ele>
        <time>2013-07-01T06:03:06Z</time>
      </trkpt>
      <trkpt lat="45.16582" lon="6.16187">
        <ele>2746</ele>
        <time>2013-07-01T06:03:11Z</time>
      </trkpt>
      <trkpt lat="45.1658" lon="6.16184">
        <ele>2746</ele>
        <time>2013-07-01T06:03:16Z</time>
      </trkpt>
      <trkpt lat="45.16577" lon="6.16182">
        <ele>2746</ele>
        <time>2013-07-01T06:03:21Z</time>
      </trkpt>
      <trkpt lat="45.16574" lon="6.16179">
        <ele>2747</ele>
        <time>2013-07-01T06:03:26Z</time>
      </trkpt>
      <trkpt lat="45.16571" lon="6.16178">
        <ele>2748</ele>
        <time>2013-07-01T06:03:31Z</time>
      </trkpt>
      <trkpt lat="45.16568" lon="6.16176">
        <ele>2748</ele>
        <time>2013-07-01T06:03:36Z</time>
      </trkpt>
      <trkpt lat="45.16566" lon="6.16174">
        <ele>2749</ele>
        <time>2013-07-01T06:03:41Z</time>
      </trkpt>
      <trkpt lat="45.16563" lon="6.16172">
        <ele>2749</ele>
        <time>2013-07-01T06:03:46Z</time>
      </trkpt>
      <trkpt lat="45.1656" lon="6.16169">
        <ele>2750</ele>
        <time>2013-07-01T06:03:51Z</time>
      </trkpt>
      <trkpt lat="45.16557" lon="6.16167">
        <ele>2750</ele>
        <time>2013-07-01T06:03:56Z</time>
      </trkpt>
      <trkpt lat="45.16554" lon="6.16165">
        <ele>2751</ele>
        <time>2013-07-01T06:04:01Z</time>
      </trkpt>
      <trkpt lat="45.16552" lon="6.16163">
        <ele>2751</ele>
        <time>2013-07-01T06:04:06Z</time>
      </trkpt>
      <trkpt lat="45.16549" lon="6.1616">
        <ele>2752</ele>
        <time>2013-07-01T06:04:11Z</time>
      </trkpt>
      <trkpt lat="45.16546" lon="6.16158">
        <ele>2752</ele>
        <time>2013-07-01T06:04:16Z</time>
      </trkpt>
      <trkpt lat="45.16544" lon="6.16155">
        <ele>2753</ele>
        <time>2013-07-01T06:04:21Z</time>
      </trkpt>
      <trkpt lat="45.16541" lon="6.16153">
        <ele>2753</ele>
        <time>2013-07-01T06:04:26Z</time>
      </trkpt>
      <trkpt lat="45.16538" lon="6.1615">
        <ele>2754</ele>
        <time>2013-07-01T06:04:31Z</time>
      </trkpt>
      <trkpt lat="45.16536" lon="6.16148">
        <ele>2754</ele>
        <time>2013-07-01T06:04:36Z</time>
      </trkpt>
      <trkpt lat="45.16532" lon="6.16145">
        <ele>2755</ele>
        <time>2013-07-01T06:04:41Z</time>
      </trkpt>
      <trkpt lat="45.1653" lon="6.16143">
        <ele>2755</ele>
        <time>2013-07-01T06:04:46Z</time>
      </trkpt>
      <trkpt lat="45.16526" lon="6.16141">
        <ele>2756</ele>
        <time>2013-07-01T06:04:51Z</time>
      </trkpt>
      <trkpt lat="45.16524" lon="6.16139">
        <ele>2757</ele>
        <time>2013-07-01T06:04:56Z</time>
      </trkpt>
      <trkpt lat="45.16521" lon="6.16137">
        <ele>2757</ele>
        <time>2013-07-01T06:05:01Z</time>
      </trkpt>
      <trkpt lat="45.16519" lon="6.16135">
        <ele>2757</ele>
        <time>2013-07-01T06:05:06Z</time>
      </trkpt>
      <trkpt lat="45.16516" lon="6.16132">
        <ele>2758</ele>
        <time>2013-07-01T06:05:11Z</time>
      </trkpt>
      <trkpt lat="45.16513" lon="6.1613">
        <ele>2758</ele>
        <time>2013-07-01T06:05:16Z</time>
      </trkpt>
      <trkpt lat="45.1651" lon="6.16128">
        <ele>2759</ele>
        <time>2013-07-01T06:05:21Z</time>
      </trkpt>
      <trkpt lat="45.16507" lon="6.16126">
        <ele>2759</ele>
        <time>2013-07-01T06:05:26Z</time>
      </trkpt>
      <trkpt lat="45.16505" lon="6.16124">
        <ele>2760</ele>
        <time>2013-07-01T06:05:31Z</time>
      </trkpt>
      <trkpt lat="45.16501" lon="6.16122">
        <ele>2760</ele>
        <time>2013-07-01T06:05:36Z</time>
      </trkpt>
      <trkpt lat="45.16499" lon="6.1612">
        <ele>2761</ele>
        <time>2013-07-01T06:05:41Z</time>
      </trkpt>
      <trkpt lat="45.16496" lon="6.16118">
        <ele>2761</ele>
        <time>2013-07-01T06:05:46Z</time>
      </trkpt>
      <trkpt lat="45.16493" lon="6.16116">
        <ele>2762</ele>
        <time>2013-07-01T06:05:51Z</time>
      </trkpt>
      <trkpt lat="45.1649" lon="6.16113">
        <ele>2762</ele>
        <time>2013-07-01T06:05:56Z</time>
      </trkpt>
      <trkpt lat="45.16488" lon="6.16111">
        <ele>2763</ele>
        <time>2013-07-01T06:06:01Z</time>
      </trkpt>
      <trkpt lat="45.16485" lon="6.1611">
        <ele>2763</ele>
        <time>2013-07-01T06:06:06Z</time>
      </trkpt>
      <trkpt lat="45.16482" lon="6.16108">
        <ele>2763</ele>
        <time>2013-07-01T06:06:11Z</time>
      </trkpt>
      <trkpt lat="45.16479" lon="6.16106">
        <ele>2764</ele>
        <time>2013-07-01T06:06:16Z</time>
      </trkpt>
      <trkpt lat="45.16477" lon="6.16104">
        <ele>2764</ele>
        <time>2013-07-01T06:06:21Z</time>
      </trkpt>
      <trkpt lat="45.16474" lon="6.16103">
        <ele>2765</ele>
        <time>2013-07-01T06:06:26Z</time>
      </trkpt>
      <trkpt lat="45.16471" lon="6.161">
        <ele>2765</ele>
        <time>2013-07-01T06:06:31Z</time>
      </trkpt>
      <trkpt lat="45.16468" lon="6.16098">
        <ele>2766</ele>
        <time>2013-07-01T06:06:36Z</time>
      </trkpt>
      <trkpt lat="45.16465" lon="6.16096">
        <ele>2766</ele>
        <time>2013-07-01T06:06:41Z</time>
      </trkpt>
      <trkpt lat="45.16463" lon="6.16094">
        <ele>2767</ele>
        <time>2013-07-01T06:06:46Z</time>
      </trkpt>
      <trkpt lat="45.1646" lon="6.16092">
        <ele>2767</ele>
        <time>2013-07-01T06:06:51Z</time>
      </trkpt>
      <trkpt lat="45.16457" lon="6.1609">
        <ele>2768</ele>
        <time>2013-07-01T06:06:56Z</time>
      </trkpt>
      <trkpt lat="45.16454" lon="6.16087">
        <ele>2768</ele>
        <time>2013-07-01T06:07:01Z</time>
      </trkpt>
      <trkpt lat="45.16451" lon="6.16085">
        <ele>2769</ele>
        <time>2013-07-01T06:07:06Z</time>
      </trkpt>
      <trkpt lat="45.16449" lon="6.16082">
        <ele>2769</ele>
        <time>2013-07-01T06:07:11Z</time>
      </trkpt>
      <trkpt lat="45.16446" lon="6.16079">
        <ele>2770</ele>
        <time>2013-07-01T06:07:16Z</time>
      </trkpt>
      <trkpt lat="45.16443" lon="6.16078">
        <ele>2770</ele>
        <time>2013-07-01T06:07:21Z</time>
      </trkpt>
      <trkpt lat="45.1644" lon="6.16076">
        <ele>2771</ele>
        <time>2013-07-01T06:07:26Z</time>
      </trkpt>
      <trkpt lat="45.16437" lon="6.16074">
        <ele>2772</ele>
        <time>2013-07-01T06:07:31Z</time>
      </trkpt>
      <trkpt lat="45.16435" lon="6.16072">
        <ele>2772</ele>
        <time>2013-07-01T06:07:36Z</time>
      </trkpt>
      <trkpt lat="45.16432" lon="6.1607">
        <ele>2773</ele>
        <time>2013-07-01T06:07:41Z</time>
      </trkpt>
      <trkpt lat="45.16428" lon="6.16068">
        <ele>2774</ele>
        <time>2013-07-01T06:07:46Z</time>
      </trkpt>
      <trkpt lat="45.16426" lon="6.16067">
        <ele>2774</ele>
        <time>2013-07-01T06:07:51Z</time>
      </trkpt>
      <trkpt lat="45.16423" lon="6.16065">
        <ele>2775</ele>
        <time>2013-07-01T06:07:56Z</time>
      </trkpt>
      <trkpt lat="45.1642" lon="6.16063">
        <ele>2775</ele>
        <time>2013-07-01T06:08:01Z</time>
      </trkpt>
      <trkpt lat="45.16418" lon="6.16061">
        <ele>2776</ele>
        <time>2013-07-01T06:08:06Z</time>
      </trkpt>
      <trkpt lat="45.16415" lon="6.16059">
        <ele>2776</ele>
        <time>2013-07-01T06:08:11Z</time>
      </trkpt>
      <trkpt lat="45.16413" lon="6.16056">
        <ele>2777</ele>
        <time>2013-07-01T06:08:16Z</time>
      </trkpt>
      <trkpt lat="45.16411" lon="6.16054">
        <ele>2778</ele>
        <time>2013-07-01T06:08:21Z</time>
      </trkpt>
      <trkpt lat="45.16407" lon="6.16052">
        <ele>2778</ele>
        <time>2013-07-01T06:08:26Z</time>
      </trkpt>
      <trkpt lat="45.16405" lon="6.1605">
        <ele>2779</ele>
        <time>2013-07-01T06:08:31Z</time>
      </trkpt>
      <trkpt lat="45.16402" lon="6.16048">
        <ele>2779</ele>
        <time>2013-07-01T06:08:36Z</time>
      </trkpt>
      <trkpt lat="45.16399" lon="6.16046">
        <ele>2780</ele>
        <time>2013-07-01T06:08:41Z</time>
      </trkpt>
      <trkpt lat="45.16397" lon="6.16044">
        <ele>2781</ele>
        <time>2013-07-01T06:08:46Z</time>
      </trkpt>
      <trkpt lat="45.16395" lon="6.16041">
        <ele>2781</ele>
        <time>2013-07-01T06:08:51Z</time>
      </trkpt>
      <trkpt lat="45.16392" lon="6.16039">
        <ele>2782</ele>
        <time>2013-07-01T06:08:56Z</time>
      </trkpt>
      <trkpt lat="45.1639" lon="6.16037">
        <ele>2782</ele>
        <time>2013-07-01T06:09:01Z</time>
      </trkpt>
      <trkpt lat="45.16387" lon="6.16035">
        <ele>2783</ele>
        <time>2013-07-01T06:09:06Z</time>
      </trkpt>
      <trkpt lat="45.16385" lon="6.16032">
        <ele>2784</ele>
        <time>2013-07-01T06:09:11Z</time>
      </trkpt>
      <trkpt lat="45.16382" lon="6.1603">
        <ele>2784</ele>
        <time>2013-07-01T06:09:16Z</time>
      </trkpt>
      <trkpt lat="45.1638" lon="6.16028">
        <ele>2785</ele>
        <time>2013-07-01T06:09:21Z</time>
      </trkpt>
      <trkpt lat="45.16378" lon="6.16026">
        <ele>2785</ele>
        <time>2013-07-01T06:09:26Z</time>
      </trkpt>
      <trkpt lat="45.16376" lon="6.16024">
        <ele>2786</ele>
        <time>2013-07-01T06:09:31Z</time>
      </trkpt>
      <trkpt lat="45.16373" lon="6.16022">
        <ele>2786</ele>
        <time>2013-07-01T06:09:36Z</time>
      </trkpt>
      <trkpt lat="45.16371" lon="6.16021">
        <ele>2787</ele>
        <time>2013-07-01T06:09:41Z</time>
      </trkpt>
      <trkpt lat="45.16369" lon="6.16019">
        <ele>2788</ele>
        <time>2013-07-01T06:09:46Z</time>
      </trkpt>
      <trkpt lat="45.16366" lon="6.16018">
        <ele>2788</ele>
        <time>2013-07-01T06:09:51Z</time>
      </trkpt>
      <trkpt lat="45.16364" lon="6.16016">
        <ele>2789</ele>
        <time>2013-07-01T06:09:56Z</time>
      </trkpt>
      <trkpt lat="45.16361" lon="6.16015">
        <ele>2789</ele>
        <time>2013-07-01T06:10:01Z</time>
      </trkpt>
      <trkpt lat="45.16359" lon="6.16013">
        <ele>2790</ele>
        <time>2013-07-01T06:10:06Z</time>
      </trkpt>
      <trkpt lat="45.16356" lon="6.16011">
        <ele>2790</ele>
        <time>2013-07-01T06:10:11Z</time>
      </trkpt>
      <trkpt lat="45.16354" lon="6.16009">
        <ele>2791</ele>
        <time>2013-07-01T06:10:16Z</time>
      </trkpt>
      <trkpt lat="45.16351" lon="6.16007">
        <ele>2791</ele>
        <time>2013-07-01T06:10:21Z</time>
      </trkpt>
      <trkpt lat="45.16349" lon="6.16004">
        <ele>2792</ele>
        <time>2013-07-01T06:10:26Z</time>
      </trkpt>
      <trkpt lat="45.16346" lon="6.16002">
        <ele>2792</ele>
        <time>2013-07-01T06:10:31Z</time>
      </trkpt>
      <trkpt lat="45.16344" lon="6.16">
        <ele>2793</ele>
        <time>2013-07-01T06:10:36Z</time>
      </trkpt>
      <trkpt lat="45.16342" lon="6.15997">
        <ele>2793</ele>
        <time>2013-07-01T06:10:41Z</time>
      </trkpt>
      <trkpt lat="45.1634" lon="6.15995">
        <ele>2794</ele>
        <time>2013-07-01T06:10:46Z</time>
      </trkpt>
      <trkpt lat="45.16337" lon="6.15992">
        <ele>2795</ele>
        <time>2013-07-01T06:10:51Z</time>
      </trkpt>
      <trkpt lat="45.16334" lon="6.1599">
        <ele>2795</ele>
        <time>2013-07-01T06:10:56Z</time>
      </trkpt>
      <trkpt lat="45.16332" lon="6.15988">
        <ele>2796</ele>
        <time>2013-07-01T06:11:01Z</time>
      </trkpt>
      <trkpt lat="45.1633" lon="6.15986">
        <ele>2796</ele>
        <time>2013-07-01T06:11:06Z</time>
      </trkpt>
      <trkpt lat="45.16327" lon="6.15984">
        <ele>2797</ele>
        <time>2013-07-01T06:11:11Z</time>
      </trkpt>
      <trkpt lat="45.16325" lon="6.15981">
        <ele>2797</ele>
        <time>2013-07-01T06:11:16Z</time>
      </trkpt>
      <trkpt lat="45.16323" lon="6.15979">
        <ele>2798</ele>
        <time>2013-07-01T06:11:21Z</time>
      </trkpt>
      <trkpt lat="45.16321" lon="6.15976">
        <ele>2798</ele>
        <time>2013-07-01T06:11:26Z</time>
      </trkpt>
      <trkpt lat="45.16319" lon="6.15974">
        <ele>2799</ele>
        <time>2013-07-01T06:11:31Z</time>
      </trkpt>
      <trkpt lat="45.16317" lon="6.15971">
        <ele>2799</ele>
        <time>2013-07-01T06:11:36Z</time>
      </trkpt>
      <trkpt lat="45.16315" lon="6.15968">
        <ele>2800</ele>
        <time>2013-07-01T06:11:41Z</time>
      </trkpt>
      <trkpt lat="45.16313" lon="6.15965">
        <ele>2801</ele>
        <time>2013-07-01T06:11:46Z</time>
      </trkpt>
      <trkpt lat="45.16311" lon="6.15962">
        <ele>2801</ele>
        <time>2013-07-01T06:11:51Z</time>
      </trkpt>
      <trkpt lat="45.16309" lon="6.1596">
        <ele>2802</ele>
        <time>2013-07-01T06:11:56Z</time>
      </trkpt>
      <trkpt lat="45.16307" lon="6.15957">
        <ele>2802</ele>
        <time>2013-07-01T06:12:01Z</time>
      </trkpt>
      <trkpt lat="45.16306" lon="6.15954">
        <ele>2803</ele>
        <time>2013-07-01T06:12:06Z</time>
      </trkpt>
      <trkpt lat="45.16304" lon="6.15951">
        <ele>2803</ele>
        <time>2013-07-01T06:12:11Z</time>
      </trkpt>
      <trkpt lat="45.16303" lon="6.15948">
        <ele>2804</ele>
        <time>2013-07-01T06:12:16Z</time>
      </trkpt>
      <trkpt lat="45.16301" lon="6.15946">
        <ele>2804</ele>
        <time>2013-07-01T06:12:21Z</time>
      </trkpt>
      <trkpt lat="45.16299" lon="6.15943">
        <ele>2805</ele>
        <time>2013-07-01T06:12:26Z</time>
      </trkpt>
      <trkpt lat="45.16298" lon="6.1594">
        <ele>2805</ele>
        <time>2013-07-01T06:12:31Z</time>
      </trkpt>
      <trkpt lat="45.16296" lon="6.15937">
        <ele>2806</ele>
        <time>2013-07-01T06:12:36Z</time>
      </trkpt>
      <trkpt lat="45.16294" lon="6.15934">
        <ele>2806</ele>
        <time>2013-07-01T06:12:41Z</time>
      </trkpt>
      <trkpt lat="45.16293" lon="6.15931">
        <ele>2807</ele>
        <time>2013-07-01T06:12:46Z</time>
      </trkpt>
      <trkpt lat="45.16291" lon="6.15928">
        <ele>2807</ele>
        <time>2013-07-01T06:12:51Z</time>
      </trkpt>
      <trkpt lat="45.1629" lon="6.15925">
        <ele>2808</ele>
        <time>2013-07-01T06:12:56Z</time>
      </trkpt>
      <trkpt lat="45.16288" lon="6.15922">
        <ele>2808</ele>
        <time>2013-07-01T06:13:01Z</time>
      </trkpt>
      <trkpt lat="45.16287" lon="6.15919">
        <ele>2809</ele>
        <time>2013-07-01T06:13:06Z</time>
      </trkpt>
      <trkpt lat="45.16285" lon="6.15916">
        <ele>2810</ele>
        <time>2013-07-01T06:13:11Z</time>
      </trkpt>
      <trkpt lat="45.16284" lon="6.15913">
        <ele>2810</ele>
        <time>2013-07-01T06:13:16Z</time>
      </trkpt>
      <trkpt lat="45.16282" lon="6.1591">
        <ele>2811</ele>
        <time>2013-07-01T06:13:21Z</time>
      </trkpt>
      <trkpt lat="45.16281" lon="6.15907">
        <ele>2811</ele>
        <time>2013-07-01T06:13:26Z</time>
      </trkpt>
      <trkpt lat="45.16279" lon="6.15904">
        <ele>2812</ele>
        <time>2013-07-01T06:13:31Z</time>
      </trkpt>
      <trkpt lat="45.16278" lon="6.15902">
        <ele>2813</ele>
        <time>2013-07-01T06:13:36Z</time>
      </trkpt>
      <trkpt lat="45.16277" lon="6.15899">
        <ele>2813</ele>
        <time>2013-07-01T06:13:41Z</time>
      </trkpt>
      <trkpt lat="45.16276" lon="6.15896">
        <ele>2814</ele>
        <time>2013-07-01T06:13:46Z</time>
      </trkpt>
      <trkpt lat="45.16274" lon="6.15893">
        <ele>2814</ele>
        <time>2013-07-01T06:13:51Z</time>
      </trkpt>
      <trkpt lat="45.16273" lon="6.15891">
        <ele>2815</ele>
        <time>2013-07-01T06:13:56Z</time>
      </trkpt>
      <trkpt lat="45.16271" lon="6.15888">
        <ele>2815</ele>
        <time>2013-07-01T06:14:01Z</time>
      </trkpt>
      <trkpt lat="45.1627" lon="6.15888">
        <ele>2815</ele>
        <time>2013-07-01T06:14:06Z</time>
      </trkpt>
      <trkpt lat="45.1627" lon="6.15888">
        <ele>2816</ele>
        <time>2013-07-01T06:14:11Z</time>
      </trkpt>
      <trkpt lat="45.16271" lon="6.15888">
        <ele>2815</ele>
        <time>2013-07-01T06:14:16Z</time>
      </trkpt>
      <trkpt lat="45.16271" lon="6.15887">
        <ele>2816</ele>
        <time>2013-07-01T06:14:21Z</time>
      </trkpt>
      <trkpt lat="45.16271" lon="6.15887">
        <ele>2816</ele>
        <time>2013-07-01T06:14:26Z</time>
      </trkpt>
      <trkpt lat="45.16271" lon="6.15887">
        <ele>2817</ele>
        <time>2013-07-01T06:14:31Z</time>
      </trkpt>
      <trkpt lat="45.16271" lon="6.15888">
        <ele>2817</ele>
        <time>2013-07-01T06:14:36Z</time>
      </trkpt>
      <trkpt lat="45.16271" lon="6.15888">
        <ele>2819</ele>
        <time>2013-07-01T06:14:41Z</time>
      </trkpt>
      <trkpt lat="45.16271" lon="6.15889">
        <ele>2821</ele>
        <time>2013-07-01T06:14:46Z</time>
      </trkpt>
      <trkpt lat="45.16271" lon="6.15888">
        <ele>2818</ele>
        <time>2013-07-01T06:14:51Z</time>
      </trkpt>
      <trkpt lat="45.16271" lon="6.15888">
        <ele>2818</ele>
        <time>2013-07-01T06:14:56Z</time>
      </trkpt>
      <trkpt lat="45.16271" lon="6.15888">
        <ele>2817</ele>
        <time>2013-07-01T06:15:01Z</time>
      </trkpt>
      <trkpt lat="45.16271" lon="6.15888">
        <ele>2818</ele>
        <time>2013-07-01T06:15:06Z</time>
      </trkpt>
      <trkpt lat="45.1627" lon="6.15888">
        <ele>2818</ele>
        <time>2013-07-01T06:15:11Z</time>
      </trkpt>
      <trkpt lat="45.16271" lon="6.15888">
        <ele>2818</ele>
        <time>2013-07-01T06:15:16Z</time>
      </trkpt>
      <trkpt lat="45.1627" lon="6.15888">
        <ele>2818</ele>
        <time>2013-07-01T06:15:21Z</time>
      </trkpt>
      <trkpt lat="45.1627" lon="6.15888">
        <ele>2818</ele>
        <time>2013-07-01T06:15:26Z</time>
      </trkpt>
      <trkpt lat="45.1627" lon="6.15888">
        <ele>2818</ele>
        <time>2013-07-01T06:15:31Z</time>
      </trkpt>
      <trkpt lat="45.16269" lon="6.15888">
        <ele>2818</ele>
        <time>2013-07-01T06:15:36Z</time>
      </trkpt>
      <trkpt lat="45.16269" lon="6.15888">
        <ele>2819</ele>
        <time>2013-07-01T06:15:41Z</time>
      </trkpt>
      <trkpt lat="45.16269" lon="6.15887">
        <ele>2819</ele>
        <time>2013-07-01T06:15:46Z</time>
      </trkpt>
      <trkpt lat="45.16269" lon="6.15887">
        <ele>2819</ele>
        <time>2013-07-01T06:15:51Z</time>
      </trkpt>
      <trkpt lat="45.16269" lon="6.15887">
        <ele>2819</ele>
        <time>2013-07-01T06:15:56Z</time>
      </trkpt>
      <trkpt lat="45.16269" lon="6.15887">
        <ele>2819</ele>
        <time>2013-07-01T06:16:01Z</time>
      </trkpt>
      <trkpt lat="45.16268" lon="6.15885">
        <ele>2820</ele>
        <time>2013-07-01T06:16:06Z</time>
      </trkpt>
      <trkpt lat="45.16266" lon="6.15882">
        <ele>2820</ele>
        <time>2013-07-01T06:16:11Z</time>
      </trkpt>
      <trkpt lat="45.16264" lon="6.15879">
        <ele>2821</ele>
        <time>2013-07-01T06:16:16Z</time>
      </trkpt>
      <trkpt lat="45.16262" lon="6.15876">
        <ele>2822</ele>
        <time>2013-07-01T06:16:21Z</time>
      </trkpt>
      <trkpt lat="45.16259" lon="6.15873">
        <ele>2823</ele>
        <time>2013-07-01T06:16:26Z</time>
      </trkpt>
      <trkpt lat="45.16257" lon="6.1587">
        <ele>2824</ele>
        <time>2013-07-01T06:16:31Z</time>
      </trkpt>
      <trkpt lat="45.16255" lon="6.15868">
        <ele>2824</ele>
        <time>2013-07-01T06:16:36Z</time>
      </trkpt>
      <trkpt lat="45.16253" lon="6.15866">
        <ele>2825</ele>
        <time>2013-07-01T06:16:41Z</time>
      </trkpt>
      <trkpt lat="45.16251" lon="6.15863">
        <ele>2826</ele>
        <time>2013-07-01T06:16:46Z</time>
      </trkpt>
      <trkpt lat="45.16249" lon="6.15861">
        <ele>2826</ele>
        <time>2013-07-01T06:16:51Z</time>
      </trkpt>
      <trkpt lat="45.16247" lon="6.15858">
        <ele>2827</ele>
        <time>2013-07-01T06:16:56Z</time>
      </trkpt>
      <trkpt lat="45.16246" lon="6.15856">
        <ele>2828</ele>
        <time>2013-07-01T06:17:01Z</time>
      </trkpt>
      <trkpt lat="45.16244" lon="6.15854">
        <ele>2829</ele>
        <time>2013-07-01T06:17:06Z</time>
      </trkpt>
      <trkpt lat="45.16242" lon="6.15852">
        <ele>2829</ele>
        <time>2013-07-01T06:17:11Z</time>
      </trkpt>
      <trkpt lat="45.1624" lon="6.1585">
        <ele>2830</ele>
        <time>2013-07-01T06:17:16Z</time>
      </trkpt>
      <trkpt lat="45.16239" lon="6.15849">
        <ele>2831</ele>
        <time>2013-07-01T06:17:21Z</time>
      </trkpt>
      <trkpt lat="45.16237" lon="6.15848">
        <ele>2831</ele>
        <time>2013-07-01T06:17:26Z</time>
      </trkpt>
      <trkpt lat="45.16234" lon="6.15846">
        <ele>2832</ele>
        <time>2013-07-01T06:17:31Z</time>
      </trkpt>
      <trkpt lat="45.16232" lon="6.15845">
        <ele>2832</ele>
        <time>2013-07-01T06:17:36Z</time>
      </trkpt>
      <trkpt lat="45.1623" lon="6.15843">
        <ele>2833</ele>
        <time>2013-07-01T06:17:41Z</time>
      </trkpt>
      <trkpt lat="45.16229" lon="6.15842">
        <ele>2834</ele>
        <time>2013-07-01T06:17:46Z</time>
      </trkpt>
      <trkpt lat="45.16226" lon="6.1584">
        <ele>2834</ele>
        <time>2013-07-01T06:17:51Z</time>
      </trkpt>
      <trkpt lat="45.16224" lon="6.15839">
        <ele>2835</ele>
        <time>2013-07-01T06:17:56Z</time>
      </trkpt>
      <trkpt lat="45.16222" lon="6.15837">
        <ele>2836</ele>
        <time>2013-07-01T06:18:01Z</time>
      </trkpt>
      <trkpt lat="45.1622" lon="6.15836">
        <ele>2837</ele>
        <time>2013-07-01T06:18:06Z</time>
      </trkpt>
      <trkpt lat="45.16218" lon="6.15834">
        <ele>2837</ele>
        <time>2013-07-01T06:18:11Z</time>
      </trkpt>
      <trkpt lat="45.16216" lon="6.15833">
        <ele>2838</ele>
        <time>2013-07-01T06:18:16Z</time>
      </trkpt>
      <trkpt lat="45.16214" lon="6.15832">
        <ele>2838</ele>
        <time>2013-07-01T06:18:21Z</time>
      </trkpt>
      <trkpt lat="45.16212" lon="6.1583">
        <ele>2839</ele>
        <time>2013-07-01T06:18:26Z</time>
      </trkpt>
      <trkpt lat="45.1621" lon="6.15829">
        <ele>2840</ele>
        <time>2013-07-01T06:18:31Z</time>
      </trkpt>
      <trkpt lat="45.16208" lon="6.15828">
        <ele>2840</ele>
        <time>2013-07-01T06:18:36Z</time>
      </trkpt>
      <trkpt lat="45.16206" lon="6.15826">
        <ele>2841</ele>
        <time>2013-07-01T06:18:41Z</time>
      </trkpt>
      <trkpt lat="45.16203" lon="6.15825">
        <ele>2841</ele>
        <time>2013-07-01T06:18:46Z</time>
      </trkpt>
      <trkpt lat="45.16201" lon="6.15824">
        <ele>2842</ele>
        <time>2013-07-01T06:18:51Z</time>
      </trkpt>
      <trkpt lat="45.16199" lon="6.15823">
        <ele>2843</ele>
        <time>2013-07-01T06:18:56Z</time>
      </trkpt>
      <trkpt lat="45.16196" lon="6.15822">
        <ele>2843</ele>
        <time>2013-07-01T06:19:01Z</time>
      </trkpt>
      <trkpt lat="45.16194" lon="6.15821">
        <ele>2844</ele>
        <time>2013-07-01T06:19:06Z</time>
      </trkpt>
      <trkpt lat="45.16192" lon="6.15819">
        <ele>2844</ele>
        <time>2013-07-01T06:19:11Z</time>
      </trkpt>
      <trkpt lat="45.16189" lon="6.15818">
        <ele>2845</ele>
        <time>2013-07-01T06:19:16Z</time>
      </trkpt>
      <trkpt lat="45.16186" lon="6.15817">
        <ele>2845</ele>
        <time>2013-07-01T06:19:21Z</time>
      </trkpt>
      <trkpt lat="45.16184" lon="6.15816">
        <ele>2846</ele>
        <time>2013-07-01T06:19:26Z</time>
      </trkpt>
      <trkpt lat="45.16181" lon="6.15814">
        <ele>2847</ele>
        <time>2013-07-01T06:19:31Z</time>
      </trkpt>
      <trkpt lat="45.16179" lon="6.15813">
        <ele>2847</ele>
        <time>2013-07-01T06:19:36Z</time>
      </trkpt>
      <trkpt lat="45.16177" lon="6.15811">
        <ele>2848</ele>
        <time>2013-07-01T06:19:41Z</time>
      </trkpt>
      <trkpt lat="45.16174" lon="6.1581">
        <ele>2849</ele>
        <time>2013-07-01T06:19:46Z</time>
      </trkpt>
      <trkpt lat="45.16172" lon="6.15809">
        <ele>2849</ele>
        <time>2013-07-01T06:19:51Z</time>
      </trkpt>
      <trkpt lat="45.1617" lon="6.15807">
        <ele>2850</ele>
        <time>2013-07-01T06:19:56Z</time>
      </trkpt>
      <trkpt lat="45.16167" lon="6.15806">
        <ele>2851</ele>
        <time>2013-07-01T06:20:01Z</time>
      </trkpt>
      <trkpt lat="45.16164" lon="6.15805">
        <ele>2852</ele>
        <time>2013-07-01T06:20:06Z</time>
      </trkpt>
      <trkpt lat="45.16163" lon="6.15803">
        <ele>2852</ele>
        <time>2013-07-01T06:20:11Z</time>
      </trkpt>
      <trkpt lat="45.1616" lon="6.15802">
        <ele>2853</ele>
        <time>2013-07-01T06:20:16Z</time>
      </trkpt>
      <trkpt lat="45.16158" lon="6.158">
        <ele>2853</ele>
        <time>2013-07-01T06:20:21Z</time>
      </trkpt>
      <trkpt lat="45.16156" lon="6.15799">
        <ele>2854</ele>
        <time>2013-07-01T06:20:26Z</time>
      </trkpt>
      <trkpt lat="45.16153" lon="6.15798">
        <ele>2855</ele>
        <time>2013-07-01T06:20:31Z</time>
      </trkpt>
      <trkpt lat="45.16151" lon="6.15797">
        <ele>2855</ele>
        <time>2013-07-01T06:20:36Z</time>
      </trkpt>
      <trkpt lat="45.16148" lon="6.15796">
        <ele>2856</ele>
        <time>2013-07-01T06:20:41Z</time>
      </trkpt>
      <trkpt lat="45.16146" lon="6.15795">
        <ele>2856</ele>
        <time>2013-07-01T06:20:46Z</time>
      </trkpt>
      <trkpt lat="45.16144" lon="6.15794">
        <ele>2857</ele>
        <time>2013-07-01T06:20:51Z</time>
      </trkpt>
      <trkpt lat="45.16142" lon="6.15793">
        <ele>2858</ele>
        <time>2013-07-01T06:20:56Z</time>
      </trkpt>
      <trkpt lat="45.1614" lon="6.15792">
        <ele>2858</ele>
        <time>2013-07-01T06:21:01Z</time>
      </trkpt>
      <trkpt lat="45.16137" lon="6.15791">
        <ele>2859</ele>
        <time>2013-07-01T06:21:06Z</time>
      </trkpt>
      <trkpt lat="45.16135" lon="6.1579">
        <ele>2860</ele>
        <time>2013-07-01T06:21:11Z</time>
      </trkpt>
      <trkpt lat="45.16133" lon="6.15788">
        <ele>2860</ele>
        <time>2013-07-01T06:21:16Z</time>
      </trkpt>
      <trkpt lat="45.16131" lon="6.15787">
        <ele>2861</ele>
        <time>2013-07-01T06:21:21Z</time>
      </trkpt>
      <trkpt lat="45.16129" lon="6.15786">
        <ele>2862</ele>
        <time>2013-07-01T06:21:26Z</time>
      </trkpt>
      <trkpt lat="45.16126" lon="6.15784">
        <ele>2862</ele>
        <time>2013-07-01T06:21:31Z</time>
      </trkpt>
      <trkpt lat="45.16124" lon="6.15783">
        <ele>2863</ele>
        <time>2013-07-01T06:21:36Z</time>
      </trkpt>
      <trkpt lat="45.16122" lon="6.15782">
        <ele>2864</ele>
        <time>2013-07-01T06:21:41Z</time>
      </trkpt>
      <trkpt lat="45.16119" lon="6.15781">
        <ele>2865</ele>
        <time>2013-07-01T06:21:46Z</time>
      </trkpt>
      <trkpt lat="45.16117" lon="6.1578">
        <ele>2865</ele>
        <time>2013-07-01T06:21:51Z</time>
      </trkpt>
      <trkpt lat="45.16115" lon="6.15779">
        <ele>2866</ele>
        <time>2013-07-01T06:21:56Z</time>
      </trkpt>
      <trkpt lat="45.16113" lon="6.15778">
        <ele>2867</ele>
        <time>2013-07-01T06:22:01Z</time>
      </trkpt>
      <trkpt lat="45.1611" lon="6.15777">
        <ele>2867</ele>
        <time>2013-07-01T06:22:06Z</time>
      </trkpt>
      <trkpt lat="45.16108" lon="6.15776">
        <ele>2868</ele>
        <time>2013-07-01T06:22:11Z</time>
      </trkpt>
      <trkpt lat="45.16105" lon="6.15775">
        <ele>2868</ele>
        <time>2013-07-01T06:22:16Z</time>
      </trkpt>
      <trkpt lat="45.16103" lon="6.15774">
        <ele>2869</ele>
        <time>2013-07-01T06:22:21Z</time>
      </trkpt>
      <trkpt lat="45.16102" lon="6.15773">
        <ele>2870</ele>
        <time>2013-07-01T06:22:26Z</time>
      </trkpt>
      <trkpt lat="45.16099" lon="6.15772">
        <ele>2870</ele>
        <time>2013-07-01T06:22:31Z</time>
      </trkpt>
      <trkpt lat="45.16097" lon="6.15771">
        <ele>2871</ele>
        <time>2013-07-01T06:22:36Z</time>
      </trkpt>
      <trkpt lat="45.16095" lon="6.1577">
        <ele>2872</ele>
        <time>2013-07-01T06:22:41Z</time>
      </trkpt>
      <trkpt lat="45.16093" lon="6.15769">
        <ele>2872</ele>
        <time>2013-07-01T06:22:46Z</time>
      </trkpt>
      <trkpt lat="45.16091" lon="6.15768">
        <ele>2873</ele>
        <time>2013-07-01T06:22:51Z</time>
      </trkpt>
      <trkpt lat="45.16089" lon="6.15767">
        <ele>2873</ele>
        <time>2013-07-01T06:22:56Z</time>
      </trkpt>
      <trkpt lat="45.16087" lon="6.15766">
        <ele>2874</ele>
        <time>2013-07-01T06:23:01Z</time>
      </trkpt>
      <trkpt lat="45.16084" lon="6.15766">
        <ele>2875</ele>
        <time>2013-07-01T06:23:06Z</time>
      </trkpt>
      <trkpt lat="45.16082" lon="6.15765">
        <ele>2875</ele>
        <time>2013-07-01T06:23:11Z</time>
      </trkpt>
      <trkpt lat="45.16082" lon="6.15765">
        <ele>2875</ele>
        <time>2013-07-01T06:23:16Z</time>
      </trkpt>
      <trkpt lat="45.16082" lon="6.15765">
        <ele>2875</ele>
        <time>2013-07-01T06:23:21Z</time>
      </trkpt>
      <trkpt lat="45.16081" lon="6.15764">
        <ele>2875</ele>
        <time>2013-07-01T06:23:26Z</time>
      </trkpt>
      <trkpt lat="45.16078" lon="6.15762">
        <ele>2876</ele>
        <time>2013-07-01T06:23:31Z</time>
      </trkpt>
      <trkpt lat="45.16079" lon="6.15759">
        <ele>2877</ele>
        <time>2013-07-01T06:23:36Z</time>
      </trkpt>
      <trkpt lat="45.1608" lon="6.15756">
        <ele>2878</ele>
        <time>2013-07-01T06:23:41Z</time>
      </trkpt>
      <trkpt lat="45.16081" lon="6.15753">
        <ele>2879</ele>
        <time>2013-07-01T06:23:46Z</time>
      </trkpt>
      <trkpt lat="45.16083" lon="6.15749">
        <ele>2879</ele>
        <time>2013-07-01T06:23:51Z</time>
      </trkpt>
      <trkpt lat="45.16084" lon="6.15746">
        <ele>2880</ele>
        <time>2013-07-01T06:23:56Z</time>
      </trkpt>
      <trkpt lat="45.16084" lon="6.15742">
        <ele>2881</ele>
        <time>2013-07-01T06:24:01Z</time>
      </trkpt>
      <trkpt lat="45.16084" lon="6.15738">
        <ele>2882</ele>
        <time>2013-07-01T06:24:06Z</time>
      </trkpt>
      <trkpt lat="45.16085" lon="6.15735">
        <ele>2882</ele>
        <time>2013-07-01T06:24:11Z</time>
      </trkpt>
      <trkpt lat="45.16086" lon="6.15731">
        <ele>2883</ele>
        <time>2013-07-01T06:24:16Z</time>
      </trkpt>
      <trkpt lat="45.16086" lon="6.15727">
        <ele>2884</ele>
        <time>2013-07-01T06:24:21Z</time>
      </trkpt>
      <trkpt lat="45.16086" lon="6.15723">
        <ele>2884</ele>
        <time>2013-07-01T06:24:26Z</time>
      </trkpt>
      <trkpt lat="45.16086" lon="6.1572">
        <ele>2885</ele>
        <time>2013-07-01T06:24:31Z</time>
      </trkpt>
      <trkpt lat="45.16086" lon="6.15716">
        <ele>2886</ele>
        <time>2013-07-01T06:24:36Z</time>
      </trkpt>
      <trkpt lat="45.16086" lon="6.15713">
        <ele>2886</ele>
        <time>2013-07-01T06:24:41Z</time>
      </trkpt>
      <trkpt lat="45.16086" lon="6.15709">
        <ele>2887</ele>
        <time>2013-07-01T06:24:46Z</time>
      </trkpt>
      <trkpt lat="45.16085" lon="6.15706">
        <ele>2888</ele>
        <time>2013-07-01T06:24:51Z</time>
      </trkpt>
      <trkpt lat="45.16082" lon="6.15705">
        <ele>2888</ele>
        <time>2013-07-01T06:24:56Z</time>
      </trkpt>
      <trkpt lat="45.1608" lon="6.15704">
        <ele>2889</ele>
        <time>2013-07-01T06:25:01Z</time>
      </trkpt>
      <trkpt lat="45.16078" lon="6.15702">
        <ele>2889</ele>
        <time>2013-07-01T06:25:06Z</time>
      </trkpt>
      <trkpt lat="45.16076" lon="6.15701">
        <ele>2890</ele>
        <time>2013-07-01T06:25:11Z</time>
      </trkpt>
      <trkpt lat="45.16074" lon="6.157">
        <ele>2891</ele>
        <time>2013-07-01T06:25:16Z</time>
      </trkpt>
      <trkpt lat="45.16072" lon="6.157">
        <ele>2891</ele>
        <time>2013-07-01T06:25:21Z</time>
      </trkpt>
      <trkpt lat="45.16069" lon="6.15699">
        <ele>2892</ele>
        <time>2013-07-01T06:25:26Z</time>
      </trkpt>
      <trkpt lat="45.16067" lon="6.15699">
        <ele>2892</ele>
        <time>2013-07-01T06:25:31Z</time>
      </trkpt>
      <trkpt lat="45.16065" lon="6.15698">
        <ele>2893</ele>
        <time>2013-07-01T06:25:36Z</time>
      </trkpt>
      <trkpt lat="45.16062" lon="6.15698">
        <ele>2894</ele>
        <time>2013-07-01T06:25:41Z</time>
      </trkpt>
      <trkpt lat="45.1606" lon="6.15697">
        <ele>2894</ele>
        <time>2013-07-01T06:25:46Z</time>
      </trkpt>
      <trkpt lat="45.16057" lon="6.15697">
        <ele>2897</ele>
        <time>2013-07-01T06:25:51Z</time>
      </trkpt>
      <trkpt lat="45.16055" lon="6.15698">
        <ele>2899</ele>
        <time>2013-07-01T06:25:56Z</time>
      </trkpt>
      <trkpt lat="45.16053" lon="6.15698">
        <ele>2900</ele>
        <time>2013-07-01T06:26:01Z</time>
      </trkpt>
      <trkpt lat="45.1605" lon="6.15698">
        <ele>2901</ele>
        <time>2013-07-01T06:26:06Z</time>
      </trkpt>
      <trkpt lat="45.16048" lon="6.15697">
        <ele>2902</ele>
        <time>2013-07-01T06:26:11Z</time>
      </trkpt>
      <trkpt lat="45.16046" lon="6.15697">
        <ele>2903</ele>
        <time>2013-07-01T06:26:16Z</time>
      </trkpt>
      <trkpt lat="45.16044" lon="6.15696">
        <ele>2904</ele>
        <time>2013-07-01T06:26:21Z</time>
      </trkpt>
      <trkpt lat="45.16041" lon="6.15695">
        <ele>2905</ele>
        <time>2013-07-01T06:26:26Z</time>
      </trkpt>
      <trkpt lat="45.16039" lon="6.15694">
        <ele>2906</ele>
        <time>2013-07-01T06:26:31Z</time>
      </trkpt>
      <trkpt lat="45.16037" lon="6.15694">
        <ele>2907</ele>
        <time>2013-07-01T06:26:36Z</time>
      </trkpt>
      <trkpt lat="45.16034" lon="6.15693">
        <ele>2907</ele>
        <time>2013-07-01T06:26:41Z</time>
      </trkpt>
      <trkpt lat="45.16032" lon="6.15692">
        <ele>2908</ele>
        <time>2013-07-01T06:26:46Z</time>
      </trkpt>
      <trkpt lat="45.1603" lon="6.15691">
        <ele>2908</ele>
        <time>2013-07-01T06:26:51Z</time>
      </trkpt>
      <trkpt lat="45.16029" lon="6.15689">
        <ele>2909</ele>
        <time>2013-07-01T06:26:56Z</time>
      </trkpt>
      <trkpt lat="45.16027" lon="6.15687">
        <ele>2909</ele>
        <time>2013-07-01T06:27:01Z</time>
      </trkpt>
      <trkpt lat="45.16025" lon="6.15686">
        <ele>2910</ele>
        <time>2013-07-01T06:27:06Z</time>
      </trkpt>
      <trkpt lat="45.16023" lon="6.15685">
        <ele>2910</ele>
        <time>2013-07-01T06:27:11Z</time>
      </trkpt>
      <trkpt lat="45.16021" lon="6.15684">
        <ele>2911</ele>
        <time>2013-07-01T06:27:16Z</time>
      </trkpt>
      <trkpt lat="45.1602" lon="6.15682">
        <ele>2911</ele>
        <time>2013-07-01T06:27:21Z</time>
      </trkpt>
      <trkpt lat="45.16018" lon="6.15681">
        <ele>2911</ele>
        <time>2013-07-01T06:27:26Z</time>
      </trkpt>
      <trkpt lat="45.16016" lon="6.15679">
        <ele>2912</ele>
        <time>2013-07-01T06:27:31Z</time>
      </trkpt>
      <trkpt lat="45.16014" lon="6.15677">
        <ele>2912</ele>
        <time>2013-07-01T06:27:36Z</time>
      </trkpt>
      <trkpt lat="45.16012" lon="6.15676">
        <ele>2913</ele>
        <time>2013-07-01T06:27:41Z</time>
      </trkpt>
      <trkpt lat="45.16011" lon="6.15674">
        <ele>2913</ele>
        <time>2013-07-01T06:27:46Z</time>
      </trkpt>
      <trkpt lat="45.16008" lon="6.15672">
        <ele>2914</ele>
        <time>2013-07-01T06:27:51Z</time>
      </trkpt>
      <trkpt lat="45.16007" lon="6.15672">
        <ele>2914</ele>
        <time>2013-07-01T06:27:56Z</time>
      </trkpt>
      <trkpt lat="45.16004" lon="6.15671">
        <ele>2915</ele>
        <time>2013-07-01T06:28:01Z</time>
      </trkpt>
      <trkpt lat="45.16002" lon="6.1567">
        <ele>2915</ele>
        <time>2013-07-01T06:28:06Z</time>
      </trkpt>
      <trkpt lat="45.16" lon="6.15668">
        <ele>2915</ele>
        <time>2013-07-01T06:28:11Z</time>
      </trkpt>
      <trkpt lat="45.15999" lon="6.15667">
        <ele>2916</ele>
        <time>2013-07-01T06:28:16Z</time>
      </trkpt>
      <trkpt lat="45.15997" lon="6.15665">
        <ele>2916</ele>
        <time>2013-07-01T06:28:21Z</time>
      </trkpt>
      <trkpt lat="45.15994" lon="6.15664">
        <ele>2917</ele>
        <time>2013-07-01T06:28:26Z</time>
      </trkpt>
      <trkpt lat="45.15992" lon="6.15663">
        <ele>2917</ele>
        <time>2013-07-01T06:28:31Z</time>
      </trkpt>
      <trkpt lat="45.15992" lon="6.15663">
        <ele>2917</ele>
        <time>2013-07-01T06:28:36Z</time>
      </trkpt>
      <trkpt lat="45.15992" lon="6.15663">
        <ele>2917</ele>
        <time>2013-07-01T06:28:41Z</time>
      </trkpt>
      <trkpt lat="45.15992" lon="6.15662">
        <ele>2917</ele>
        <time>2013-07-01T06:28:46Z</time>
      </trkpt>
      <trkpt lat="45.15992" lon="6.15662">
        <ele>2917</ele>
        <time>2013-07-01T06:28:51Z</time>
      </trkpt>
      <trkpt lat="45.15992" lon="6.15662">
        <ele>2917</ele>
        <time>2013-07-01T06:28:56Z</time>
      </trkpt>
      <trkpt lat="45.15992" lon="6.15662">
        <ele>2917</ele>
        <time>2013-07-01T06:29:01Z</time>
      </trkpt>
      <trkpt lat="45.15992" lon="6.15662">
        <ele>2917</ele>
        <time>2013-07-01T06:29:06Z</time>
      </trkpt>
      <trkpt lat="45.15992" lon="6.15662">
        <ele>2917</ele>
        <time>2013-07-01T06:29:11Z</time>
      </trkpt>
      <trkpt lat="45.15992" lon="6.15662">
        <ele>2917</ele>
        <time>2013-07-01T06:29:16Z</time>
      </trkpt>
      <trkpt lat="45.15992" lon="6.15662">
        <ele>2917</ele>
        <time>2013-07-01T06:29:21Z</time>
      </trkpt>
      <trkpt lat="45.15992" lon="6.15662">
        <ele>2917</ele>
        <time>2013-07-01T06:29:26Z</time>
      </trkpt>
      <trkpt lat="45.15992" lon="6.15662">
        <ele>2917</ele>
        <time>2013-07-01T06:29:31Z</time>
      </trkpt>
      <trkpt lat="45.15991" lon="6.15661">
        <ele>2917</ele>
        <time>2013-07-01T06:29:36Z</time>
      </trkpt>
      <trkpt lat="45.15988" lon="6.15659">
        <ele>2918</ele>
        <time>2013-07-01T06:29:41Z</time>
      </trkpt>
      <trkpt lat="45.15986" lon="6.15657">
        <ele>2919</ele>
        <time>2013-07-01T06:29:46Z</time>
      </trkpt>
      <trkpt lat="45.15984" lon="6.15655">
        <ele>2920</ele>
        <time>2013-07-01T06:29:51Z</time>
      </trkpt>
      <trkpt lat="45.15982" lon="6.15653">
        <ele>2920</ele>
        <time>2013-07-01T06:29:56Z</time>
      </trkpt>
      <trkpt lat="45.1598" lon="6.15651">
        <ele>2921</ele>
        <time>2013-07-01T06:30:01Z</time>
      </trkpt>
      <trkpt lat="45.15978" lon="6.1565">
        <ele>2922</ele>
        <time>2013-07-01T06:30:06Z</time>
      </trkpt>
      <trkpt lat="45.15976" lon="6.15649">
        <ele>2922</ele>
        <time>2013-07-01T06:30:11Z</time>
      </trkpt>
      <trkpt lat="45.15973" lon="6.15647">
        <ele>2923</ele>
        <time>2013-07-01T06:30:16Z</time>
      </trkpt>
      <trkpt lat="45.15973" lon="6.15644">
        <ele>2924</ele>
        <time>2013-07-01T06:30:21Z</time>
      </trkpt>
      <trkpt lat="45.15973" lon="6.15641">
        <ele>2925</ele>
        <time>2013-07-01T06:30:26Z</time>
      </trkpt>
      <trkpt lat="45.15974" lon="6.15638">
        <ele>2925</ele>
        <time>2013-07-01T06:30:31Z</time>
      </trkpt>
      <trkpt lat="45.15975" lon="6.15634">
        <ele>2926</ele>
        <time>2013-07-01T06:30:36Z</time>
      </trkpt>
      <trkpt lat="45.15975" lon="6.15631">
        <ele>2927</ele>
        <time>2013-07-01T06:30:41Z</time>
      </trkpt>
      <trkpt lat="45.15975" lon="6.15628">
        <ele>2927</ele>
        <time>2013-07-01T06:30:46Z</time>
      </trkpt>
      <trkpt lat="45.15975" lon="6.15625">
        <ele>2928</ele>
        <time>2013-07-01T06:30:51Z</time>
      </trkpt>
      <trkpt lat="45.15976" lon="6.15622">
        <ele>2928</ele>
        <time>2013-07-01T06:30:56Z</time>
      </trkpt>
      <trkpt lat="45.15976" lon="6.15619">
        <ele>2929</ele>
        <time>2013-07-01T06:31:01Z</time>
      </trkpt>
      <trkpt lat="45.15977" lon="6.15616">
        <ele>2930</ele>
        <time>2013-07-01T06:31:06Z</time>
      </trkpt>
      <trkpt lat="45.15977" lon="6.15613">
        <ele>2930</ele>
        <time>2013-07-01T06:31:11Z</time>
      </trkpt>
      <trkpt lat="45.15977" lon="6.1561">
        <ele>2931</ele>
        <time>2013-07-01T06:31:16Z</time>
      </trkpt>
      <trkpt lat="45.15977" lon="6.15607">
        <ele>2931</ele>
        <time>2013-07-01T06:31:21Z</time>
      </trkpt>
      <trkpt lat="45.15977" lon="6.15604">
        <ele>2932</ele>
        <time>2013-07-01T06:31:26Z</time>
      </trkpt>
      <trkpt lat="45.15977" lon="6.15601">
        <ele>2933</ele>
        <time>2013-07-01T06:31:31Z</time>
      </trkpt>
      <trkpt lat="45.15977" lon="6.15598">
        <ele>2933</ele>
        <time>2013-07-01T06:31:36Z</time>
      </trkpt>
      <trkpt lat="45.15976" lon="6.15596">
        <ele>2934</ele>
        <time>2013-07-01T06:31:41Z</time>
      </trkpt>
      <trkpt lat="45.15976" lon="6.15593">
        <ele>2934</ele>
        <time>2013-07-01T06:31:46Z</time>
      </trkpt>
      <trkpt lat="45.15976" lon="6.15591">
        <ele>2935</ele>
        <time>2013-07-01T06:31:51Z</time>
      </trkpt>
      <trkpt lat="45.15976" lon="6.15588">
        <ele>2936</ele>
        <time>2013-07-01T06:31:56Z</time>
      </trkpt>
      <trkpt lat="45.15976" lon="6.15585">
        <ele>2936</ele>
        <time>2013-07-01T06:32:01Z</time>
      </trkpt>
      <trkpt lat="45.15976" lon="6.15582">
        <ele>2937</ele>
        <time>2013-07-01T06:32:06Z</time>
      </trkpt>
      <trkpt lat="45.15975" lon="6.15579">
        <ele>2938</ele>
        <time>2013-07-01T06:32:11Z</time>
      </trkpt>
      <trkpt lat="45.15975" lon="6.15576">
        <ele>2938</ele>
        <time>2013-07-01T06:32:16Z</time>
      </trkpt>
      <trkpt lat="45.15975" lon="6.15573">
        <ele>2939</ele>
        <time>2013-07-01T06:32:21Z</time>
      </trkpt>
      <trkpt lat="45.15975" lon="6.1557">
        <ele>2940</ele>
        <time>2013-07-01T06:32:26Z</time>
      </trkpt>
      <trkpt lat="45.15975" lon="6.15567">
        <ele>2941</ele>
        <time>2013-07-01T06:32:31Z</time>
      </trkpt>
      <trkpt lat="45.15974" lon="6.15564">
        <ele>2942</ele>
        <time>2013-07-01T06:32:36Z</time>
      </trkpt>
      <trkpt lat="45.15974" lon="6.15561">
        <ele>2942</ele>
        <time>2013-07-01T06:32:41Z</time>
      </trkpt>
      <trkpt lat="45.15974" lon="6.15559">
        <ele>2943</ele>
        <time>2013-07-01T06:32:46Z</time>
      </trkpt>
      <trkpt lat="45.15973" lon="6.15556">
        <ele>2944</ele>
        <time>2013-07-01T06:32:51Z</time>
      </trkpt>
      <trkpt lat="45.15971" lon="6.15555">
        <ele>2945</ele>
        <time>2013-07-01T06:32:56Z</time>
      </trkpt>
      <trkpt lat="45.1597" lon="6.15555">
        <ele>2945</ele>
        <time>2013-07-01T06:33:01Z</time>
      </trkpt>
      <trkpt lat="45.15968" lon="6.15556">
        <ele>2946</ele>
        <time>2013-07-01T06:33:06Z</time>
      </trkpt>
      <trkpt lat="45.15966" lon="6.15556">
        <ele>2946</ele>
        <time>2013-07-01T06:33:11Z</time>
      </trkpt>
      <trkpt lat="45.15964" lon="6.15557">
        <ele>2947</ele>
        <time>2013-07-01T06:33:16Z</time>
      </trkpt>
      <trkpt lat="45.15962" lon="6.15557">
        <ele>2947</ele>
        <time>2013-07-01T06:33:21Z</time>
      </trkpt>
      <trkpt lat="45.15959" lon="6.15557">
        <ele>2948</ele>
        <time>2013-07-01T06:33:26Z</time>
      </trkpt>
      <trkpt lat="45.15957" lon="6.15557">
        <ele>2948</ele>
        <time>2013-07-01T06:33:31Z</time>
      </trkpt>
      <trkpt lat="45.15955" lon="6.15558">
        <ele>2949</ele>
        <time>2013-07-01T06:33:36Z</time>
      </trkpt>
      <trkpt lat="45.15953" lon="6.15558">
        <ele>2950</ele>
        <time>2013-07-01T06:33:41Z</time>
      </trkpt>
      <trkpt lat="45.15951" lon="6.15558">
        <ele>2950</ele>
        <time>2013-07-01T06:33:46Z</time>
      </trkpt>
      <trkpt lat="45.15949" lon="6.15558">
        <ele>2951</ele>
        <time>2013-07-01T06:33:51Z</time>
      </trkpt>
      <trkpt lat="45.15947" lon="6.15557">
        <ele>2951</ele>
        <time>2013-07-01T06:33:56Z</time>
      </trkpt>
      <trkpt lat="45.15946" lon="6.15557">
        <ele>2952</ele>
        <time>2013-07-01T06:34:01Z</time>
      </trkpt>
      <trkpt lat="45.15943" lon="6.15557">
        <ele>2952</ele>
        <time>2013-07-01T06:34:06Z</time>
      </trkpt>
      <trkpt lat="45.15941" lon="6.15557">
        <ele>2953</ele>
        <time>2013-07-01T06:34:11Z</time>
      </trkpt>
      <trkpt lat="45.15939" lon="6.15556">
        <ele>2953</ele>
        <time>2013-07-01T06:34:16Z</time>
      </trkpt>
      <trkpt lat="45.15937" lon="6.15556">
        <ele>2954</ele>
        <time>2013-07-01T06:34:21Z</time>
      </trkpt>
      <trkpt lat="45.15936" lon="6.15556">
        <ele>2954</ele>
        <time>2013-07-01T06:34:26Z</time>
      </trkpt>
      <trkpt lat="45.15933" lon="6.15555">
        <ele>2955</ele>
        <time>2013-07-01T06:34:31Z</time>
      </trkpt>
      <trkpt lat="45.15931" lon="6.15555">
        <ele>2956</ele>
        <time>2013-07-01T06:34:36Z</time>
      </trkpt>
      <trkpt lat="45.15932" lon="6.15554">
        <ele>2956</ele>
        <time>2013-07-01T06:34:41Z</time>
      </trkpt>
      <trkpt lat="45.15933" lon="6.15552">
        <ele>2956</ele>
        <time>2013-07-01T06:34:46Z</time>
      </trkpt>
      <trkpt lat="45.15933" lon="6.15549">
        <ele>2957</ele>
        <time>2013-07-01T06:34:51Z</time>
      </trkpt>
      <trkpt lat="45.15934" lon="6.15548">
        <ele>2957</ele>
        <time>2013-07-01T06:34:56Z</time>
      </trkpt>
      <trkpt lat="45.15934" lon="6.15548">
        <ele>2957</ele>
        <time>2013-07-01T06:35:01Z</time>
      </trkpt>
      <trkpt lat="45.15934" lon="6.15546">
        <ele>2957</ele>
        <time>2013-07-01T06:35:06Z</time>
      </trkpt>
      <trkpt lat="45.15935" lon="6.15543">
        <ele>2958</ele>
        <time>2013-07-01T06:35:11Z</time>
      </trkpt>
      <trkpt lat="45.15935" lon="6.1554">
        <ele>2959</ele>
        <time>2013-07-01T06:35:16Z</time>
      </trkpt>
      <trkpt lat="45.15936" lon="6.15538">
        <ele>2960</ele>
        <time>2013-07-01T06:35:21Z</time>
      </trkpt>
      <trkpt lat="45.15936" lon="6.15535">
        <ele>2961</ele>
        <time>2013-07-01T06:35:26Z</time>
      </trkpt>
      <trkpt lat="45.15936" lon="6.15532">
        <ele>2961</ele>
        <time>2013-07-01T06:35:31Z</time>
      </trkpt>
      <trkpt lat="45.15937" lon="6.1553">
        <ele>2962</ele>
        <time>2013-07-01T06:35:36Z</time>
      </trkpt>
      <trkpt lat="45.15938" lon="6.15527">
        <ele>2963</ele>
        <time>2013-07-01T06:35:41Z</time>
      </trkpt>
      <trkpt lat="45.15938" lon="6.15524">
        <ele>2963</ele>
        <time>2013-07-01T06:35:46Z</time>
      </trkpt>
      <trkpt lat="45.15938" lon="6.15521">
        <ele>2964</ele>
        <time>2013-07-01T06:35:51Z</time>
      </trkpt>
      <trkpt lat="45.15939" lon="6.15519">
        <ele>2964</ele>
        <time>2013-07-01T06:35:56Z</time>
      </trkpt>
      <trkpt lat="45.15937" lon="6.15519">
        <ele>2965</ele>
        <time>2013-07-01T06:36:01Z</time>
      </trkpt>
      <trkpt lat="45.15935" lon="6.1552">
        <ele>2966</ele>
        <time>2013-07-01T06:36:06Z</time>
      </trkpt>
      <trkpt lat="45.15933" lon="6.1552">
        <ele>2966</ele>
        <time>2013-07-01T06:36:11Z</time>
      </trkpt>
      <trkpt lat="45.1593" lon="6.1552">
        <ele>2967</ele>
        <time>2013-07-01T06:36:16Z</time>
      </trkpt>
      <trkpt lat="45.15928" lon="6.1552">
        <ele>2968</ele>
        <time>2013-07-01T06:36:21Z</time>
      </trkpt>
      <trkpt lat="45.15926" lon="6.1552">
        <ele>2968</ele>
        <time>2013-07-01T06:36:26Z</time>
      </trkpt>
      <trkpt lat="45.15925" lon="6.15521">
        <ele>2969</ele>
        <time>2013-07-01T06:36:31Z</time>
      </trkpt>
      <trkpt lat="45.15922" lon="6.15521">
        <ele>2970</ele>
        <time>2013-07-01T06:36:36Z</time>
      </trkpt>
      <trkpt lat="45.1592" lon="6.1552">
        <ele>2970</ele>
        <time>2013-07-01T06:36:41Z</time>
      </trkpt>
      <trkpt lat="45.15918" lon="6.1552">
        <ele>2971</ele>
        <time>2013-07-01T06:36:46Z</time>
      </trkpt>
      <trkpt lat="45.15916" lon="6.1552">
        <ele>2971</ele>
        <time>2013-07-01T06:36:51Z</time>
      </trkpt>
      <trkpt lat="45.15914" lon="6.1552">
        <ele>2972</ele>
        <time>2013-07-01T06:36:56Z</time>
      </trkpt>
      <trkpt lat="45.15913" lon="6.1552">
        <ele>2972</ele>
        <time>2013-07-01T06:37:01Z</time>
      </trkpt>
      <trkpt lat="45.15913" lon="6.1552">
        <ele>2972</ele>
        <time>2013-07-01T06:37:06Z</time>
      </trkpt>
      <trkpt lat="45.15913" lon="6.1552">
        <ele>2972</ele>
        <time>2013-07-01T06:37:11Z</time>
      </trkpt>
      <trkpt lat="45.15913" lon="6.1552">
        <ele>2972</ele>
        <time>2013-07-01T06:37:16Z</time>
      </trkpt>
      <trkpt lat="45.15913" lon="6.1552">
        <ele>2972</ele>
        <time>2013-07-01T06:37:21Z</time>
      </trkpt>
      <trkpt lat="45.15913" lon="6.1552">
        <ele>2973</ele>
        <time>2013-07-01T06:37:26Z</time>
      </trkpt>
      <trkpt lat="45.15913" lon="6.1552">
        <ele>2972</ele>
        <time>2013-07-01T06:37:31Z</time>
      </trkpt>
      <trkpt lat="45.15913" lon="6.1552">
        <ele>2972</ele>
        <time>2013-07-01T06:37:36Z</time>
      </trkpt>
      <trkpt lat="45.15913" lon="6.1552">
        <ele>2972</ele>
        <time>2013-07-01T06:37:41Z</time>
      </trkpt>
      <trkpt lat="45.15913" lon="6.1552">
        <ele>2972</ele>
        <time>2013-07-01T06:37:46Z</time>
      </trkpt>
      <trkpt lat="45.15913" lon="6.1552">
        <ele>2972</ele>
        <time>2013-07-01T06:37:51Z</time>
      </trkpt>
      <trkpt lat="45.15914" lon="6.15518">
        <ele>2973</ele>
        <time>2013-07-01T06:37:56Z</time>
      </trkpt>
      <trkpt lat="45.15915" lon="6.15515">
        <ele>2973</ele>
        <time>2013-07-01T06:38:01Z</time>
      </trkpt>
      <trkpt lat="45.15917" lon="6.15512">
        <ele>2974</ele>
        <time>2013-07-01T06:38:06Z</time>
      </trkpt>
      <trkpt lat="45.15917" lon="6.15509">
        <ele>2975</ele>
        <time>2013-07-01T06:38:11Z</time>
      </trkpt>
      <trkpt lat="45.15918" lon="6.15506">
        <ele>2976</ele>
        <time>2013-07-01T06:38:16Z</time>
      </trkpt>
      <trkpt lat="45.15919" lon="6.15503">
        <ele>2976</ele>
        <time>2013-07-01T06:38:21Z</time>
      </trkpt>
      <trkpt lat="45.1592" lon="6.155">
        <ele>2977</ele>
        <time>2013-07-01T06:38:26Z</time>
      </trkpt>
      <trkpt lat="45.15921" lon="6.15497">
        <ele>2978</ele>
        <time>2013-07-01T06:38:31Z</time>
      </trkpt>
      <trkpt lat="45.15922" lon="6.15493">
        <ele>2979</ele>
        <time>2013-07-01T06:38:36Z</time>
      </trkpt>
      <trkpt lat="45.15923" lon="6.1549">
        <ele>2979</ele>
        <time>2013-07-01T06:38:41Z</time>
      </trkpt>
      <trkpt lat="45.15923" lon="6.15487">
        <ele>2980</ele>
        <time>2013-07-01T06:38:46Z</time>
      </trkpt>
      <trkpt lat="45.15924" lon="6.15484">
        <ele>2981</ele>
        <time>2013-07-01T06:38:51Z</time>
      </trkpt>
      <trkpt lat="45.15925" lon="6.15482">
        <ele>2981</ele>
        <time>2013-07-01T06:38:56Z</time>
      </trkpt>
      <trkpt lat="45.15926" lon="6.15479">
        <ele>2982</ele>
        <time>2013-07-01T06:39:01Z</time>
      </trkpt>
      <trkpt lat="45.15926" lon="6.15477">
        <ele>2983</ele>
        <time>2013-07-01T06:39:06Z</time>
      </trkpt>
      <trkpt lat="45.15928" lon="6.15474">
        <ele>2984</ele>
        <time>2013-07-01T06:39:11Z</time>
      </trkpt>
      <trkpt lat="45.15928" lon="6.15472">
        <ele>2984</ele>
        <time>2013-07-01T06:39:16Z</time>
      </trkpt>
      <trkpt lat="45.15929" lon="6.15469">
        <ele>2985</ele>
        <time>2013-07-01T06:39:21Z</time>
      </trkpt>
      <trkpt lat="45.15929" lon="6.15467">
        <ele>2986</ele>
        <time>2013-07-01T06:39:26Z</time>
      </trkpt>
      <trkpt lat="45.1593" lon="6.15464">
        <ele>2986</ele>
        <time>2013-07-01T06:39:31Z</time>
      </trkpt>
      <trkpt lat="45.15931" lon="6.15461">
        <ele>2987</ele>
        <time>2013-07-01T06:39:36Z</time>
      </trkpt>
      <trkpt lat="45.15932" lon="6.15459">
        <ele>2988</ele>
        <time>2013-07-01T06:39:41Z</time>
      </trkpt>
      <trkpt lat="45.15932" lon="6.15456">
        <ele>2988</ele>
        <time>2013-07-01T06:39:46Z</time>
      </trkpt>
      <trkpt lat="45.15933" lon="6.15453">
        <ele>2989</ele>
        <time>2013-07-01T06:39:51Z</time>
      </trkpt>
      <trkpt lat="45.15933" lon="6.1545">
        <ele>2990</ele>
        <time>2013-07-01T06:39:56Z</time>
      </trkpt>
      <trkpt lat="45.15934" lon="6.15448">
        <ele>2990</ele>
        <time>2013-07-01T06:40:01Z</time>
      </trkpt>
      <trkpt lat="45.15935" lon="6.15445">
        <ele>2991</ele>
        <time>2013-07-01T06:40:06Z</time>
      </trkpt>
      <trkpt lat="45.15936" lon="6.15443">
        <ele>2991</ele>
        <time>2013-07-01T06:40:11Z</time>
      </trkpt>
      <trkpt lat="45.15937" lon="6.1544">
        <ele>2992</ele>
        <time>2013-07-01T06:40:16Z</time>
      </trkpt>
      <trkpt lat="45.15938" lon="6.15438">
        <ele>2993</ele>
        <time>2013-07-01T06:40:21Z</time>
      </trkpt>
      <trkpt lat="45.15939" lon="6.15436">
        <ele>2993</ele>
        <time>2013-07-01T06:40:26Z</time>
      </trkpt>
      <trkpt lat="45.15939" lon="6.15434">
        <ele>2993</ele>
        <time>2013-07-01T06:40:31Z</time>
      </trkpt>
      <trkpt lat="45.15939" lon="6.15431">
        <ele>2994</ele>
        <time>2013-07-01T06:40:36Z</time>
      </trkpt>
      <trkpt lat="45.15941" lon="6.15429">
        <ele>2995</ele>
        <time>2013-07-01T06:40:41Z</time>
      </trkpt>
      <trkpt lat="45.15941" lon="6.15426">
        <ele>2995</ele>
        <time>2013-07-01T06:40:46Z</time>
      </trkpt>
      <trkpt lat="45.15942" lon="6.15423">
        <ele>2996</ele>
        <time>2013-07-01T06:40:51Z</time>
      </trkpt>
      <trkpt lat="45.15943" lon="6.15421">
        <ele>2996</ele>
        <time>2013-07-01T06:40:56Z</time>
      </trkpt>
      <trkpt lat="45.15944" lon="6.15418">
        <ele>2997</ele>
        <time>2013-07-01T06:41:01Z</time>
      </trkpt>
      <trkpt lat="45.15944" lon="6.15415">
        <ele>2998</ele>
        <time>2013-07-01T06:41:06Z</time>
      </trkpt>
      <trkpt lat="45.15945" lon="6.15412">
        <ele>2999</ele>
        <time>2013-07-01T06:41:11Z</time>
      </trkpt>
      <trkpt lat="45.15946" lon="6.1541">
        <ele>2999</ele>
        <time>2013-07-01T06:41:16Z</time>
      </trkpt>
      <trkpt lat="45.15946" lon="6.15407">
        <ele>3000</ele>
        <time>2013-07-01T06:41:21Z</time>
      </trkpt>
      <trkpt lat="45.15946" lon="6.15404">
        <ele>3001</ele>
        <time>2013-07-01T06:41:26Z</time>
      </trkpt>
      <trkpt lat="45.15947" lon="6.15402">
        <ele>3001</ele>
        <time>2013-07-01T06:41:31Z</time>
      </trkpt>
      <trkpt lat="45.15948" lon="6.15399">
        <ele>3002</ele>
        <time>2013-07-01T06:41:36Z</time>
      </trkpt>
      <trkpt lat="45.15949" lon="6.15396">
        <ele>3002</ele>
        <time>2013-07-01T06:41:41Z</time>
      </trkpt>
      <trkpt lat="45.15949" lon="6.15393">
        <ele>3003</ele>
        <time>2013-07-01T06:41:46Z</time>
      </trkpt>
      <trkpt lat="45.15949" lon="6.1539">
        <ele>3004</ele>
        <time>2013-07-01T06:41:51Z</time>
      </trkpt>
      <trkpt lat="45.1595" lon="6.15387">
        <ele>3004</ele>
        <time>2013-07-01T06:41:56Z</time>
      </trkpt>
      <trkpt lat="45.15951" lon="6.15384">
        <ele>3005</ele>
        <time>2013-07-01T06:42:01Z</time>
      </trkpt>
      <trkpt lat="45.15951" lon="6.15382">
        <ele>3005</ele>
        <time>2013-07-01T06:42:06Z</time>
      </trkpt>
      <trkpt lat="45.15952" lon="6.15379">
        <ele>3006</ele>
        <time>2013-07-01T06:42:11Z</time>
      </trkpt>
      <trkpt lat="45.15952" lon="6.15376">
        <ele>3007</ele>
        <time>2013-07-01T06:42:16Z</time>
      </trkpt>
      <trkpt lat="45.15952" lon="6.15373">
        <ele>3007</ele>
        <time>2013-07-01T06:42:21Z</time>
      </trkpt>
      <trkpt lat="45.15953" lon="6.1537">
        <ele>3008</ele>
        <time>2013-07-01T06:42:26Z</time>
      </trkpt>
      <trkpt lat="45.15953" lon="6.15367">
        <ele>3008</ele>
        <time>2013-07-01T06:42:31Z</time>
      </trkpt>
      <trkpt lat="45.15954" lon="6.15364">
        <ele>3009</ele>
        <time>2013-07-01T06:42:36Z</time>
      </trkpt>
      <trkpt lat="45.15954" lon="6.15361">
        <ele>3010</ele>
        <time>2013-07-01T06:42:41Z</time>
      </trkpt>
      <trkpt lat="45.15955" lon="6.15357">
        <ele>3010</ele>
        <time>2013-07-01T06:42:46Z</time>
      </trkpt>
      <trkpt lat="45.15955" lon="6.15354">
        <ele>3011</ele>
        <time>2013-07-01T06:42:51Z</time>
      </trkpt>
      <trkpt lat="45.15957" lon="6.15352">
        <ele>3011</ele>
        <time>2013-07-01T06:42:56Z</time>
      </trkpt>
      <trkpt lat="45.15957" lon="6.15349">
        <ele>3012</ele>
        <time>2013-07-01T06:43:01Z</time>
      </trkpt>
      <trkpt lat="45.15958" lon="6.15346">
        <ele>3012</ele>
        <time>2013-07-01T06:43:06Z</time>
      </trkpt>
      <trkpt lat="45.15958" lon="6.15344">
        <ele>3013</ele>
        <time>2013-07-01T06:43:11Z</time>
      </trkpt>
      <trkpt lat="45.15959" lon="6.15341">
        <ele>3013</ele>
        <time>2013-07-01T06:43:16Z</time>
      </trkpt>
      <trkpt lat="45.1596" lon="6.15339">
        <ele>3014</ele>
        <time>2013-07-01T06:43:21Z</time>
      </trkpt>
      <trkpt lat="45.1596" lon="6.15336">
        <ele>3015</ele>
        <time>2013-07-01T06:43:26Z</time>
      </trkpt>
      <trkpt lat="45.15962" lon="6.15333">
        <ele>3015</ele>
        <time>2013-07-01T06:43:31Z</time>
      </trkpt>
      <trkpt lat="45.15962" lon="6.15331">
        <ele>3016</ele>
        <time>2013-07-01T06:43:36Z</time>
      </trkpt>
      <trkpt lat="45.15962" lon="6.15331">
        <ele>3016</ele>
        <time>2013-07-01T06:43:41Z</time>
      </trkpt>
      <trkpt lat="45.15962" lon="6.15331">
        <ele>3016</ele>
        <time>2013-07-01T06:43:46Z</time>
      </trkpt>
      <trkpt lat="45.15962" lon="6.15331">
        <ele>3016</ele>
        <time>2013-07-01T06:43:51Z</time>
      </trkpt>
      <trkpt lat="45.15962" lon="6.15331">
        <ele>3016</ele>
        <time>2013-07-01T06:43:56Z</time>
      </trkpt>
      <trkpt lat="45.1596" lon="6.15332">
        <ele>3016</ele>
        <time>2013-07-01T06:44:01Z</time>
      </trkpt>
      <trkpt lat="45.15957" lon="6.15333">
        <ele>3017</ele>
        <time>2013-07-01T06:44:06Z</time>
      </trkpt>
      <trkpt lat="45.15955" lon="6.15333">
        <ele>3017</ele>
        <time>2013-07-01T06:44:11Z</time>
      </trkpt>
      <trkpt lat="45.15952" lon="6.15334">
        <ele>3018</ele>
        <time>2013-07-01T06:44:16Z</time>
      </trkpt>
      <trkpt lat="45.1595" lon="6.15335">
        <ele>3018</ele>
        <time>2013-07-01T06:44:21Z</time>
      </trkpt>
      <trkpt lat="45.15948" lon="6.15335">
        <ele>3019</ele>
        <time>2013-07-01T06:44:26Z</time>
      </trkpt>
      <trkpt lat="45.15946" lon="6.15336">
        <ele>3020</ele>
        <time>2013-07-01T06:44:31Z</time>
      </trkpt>
      <trkpt lat="45.15943" lon="6.15337">
        <ele>3020</ele>
        <time>2013-07-01T06:44:36Z</time>
      </trkpt>
      <trkpt lat="45.15941" lon="6.15338">
        <ele>3021</ele>
        <time>2013-07-01T06:44:41Z</time>
      </trkpt>
      <trkpt lat="45.15938" lon="6.15339">
        <ele>3022</ele>
        <time>2013-07-01T06:44:46Z</time>
      </trkpt>
      <trkpt lat="45.15936" lon="6.1534">
        <ele>3022</ele>
        <time>2013-07-01T06:44:51Z</time>
      </trkpt>
      <trkpt lat="45.15933" lon="6.15341">
        <ele>3023</ele>
        <time>2013-07-01T06:44:56Z</time>
      </trkpt>
      <trkpt lat="45.15931" lon="6.15342">
        <ele>3024</ele>
        <time>2013-07-01T06:45:01Z</time>
      </trkpt>
      <trkpt lat="45.15929" lon="6.15343">
        <ele>3024</ele>
        <time>2013-07-01T06:45:06Z</time>
      </trkpt>
      <trkpt lat="45.15927" lon="6.15344">
        <ele>3025</ele>
        <time>2013-07-01T06:45:11Z</time>
      </trkpt>
      <trkpt lat="45.15925" lon="6.15344">
        <ele>3026</ele>
        <time>2013-07-01T06:45:16Z</time>
      </trkpt>
      <trkpt lat="45.15923" lon="6.15345">
        <ele>3026</ele>
        <time>2013-07-01T06:45:21Z</time>
      </trkpt>
      <trkpt lat="45.15921" lon="6.15345">
        <ele>3027</ele>
        <time>2013-07-01T06:45:26Z</time>
      </trkpt>
      <trkpt lat="45.15919" lon="6.15346">
        <ele>3027</ele>
        <time>2013-07-01T06:45:31Z</time>
      </trkpt>
      <trkpt lat="45.15917" lon="6.15346">
        <ele>3028</ele>
        <time>2013-07-01T06:45:36Z</time>
      </trkpt>
      <trkpt lat="45.15915" lon="6.15347">
        <ele>3028</ele>
        <time>2013-07-01T06:45:41Z</time>
      </trkpt>
      <trkpt lat="45.15913" lon="6.15347">
        <ele>3029</ele>
        <time>2013-07-01T06:45:46Z</time>
      </trkpt>
      <trkpt lat="45.15912" lon="6.15348">
        <ele>3029</ele>
        <time>2013-07-01T06:45:51Z</time>
      </trkpt>
      <trkpt lat="45.1591" lon="6.15348">
        <ele>3030</ele>
        <time>2013-07-01T06:45:56Z</time>
      </trkpt>
      <trkpt lat="45.15908" lon="6.15348">
        <ele>3031</ele>
        <time>2013-07-01T06:46:01Z</time>
      </trkpt>
      <trkpt lat="45.15906" lon="6.15349">
        <ele>3031</ele>
        <time>2013-07-01T06:46:06Z</time>
      </trkpt>
      <trkpt lat="45.15904" lon="6.15349">
        <ele>3032</ele>
        <time>2013-07-01T06:46:11Z</time>
      </trkpt>
      <trkpt lat="45.15902" lon="6.1535">
        <ele>3032</ele>
        <time>2013-07-01T06:46:16Z</time>
      </trkpt>
      <trkpt lat="45.159" lon="6.1535">
        <ele>3033</ele>
        <time>2013-07-01T06:46:21Z</time>
      </trkpt>
      <trkpt lat="45.15897" lon="6.1535">
        <ele>3033</ele>
        <time>2013-07-01T06:46:26Z</time>
      </trkpt>
      <trkpt lat="45.15895" lon="6.1535">
        <ele>3034</ele>
        <time>2013-07-01T06:46:31Z</time>
      </trkpt>
      <trkpt lat="45.15893" lon="6.15351">
        <ele>3034</ele>
        <time>2013-07-01T06:46:36Z</time>
      </trkpt>
      <trkpt lat="45.15891" lon="6.15351">
        <ele>3035</ele>
        <time>2013-07-01T06:46:41Z</time>
      </trkpt>
      <trkpt lat="45.15888" lon="6.15352">
        <ele>3035</ele>
        <time>2013-07-01T06:46:46Z</time>
      </trkpt>
      <trkpt lat="45.15886" lon="6.15352">
        <ele>3036</ele>
        <time>2013-07-01T06:46:51Z</time>
      </trkpt>
      <trkpt lat="45.15886" lon="6.15352">
        <ele>3036</ele>
        <time>2013-07-01T06:46:56Z</time>
      </trkpt>
      <trkpt lat="45.15886" lon="6.15352">
        <ele>3036</ele>
        <time>2013-07-01T06:47:01Z</time>
      </trkpt>
      <trkpt lat="45.15884" lon="6.15352">
        <ele>3036</ele>
        <time>2013-07-01T06:47:06Z</time>
      </trkpt>
      <trkpt lat="45.15882" lon="6.15352">
        <ele>3037</ele>
        <time>2013-07-01T06:47:11Z</time>
      </trkpt>
      <trkpt lat="45.15879" lon="6.15353">
        <ele>3038</ele>
        <time>2013-07-01T06:47:16Z</time>
      </trkpt>
      <trkpt lat="45.15877" lon="6.15353">
        <ele>3038</ele>
        <time>2013-07-01T06:47:21Z</time>
      </trkpt>
      <trkpt lat="45.15875" lon="6.15353">
        <ele>3039</ele>
        <time>2013-07-01T06:47:26Z</time>
      </trkpt>
      <trkpt lat="45.15872" lon="6.15353">
        <ele>3040</ele>
        <time>2013-07-01T06:47:31Z</time>
      </trkpt>
      <trkpt lat="45.1587" lon="6.15353">
        <ele>3040</ele>
        <time>2013-07-01T06:47:36Z</time>
      </trkpt>
      <trkpt lat="45.15867" lon="6.15354">
        <ele>3041</ele>
        <time>2013-07-01T06:47:41Z</time>
      </trkpt>
      <trkpt lat="45.15865" lon="6.15354">
        <ele>3042</ele>
        <time>2013-07-01T06:47:46Z</time>
      </trkpt>
      <trkpt lat="45.15863" lon="6.15355">
        <ele>3042</ele>
        <time>2013-07-01T06:47:51Z</time>
      </trkpt>
      <trkpt lat="45.1586" lon="6.15356">
        <ele>3043</ele>
        <time>2013-07-01T06:47:56Z</time>
      </trkpt>
      <trkpt lat="45.15858" lon="6.15357">
        <ele>3043</ele>
        <time>2013-07-01T06:48:01Z</time>
      </trkpt>
      <trkpt lat="45.15855" lon="6.15357">
        <ele>3044</ele>
        <time>2013-07-01T06:48:06Z</time>
      </trkpt>
      <trkpt lat="45.15853" lon="6.15358">
        <ele>3045</ele>
        <time>2013-07-01T06:48:11Z</time>
      </trkpt>
      <trkpt lat="45.15851" lon="6.15359">
        <ele>3045</ele>
        <time>2013-07-01T06:48:16Z</time>
      </trkpt>
      <trkpt lat="45.15848" lon="6.15359">
        <ele>3046</ele>
        <time>2013-07-01T06:48:21Z</time>
      </trkpt>
      <trkpt lat="45.15846" lon="6.1536">
        <ele>3047</ele>
        <time>2013-07-01T06:48:26Z</time>
      </trkpt>
      <trkpt lat="45.15844" lon="6.1536">
        <ele>3047</ele>
        <time>2013-07-01T06:48:31Z</time>
      </trkpt>
      <trkpt lat="45.15841" lon="6.15361">
        <ele>3048</ele>
        <time>2013-07-01T06:48:36Z</time>
      </trkpt>
      <trkpt lat="45.15839" lon="6.15361">
        <ele>3049</ele>
        <time>2013-07-01T06:48:41Z</time>
      </trkpt>
      <trkpt lat="45.15837" lon="6.15362">
        <ele>3050</ele>
        <time>2013-07-01T06:48:46Z</time>
      </trkpt>
      <trkpt lat="45.15835" lon="6.15362">
        <ele>3050</ele>
        <time>2013-07-01T06:48:51Z</time>
      </trkpt>
      <trkpt lat="45.15832" lon="6.15362">
        <ele>3051</ele>
        <time>2013-07-01T06:48:56Z</time>
      </trkpt>
      <trkpt lat="45.1583" lon="6.15362">
        <ele>3052</ele>
        <time>2013-07-01T06:49:01Z</time>
      </trkpt>
      <trkpt lat="45.15827" lon="6.15362">
        <ele>3053</ele>
        <time>2013-07-01T06:49:06Z</time>
      </trkpt>
      <trkpt lat="45.15825" lon="6.15361">
        <ele>3054</ele>
        <time>2013-07-01T06:49:11Z</time>
      </trkpt>
      <trkpt lat="45.15825" lon="6.15358">
        <ele>3055</ele>
        <time>2013-07-01T06:49:16Z</time>
      </trkpt>
      <trkpt lat="45.15826" lon="6.15354">
        <ele>3056</ele>
        <time>2013-07-01T06:49:21Z</time>
      </trkpt>
      <trkpt lat="45.15826" lon="6.15351">
        <ele>3057</ele>
        <time>2013-07-01T06:49:26Z</time>
      </trkpt>
      <trkpt lat="45.15827" lon="6.15348">
        <ele>3058</ele>
        <time>2013-07-01T06:49:31Z</time>
      </trkpt>
      <trkpt lat="45.15827" lon="6.15345">
        <ele>3058</ele>
        <time>2013-07-01T06:49:36Z</time>
      </trkpt>
      <trkpt lat="45.15828" lon="6.15342">
        <ele>3059</ele>
        <time>2013-07-01T06:49:41Z</time>
      </trkpt>
      <trkpt lat="45.15828" lon="6.15339">
        <ele>3060</ele>
        <time>2013-07-01T06:49:46Z</time>
      </trkpt>
      <trkpt lat="45.15828" lon="6.15336">
        <ele>3061</ele>
        <time>2013-07-01T06:49:51Z</time>
      </trkpt>
      <trkpt lat="45.15828" lon="6.15333">
        <ele>3062</ele>
        <time>2013-07-01T06:49:56Z</time>
      </trkpt>
      <trkpt lat="45.15828" lon="6.1533">
        <ele>3062</ele>
        <time>2013-07-01T06:50:01Z</time>
      </trkpt>
      <trkpt lat="45.15828" lon="6.15328">
        <ele>3063</ele>
        <time>2013-07-01T06:50:06Z</time>
      </trkpt>
      <trkpt lat="45.15828" lon="6.15326">
        <ele>3064</ele>
        <time>2013-07-01T06:50:11Z</time>
      </trkpt>
      <trkpt lat="45.15828" lon="6.15323">
        <ele>3064</ele>
        <time>2013-07-01T06:50:16Z</time>
      </trkpt>
      <trkpt lat="45.15828" lon="6.1532">
        <ele>3065</ele>
        <time>2013-07-01T06:50:21Z</time>
      </trkpt>
      <trkpt lat="45.15828" lon="6.15318">
        <ele>3066</ele>
        <time>2013-07-01T06:50:26Z</time>
      </trkpt>
      <trkpt lat="45.15828" lon="6.15316">
        <ele>3067</ele>
        <time>2013-07-01T06:50:31Z</time>
      </trkpt>
      <trkpt lat="45.15829" lon="6.15313">
        <ele>3068</ele>
        <time>2013-07-01T06:50:36Z</time>
      </trkpt>
      <trkpt lat="45.15829" lon="6.1531">
        <ele>3068</ele>
        <time>2013-07-01T06:50:41Z</time>
      </trkpt>
      <trkpt lat="45.1583" lon="6.15308">
        <ele>3069</ele>
        <time>2013-07-01T06:50:46Z</time>
      </trkpt>
      <trkpt lat="45.1583" lon="6.15305">
        <ele>3070</ele>
        <time>2013-07-01T06:50:51Z</time>
      </trkpt>
      <trkpt lat="45.1583" lon="6.15302">
        <ele>3071</ele>
        <time>2013-07-01T06:50:56Z</time>
      </trkpt>
      <trkpt lat="45.15831" lon="6.15299">
        <ele>3072</ele>
        <time>2013-07-01T06:51:01Z</time>
      </trkpt>
      <trkpt lat="45.15831" lon="6.15297">
        <ele>3072</ele>
        <time>2013-07-01T06:51:06Z</time>
      </trkpt>
      <trkpt lat="45.15831" lon="6.15294">
        <ele>3073</ele>
        <time>2013-07-01T06:51:11Z</time>
      </trkpt>
      <trkpt lat="45.15831" lon="6.15291">
        <ele>3074</ele>
        <time>2013-07-01T06:51:16Z</time>
      </trkpt>
      <trkpt lat="45.15831" lon="6.15289">
        <ele>3074</ele>
        <time>2013-07-01T06:51:21Z</time>
      </trkpt>
      <trkpt lat="45.15832" lon="6.15286">
        <ele>3075</ele>
        <time>2013-07-01T06:51:26Z</time>
      </trkpt>
      <trkpt lat="45.15832" lon="6.15285">
        <ele>3076</ele>
        <time>2013-07-01T06:51:31Z</time>
      </trkpt>
      <trkpt lat="45.15832" lon="6.15285">
        <ele>3076</ele>
        <time>2013-07-01T06:51:36Z</time>
      </trkpt>
      <trkpt lat="45.15832" lon="6.15285">
        <ele>3076</ele>
        <time>2013-07-01T06:51:41Z</time>
      </trkpt>
      <trkpt lat="45.15832" lon="6.15285">
        <ele>3076</ele>
        <time>2013-07-01T06:51:46Z</time>
      </trkpt>
      <trkpt lat="45.15832" lon="6.15285">
        <ele>3076</ele>
        <time>2013-07-01T06:51:51Z</time>
      </trkpt>
      <trkpt lat="45.15832" lon="6.15284">
        <ele>3076</ele>
        <time>2013-07-01T06:51:56Z</time>
      </trkpt>
      <trkpt lat="45.15833" lon="6.15281">
        <ele>3077</ele>
        <time>2013-07-01T06:52:01Z</time>
      </trkpt>
      <trkpt lat="45.15833" lon="6.15278">
        <ele>3077</ele>
        <time>2013-07-01T06:52:06Z</time>
      </trkpt>
      <trkpt lat="45.15833" lon="6.15275">
        <ele>3078</ele>
        <time>2013-07-01T06:52:11Z</time>
      </trkpt>
      <trkpt lat="45.15833" lon="6.15272">
        <ele>3079</ele>
        <time>2013-07-01T06:52:16Z</time>
      </trkpt>
      <trkpt lat="45.15832" lon="6.15269">
        <ele>3080</ele>
        <time>2013-07-01T06:52:21Z</time>
      </trkpt>
      <trkpt lat="45.15832" lon="6.15266">
        <ele>3081</ele>
        <time>2013-07-01T06:52:26Z</time>
      </trkpt>
      <trkpt lat="45.15831" lon="6.15264">
        <ele>3081</ele>
        <time>2013-07-01T06:52:31Z</time>
      </trkpt>
      <trkpt lat="45.15831" lon="6.15261">
        <ele>3082</ele>
        <time>2013-07-01T06:52:36Z</time>
      </trkpt>
      <trkpt lat="45.15831" lon="6.15258">
        <ele>3083</ele>
        <time>2013-07-01T06:52:41Z</time>
      </trkpt>
      <trkpt lat="45.15829" lon="6.15258">
        <ele>3084</ele>
        <time>2013-07-01T06:52:46Z</time>
      </trkpt>
      <trkpt lat="45.15826" lon="6.15258">
        <ele>3084</ele>
        <time>2013-07-01T06:52:51Z</time>
      </trkpt>
      <trkpt lat="45.15825" lon="6.15259">
        <ele>3085</ele>
        <time>2013-07-01T06:52:56Z</time>
      </trkpt>
      <trkpt lat="45.15822" lon="6.15259">
        <ele>3085</ele>
        <time>2013-07-01T06:53:01Z</time>
      </trkpt>
      <trkpt lat="45.1582" lon="6.15259">
        <ele>3086</ele>
        <time>2013-07-01T06:53:06Z</time>
      </trkpt>
      <trkpt lat="45.15818" lon="6.15259">
        <ele>3086</ele>
        <time>2013-07-01T06:53:11Z</time>
      </trkpt>
      <trkpt lat="45.15815" lon="6.15259">
        <ele>3087</ele>
        <time>2013-07-01T06:53:16Z</time>
      </trkpt>
      <trkpt lat="45.15813" lon="6.15259">
        <ele>3087</ele>
        <time>2013-07-01T06:53:21Z</time>
      </trkpt>
      <trkpt lat="45.15811" lon="6.15259">
        <ele>3088</ele>
        <time>2013-07-01T06:53:26Z</time>
      </trkpt>
      <trkpt lat="45.15809" lon="6.15259">
        <ele>3088</ele>
        <time>2013-07-01T06:53:31Z</time>
      </trkpt>
      <trkpt lat="45.15807" lon="6.15259">
        <ele>3089</ele>
        <time>2013-07-01T06:53:36Z</time>
      </trkpt>
      <trkpt lat="45.15804" lon="6.1526">
        <ele>3090</ele>
        <time>2013-07-01T06:53:41Z</time>
      </trkpt>
      <trkpt lat="45.15802" lon="6.15259">
        <ele>3090</ele>
        <time>2013-07-01T06:53:46Z</time>
      </trkpt>
      <trkpt lat="45.158" lon="6.15259">
        <ele>3091</ele>
        <time>2013-07-01T06:53:51Z</time>
      </trkpt>
      <trkpt lat="45.15799" lon="6.15259">
        <ele>3091</ele>
        <time>2013-07-01T06:53:56Z</time>
      </trkpt>
      <trkpt lat="45.15796" lon="6.15258">
        <ele>3092</ele>
        <time>2013-07-01T06:54:01Z</time>
      </trkpt>
      <trkpt lat="45.15794" lon="6.15258">
        <ele>3093</ele>
        <time>2013-07-01T06:54:06Z</time>
      </trkpt>
      <trkpt lat="45.15793" lon="6.15257">
        <ele>3093</ele>
        <time>2013-07-01T06:54:11Z</time>
      </trkpt>
      <trkpt lat="45.15791" lon="6.15257">
        <ele>3094</ele>
        <time>2013-07-01T06:54:16Z</time>
      </trkpt>
      <trkpt lat="45.15789" lon="6.15256">
        <ele>3094</ele>
        <time>2013-07-01T06:54:21Z</time>
      </trkpt>
      <trkpt lat="45.15787" lon="6.15255">
        <ele>3095</ele>
        <time>2013-07-01T06:54:26Z</time>
      </trkpt>
      <trkpt lat="45.15785" lon="6.15254">
        <ele>3096</ele>
        <time>2013-07-01T06:54:31Z</time>
      </trkpt>
      <trkpt lat="45.15783" lon="6.15254">
        <ele>3096</ele>
        <time>2013-07-01T06:54:36Z</time>
      </trkpt>
      <trkpt lat="45.15782" lon="6.15253">
        <ele>3097</ele>
        <time>2013-07-01T06:54:41Z</time>
      </trkpt>
      <trkpt lat="45.1578" lon="6.15252">
        <ele>3098</ele>
        <time>2013-07-01T06:54:46Z</time>
      </trkpt>
      <trkpt lat="45.15778" lon="6.15251">
        <ele>3098</ele>
        <time>2013-07-01T06:54:51Z</time>
      </trkpt>
      <trkpt lat="45.15777" lon="6.1525">
        <ele>3099</ele>
        <time>2013-07-01T06:54:56Z</time>
      </trkpt>
      <trkpt lat="45.15778" lon="6.15248">
        <ele>3100</ele>
        <time>2013-07-01T06:55:01Z</time>
      </trkpt>
      <trkpt lat="45.15778" lon="6.15245">
        <ele>3100</ele>
        <time>2013-07-01T06:55:06Z</time>
      </trkpt>
      <trkpt lat="45.15778" lon="6.15242">
        <ele>3101</ele>
        <time>2013-07-01T06:55:11Z</time>
      </trkpt>
      <trkpt lat="45.15779" lon="6.15239">
        <ele>3101</ele>
        <time>2013-07-01T06:55:16Z</time>
      </trkpt>
      <trkpt lat="45.15779" lon="6.15237">
        <ele>3102</ele>
        <time>2013-07-01T06:55:21Z</time>
      </trkpt>
      <trkpt lat="45.15779" lon="6.15234">
        <ele>3103</ele>
        <time>2013-07-01T06:55:26Z</time>
      </trkpt>
      <trkpt lat="45.15779" lon="6.15231">
        <ele>3104</ele>
        <time>2013-07-01T06:55:31Z</time>
      </trkpt>
      <trkpt lat="45.1578" lon="6.15229">
        <ele>3104</ele>
        <time>2013-07-01T06:55:36Z</time>
      </trkpt>
      <trkpt lat="45.1578" lon="6.15227">
        <ele>3105</ele>
        <time>2013-07-01T06:55:41Z</time>
      </trkpt>
      <trkpt lat="45.1578" lon="6.15224">
        <ele>3106</ele>
        <time>2013-07-01T06:55:46Z</time>
      </trkpt>
      <trkpt lat="45.15779" lon="6.15221">
        <ele>3107</ele>
        <time>2013-07-01T06:55:51Z</time>
      </trkpt>
      <trkpt lat="45.15779" lon="6.15219">
        <ele>3108</ele>
        <time>2013-07-01T06:55:56Z</time>
      </trkpt>
      <trkpt lat="45.15779" lon="6.15216">
        <ele>3108</ele>
        <time>2013-07-01T06:56:01Z</time>
      </trkpt>
      <trkpt lat="45.15779" lon="6.15213">
        <ele>3109</ele>
        <time>2013-07-01T06:56:06Z</time>
      </trkpt>
      <trkpt lat="45.15779" lon="6.1521">
        <ele>3110</ele>
        <time>2013-07-01T06:56:11Z</time>
      </trkpt>
      <trkpt lat="45.15779" lon="6.15209">
        <ele>3111</ele>
        <time>2013-07-01T06:56:16Z</time>
      </trkpt>
      <trkpt lat="45.15779" lon="6.15209">
        <ele>3111</ele>
        <time>2013-07-01T06:56:21Z</time>
      </trkpt>
      <trkpt lat="45.15779" lon="6.15209">
        <ele>3111</ele>
        <time>2013-07-01T06:56:26Z</time>
      </trkpt>
      <trkpt lat="45.15778" lon="6.15209">
        <ele>3110</ele>
        <time>2013-07-01T06:56:31Z</time>
      </trkpt>
      <trkpt lat="45.15779" lon="6.15209">
        <ele>3109</ele>
        <time>2013-07-01T06:56:36Z</time>
      </trkpt>
      <trkpt lat="45.15779" lon="6.15209">
        <ele>3109</ele>
        <time>2013-07-01T06:56:41Z</time>
      </trkpt>
      <trkpt lat="45.15779" lon="6.15209">
        <ele>3109</ele>
        <time>2013-07-01T06:56:46Z</time>
      </trkpt>
      <trkpt lat="45.15779" lon="6.15209">
        <ele>3108</ele>
        <time>2013-07-01T06:56:51Z</time>
      </trkpt>
      <trkpt lat="45.15779" lon="6.1521">
        <ele>3108</ele>
        <time>2013-07-01T06:56:56Z</time>
      </trkpt>
      <trkpt lat="45.15779" lon="6.1521">
        <ele>3108</ele>
        <time>2013-07-01T06:57:01Z</time>
      </trkpt>
      <trkpt lat="45.1578" lon="6.1521">
        <ele>3107</ele>
        <time>2013-07-01T06:57:06Z</time>
      </trkpt>
      <trkpt lat="45.15779" lon="6.15211">
        <ele>3108</ele>
        <time>2013-07-01T06:57:11Z</time>
      </trkpt>
      <trkpt lat="45.15779" lon="6.15212">
        <ele>3110</ele>
        <time>2013-07-01T06:57:16Z</time>
      </trkpt>
      <trkpt lat="45.15778" lon="6.15211">
        <ele>3111</ele>
        <time>2013-07-01T06:57:21Z</time>
      </trkpt>
      <trkpt lat="45.1578" lon="6.15211">
        <ele>3108</ele>
        <time>2013-07-01T06:57:26Z</time>
      </trkpt>
      <trkpt lat="45.15779" lon="6.15211">
        <ele>3108</ele>
        <time>2013-07-01T06:57:31Z</time>
      </trkpt>
      <trkpt lat="45.1578" lon="6.15211">
        <ele>3107</ele>
        <time>2013-07-01T06:57:36Z</time>
      </trkpt>
      <trkpt lat="45.15779" lon="6.1521">
        <ele>3108</ele>
        <time>2013-07-01T06:57:41Z</time>
      </trkpt>
      <trkpt lat="45.15779" lon="6.15209">
        <ele>3108</ele>
        <time>2013-07-01T06:57:46Z</time>
      </trkpt>
      <trkpt lat="45.15778" lon="6.15209">
        <ele>3109</ele>
        <time>2013-07-01T06:57:51Z</time>
      </trkpt>
      <trkpt lat="45.15778" lon="6.15208">
        <ele>3109</ele>
        <time>2013-07-01T06:57:56Z</time>
      </trkpt>
      <trkpt lat="45.15778" lon="6.15208">
        <ele>3110</ele>
        <time>2013-07-01T06:58:01Z</time>
      </trkpt>
      <trkpt lat="45.15778" lon="6.15208">
        <ele>3110</ele>
        <time>2013-07-01T06:58:06Z</time>
      </trkpt>
      <trkpt lat="45.15779" lon="6.15208">
        <ele>3107</ele>
        <time>2013-07-01T06:58:11Z</time>
      </trkpt>
      <trkpt lat="45.15779" lon="6.15208">
        <ele>3107</ele>
        <time>2013-07-01T06:58:16Z</time>
      </trkpt>
      <trkpt lat="45.15778" lon="6.15207">
        <ele>3107</ele>
        <time>2013-07-01T06:58:21Z</time>
      </trkpt>
      <trkpt lat="45.15778" lon="6.15206">
        <ele>3108</ele>
        <time>2013-07-01T06:58:26Z</time>
      </trkpt>
      <trkpt lat="45.1578" lon="6.15207">
        <ele>3104</ele>
        <time>2013-07-01T06:58:31Z</time>
      </trkpt>
      <trkpt lat="45.15781" lon="6.15208">
        <ele>3102</ele>
        <time>2013-07-01T06:58:36Z</time>
      </trkpt>
      <trkpt lat="45.1578" lon="6.15208">
        <ele>3103</ele>
        <time>2013-07-01T06:58:41Z</time>
      </trkpt>
      <trkpt lat="45.1578" lon="6.15207">
        <ele>3103</ele>
        <time>2013-07-01T06:58:46Z</time>
      </trkpt>
      <trkpt lat="45.1578" lon="6.15208">
        <ele>3102</ele>
        <time>2013-07-01T06:58:51Z</time>
      </trkpt>
      <trkpt lat="45.1578" lon="6.15207">
        <ele>3102</ele>
        <time>2013-07-01T06:58:56Z</time>
      </trkpt>
      <trkpt lat="45.15782" lon="6.15207">
        <ele>3102</ele>
        <time>2013-07-01T06:59:01Z</time>
      </trkpt>
      <trkpt lat="45.15781" lon="6.15207">
        <ele>3104</ele>
        <time>2013-07-01T06:59:06Z</time>
      </trkpt>
      <trkpt lat="45.15781" lon="6.15208">
        <ele>3105</ele>
        <time>2013-07-01T06:59:11Z</time>
      </trkpt>
      <trkpt lat="45.1578" lon="6.15208">
        <ele>3106</ele>
        <time>2013-07-01T06:59:16Z</time>
      </trkpt>
      <trkpt lat="45.1578" lon="6.15208">
        <ele>3106</ele>
        <time>2013-07-01T06:59:21Z</time>
      </trkpt>
      <trkpt lat="45.1578" lon="6.15208">
        <ele>3106</ele>
        <time>2013-07-01T06:59:26Z</time>
      </trkpt>
      <trkpt lat="45.15779" lon="6.15207">
        <ele>3107</ele>
        <time>2013-07-01T06:59:31Z</time>
      </trkpt>
      <trkpt lat="45.15779" lon="6.15205">
        <ele>3108</ele>
        <time>2013-07-01T06:59:36Z</time>
      </trkpt>
      <trkpt lat="45.15778" lon="6.15202">
        <ele>3109</ele>
        <time>2013-07-01T06:59:41Z</time>
      </trkpt>
      <trkpt lat="45.15778" lon="6.152">
        <ele>3110</ele>
        <time>2013-07-01T06:59:46Z</time>
      </trkpt>
      <trkpt lat="45.15777" lon="6.15198">
        <ele>3111</ele>
        <time>2013-07-01T06:59:51Z</time>
      </trkpt>
      <trkpt lat="45.15777" lon="6.15195">
        <ele>3112</ele>
        <time>2013-07-01T06:59:56Z</time>
      </trkpt>
      <trkpt lat="45.15776" lon="6.15193">
        <ele>3112</ele>
        <time>2013-07-01T07:00:01Z</time>
      </trkpt>
      <trkpt lat="45.15776" lon="6.1519">
        <ele>3113</ele>
        <time>2013-07-01T07:00:06Z</time>
      </trkpt>
      <trkpt lat="45.15776" lon="6.15187">
        <ele>3115</ele>
        <time>2013-07-01T07:00:11Z</time>
      </trkpt>
      <trkpt lat="45.15775" lon="6.15185">
        <ele>3115</ele>
        <time>2013-07-01T07:00:16Z</time>
      </trkpt>
      <trkpt lat="45.15775" lon="6.15183">
        <ele>3116</ele>
        <time>2013-07-01T07:00:21Z</time>
      </trkpt>
      <trkpt lat="45.15775" lon="6.1518">
        <ele>3117</ele>
        <time>2013-07-01T07:00:26Z</time>
      </trkpt>
      <trkpt lat="45.15775" lon="6.15177">
        <ele>3118</ele>
        <time>2013-07-01T07:00:31Z</time>
      </trkpt>
      <trkpt lat="45.15775" lon="6.15175">
        <ele>3119</ele>
        <time>2013-07-01T07:00:36Z</time>
      </trkpt>
      <trkpt lat="45.15775" lon="6.15173">
        <ele>3119</ele>
        <time>2013-07-01T07:00:41Z</time>
      </trkpt>
      <trkpt lat="45.15776" lon="6.1517">
        <ele>3120</ele>
        <time>2013-07-01T07:00:46Z</time>
      </trkpt>
      <trkpt lat="45.15776" lon="6.15168">
        <ele>3121</ele>
        <time>2013-07-01T07:00:51Z</time>
      </trkpt>
      <trkpt lat="45.15776" lon="6.15165">
        <ele>3122</ele>
        <time>2013-07-01T07:00:56Z</time>
      </trkpt>
      <trkpt lat="45.15776" lon="6.15162">
        <ele>3122</ele>
        <time>2013-07-01T07:01:01Z</time>
      </trkpt>
      <trkpt lat="45.15777" lon="6.1516">
        <ele>3123</ele>
        <time>2013-07-01T07:01:06Z</time>
      </trkpt>
      <trkpt lat="45.15777" lon="6.15157">
        <ele>3124</ele>
        <time>2013-07-01T07:01:11Z</time>
      </trkpt>
      <trkpt lat="45.15777" lon="6.15154">
        <ele>3125</ele>
        <time>2013-07-01T07:01:16Z</time>
      </trkpt>
      <trkpt lat="45.15777" lon="6.15152">
        <ele>3125</ele>
        <time>2013-07-01T07:01:21Z</time>
      </trkpt>
      <trkpt lat="45.15777" lon="6.15149">
        <ele>3126</ele>
        <time>2013-07-01T07:01:26Z</time>
      </trkpt>
      <trkpt lat="45.15778" lon="6.15147">
        <ele>3127</ele>
        <time>2013-07-01T07:01:31Z</time>
      </trkpt>
      <trkpt lat="45.15778" lon="6.15144">
        <ele>3127</ele>
        <time>2013-07-01T07:01:36Z</time>
      </trkpt>
      <trkpt lat="45.15778" lon="6.15142">
        <ele>3128</ele>
        <time>2013-07-01T07:01:41Z</time>
      </trkpt>
      <trkpt lat="45.15778" lon="6.15139">
        <ele>3129</ele>
        <time>2013-07-01T07:01:46Z</time>
      </trkpt>
      <trkpt lat="45.15778" lon="6.15136">
        <ele>3129</ele>
        <time>2013-07-01T07:01:51Z</time>
      </trkpt>
      <trkpt lat="45.15778" lon="6.15134">
        <ele>3130</ele>
        <time>2013-07-01T07:01:56Z</time>
      </trkpt>
      <trkpt lat="45.15777" lon="6.15132">
        <ele>3131</ele>
        <time>2013-07-01T07:02:01Z</time>
      </trkpt>
      <trkpt lat="45.15777" lon="6.15129">
        <ele>3132</ele>
        <time>2013-07-01T07:02:06Z</time>
      </trkpt>
      <trkpt lat="45.15777" lon="6.15127">
        <ele>3132</ele>
        <time>2013-07-01T07:02:11Z</time>
      </trkpt>
      <trkpt lat="45.15777" lon="6.15125">
        <ele>3133</ele>
        <time>2013-07-01T07:02:16Z</time>
      </trkpt>
      <trkpt lat="45.15777" lon="6.15123">
        <ele>3134</ele>
        <time>2013-07-01T07:02:21Z</time>
      </trkpt>
      <trkpt lat="45.15776" lon="6.15121">
        <ele>3135</ele>
        <time>2013-07-01T07:02:26Z</time>
      </trkpt>
      <trkpt lat="45.15776" lon="6.15119">
        <ele>3135</ele>
        <time>2013-07-01T07:02:31Z</time>
      </trkpt>
      <trkpt lat="45.15776" lon="6.15116">
        <ele>3136</ele>
        <time>2013-07-01T07:02:36Z</time>
      </trkpt>
      <trkpt lat="45.15776" lon="6.15114">
        <ele>3137</ele>
        <time>2013-07-01T07:02:41Z</time>
      </trkpt>
      <trkpt lat="45.15776" lon="6.15112">
        <ele>3137</ele>
        <time>2013-07-01T07:02:46Z</time>
      </trkpt>
      <trkpt lat="45.15775" lon="6.1511">
        <ele>3138</ele>
        <time>2013-07-01T07:02:51Z</time>
      </trkpt>
      <trkpt lat="45.15775" lon="6.15108">
        <ele>3139</ele>
        <time>2013-07-01T07:02:56Z</time>
      </trkpt>
      <trkpt lat="45.15775" lon="6.15106">
        <ele>3139</ele>
        <time>2013-07-01T07:03:01Z</time>
      </trkpt>
      <trkpt lat="45.15775" lon="6.15103">
        <ele>3140</ele>
        <time>2013-07-01T07:03:06Z</time>
      </trkpt>
      <trkpt lat="45.15775" lon="6.15101">
        <ele>3140</ele>
        <time>2013-07-01T07:03:11Z</time>
      </trkpt>
      <trkpt lat="45.15775" lon="6.15099">
        <ele>3141</ele>
        <time>2013-07-01T07:03:16Z</time>
      </trkpt>
      <trkpt lat="45.15775" lon="6.15097">
        <ele>3141</ele>
        <time>2013-07-01T07:03:21Z</time>
      </trkpt>
      <trkpt lat="45.15774" lon="6.15095">
        <ele>3142</ele>
        <time>2013-07-01T07:03:26Z</time>
      </trkpt>
      <trkpt lat="45.15773" lon="6.15093">
        <ele>3143</ele>
        <time>2013-07-01T07:03:31Z</time>
      </trkpt>
      <trkpt lat="45.15773" lon="6.15091">
        <ele>3143</ele>
        <time>2013-07-01T07:03:36Z</time>
      </trkpt>
      <trkpt lat="45.15773" lon="6.15089">
        <ele>3144</ele>
        <time>2013-07-01T07:03:41Z</time>
      </trkpt>
      <trkpt lat="45.15773" lon="6.15087">
        <ele>3145</ele>
        <time>2013-07-01T07:03:46Z</time>
      </trkpt>
      <trkpt lat="45.15772" lon="6.15086">
        <ele>3145</ele>
        <time>2013-07-01T07:03:51Z</time>
      </trkpt>
      <trkpt lat="45.1577" lon="6.15086">
        <ele>3146</ele>
        <time>2013-07-01T07:03:56Z</time>
      </trkpt>
      <trkpt lat="45.15769" lon="6.15086">
        <ele>3147</ele>
        <time>2013-07-01T07:04:01Z</time>
      </trkpt>
      <trkpt lat="45.15767" lon="6.15085">
        <ele>3147</ele>
        <time>2013-07-01T07:04:06Z</time>
      </trkpt>
      <trkpt lat="45.15765" lon="6.15085">
        <ele>3148</ele>
        <time>2013-07-01T07:04:11Z</time>
      </trkpt>
      <trkpt lat="45.15764" lon="6.15085">
        <ele>3149</ele>
        <time>2013-07-01T07:04:16Z</time>
      </trkpt>
      <trkpt lat="45.15762" lon="6.15084">
        <ele>3150</ele>
        <time>2013-07-01T07:04:21Z</time>
      </trkpt>
      <trkpt lat="45.1576" lon="6.15083">
        <ele>3150</ele>
        <time>2013-07-01T07:04:26Z</time>
      </trkpt>
      <trkpt lat="45.15759" lon="6.15083">
        <ele>3151</ele>
        <time>2013-07-01T07:04:31Z</time>
      </trkpt>
      <trkpt lat="45.15757" lon="6.15082">
        <ele>3151</ele>
        <time>2013-07-01T07:04:36Z</time>
      </trkpt>
      <trkpt lat="45.15756" lon="6.15082">
        <ele>3152</ele>
        <time>2013-07-01T07:04:41Z</time>
      </trkpt>
      <trkpt lat="45.15753" lon="6.15081">
        <ele>3153</ele>
        <time>2013-07-01T07:04:46Z</time>
      </trkpt>
      <trkpt lat="45.15752" lon="6.15081">
        <ele>3153</ele>
        <time>2013-07-01T07:04:51Z</time>
      </trkpt>
      <trkpt lat="45.1575" lon="6.15081">
        <ele>3154</ele>
        <time>2013-07-01T07:04:56Z</time>
      </trkpt>
      <trkpt lat="45.15748" lon="6.15081">
        <ele>3155</ele>
        <time>2013-07-01T07:05:01Z</time>
      </trkpt>
      <trkpt lat="45.15746" lon="6.1508">
        <ele>3156</ele>
        <time>2013-07-01T07:05:06Z</time>
      </trkpt>
      <trkpt lat="45.15744" lon="6.1508">
        <ele>3156</ele>
        <time>2013-07-01T07:05:11Z</time>
      </trkpt>
      <trkpt lat="45.15742" lon="6.1508">
        <ele>3157</ele>
        <time>2013-07-01T07:05:16Z</time>
      </trkpt>
      <trkpt lat="45.1574" lon="6.1508">
        <ele>3157</ele>
        <time>2013-07-01T07:05:21Z</time>
      </trkpt>
      <trkpt lat="45.15738" lon="6.15079">
        <ele>3158</ele>
        <time>2013-07-01T07:05:26Z</time>
      </trkpt>
      <trkpt lat="45.15737" lon="6.15078">
        <ele>3159</ele>
        <time>2013-07-01T07:05:31Z</time>
      </trkpt>
      <trkpt lat="45.15735" lon="6.15077">
        <ele>3160</ele>
        <time>2013-07-01T07:05:36Z</time>
      </trkpt>
      <trkpt lat="45.15733" lon="6.15077">
        <ele>3160</ele>
        <time>2013-07-01T07:05:41Z</time>
      </trkpt>
      <trkpt lat="45.15732" lon="6.15077">
        <ele>3161</ele>
        <time>2013-07-01T07:05:46Z</time>
      </trkpt>
      <trkpt lat="45.1573" lon="6.15076">
        <ele>3161</ele>
        <time>2013-07-01T07:05:51Z</time>
      </trkpt>
      <trkpt lat="45.15728" lon="6.15075">
        <ele>3162</ele>
        <time>2013-07-01T07:05:56Z</time>
      </trkpt>
      <trkpt lat="45.15728" lon="6.15074">
        <ele>3162</ele>
        <time>2013-07-01T07:06:01Z</time>
      </trkpt>
      <trkpt lat="45.15728" lon="6.15072">
        <ele>3163</ele>
        <time>2013-07-01T07:06:06Z</time>
      </trkpt>
      <trkpt lat="45.15728" lon="6.15069">
        <ele>3164</ele>
        <time>2013-07-01T07:06:11Z</time>
      </trkpt>
      <trkpt lat="45.15728" lon="6.15068">
        <ele>3164</ele>
        <time>2013-07-01T07:06:16Z</time>
      </trkpt>
      <trkpt lat="45.15728" lon="6.15066">
        <ele>3165</ele>
        <time>2013-07-01T07:06:21Z</time>
      </trkpt>
      <trkpt lat="45.15728" lon="6.15063">
        <ele>3166</ele>
        <time>2013-07-01T07:06:26Z</time>
      </trkpt>
      <trkpt lat="45.15727" lon="6.15061">
        <ele>3166</ele>
        <time>2013-07-01T07:06:31Z</time>
      </trkpt>
      <trkpt lat="45.15727" lon="6.15059">
        <ele>3167</ele>
        <time>2013-07-01T07:06:36Z</time>
      </trkpt>
      <trkpt lat="45.15727" lon="6.15057">
        <ele>3168</ele>
        <time>2013-07-01T07:06:41Z</time>
      </trkpt>
      <trkpt lat="45.15727" lon="6.15054">
        <ele>3168</ele>
        <time>2013-07-01T07:06:46Z</time>
      </trkpt>
      <trkpt lat="45.15727" lon="6.15052">
        <ele>3169</ele>
        <time>2013-07-01T07:06:51Z</time>
      </trkpt>
      <trkpt lat="45.15727" lon="6.1505">
        <ele>3170</ele>
        <time>2013-07-01T07:06:56Z</time>
      </trkpt>
      <trkpt lat="45.15726" lon="6.15048">
        <ele>3170</ele>
        <time>2013-07-01T07:07:01Z</time>
      </trkpt>
      <trkpt lat="45.15726" lon="6.15046">
        <ele>3171</ele>
        <time>2013-07-01T07:07:06Z</time>
      </trkpt>
      <trkpt lat="45.15725" lon="6.15044">
        <ele>3172</ele>
        <time>2013-07-01T07:07:11Z</time>
      </trkpt>
      <trkpt lat="45.15725" lon="6.15043">
        <ele>3172</ele>
        <time>2013-07-01T07:07:16Z</time>
      </trkpt>
      <trkpt lat="45.15725" lon="6.15041">
        <ele>3173</ele>
        <time>2013-07-01T07:07:21Z</time>
      </trkpt>
      <trkpt lat="45.15725" lon="6.15039">
        <ele>3174</ele>
        <time>2013-07-01T07:07:26Z</time>
      </trkpt>
      <trkpt lat="45.15725" lon="6.15036">
        <ele>3174</ele>
        <time>2013-07-01T07:07:31Z</time>
      </trkpt>
      <trkpt lat="45.15725" lon="6.15034">
        <ele>3175</ele>
        <time>2013-07-01T07:07:36Z</time>
      </trkpt>
      <trkpt lat="45.15724" lon="6.15031">
        <ele>3175</ele>
        <time>2013-07-01T07:07:41Z</time>
      </trkpt>
      <trkpt lat="45.15724" lon="6.15029">
        <ele>3176</ele>
        <time>2013-07-01T07:07:46Z</time>
      </trkpt>
      <trkpt lat="45.15724" lon="6.15027">
        <ele>3177</ele>
        <time>2013-07-01T07:07:51Z</time>
      </trkpt>
      <trkpt lat="45.15724" lon="6.15025">
        <ele>3177</ele>
        <time>2013-07-01T07:07:56Z</time>
      </trkpt>
      <trkpt lat="45.15723" lon="6.15023">
        <ele>3178</ele>
        <time>2013-07-01T07:08:01Z</time>
      </trkpt>
      <trkpt lat="45.15723" lon="6.15021">
        <ele>3179</ele>
        <time>2013-07-01T07:08:06Z</time>
      </trkpt>
      <trkpt lat="45.15722" lon="6.15019">
        <ele>3179</ele>
        <time>2013-07-01T07:08:11Z</time>
      </trkpt>
      <trkpt lat="45.15722" lon="6.15017">
        <ele>3180</ele>
        <time>2013-07-01T07:08:16Z</time>
      </trkpt>
      <trkpt lat="45.15722" lon="6.15015">
        <ele>3181</ele>
        <time>2013-07-01T07:08:21Z</time>
      </trkpt>
      <trkpt lat="45.15721" lon="6.15013">
        <ele>3181</ele>
        <time>2013-07-01T07:08:26Z</time>
      </trkpt>
      <trkpt lat="45.15721" lon="6.15011">
        <ele>3182</ele>
        <time>2013-07-01T07:08:31Z</time>
      </trkpt>
      <trkpt lat="45.15721" lon="6.15008">
        <ele>3183</ele>
        <time>2013-07-01T07:08:36Z</time>
      </trkpt>
      <trkpt lat="45.1572" lon="6.15006">
        <ele>3183</ele>
        <time>2013-07-01T07:08:41Z</time>
      </trkpt>
      <trkpt lat="45.1572" lon="6.15004">
        <ele>3184</ele>
        <time>2013-07-01T07:08:46Z</time>
      </trkpt>
      <trkpt lat="45.1572" lon="6.15004">
        <ele>3184</ele>
        <time>2013-07-01T07:08:51Z</time>
      </trkpt>
      <trkpt lat="45.1572" lon="6.15004">
        <ele>3184</ele>
        <time>2013-07-01T07:08:56Z</time>
      </trkpt>
      <trkpt lat="45.1572" lon="6.15004">
        <ele>3184</ele>
        <time>2013-07-01T07:09:01Z</time>
      </trkpt>
      <trkpt lat="45.1572" lon="6.15004">
        <ele>3184</ele>
        <time>2013-07-01T07:09:06Z</time>
      </trkpt>
      <trkpt lat="45.1572" lon="6.15004">
        <ele>3183</ele>
        <time>2013-07-01T07:09:11Z</time>
      </trkpt>
      <trkpt lat="45.1572" lon="6.15004">
        <ele>3183</ele>
        <time>2013-07-01T07:09:16Z</time>
      </trkpt>
      <trkpt lat="45.1572" lon="6.15003">
        <ele>3184</ele>
        <time>2013-07-01T07:09:21Z</time>
      </trkpt>
      <trkpt lat="45.1572" lon="6.15">
        <ele>3184</ele>
        <time>2013-07-01T07:09:26Z</time>
      </trkpt>
      <trkpt lat="45.15719" lon="6.14998">
        <ele>3185</ele>
        <time>2013-07-01T07:09:31Z</time>
      </trkpt>
      <trkpt lat="45.15719" lon="6.14995">
        <ele>3186</ele>
        <time>2013-07-01T07:09:36Z</time>
      </trkpt>
      <trkpt lat="45.15719" lon="6.14993">
        <ele>3186</ele>
        <time>2013-07-01T07:09:41Z</time>
      </trkpt>
      <trkpt lat="45.15718" lon="6.1499">
        <ele>3187</ele>
        <time>2013-07-01T07:09:46Z</time>
      </trkpt>
      <trkpt lat="45.15718" lon="6.14988">
        <ele>3188</ele>
        <time>2013-07-01T07:09:51Z</time>
      </trkpt>
      <trkpt lat="45.15717" lon="6.14985">
        <ele>3189</ele>
        <time>2013-07-01T07:09:56Z</time>
      </trkpt>
      <trkpt lat="45.15717" lon="6.14983">
        <ele>3189</ele>
        <time>2013-07-01T07:10:01Z</time>
      </trkpt>
      <trkpt lat="45.15717" lon="6.14981">
        <ele>3190</ele>
        <time>2013-07-01T07:10:06Z</time>
      </trkpt>
      <trkpt lat="45.15717" lon="6.14978">
        <ele>3191</ele>
        <time>2013-07-01T07:10:11Z</time>
      </trkpt>
      <trkpt lat="45.15717" lon="6.14975">
        <ele>3191</ele>
        <time>2013-07-01T07:10:16Z</time>
      </trkpt>
      <trkpt lat="45.15717" lon="6.14972">
        <ele>3192</ele>
        <time>2013-07-01T07:10:21Z</time>
      </trkpt>
      <trkpt lat="45.15717" lon="6.14969">
        <ele>3193</ele>
        <time>2013-07-01T07:10:26Z</time>
      </trkpt>
      <trkpt lat="45.15718" lon="6.14966">
        <ele>3193</ele>
        <time>2013-07-01T07:10:31Z</time>
      </trkpt>
      <trkpt lat="45.15718" lon="6.14963">
        <ele>3194</ele>
        <time>2013-07-01T07:10:36Z</time>
      </trkpt>
      <trkpt lat="45.15718" lon="6.14961">
        <ele>3195</ele>
        <time>2013-07-01T07:10:41Z</time>
      </trkpt>
      <trkpt lat="45.15718" lon="6.14958">
        <ele>3196</ele>
        <time>2013-07-01T07:10:46Z</time>
      </trkpt>
      <trkpt lat="45.15717" lon="6.14955">
        <ele>3196</ele>
        <time>2013-07-01T07:10:51Z</time>
      </trkpt>
      <trkpt lat="45.15717" lon="6.14952">
        <ele>3197</ele>
        <time>2013-07-01T07:10:56Z</time>
      </trkpt>
      <trkpt lat="45.15717" lon="6.1495">
        <ele>3198</ele>
        <time>2013-07-01T07:11:01Z</time>
      </trkpt>
      <trkpt lat="45.15717" lon="6.14947">
        <ele>3199</ele>
        <time>2013-07-01T07:11:06Z</time>
      </trkpt>
      <trkpt lat="45.15717" lon="6.14944">
        <ele>3199</ele>
        <time>2013-07-01T07:11:11Z</time>
      </trkpt>
      <trkpt lat="45.15716" lon="6.14942">
        <ele>3200</ele>
        <time>2013-07-01T07:11:16Z</time>
      </trkpt>
      <trkpt lat="45.15715" lon="6.1494">
        <ele>3201</ele>
        <time>2013-07-01T07:11:21Z</time>
      </trkpt>
      <trkpt lat="45.15714" lon="6.14938">
        <ele>3201</ele>
        <time>2013-07-01T07:11:26Z</time>
      </trkpt>
      <trkpt lat="45.15712" lon="6.14936">
        <ele>3202</ele>
        <time>2013-07-01T07:11:31Z</time>
      </trkpt>
      <trkpt lat="45.15711" lon="6.14935">
        <ele>3203</ele>
        <time>2013-07-01T07:11:36Z</time>
      </trkpt>
      <trkpt lat="45.15709" lon="6.14934">
        <ele>3203</ele>
        <time>2013-07-01T07:11:41Z</time>
      </trkpt>
      <trkpt lat="45.15707" lon="6.14933">
        <ele>3204</ele>
        <time>2013-07-01T07:11:46Z</time>
      </trkpt>
      <trkpt lat="45.15706" lon="6.14932">
        <ele>3205</ele>
        <time>2013-07-01T07:11:51Z</time>
      </trkpt>
      <trkpt lat="45.15704" lon="6.1493">
        <ele>3205</ele>
        <time>2013-07-01T07:11:56Z</time>
      </trkpt>
      <trkpt lat="45.15703" lon="6.14929">
        <ele>3206</ele>
        <time>2013-07-01T07:12:01Z</time>
      </trkpt>
      <trkpt lat="45.15702" lon="6.14927">
        <ele>3207</ele>
        <time>2013-07-01T07:12:06Z</time>
      </trkpt>
      <trkpt lat="45.15701" lon="6.14925">
        <ele>3208</ele>
        <time>2013-07-01T07:12:11Z</time>
      </trkpt>
      <trkpt lat="45.15701" lon="6.14922">
        <ele>3208</ele>
        <time>2013-07-01T07:12:16Z</time>
      </trkpt>
      <trkpt lat="45.157" lon="6.14919">
        <ele>3209</ele>
        <time>2013-07-01T07:12:21Z</time>
      </trkpt>
      <trkpt lat="45.157" lon="6.14916">
        <ele>3210</ele>
        <time>2013-07-01T07:12:26Z</time>
      </trkpt>
      <trkpt lat="45.15699" lon="6.14913">
        <ele>3210</ele>
        <time>2013-07-01T07:12:31Z</time>
      </trkpt>
      <trkpt lat="45.15699" lon="6.14911">
        <ele>3211</ele>
        <time>2013-07-01T07:12:36Z</time>
      </trkpt>
      <trkpt lat="45.15698" lon="6.14909">
        <ele>3212</ele>
        <time>2013-07-01T07:12:41Z</time>
      </trkpt>
      <trkpt lat="45.15697" lon="6.14906">
        <ele>3212</ele>
        <time>2013-07-01T07:12:46Z</time>
      </trkpt>
      <trkpt lat="45.15696" lon="6.14904">
        <ele>3213</ele>
        <time>2013-07-01T07:12:51Z</time>
      </trkpt>
      <trkpt lat="45.15695" lon="6.14903">
        <ele>3213</ele>
        <time>2013-07-01T07:12:56Z</time>
      </trkpt>
      <trkpt lat="45.15693" lon="6.14902">
        <ele>3214</ele>
        <time>2013-07-01T07:13:01Z</time>
      </trkpt>
      <trkpt lat="45.15692" lon="6.14902">
        <ele>3214</ele>
        <time>2013-07-01T07:13:06Z</time>
      </trkpt>
      <trkpt lat="45.15691" lon="6.14902">
        <ele>3214</ele>
        <time>2013-07-01T07:13:11Z</time>
      </trkpt>
      <trkpt lat="45.15689" lon="6.149">
        <ele>3215</ele>
        <time>2013-07-01T07:13:16Z</time>
      </trkpt>
      <trkpt lat="45.15688" lon="6.14897">
        <ele>3215</ele>
        <time>2013-07-01T07:13:21Z</time>
      </trkpt>
      <trkpt lat="45.15688" lon="6.14895">
        <ele>3216</ele>
        <time>2013-07-01T07:13:26Z</time>
      </trkpt>
      <trkpt lat="45.15688" lon="6.14892">
        <ele>3216</ele>
        <time>2013-07-01T07:13:31Z</time>
      </trkpt>
      <trkpt lat="45.15687" lon="6.1489">
        <ele>3217</ele>
        <time>2013-07-01T07:13:36Z</time>
      </trkpt>
      <trkpt lat="45.15685" lon="6.14888">
        <ele>3218</ele>
        <time>2013-07-01T07:13:41Z</time>
      </trkpt>
      <trkpt lat="45.15685" lon="6.14886">
        <ele>3218</ele>
        <time>2013-07-01T07:13:46Z</time>
      </trkpt>
      <trkpt lat="45.15683" lon="6.14884">
        <ele>3219</ele>
        <time>2013-07-01T07:13:51Z</time>
      </trkpt>
      <trkpt lat="45.15682" lon="6.14882">
        <ele>3219</ele>
        <time>2013-07-01T07:13:56Z</time>
      </trkpt>
      <trkpt lat="45.15681" lon="6.1488">
        <ele>3220</ele>
        <time>2013-07-01T07:14:01Z</time>
      </trkpt>
      <trkpt lat="45.1568" lon="6.14878">
        <ele>3221</ele>
        <time>2013-07-01T07:14:06Z</time>
      </trkpt>
      <trkpt lat="45.15678" lon="6.14876">
        <ele>3221</ele>
        <time>2013-07-01T07:14:11Z</time>
      </trkpt>
      <trkpt lat="45.15677" lon="6.14875">
        <ele>3222</ele>
        <time>2013-07-01T07:14:16Z</time>
      </trkpt>
      <trkpt lat="45.15675" lon="6.14873">
        <ele>3223</ele>
        <time>2013-07-01T07:14:21Z</time>
      </trkpt>
      <trkpt lat="45.15674" lon="6.14871">
        <ele>3223</ele>
        <time>2013-07-01T07:14:26Z</time>
      </trkpt>
      <trkpt lat="45.15672" lon="6.14869">
        <ele>3224</ele>
        <time>2013-07-01T07:14:31Z</time>
      </trkpt>
      <trkpt lat="45.15671" lon="6.14867">
        <ele>3225</ele>
        <time>2013-07-01T07:14:36Z</time>
      </trkpt>
      <trkpt lat="45.15669" lon="6.14865">
        <ele>3225</ele>
        <time>2013-07-01T07:14:41Z</time>
      </trkpt>
      <trkpt lat="45.15668" lon="6.14863">
        <ele>3226</ele>
        <time>2013-07-01T07:14:46Z</time>
      </trkpt>
      <trkpt lat="45.15666" lon="6.14862">
        <ele>3227</ele>
        <time>2013-07-01T07:14:51Z</time>
      </trkpt>
      <trkpt lat="45.15665" lon="6.1486">
        <ele>3227</ele>
        <time>2013-07-01T07:14:56Z</time>
      </trkpt>
      <trkpt lat="45.15663" lon="6.14858">
        <ele>3228</ele>
        <time>2013-07-01T07:15:01Z</time>
      </trkpt>
      <trkpt lat="45.15662" lon="6.14856">
        <ele>3228</ele>
        <time>2013-07-01T07:15:06Z</time>
      </trkpt>
      <trkpt lat="45.1566" lon="6.14854">
        <ele>3229</ele>
        <time>2013-07-01T07:15:11Z</time>
      </trkpt>
      <trkpt lat="45.15659" lon="6.14853">
        <ele>3230</ele>
        <time>2013-07-01T07:15:16Z</time>
      </trkpt>
      <trkpt lat="45.15657" lon="6.14851">
        <ele>3230</ele>
        <time>2013-07-01T07:15:21Z</time>
      </trkpt>
      <trkpt lat="45.15655" lon="6.1485">
        <ele>3231</ele>
        <time>2013-07-01T07:15:26Z</time>
      </trkpt>
      <trkpt lat="45.15653" lon="6.14848">
        <ele>3232</ele>
        <time>2013-07-01T07:15:31Z</time>
      </trkpt>
      <trkpt lat="45.15652" lon="6.14847">
        <ele>3232</ele>
        <time>2013-07-01T07:15:36Z</time>
      </trkpt>
      <trkpt lat="45.15651" lon="6.14845">
        <ele>3233</ele>
        <time>2013-07-01T07:15:41Z</time>
      </trkpt>
      <trkpt lat="45.15649" lon="6.14844">
        <ele>3233</ele>
        <time>2013-07-01T07:15:46Z</time>
      </trkpt>
      <trkpt lat="45.15649" lon="6.14844">
        <ele>3233</ele>
        <time>2013-07-01T07:15:51Z</time>
      </trkpt>
      <trkpt lat="45.15649" lon="6.14845">
        <ele>3233</ele>
        <time>2013-07-01T07:15:56Z</time>
      </trkpt>
      <trkpt lat="45.15649" lon="6.14845">
        <ele>3233</ele>
        <time>2013-07-01T07:16:01Z</time>
      </trkpt>
      <trkpt lat="45.15649" lon="6.14845">
        <ele>3233</ele>
        <time>2013-07-01T07:16:06Z</time>
      </trkpt>
      <trkpt lat="45.15649" lon="6.14845">
        <ele>3233</ele>
        <time>2013-07-01T07:16:11Z</time>
      </trkpt>
      <trkpt lat="45.15649" lon="6.14845">
        <ele>3233</ele>
        <time>2013-07-01T07:16:16Z</time>
      </trkpt>
      <trkpt lat="45.15649" lon="6.14845">
        <ele>3233</ele>
        <time>2013-07-01T07:16:21Z</time>
      </trkpt>
      <trkpt lat="45.15649" lon="6.14845">
        <ele>3233</ele>
        <time>2013-07-01T07:16:26Z</time>
      </trkpt>
      <trkpt lat="45.15649" lon="6.14845">
        <ele>3233</ele>
        <time>2013-07-01T07:16:31Z</time>
      </trkpt>
      <trkpt lat="45.15649" lon="6.14844">
        <ele>3233</ele>
        <time>2013-07-01T07:16:36Z</time>
      </trkpt>
      <trkpt lat="45.15649" lon="6.14845">
        <ele>3233</ele>
        <time>2013-07-01T07:16:41Z</time>
      </trkpt>
      <trkpt lat="45.15649" lon="6.14845">
        <ele>3233</ele>
        <time>2013-07-01T07:16:46Z</time>
      </trkpt>
      <trkpt lat="45.15649" lon="6.14845">
        <ele>3233</ele>
        <time>2013-07-01T07:16:51Z</time>
      </trkpt>
      <trkpt lat="45.15649" lon="6.14845">
        <ele>3233</ele>
        <time>2013-07-01T07:16:56Z</time>
      </trkpt>
      <trkpt lat="45.15649" lon="6.14845">
        <ele>3233</ele>
        <time>2013-07-01T07:17:01Z</time>
      </trkpt>
      <trkpt lat="45.15649" lon="6.14845">
        <ele>3233</ele>
        <time>2013-07-01T07:17:06Z</time>
      </trkpt>
      <trkpt lat="45.15649" lon="6.14845">
        <ele>3233</ele>
        <time>2013-07-01T07:17:11Z</time>
      </trkpt>
      <trkpt lat="45.15649" lon="6.14845">
        <ele>3233</ele>
        <time>2013-07-01T07:17:16Z</time>
      </trkpt>
      <trkpt lat="45.15649" lon="6.14845">
        <ele>3233</ele>
        <time>2013-07-01T07:17:21Z</time>
      </trkpt>
      <trkpt lat="45.15649" lon="6.14845">
        <ele>3233</ele>
        <time>2013-07-01T07:17:26Z</time>
      </trkpt>
      <trkpt lat="45.15649" lon="6.14845">
        <ele>3233</ele>
        <time>2013-07-01T07:17:31Z</time>
      </trkpt>
      <trkpt lat="45.15649" lon="6.14845">
        <ele>3233</ele>
        <time>2013-07-01T07:17:36Z</time>
      </trkpt>
      <trkpt lat="45.15649" lon="6.14845">
        <ele>3233</ele>
        <time>2013-07-01T07:17:41Z</time>
      </trkpt>
      <trkpt lat="45.15649" lon="6.14845">
        <ele>3233</ele>
        <time>2013-07-01T07:17:46Z</time>
      </trkpt>
      <trkpt lat="45.15648" lon="6.14843">
        <ele>3234</ele>
        <time>2013-07-01T07:17:51Z</time>
      </trkpt>
      <trkpt lat="45.15646" lon="6.14841">
        <ele>3234</ele>
        <time>2013-07-01T07:17:56Z</time>
      </trkpt>
      <trkpt lat="45.15645" lon="6.14839">
        <ele>3235</ele>
        <time>2013-07-01T07:18:01Z</time>
      </trkpt>
      <trkpt lat="45.15643" lon="6.14837">
        <ele>3236</ele>
        <time>2013-07-01T07:18:06Z</time>
      </trkpt>
      <trkpt lat="45.15641" lon="6.14835">
        <ele>3237</ele>
        <time>2013-07-01T07:18:11Z</time>
      </trkpt>
      <trkpt lat="45.15639" lon="6.14834">
        <ele>3237</ele>
        <time>2013-07-01T07:18:16Z</time>
      </trkpt>
      <trkpt lat="45.15638" lon="6.14832">
        <ele>3238</ele>
        <time>2013-07-01T07:18:21Z</time>
      </trkpt>
      <trkpt lat="45.15636" lon="6.1483">
        <ele>3239</ele>
        <time>2013-07-01T07:18:26Z</time>
      </trkpt>
      <trkpt lat="45.15635" lon="6.14828">
        <ele>3239</ele>
        <time>2013-07-01T07:18:31Z</time>
      </trkpt>
      <trkpt lat="45.15634" lon="6.14826">
        <ele>3240</ele>
        <time>2013-07-01T07:18:36Z</time>
      </trkpt>
      <trkpt lat="45.15633" lon="6.14824">
        <ele>3241</ele>
        <time>2013-07-01T07:18:41Z</time>
      </trkpt>
      <trkpt lat="45.15632" lon="6.14822">
        <ele>3241</ele>
        <time>2013-07-01T07:18:46Z</time>
      </trkpt>
      <trkpt lat="45.1563" lon="6.14821">
        <ele>3242</ele>
        <time>2013-07-01T07:18:51Z</time>
      </trkpt>
      <trkpt lat="45.15629" lon="6.14819">
        <ele>3243</ele>
        <time>2013-07-01T07:18:56Z</time>
      </trkpt>
      <trkpt lat="45.15628" lon="6.14818">
        <ele>3243</ele>
        <time>2013-07-01T07:19:01Z</time>
      </trkpt>
      <trkpt lat="45.15626" lon="6.14818">
        <ele>3244</ele>
        <time>2013-07-01T07:19:06Z</time>
      </trkpt>
      <trkpt lat="45.15624" lon="6.14818">
        <ele>3245</ele>
        <time>2013-07-01T07:19:11Z</time>
      </trkpt>
      <trkpt lat="45.15623" lon="6.14818">
        <ele>3245</ele>
        <time>2013-07-01T07:19:16Z</time>
      </trkpt>
      <trkpt lat="45.15621" lon="6.14817">
        <ele>3246</ele>
        <time>2013-07-01T07:19:21Z</time>
      </trkpt>
      <trkpt lat="45.15619" lon="6.14816">
        <ele>3246</ele>
        <time>2013-07-01T07:19:26Z</time>
      </trkpt>
      <trkpt lat="45.15618" lon="6.14815">
        <ele>3247</ele>
        <time>2013-07-01T07:19:31Z</time>
      </trkpt>
      <trkpt lat="45.15617" lon="6.14814">
        <ele>3248</ele>
        <time>2013-07-01T07:19:36Z</time>
      </trkpt>
      <trkpt lat="45.15616" lon="6.14812">
        <ele>3248</ele>
        <time>2013-07-01T07:19:41Z</time>
      </trkpt>
      <trkpt lat="45.15616" lon="6.1481">
        <ele>3249</ele>
        <time>2013-07-01T07:19:46Z</time>
      </trkpt>
      <trkpt lat="45.15616" lon="6.14807">
        <ele>3249</ele>
        <time>2013-07-01T07:19:51Z</time>
      </trkpt>
      <trkpt lat="45.15616" lon="6.14805">
        <ele>3250</ele>
        <time>2013-07-01T07:19:56Z</time>
      </trkpt>
      <trkpt lat="45.15615" lon="6.14802">
        <ele>3251</ele>
        <time>2013-07-01T07:20:01Z</time>
      </trkpt>
      <trkpt lat="45.15615" lon="6.148">
        <ele>3251</ele>
        <time>2013-07-01T07:20:06Z</time>
      </trkpt>
      <trkpt lat="45.15614" lon="6.14797">
        <ele>3252</ele>
        <time>2013-07-01T07:20:11Z</time>
      </trkpt>
      <trkpt lat="45.15614" lon="6.14795">
        <ele>3252</ele>
        <time>2013-07-01T07:20:16Z</time>
      </trkpt>
      <trkpt lat="45.15614" lon="6.14792">
        <ele>3253</ele>
        <time>2013-07-01T07:20:21Z</time>
      </trkpt>
      <trkpt lat="45.15613" lon="6.1479">
        <ele>3253</ele>
        <time>2013-07-01T07:20:26Z</time>
      </trkpt>
      <trkpt lat="45.15613" lon="6.14787">
        <ele>3254</ele>
        <time>2013-07-01T07:20:31Z</time>
      </trkpt>
      <trkpt lat="45.15613" lon="6.14785">
        <ele>3255</ele>
        <time>2013-07-01T07:20:36Z</time>
      </trkpt>
      <trkpt lat="45.15613" lon="6.14783">
        <ele>3255</ele>
        <time>2013-07-01T07:20:41Z</time>
      </trkpt>
      <trkpt lat="45.15612" lon="6.14781">
        <ele>3256</ele>
        <time>2013-07-01T07:20:46Z</time>
      </trkpt>
      <trkpt lat="45.15612" lon="6.14779">
        <ele>3256</ele>
        <time>2013-07-01T07:20:51Z</time>
      </trkpt>
      <trkpt lat="45.15611" lon="6.14776">
        <ele>3257</ele>
        <time>2013-07-01T07:20:56Z</time>
      </trkpt>
      <trkpt lat="45.15611" lon="6.14774">
        <ele>3257</ele>
        <time>2013-07-01T07:21:01Z</time>
      </trkpt>
      <trkpt lat="45.15611" lon="6.14772">
        <ele>3258</ele>
        <time>2013-07-01T07:21:06Z</time>
      </trkpt>
      <trkpt lat="45.1561" lon="6.1477">
        <ele>3258</ele>
        <time>2013-07-01T07:21:11Z</time>
      </trkpt>
      <trkpt lat="45.15608" lon="6.1477">
        <ele>3259</ele>
        <time>2013-07-01T07:21:16Z</time>
      </trkpt>
      <trkpt lat="45.15606" lon="6.1477">
        <ele>3260</ele>
        <time>2013-07-01T07:21:21Z</time>
      </trkpt>
      <trkpt lat="45.15604" lon="6.1477">
        <ele>3260</ele>
        <time>2013-07-01T07:21:26Z</time>
      </trkpt>
      <trkpt lat="45.15603" lon="6.1477">
        <ele>3261</ele>
        <time>2013-07-01T07:21:31Z</time>
      </trkpt>
      <trkpt lat="45.15601" lon="6.1477">
        <ele>3262</ele>
        <time>2013-07-01T07:21:36Z</time>
      </trkpt>
      <trkpt lat="45.156" lon="6.1477">
        <ele>3262</ele>
        <time>2013-07-01T07:21:41Z</time>
      </trkpt>
      <trkpt lat="45.15598" lon="6.14769">
        <ele>3263</ele>
        <time>2013-07-01T07:21:46Z</time>
      </trkpt>
      <trkpt lat="45.15596" lon="6.14769">
        <ele>3264</ele>
        <time>2013-07-01T07:21:51Z</time>
      </trkpt>
      <trkpt lat="45.15595" lon="6.14768">
        <ele>3264</ele>
        <time>2013-07-01T07:21:56Z</time>
      </trkpt>
      <trkpt lat="45.15593" lon="6.14768">
        <ele>3265</ele>
        <time>2013-07-01T07:22:01Z</time>
      </trkpt>
      <trkpt lat="45.15592" lon="6.14767">
        <ele>3265</ele>
        <time>2013-07-01T07:22:06Z</time>
      </trkpt>
      <trkpt lat="45.1559" lon="6.14766">
        <ele>3266</ele>
        <time>2013-07-01T07:22:11Z</time>
      </trkpt>
      <trkpt lat="45.15588" lon="6.14766">
        <ele>3266</ele>
        <time>2013-07-01T07:22:16Z</time>
      </trkpt>
      <trkpt lat="45.15587" lon="6.14765">
        <ele>3267</ele>
        <time>2013-07-01T07:22:21Z</time>
      </trkpt>
      <trkpt lat="45.15585" lon="6.14765">
        <ele>3268</ele>
        <time>2013-07-01T07:22:26Z</time>
      </trkpt>
      <trkpt lat="45.15584" lon="6.14764">
        <ele>3268</ele>
        <time>2013-07-01T07:22:31Z</time>
      </trkpt>
      <trkpt lat="45.15582" lon="6.14764">
        <ele>3269</ele>
        <time>2013-07-01T07:22:36Z</time>
      </trkpt>
      <trkpt lat="45.1558" lon="6.14763">
        <ele>3270</ele>
        <time>2013-07-01T07:22:41Z</time>
      </trkpt>
      <trkpt lat="45.15579" lon="6.14761">
        <ele>3270</ele>
        <time>2013-07-01T07:22:46Z</time>
      </trkpt>
      <trkpt lat="45.15577" lon="6.1476">
        <ele>3271</ele>
        <time>2013-07-01T07:22:51Z</time>
      </trkpt>
      <trkpt lat="45.15577" lon="6.14759">
        <ele>3271</ele>
        <time>2013-07-01T07:22:56Z</time>
      </trkpt>
      <trkpt lat="45.15575" lon="6.14757">
        <ele>3272</ele>
        <time>2013-07-01T07:23:01Z</time>
      </trkpt>
      <trkpt lat="45.15574" lon="6.14755">
        <ele>3272</ele>
        <time>2013-07-01T07:23:06Z</time>
      </trkpt>
      <trkpt lat="45.15574" lon="6.14753">
        <ele>3273</ele>
        <time>2013-07-01T07:23:11Z</time>
      </trkpt>
      <trkpt lat="45.15574" lon="6.14751">
        <ele>3273</ele>
        <time>2013-07-01T07:23:16Z</time>
      </trkpt>
      <trkpt lat="45.15575" lon="6.14748">
        <ele>3274</ele>
        <time>2013-07-01T07:23:21Z</time>
      </trkpt>
      <trkpt lat="45.15575" lon="6.14746">
        <ele>3275</ele>
        <time>2013-07-01T07:23:26Z</time>
      </trkpt>
      <trkpt lat="45.15575" lon="6.14743">
        <ele>3275</ele>
        <time>2013-07-01T07:23:31Z</time>
      </trkpt>
      <trkpt lat="45.15576" lon="6.14741">
        <ele>3276</ele>
        <time>2013-07-01T07:23:36Z</time>
      </trkpt>
      <trkpt lat="45.15577" lon="6.14738">
        <ele>3276</ele>
        <time>2013-07-01T07:23:41Z</time>
      </trkpt>
      <trkpt lat="45.15577" lon="6.14736">
        <ele>3277</ele>
        <time>2013-07-01T07:23:46Z</time>
      </trkpt>
      <trkpt lat="45.15577" lon="6.14734">
        <ele>3277</ele>
        <time>2013-07-01T07:23:51Z</time>
      </trkpt>
      <trkpt lat="45.15577" lon="6.14732">
        <ele>3278</ele>
        <time>2013-07-01T07:23:56Z</time>
      </trkpt>
      <trkpt lat="45.15578" lon="6.1473">
        <ele>3278</ele>
        <time>2013-07-01T07:24:01Z</time>
      </trkpt>
      <trkpt lat="45.15578" lon="6.14728">
        <ele>3279</ele>
        <time>2013-07-01T07:24:06Z</time>
      </trkpt>
      <trkpt lat="45.15578" lon="6.14726">
        <ele>3279</ele>
        <time>2013-07-01T07:24:11Z</time>
      </trkpt>
      <trkpt lat="45.15578" lon="6.14724">
        <ele>3280</ele>
        <time>2013-07-01T07:24:16Z</time>
      </trkpt>
      <trkpt lat="45.15579" lon="6.14722">
        <ele>3281</ele>
        <time>2013-07-01T07:24:21Z</time>
      </trkpt>
      <trkpt lat="45.15579" lon="6.1472">
        <ele>3281</ele>
        <time>2013-07-01T07:24:26Z</time>
      </trkpt>
      <trkpt lat="45.15579" lon="6.14718">
        <ele>3282</ele>
        <time>2013-07-01T07:24:31Z</time>
      </trkpt>
      <trkpt lat="45.15579" lon="6.14716">
        <ele>3282</ele>
        <time>2013-07-01T07:24:36Z</time>
      </trkpt>
      <trkpt lat="45.1558" lon="6.14714">
        <ele>3283</ele>
        <time>2013-07-01T07:24:41Z</time>
      </trkpt>
      <trkpt lat="45.1558" lon="6.14712">
        <ele>3283</ele>
        <time>2013-07-01T07:24:46Z</time>
      </trkpt>
      <trkpt lat="45.1558" lon="6.1471">
        <ele>3284</ele>
        <time>2013-07-01T07:24:51Z</time>
      </trkpt>
      <trkpt lat="45.1558" lon="6.14708">
        <ele>3284</ele>
        <time>2013-07-01T07:24:56Z</time>
      </trkpt>
      <trkpt lat="45.1558" lon="6.14706">
        <ele>3285</ele>
        <time>2013-07-01T07:25:01Z</time>
      </trkpt>
      <trkpt lat="45.1558" lon="6.14704">
        <ele>3285</ele>
        <time>2013-07-01T07:25:06Z</time>
      </trkpt>
      <trkpt lat="45.15581" lon="6.14702">
        <ele>3286</ele>
        <time>2013-07-01T07:25:11Z</time>
      </trkpt>
      <trkpt lat="45.15581" lon="6.14699">
        <ele>3286</ele>
        <time>2013-07-01T07:25:16Z</time>
      </trkpt>
      <trkpt lat="45.15581" lon="6.14697">
        <ele>3287</ele>
        <time>2013-07-01T07:25:21Z</time>
      </trkpt>
      <trkpt lat="45.15582" lon="6.14695">
        <ele>3288</ele>
        <time>2013-07-01T07:25:26Z</time>
      </trkpt>
      <trkpt lat="45.15582" lon="6.14693">
        <ele>3288</ele>
        <time>2013-07-01T07:25:31Z</time>
      </trkpt>
      <trkpt lat="45.15582" lon="6.14691">
        <ele>3289</ele>
        <time>2013-07-01T07:25:36Z</time>
      </trkpt>
      <trkpt lat="45.15583" lon="6.14689">
        <ele>3289</ele>
        <time>2013-07-01T07:25:41Z</time>
      </trkpt>
      <trkpt lat="45.15584" lon="6.14686">
        <ele>3290</ele>
        <time>2013-07-01T07:25:46Z</time>
      </trkpt>
      <trkpt lat="45.15584" lon="6.14684">
        <ele>3290</ele>
        <time>2013-07-01T07:25:51Z</time>
      </trkpt>
      <trkpt lat="45.15584" lon="6.14682">
        <ele>3291</ele>
        <time>2013-07-01T07:25:56Z</time>
      </trkpt>
      <trkpt lat="45.15584" lon="6.1468">
        <ele>3291</ele>
        <time>2013-07-01T07:26:01Z</time>
      </trkpt>
      <trkpt lat="45.15584" lon="6.14678">
        <ele>3292</ele>
        <time>2013-07-01T07:26:06Z</time>
      </trkpt>
      <trkpt lat="45.15584" lon="6.14676">
        <ele>3292</ele>
        <time>2013-07-01T07:26:11Z</time>
      </trkpt>
      <trkpt lat="45.15584" lon="6.14674">
        <ele>3293</ele>
        <time>2013-07-01T07:26:16Z</time>
      </trkpt>
      <trkpt lat="45.15585" lon="6.14672">
        <ele>3294</ele>
        <time>2013-07-01T07:26:21Z</time>
      </trkpt>
      <trkpt lat="45.15585" lon="6.1467">
        <ele>3294</ele>
        <time>2013-07-01T07:26:26Z</time>
      </trkpt>
      <trkpt lat="45.15585" lon="6.14667">
        <ele>3295</ele>
        <time>2013-07-01T07:26:31Z</time>
      </trkpt>
      <trkpt lat="45.15585" lon="6.14665">
        <ele>3296</ele>
        <time>2013-07-01T07:26:36Z</time>
      </trkpt>
      <trkpt lat="45.15586" lon="6.14662">
        <ele>3296</ele>
        <time>2013-07-01T07:26:41Z</time>
      </trkpt>
      <trkpt lat="45.15586" lon="6.1466">
        <ele>3297</ele>
        <time>2013-07-01T07:26:46Z</time>
      </trkpt>
      <trkpt lat="45.15586" lon="6.14657">
        <ele>3297</ele>
        <time>2013-07-01T07:26:51Z</time>
      </trkpt>
      <trkpt lat="45.15586" lon="6.14655">
        <ele>3298</ele>
        <time>2013-07-01T07:26:56Z</time>
      </trkpt>
      <trkpt lat="45.15586" lon="6.14653">
        <ele>3298</ele>
        <time>2013-07-01T07:27:01Z</time>
      </trkpt>
      <trkpt lat="45.15586" lon="6.14651">
        <ele>3299</ele>
        <time>2013-07-01T07:27:06Z</time>
      </trkpt>
      <trkpt lat="45.15586" lon="6.14649">
        <ele>3299</ele>
        <time>2013-07-01T07:27:11Z</time>
      </trkpt>
      <trkpt lat="45.15586" lon="6.14647">
        <ele>3300</ele>
        <time>2013-07-01T07:27:16Z</time>
      </trkpt>
      <trkpt lat="45.15586" lon="6.14645">
        <ele>3300</ele>
        <time>2013-07-01T07:27:21Z</time>
      </trkpt>
      <trkpt lat="45.15586" lon="6.14643">
        <ele>3301</ele>
        <time>2013-07-01T07:27:26Z</time>
      </trkpt>
      <trkpt lat="45.15586" lon="6.14641">
        <ele>3301</ele>
        <time>2013-07-01T07:27:31Z</time>
      </trkpt>
      <trkpt lat="45.15587" lon="6.14638">
        <ele>3302</ele>
        <time>2013-07-01T07:27:36Z</time>
      </trkpt>
      <trkpt lat="45.15587" lon="6.14636">
        <ele>3302</ele>
        <time>2013-07-01T07:27:41Z</time>
      </trkpt>
      <trkpt lat="45.15587" lon="6.14634">
        <ele>3303</ele>
        <time>2013-07-01T07:27:46Z</time>
      </trkpt>
      <trkpt lat="45.15588" lon="6.14631">
        <ele>3303</ele>
        <time>2013-07-01T07:27:51Z</time>
      </trkpt>
      <trkpt lat="45.15588" lon="6.14629">
        <ele>3303</ele>
        <time>2013-07-01T07:27:56Z</time>
      </trkpt>
      <trkpt lat="45.15588" lon="6.14627">
        <ele>3304</ele>
        <time>2013-07-01T07:28:01Z</time>
      </trkpt>
      <trkpt lat="45.15588" lon="6.14627">
        <ele>3304</ele>
        <time>2013-07-01T07:28:06Z</time>
      </trkpt>
      <trkpt lat="45.15588" lon="6.14627">
        <ele>3304</ele>
        <time>2013-07-01T07:28:11Z</time>
      </trkpt>
      <trkpt lat="45.15588" lon="6.14627">
        <ele>3304</ele>
        <time>2013-07-01T07:28:16Z</time>
      </trkpt>
      <trkpt lat="45.15588" lon="6.14627">
        <ele>3304</ele>
        <time>2013-07-01T07:28:21Z</time>
      </trkpt>
      <trkpt lat="45.15589" lon="6.14627">
        <ele>3304</ele>
        <time>2013-07-01T07:28:26Z</time>
      </trkpt>
      <trkpt lat="45.15589" lon="6.14627">
        <ele>3304</ele>
        <time>2013-07-01T07:28:31Z</time>
      </trkpt>
      <trkpt lat="45.15589" lon="6.14627">
        <ele>3304</ele>
        <time>2013-07-01T07:28:36Z</time>
      </trkpt>
      <trkpt lat="45.15588" lon="6.14627">
        <ele>3304</ele>
        <time>2013-07-01T07:28:41Z</time>
      </trkpt>
      <trkpt lat="45.15588" lon="6.14626">
        <ele>3304</ele>
        <time>2013-07-01T07:28:46Z</time>
      </trkpt>
      <trkpt lat="45.15588" lon="6.14627">
        <ele>3304</ele>
        <time>2013-07-01T07:28:51Z</time>
      </trkpt>
      <trkpt lat="45.15588" lon="6.14626">
        <ele>3304</ele>
        <time>2013-07-01T07:28:56Z</time>
      </trkpt>
      <trkpt lat="45.15588" lon="6.14626">
        <ele>3304</ele>
        <time>2013-07-01T07:29:01Z</time>
      </trkpt>
      <trkpt lat="45.15588" lon="6.14626">
        <ele>3304</ele>
        <time>2013-07-01T07:29:06Z</time>
      </trkpt>
      <trkpt lat="45.15588" lon="6.14626">
        <ele>3304</ele>
        <time>2013-07-01T07:29:11Z</time>
      </trkpt>
      <trkpt lat="45.15588" lon="6.14626">
        <ele>3304</ele>
        <time>2013-07-01T07:29:16Z</time>
      </trkpt>
      <trkpt lat="45.15589" lon="6.14626">
        <ele>3304</ele>
        <time>2013-07-01T07:29:21Z</time>
      </trkpt>
      <trkpt lat="45.15589" lon="6.14626">
        <ele>3304</ele>
        <time>2013-07-01T07:29:26Z</time>
      </trkpt>
      <trkpt lat="45.15589" lon="6.14626">
        <ele>3304</ele>
        <time>2013-07-01T07:29:31Z</time>
      </trkpt>
      <trkpt lat="45.15589" lon="6.14626">
        <ele>3304</ele>
        <time>2013-07-01T07:29:36Z</time>
      </trkpt>
      <trkpt lat="45.15589" lon="6.14626">
        <ele>3304</ele>
        <time>2013-07-01T07:29:41Z</time>
      </trkpt>
      <trkpt lat="45.15589" lon="6.14626">
        <ele>3304</ele>
        <time>2013-07-01T07:29:46Z</time>
      </trkpt>
      <trkpt lat="45.15589" lon="6.14626">
        <ele>3304</ele>
        <time>2013-07-01T07:29:51Z</time>
      </trkpt>
      <trkpt lat="45.15589" lon="6.14626">
        <ele>3304</ele>
        <time>2013-07-01T07:29:56Z</time>
      </trkpt>
      <trkpt lat="45.15589" lon="6.14624">
        <ele>3304</ele>
        <time>2013-07-01T07:30:01Z</time>
      </trkpt>
      <trkpt lat="45.15589" lon="6.14622">
        <ele>3305</ele>
        <time>2013-07-01T07:30:06Z</time>
      </trkpt>
      <trkpt lat="45.15589" lon="6.14618">
        <ele>3306</ele>
        <time>2013-07-01T07:30:11Z</time>
      </trkpt>
      <trkpt lat="45.15589" lon="6.14616">
        <ele>3306</ele>
        <time>2013-07-01T07:30:16Z</time>
      </trkpt>
      <trkpt lat="45.1559" lon="6.14613">
        <ele>3307</ele>
        <time>2013-07-01T07:30:21Z</time>
      </trkpt>
      <trkpt lat="45.1559" lon="6.1461">
        <ele>3308</ele>
        <time>2013-07-01T07:30:26Z</time>
      </trkpt>
      <trkpt lat="45.15588" lon="6.14609">
        <ele>3308</ele>
        <time>2013-07-01T07:30:31Z</time>
      </trkpt>
      <trkpt lat="45.15586" lon="6.14608">
        <ele>3309</ele>
        <time>2013-07-01T07:30:36Z</time>
      </trkpt>
      <trkpt lat="45.15584" lon="6.14608">
        <ele>3310</ele>
        <time>2013-07-01T07:30:41Z</time>
      </trkpt>
      <trkpt lat="45.15582" lon="6.14608">
        <ele>3311</ele>
        <time>2013-07-01T07:30:46Z</time>
      </trkpt>
      <trkpt lat="45.1558" lon="6.14607">
        <ele>3312</ele>
        <time>2013-07-01T07:30:51Z</time>
      </trkpt>
      <trkpt lat="45.15579" lon="6.14607">
        <ele>3312</ele>
        <time>2013-07-01T07:30:56Z</time>
      </trkpt>
      <trkpt lat="45.15577" lon="6.14607">
        <ele>3313</ele>
        <time>2013-07-01T07:31:01Z</time>
      </trkpt>
      <trkpt lat="45.15575" lon="6.14606">
        <ele>3314</ele>
        <time>2013-07-01T07:31:06Z</time>
      </trkpt>
      <trkpt lat="45.15574" lon="6.14606">
        <ele>3314</ele>
        <time>2013-07-01T07:31:11Z</time>
      </trkpt>
      <trkpt lat="45.15572" lon="6.14606">
        <ele>3315</ele>
        <time>2013-07-01T07:31:16Z</time>
      </trkpt>
      <trkpt lat="45.15571" lon="6.14606">
        <ele>3315</ele>
        <time>2013-07-01T07:31:21Z</time>
      </trkpt>
      <trkpt lat="45.15569" lon="6.14606">
        <ele>3316</ele>
        <time>2013-07-01T07:31:26Z</time>
      </trkpt>
      <trkpt lat="45.15567" lon="6.14606">
        <ele>3316</ele>
        <time>2013-07-01T07:31:31Z</time>
      </trkpt>
      <trkpt lat="45.15566" lon="6.14606">
        <ele>3317</ele>
        <time>2013-07-01T07:31:36Z</time>
      </trkpt>
      <trkpt lat="45.15564" lon="6.14607">
        <ele>3318</ele>
        <time>2013-07-01T07:31:41Z</time>
      </trkpt>
      <trkpt lat="45.15562" lon="6.14607">
        <ele>3318</ele>
        <time>2013-07-01T07:31:46Z</time>
      </trkpt>
      <trkpt lat="45.1556" lon="6.14607">
        <ele>3319</ele>
        <time>2013-07-01T07:31:51Z</time>
      </trkpt>
      <trkpt lat="45.15558" lon="6.14608">
        <ele>3319</ele>
        <time>2013-07-01T07:31:56Z</time>
      </trkpt>
      <trkpt lat="45.15556" lon="6.14608">
        <ele>3320</ele>
        <time>2013-07-01T07:32:01Z</time>
      </trkpt>
      <trkpt lat="45.15555" lon="6.14608">
        <ele>3320</ele>
        <time>2013-07-01T07:32:06Z</time>
      </trkpt>
      <trkpt lat="45.15553" lon="6.14608">
        <ele>3321</ele>
        <time>2013-07-01T07:32:11Z</time>
      </trkpt>
      <trkpt lat="45.15551" lon="6.14608">
        <ele>3321</ele>
        <time>2013-07-01T07:32:16Z</time>
      </trkpt>
      <trkpt lat="45.15549" lon="6.14609">
        <ele>3322</ele>
        <time>2013-07-01T07:32:21Z</time>
      </trkpt>
      <trkpt lat="45.15548" lon="6.14609">
        <ele>3322</ele>
        <time>2013-07-01T07:32:26Z</time>
      </trkpt>
      <trkpt lat="45.15548" lon="6.14609">
        <ele>3322</ele>
        <time>2013-07-01T07:32:31Z</time>
      </trkpt>
      <trkpt lat="45.15548" lon="6.14609">
        <ele>3322</ele>
        <time>2013-07-01T07:32:36Z</time>
      </trkpt>
      <trkpt lat="45.15549" lon="6.14607">
        <ele>3323</ele>
        <time>2013-07-01T07:32:41Z</time>
      </trkpt>
      <trkpt lat="45.1555" lon="6.14605">
        <ele>3323</ele>
        <time>2013-07-01T07:32:46Z</time>
      </trkpt>
      <trkpt lat="45.1555" lon="6.14602">
        <ele>3324</ele>
        <time>2013-07-01T07:32:51Z</time>
      </trkpt>
      <trkpt lat="45.15551" lon="6.146">
        <ele>3324</ele>
        <time>2013-07-01T07:32:56Z</time>
      </trkpt>
      <trkpt lat="45.15551" lon="6.14598">
        <ele>3325</ele>
        <time>2013-07-01T07:33:01Z</time>
      </trkpt>
      <trkpt lat="45.15552" lon="6.14595">
        <ele>3326</ele>
        <time>2013-07-01T07:33:06Z</time>
      </trkpt>
      <trkpt lat="45.15553" lon="6.14593">
        <ele>3326</ele>
        <time>2013-07-01T07:33:11Z</time>
      </trkpt>
      <trkpt lat="45.15553" lon="6.14591">
        <ele>3327</ele>
        <time>2013-07-01T07:33:16Z</time>
      </trkpt>
      <trkpt lat="45.15554" lon="6.14589">
        <ele>3327</ele>
        <time>2013-07-01T07:33:21Z</time>
      </trkpt>
      <trkpt lat="45.15554" lon="6.14586">
        <ele>3328</ele>
        <time>2013-07-01T07:33:26Z</time>
      </trkpt>
      <trkpt lat="45.15555" lon="6.14584">
        <ele>3328</ele>
        <time>2013-07-01T07:33:31Z</time>
      </trkpt>
      <trkpt lat="45.15556" lon="6.14582">
        <ele>3329</ele>
        <time>2013-07-01T07:33:36Z</time>
      </trkpt>
      <trkpt lat="45.15556" lon="6.1458">
        <ele>3329</ele>
        <time>2013-07-01T07:33:41Z</time>
      </trkpt>
      <trkpt lat="45.15557" lon="6.14578">
        <ele>3330</ele>
        <time>2013-07-01T07:33:46Z</time>
      </trkpt>
      <trkpt lat="45.15557" lon="6.14578">
        <ele>3330</ele>
        <time>2013-07-01T07:33:51Z</time>
      </trkpt>
      <trkpt lat="45.15558" lon="6.14575">
        <ele>3330</ele>
        <time>2013-07-01T07:33:56Z</time>
      </trkpt>
      <trkpt lat="45.15558" lon="6.14573">
        <ele>3331</ele>
        <time>2013-07-01T07:34:01Z</time>
      </trkpt>
      <trkpt lat="45.15559" lon="6.14571">
        <ele>3331</ele>
        <time>2013-07-01T07:34:06Z</time>
      </trkpt>
      <trkpt lat="45.15559" lon="6.14571">
        <ele>3331</ele>
        <time>2013-07-01T07:34:11Z</time>
      </trkpt>
      <trkpt lat="45.15559" lon="6.14571">
        <ele>3331</ele>
        <time>2013-07-01T07:34:16Z</time>
      </trkpt>
      <trkpt lat="45.15559" lon="6.14571">
        <ele>3331</ele>
        <time>2013-07-01T07:34:21Z</time>
      </trkpt>
      <trkpt lat="45.15559" lon="6.14571">
        <ele>3331</ele>
        <time>2013-07-01T07:34:26Z</time>
      </trkpt>
      <trkpt lat="45.15559" lon="6.1457">
        <ele>3332</ele>
        <time>2013-07-01T07:34:31Z</time>
      </trkpt>
      <trkpt lat="45.15559" lon="6.1457">
        <ele>3332</ele>
        <time>2013-07-01T07:34:36Z</time>
      </trkpt>
      <trkpt lat="45.15559" lon="6.1457">
        <ele>3332</ele>
        <time>2013-07-01T07:34:41Z</time>
      </trkpt>
      <trkpt lat="45.15559" lon="6.1457">
        <ele>3332</ele>
        <time>2013-07-01T07:34:46Z</time>
      </trkpt>
      <trkpt lat="45.15559" lon="6.14571">
        <ele>3332</ele>
        <time>2013-07-01T07:34:51Z</time>
      </trkpt>
      <trkpt lat="45.15559" lon="6.14571">
        <ele>3332</ele>
        <time>2013-07-01T07:34:56Z</time>
      </trkpt>
      <trkpt lat="45.15557" lon="6.14571">
        <ele>3333</ele>
        <time>2013-07-01T07:35:01Z</time>
      </trkpt>
      <trkpt lat="45.15555" lon="6.14571">
        <ele>3333</ele>
        <time>2013-07-01T07:35:06Z</time>
      </trkpt>
      <trkpt lat="45.15553" lon="6.14571">
        <ele>3334</ele>
        <time>2013-07-01T07:35:11Z</time>
      </trkpt>
      <trkpt lat="45.15551" lon="6.14571">
        <ele>3335</ele>
        <time>2013-07-01T07:35:16Z</time>
      </trkpt>
      <trkpt lat="45.1555" lon="6.14571">
        <ele>3336</ele>
        <time>2013-07-01T07:35:21Z</time>
      </trkpt>
      <trkpt lat="45.15548" lon="6.14571">
        <ele>3336</ele>
        <time>2013-07-01T07:35:26Z</time>
      </trkpt>
      <trkpt lat="45.15546" lon="6.14571">
        <ele>3337</ele>
        <time>2013-07-01T07:35:31Z</time>
      </trkpt>
      <trkpt lat="45.15545" lon="6.14571">
        <ele>3337</ele>
        <time>2013-07-01T07:35:36Z</time>
      </trkpt>
      <trkpt lat="45.15543" lon="6.14571">
        <ele>3338</ele>
        <time>2013-07-01T07:35:41Z</time>
      </trkpt>
      <trkpt lat="45.15541" lon="6.14571">
        <ele>3339</ele>
        <time>2013-07-01T07:35:46Z</time>
      </trkpt>
      <trkpt lat="45.15539" lon="6.14572">
        <ele>3339</ele>
        <time>2013-07-01T07:35:51Z</time>
      </trkpt>
      <trkpt lat="45.15537" lon="6.14572">
        <ele>3340</ele>
        <time>2013-07-01T07:35:56Z</time>
      </trkpt>
      <trkpt lat="45.15535" lon="6.14572">
        <ele>3341</ele>
        <time>2013-07-01T07:36:01Z</time>
      </trkpt>
      <trkpt lat="45.15533" lon="6.14572">
        <ele>3341</ele>
        <time>2013-07-01T07:36:06Z</time>
      </trkpt>
      <trkpt lat="45.15531" lon="6.14572">
        <ele>3342</ele>
        <time>2013-07-01T07:36:11Z</time>
      </trkpt>
      <trkpt lat="45.15529" lon="6.14573">
        <ele>3343</ele>
        <time>2013-07-01T07:36:16Z</time>
      </trkpt>
      <trkpt lat="45.15528" lon="6.14573">
        <ele>3343</ele>
        <time>2013-07-01T07:36:21Z</time>
      </trkpt>
      <trkpt lat="45.15526" lon="6.14573">
        <ele>3344</ele>
        <time>2013-07-01T07:36:26Z</time>
      </trkpt>
      <trkpt lat="45.15524" lon="6.14574">
        <ele>3344</ele>
        <time>2013-07-01T07:36:31Z</time>
      </trkpt>
      <trkpt lat="45.15522" lon="6.14575">
        <ele>3345</ele>
        <time>2013-07-01T07:36:36Z</time>
      </trkpt>
      <trkpt lat="45.1552" lon="6.14576">
        <ele>3345</ele>
        <time>2013-07-01T07:36:41Z</time>
      </trkpt>
      <trkpt lat="45.15518" lon="6.14576">
        <ele>3346</ele>
        <time>2013-07-01T07:36:46Z</time>
      </trkpt>
      <trkpt lat="45.15518" lon="6.14577">
        <ele>3346</ele>
        <time>2013-07-01T07:36:51Z</time>
      </trkpt>
      <trkpt lat="45.15518" lon="6.14577">
        <ele>3346</ele>
        <time>2013-07-01T07:36:56Z</time>
      </trkpt>
      <trkpt lat="45.15518" lon="6.14576">
        <ele>3346</ele>
        <time>2013-07-01T07:37:01Z</time>
      </trkpt>
      <trkpt lat="45.15519" lon="6.14573">
        <ele>3347</ele>
        <time>2013-07-01T07:37:06Z</time>
      </trkpt>
      <trkpt lat="45.1552" lon="6.1457">
        <ele>3347</ele>
        <time>2013-07-01T07:37:11Z</time>
      </trkpt>
      <trkpt lat="45.15521" lon="6.14568">
        <ele>3348</ele>
        <time>2013-07-01T07:37:16Z</time>
      </trkpt>
      <trkpt lat="45.15522" lon="6.14565">
        <ele>3348</ele>
        <time>2013-07-01T07:37:21Z</time>
      </trkpt>
      <trkpt lat="45.15524" lon="6.14563">
        <ele>3349</ele>
        <time>2013-07-01T07:37:26Z</time>
      </trkpt>
      <trkpt lat="45.15525" lon="6.1456">
        <ele>3349</ele>
        <time>2013-07-01T07:37:31Z</time>
      </trkpt>
      <trkpt lat="45.15526" lon="6.14558">
        <ele>3350</ele>
        <time>2013-07-01T07:37:36Z</time>
      </trkpt>
      <trkpt lat="45.15527" lon="6.14555">
        <ele>3350</ele>
        <time>2013-07-01T07:37:41Z</time>
      </trkpt>
      <trkpt lat="45.15528" lon="6.14553">
        <ele>3351</ele>
        <time>2013-07-01T07:37:46Z</time>
      </trkpt>
      <trkpt lat="45.15529" lon="6.14551">
        <ele>3351</ele>
        <time>2013-07-01T07:37:51Z</time>
      </trkpt>
      <trkpt lat="45.1553" lon="6.14548">
        <ele>3352</ele>
        <time>2013-07-01T07:37:56Z</time>
      </trkpt>
      <trkpt lat="45.15531" lon="6.14545">
        <ele>3352</ele>
        <time>2013-07-01T07:38:01Z</time>
      </trkpt>
      <trkpt lat="45.15532" lon="6.14543">
        <ele>3353</ele>
        <time>2013-07-01T07:38:06Z</time>
      </trkpt>
      <trkpt lat="45.15534" lon="6.1454">
        <ele>3353</ele>
        <time>2013-07-01T07:38:11Z</time>
      </trkpt>
      <trkpt lat="45.15535" lon="6.14537">
        <ele>3354</ele>
        <time>2013-07-01T07:38:16Z</time>
      </trkpt>
      <trkpt lat="45.15535" lon="6.14534">
        <ele>3354</ele>
        <time>2013-07-01T07:38:21Z</time>
      </trkpt>
      <trkpt lat="45.15537" lon="6.14532">
        <ele>3355</ele>
        <time>2013-07-01T07:38:26Z</time>
      </trkpt>
      <trkpt lat="45.15538" lon="6.14529">
        <ele>3355</ele>
        <time>2013-07-01T07:38:31Z</time>
      </trkpt>
      <trkpt lat="45.15538" lon="6.14526">
        <ele>3356</ele>
        <time>2013-07-01T07:38:36Z</time>
      </trkpt>
      <trkpt lat="45.15539" lon="6.14524">
        <ele>3356</ele>
        <time>2013-07-01T07:38:41Z</time>
      </trkpt>
      <trkpt lat="45.15539" lon="6.14524">
        <ele>3356</ele>
        <time>2013-07-01T07:38:46Z</time>
      </trkpt>
      <trkpt lat="45.15539" lon="6.14524">
        <ele>3357</ele>
        <time>2013-07-01T07:38:51Z</time>
      </trkpt>
      <trkpt lat="45.15539" lon="6.14524">
        <ele>3357</ele>
        <time>2013-07-01T07:38:56Z</time>
      </trkpt>
      <trkpt lat="45.15538" lon="6.14524">
        <ele>3357</ele>
        <time>2013-07-01T07:39:01Z</time>
      </trkpt>
      <trkpt lat="45.15536" lon="6.14524">
        <ele>3357</ele>
        <time>2013-07-01T07:39:06Z</time>
      </trkpt>
      <trkpt lat="45.15534" lon="6.14525">
        <ele>3358</ele>
        <time>2013-07-01T07:39:11Z</time>
      </trkpt>
      <trkpt lat="45.15532" lon="6.14526">
        <ele>3358</ele>
        <time>2013-07-01T07:39:16Z</time>
      </trkpt>
      <trkpt lat="45.1553" lon="6.14526">
        <ele>3359</ele>
        <time>2013-07-01T07:39:21Z</time>
      </trkpt>
      <trkpt lat="45.15528" lon="6.14527">
        <ele>3359</ele>
        <time>2013-07-01T07:39:26Z</time>
      </trkpt>
      <trkpt lat="45.15526" lon="6.14528">
        <ele>3360</ele>
        <time>2013-07-01T07:39:31Z</time>
      </trkpt>
      <trkpt lat="45.15524" lon="6.14529">
        <ele>3360</ele>
        <time>2013-07-01T07:39:36Z</time>
      </trkpt>
      <trkpt lat="45.15521" lon="6.1453">
        <ele>3361</ele>
        <time>2013-07-01T07:39:41Z</time>
      </trkpt>
      <trkpt lat="45.15519" lon="6.14531">
        <ele>3361</ele>
        <time>2013-07-01T07:39:46Z</time>
      </trkpt>
      <trkpt lat="45.15518" lon="6.14532">
        <ele>3362</ele>
        <time>2013-07-01T07:39:51Z</time>
      </trkpt>
      <trkpt lat="45.15516" lon="6.14533">
        <ele>3362</ele>
        <time>2013-07-01T07:39:56Z</time>
      </trkpt>
      <trkpt lat="45.15514" lon="6.14533">
        <ele>3363</ele>
        <time>2013-07-01T07:40:01Z</time>
      </trkpt>
      <trkpt lat="45.15513" lon="6.14533">
        <ele>3364</ele>
        <time>2013-07-01T07:40:06Z</time>
      </trkpt>
      <trkpt lat="45.15512" lon="6.14534">
        <ele>3364</ele>
        <time>2013-07-01T07:40:11Z</time>
      </trkpt>
      <trkpt lat="45.1551" lon="6.14535">
        <ele>3365</ele>
        <time>2013-07-01T07:40:16Z</time>
      </trkpt>
      <trkpt lat="45.15509" lon="6.14535">
        <ele>3365</ele>
        <time>2013-07-01T07:40:21Z</time>
      </trkpt>
      <trkpt lat="45.15507" lon="6.14536">
        <ele>3366</ele>
        <time>2013-07-01T07:40:26Z</time>
      </trkpt>
      <trkpt lat="45.15505" lon="6.14536">
        <ele>3366</ele>
        <time>2013-07-01T07:40:31Z</time>
      </trkpt>
      <trkpt lat="45.15504" lon="6.14537">
        <ele>3367</ele>
        <time>2013-07-01T07:40:36Z</time>
      </trkpt>
      <trkpt lat="45.15502" lon="6.14538">
        <ele>3368</ele>
        <time>2013-07-01T07:40:41Z</time>
      </trkpt>
      <trkpt lat="45.15501" lon="6.14538">
        <ele>3368</ele>
        <time>2013-07-01T07:40:46Z</time>
      </trkpt>
      <trkpt lat="45.15499" lon="6.14539">
        <ele>3369</ele>
        <time>2013-07-01T07:40:51Z</time>
      </trkpt>
      <trkpt lat="45.15498" lon="6.1454">
        <ele>3370</ele>
        <time>2013-07-01T07:40:56Z</time>
      </trkpt>
      <trkpt lat="45.15496" lon="6.14541">
        <ele>3370</ele>
        <time>2013-07-01T07:41:01Z</time>
      </trkpt>
      <trkpt lat="45.15494" lon="6.14541">
        <ele>3371</ele>
        <time>2013-07-01T07:41:06Z</time>
      </trkpt>
      <trkpt lat="45.15492" lon="6.14542">
        <ele>3372</ele>
        <time>2013-07-01T07:41:11Z</time>
      </trkpt>
      <trkpt lat="45.15491" lon="6.14543">
        <ele>3372</ele>
        <time>2013-07-01T07:41:16Z</time>
      </trkpt>
      <trkpt lat="45.1549" lon="6.14543">
        <ele>3373</ele>
        <time>2013-07-01T07:41:21Z</time>
      </trkpt>
      <trkpt lat="45.1549" lon="6.14543">
        <ele>3373</ele>
        <time>2013-07-01T07:41:26Z</time>
      </trkpt>
      <trkpt lat="45.1549" lon="6.14543">
        <ele>3373</ele>
        <time>2013-07-01T07:41:31Z</time>
      </trkpt>
      <trkpt lat="45.1549" lon="6.14543">
        <ele>3373</ele>
        <time>2013-07-01T07:41:36Z</time>
      </trkpt>
      <trkpt lat="45.1549" lon="6.14543">
        <ele>3373</ele>
        <time>2013-07-01T07:41:41Z</time>
      </trkpt>
      <trkpt lat="45.1549" lon="6.14543">
        <ele>3373</ele>
        <time>2013-07-01T07:41:46Z</time>
      </trkpt>
      <trkpt lat="45.1549" lon="6.14543">
        <ele>3373</ele>
        <time>2013-07-01T07:41:51Z</time>
      </trkpt>
      <trkpt lat="45.1549" lon="6.14543">
        <ele>3373</ele>
        <time>2013-07-01T07:41:56Z</time>
      </trkpt>
      <trkpt lat="45.1549" lon="6.14543">
        <ele>3373</ele>
        <time>2013-07-01T07:42:01Z</time>
      </trkpt>
      <trkpt lat="45.1549" lon="6.14543">
        <ele>3373</ele>
        <time>2013-07-01T07:42:06Z</time>
      </trkpt>
      <trkpt lat="45.1549" lon="6.14543">
        <ele>3373</ele>
        <time>2013-07-01T07:42:11Z</time>
      </trkpt>
      <trkpt lat="45.1549" lon="6.14543">
        <ele>3373</ele>
        <time>2013-07-01T07:42:16Z</time>
      </trkpt>
      <trkpt lat="45.1549" lon="6.14543">
        <ele>3373</ele>
        <time>2013-07-01T07:42:21Z</time>
      </trkpt>
      <trkpt lat="45.1549" lon="6.14543">
        <ele>3373</ele>
        <time>2013-07-01T07:42:26Z</time>
      </trkpt>
      <trkpt lat="45.15489" lon="6.14544">
        <ele>3374</ele>
        <time>2013-07-01T07:42:31Z</time>
      </trkpt>
      <trkpt lat="45.15487" lon="6.14544">
        <ele>3374</ele>
        <time>2013-07-01T07:42:36Z</time>
      </trkpt>
      <trkpt lat="45.15485" lon="6.14545">
        <ele>3375</ele>
        <time>2013-07-01T07:42:41Z</time>
      </trkpt>
      <trkpt lat="45.15484" lon="6.14546">
        <ele>3376</ele>
        <time>2013-07-01T07:42:46Z</time>
      </trkpt>
      <trkpt lat="45.15484" lon="6.14545">
        <ele>3376</ele>
        <time>2013-07-01T07:42:51Z</time>
      </trkpt>
      <trkpt lat="45.15484" lon="6.14546">
        <ele>3376</ele>
        <time>2013-07-01T07:42:56Z</time>
      </trkpt>
      <trkpt lat="45.15484" lon="6.14546">
        <ele>3376</ele>
        <time>2013-07-01T07:43:01Z</time>
      </trkpt>
      <trkpt lat="45.15484" lon="6.14545">
        <ele>3376</ele>
        <time>2013-07-01T07:43:06Z</time>
      </trkpt>
      <trkpt lat="45.15484" lon="6.14546">
        <ele>3376</ele>
        <time>2013-07-01T07:43:11Z</time>
      </trkpt>
      <trkpt lat="45.15485" lon="6.14543">
        <ele>3376</ele>
        <time>2013-07-01T07:43:16Z</time>
      </trkpt>
      <trkpt lat="45.15486" lon="6.1454">
        <ele>3377</ele>
        <time>2013-07-01T07:43:21Z</time>
      </trkpt>
      <trkpt lat="45.15487" lon="6.14536">
        <ele>3378</ele>
        <time>2013-07-01T07:43:26Z</time>
      </trkpt>
      <trkpt lat="45.15488" lon="6.14533">
        <ele>3378</ele>
        <time>2013-07-01T07:43:31Z</time>
      </trkpt>
      <trkpt lat="45.15489" lon="6.1453">
        <ele>3379</ele>
        <time>2013-07-01T07:43:36Z</time>
      </trkpt>
      <trkpt lat="45.15489" lon="6.14527">
        <ele>3379</ele>
        <time>2013-07-01T07:43:41Z</time>
      </trkpt>
      <trkpt lat="45.15489" lon="6.14524">
        <ele>3380</ele>
        <time>2013-07-01T07:43:46Z</time>
      </trkpt>
      <trkpt lat="45.1549" lon="6.14522">
        <ele>3380</ele>
        <time>2013-07-01T07:43:51Z</time>
      </trkpt>
      <trkpt lat="45.1549" lon="6.14522">
        <ele>3380</ele>
        <time>2013-07-01T07:43:56Z</time>
      </trkpt>
      <trkpt lat="45.1549" lon="6.14522">
        <ele>3380</ele>
        <time>2013-07-01T07:44:01Z</time>
      </trkpt>
      <trkpt lat="45.1549" lon="6.14522">
        <ele>3380</ele>
        <time>2013-07-01T07:44:06Z</time>
      </trkpt>
      <trkpt lat="45.1549" lon="6.14522">
        <ele>3380</ele>
        <time>2013-07-01T07:44:11Z</time>
      </trkpt>
      <trkpt lat="45.1549" lon="6.14521">
        <ele>3380</ele>
        <time>2013-07-01T07:44:16Z</time>
      </trkpt>
      <trkpt lat="45.15489" lon="6.14521">
        <ele>3379</ele>
        <time>2013-07-01T07:44:21Z</time>
      </trkpt>
      <trkpt lat="45.15489" lon="6.14521">
        <ele>3379</ele>
        <time>2013-07-01T07:44:26Z</time>
      </trkpt>
      <trkpt lat="45.15489" lon="6.14521">
        <ele>3379</ele>
        <time>2013-07-01T07:44:31Z</time>
      </trkpt>
      <trkpt lat="45.15489" lon="6.14521">
        <ele>3378</ele>
        <time>2013-07-01T07:44:36Z</time>
      </trkpt>
      <trkpt lat="45.15489" lon="6.14521">
        <ele>3378</ele>
        <time>2013-07-01T07:44:41Z</time>
      </trkpt>
      <trkpt lat="45.15488" lon="6.14522">
        <ele>3378</ele>
        <time>2013-07-01T07:44:46Z</time>
      </trkpt>
      <trkpt lat="45.15489" lon="6.14522">
        <ele>3379</ele>
        <time>2013-07-01T07:44:51Z</time>
      </trkpt>
      <trkpt lat="45.1549" lon="6.14522">
        <ele>3379</ele>
        <time>2013-07-01T07:44:56Z</time>
      </trkpt>
      <trkpt lat="45.1549" lon="6.14522">
        <ele>3380</ele>
        <time>2013-07-01T07:45:01Z</time>
      </trkpt>
      <trkpt lat="45.1549" lon="6.14522">
        <ele>3380</ele>
        <time>2013-07-01T07:45:06Z</time>
      </trkpt>
      <trkpt lat="45.1549" lon="6.14522">
        <ele>3380</ele>
        <time>2013-07-01T07:45:11Z</time>
      </trkpt>
      <trkpt lat="45.1549" lon="6.14522">
        <ele>3380</ele>
        <time>2013-07-01T07:45:16Z</time>
      </trkpt>
      <trkpt lat="45.15489" lon="6.14521">
        <ele>3379</ele>
        <time>2013-07-01T07:45:21Z</time>
      </trkpt>
      <trkpt lat="45.15493" lon="6.14516">
        <ele>3381</ele>
        <time>2013-07-01T07:45:26Z</time>
      </trkpt>
      <trkpt lat="45.15493" lon="6.14517">
        <ele>3382</ele>
        <time>2013-07-01T07:45:31Z</time>
      </trkpt>
      <trkpt lat="45.15492" lon="6.14517">
        <ele>3382</ele>
        <time>2013-07-01T07:45:36Z</time>
      </trkpt>
      <trkpt lat="45.15492" lon="6.14518">
        <ele>3382</ele>
        <time>2013-07-01T07:45:41Z</time>
      </trkpt>
      <trkpt lat="45.15491" lon="6.14518">
        <ele>3382</ele>
        <time>2013-07-01T07:45:46Z</time>
      </trkpt>
      <trkpt lat="45.15491" lon="6.14518">
        <ele>3381</ele>
        <time>2013-07-01T07:45:51Z</time>
      </trkpt>
      <trkpt lat="45.15491" lon="6.14519">
        <ele>3381</ele>
        <time>2013-07-01T07:45:56Z</time>
      </trkpt>
      <trkpt lat="45.15491" lon="6.14519">
        <ele>3381</ele>
        <time>2013-07-01T07:46:01Z</time>
      </trkpt>
      <trkpt lat="45.15491" lon="6.14519">
        <ele>3381</ele>
        <time>2013-07-01T07:46:06Z</time>
      </trkpt>
      <trkpt lat="45.15491" lon="6.14519">
        <ele>3381</ele>
        <time>2013-07-01T07:46:11Z</time>
      </trkpt>
      <trkpt lat="45.15491" lon="6.1452">
        <ele>3381</ele>
        <time>2013-07-01T07:46:16Z</time>
      </trkpt>
      <trkpt lat="45.15491" lon="6.1452">
        <ele>3381</ele>
        <time>2013-07-01T07:46:21Z</time>
      </trkpt>
      <trkpt lat="45.15491" lon="6.1452">
        <ele>3381</ele>
        <time>2013-07-01T07:46:26Z</time>
      </trkpt>
      <trkpt lat="45.1549" lon="6.1452">
        <ele>3381</ele>
        <time>2013-07-01T07:46:31Z</time>
      </trkpt>
      <trkpt lat="45.1549" lon="6.1452">
        <ele>3381</ele>
        <time>2013-07-01T07:46:36Z</time>
      </trkpt>
      <trkpt lat="45.1549" lon="6.14521">
        <ele>3381</ele>
        <time>2013-07-01T07:46:41Z</time>
      </trkpt>
      <trkpt lat="45.1549" lon="6.14521">
        <ele>3382</ele>
        <time>2013-07-01T07:46:46Z</time>
      </trkpt>
      <trkpt lat="45.1549" lon="6.14521">
        <ele>3382</ele>
        <time>2013-07-01T07:46:51Z</time>
      </trkpt>
      <trkpt lat="45.1549" lon="6.14521">
        <ele>3382</ele>
        <time>2013-07-01T07:46:56Z</time>
      </trkpt>
      <trkpt lat="45.1549" lon="6.14521">
        <ele>3382</ele>
        <time>2013-07-01T07:47:01Z</time>
      </trkpt>
      <trkpt lat="45.15489" lon="6.14523">
        <ele>3382</ele>
        <time>2013-07-01T07:47:06Z</time>
      </trkpt>
      <trkpt lat="45.15486" lon="6.14525">
        <ele>3383</ele>
        <time>2013-07-01T07:47:11Z</time>
      </trkpt>
      <trkpt lat="45.15484" lon="6.14527">
        <ele>3384</ele>
        <time>2013-07-01T07:47:16Z</time>
      </trkpt>
      <trkpt lat="45.15482" lon="6.14528">
        <ele>3385</ele>
        <time>2013-07-01T07:47:21Z</time>
      </trkpt>
      <trkpt lat="45.15479" lon="6.1453">
        <ele>3385</ele>
        <time>2013-07-01T07:47:26Z</time>
      </trkpt>
      <trkpt lat="45.15477" lon="6.14531">
        <ele>3386</ele>
        <time>2013-07-01T07:47:31Z</time>
      </trkpt>
      <trkpt lat="45.15475" lon="6.14533">
        <ele>3387</ele>
        <time>2013-07-01T07:47:36Z</time>
      </trkpt>
      <trkpt lat="45.15473" lon="6.14534">
        <ele>3388</ele>
        <time>2013-07-01T07:47:41Z</time>
      </trkpt>
      <trkpt lat="45.15471" lon="6.14535">
        <ele>3389</ele>
        <time>2013-07-01T07:47:46Z</time>
      </trkpt>
      <trkpt lat="45.15469" lon="6.14536">
        <ele>3389</ele>
        <time>2013-07-01T07:47:51Z</time>
      </trkpt>
      <trkpt lat="45.15468" lon="6.14537">
        <ele>3390</ele>
        <time>2013-07-01T07:47:56Z</time>
      </trkpt>
      <trkpt lat="45.15466" lon="6.14538">
        <ele>3390</ele>
        <time>2013-07-01T07:48:01Z</time>
      </trkpt>
      <trkpt lat="45.15464" lon="6.14539">
        <ele>3391</ele>
        <time>2013-07-01T07:48:06Z</time>
      </trkpt>
      <trkpt lat="45.15463" lon="6.1454">
        <ele>3392</ele>
        <time>2013-07-01T07:48:11Z</time>
      </trkpt>
      <trkpt lat="45.15463" lon="6.14541">
        <ele>3392</ele>
        <time>2013-07-01T07:48:16Z</time>
      </trkpt>
      <trkpt lat="45.15463" lon="6.14538">
        <ele>3392</ele>
        <time>2013-07-01T07:48:21Z</time>
      </trkpt>
      <trkpt lat="45.15464" lon="6.14535">
        <ele>3392</ele>
        <time>2013-07-01T07:48:26Z</time>
      </trkpt>
      <trkpt lat="45.15464" lon="6.14532">
        <ele>3393</ele>
        <time>2013-07-01T07:48:31Z</time>
      </trkpt>
      <trkpt lat="45.15465" lon="6.1453">
        <ele>3393</ele>
        <time>2013-07-01T07:48:36Z</time>
      </trkpt>
      <trkpt lat="45.15466" lon="6.14527">
        <ele>3394</ele>
        <time>2013-07-01T07:48:41Z</time>
      </trkpt>
      <trkpt lat="45.15466" lon="6.14524">
        <ele>3394</ele>
        <time>2013-07-01T07:48:46Z</time>
      </trkpt>
      <trkpt lat="45.15466" lon="6.14522">
        <ele>3395</ele>
        <time>2013-07-01T07:48:51Z</time>
      </trkpt>
      <trkpt lat="45.15467" lon="6.14519">
        <ele>3395</ele>
        <time>2013-07-01T07:48:56Z</time>
      </trkpt>
      <trkpt lat="45.15467" lon="6.14516">
        <ele>3396</ele>
        <time>2013-07-01T07:49:01Z</time>
      </trkpt>
      <trkpt lat="45.15468" lon="6.14514">
        <ele>3396</ele>
        <time>2013-07-01T07:49:06Z</time>
      </trkpt>
      <trkpt lat="45.15469" lon="6.14511">
        <ele>3397</ele>
        <time>2013-07-01T07:49:11Z</time>
      </trkpt>
      <trkpt lat="45.15469" lon="6.14508">
        <ele>3398</ele>
        <time>2013-07-01T07:49:16Z</time>
      </trkpt>
      <trkpt lat="45.15469" lon="6.14506">
        <ele>3398</ele>
        <time>2013-07-01T07:49:21Z</time>
      </trkpt>
      <trkpt lat="45.1547" lon="6.14503">
        <ele>3399</ele>
        <time>2013-07-01T07:49:26Z</time>
      </trkpt>
      <trkpt lat="45.1547" lon="6.14503">
        <ele>3399</ele>
        <time>2013-07-01T07:49:31Z</time>
      </trkpt>
      <trkpt lat="45.1547" lon="6.14503">
        <ele>3399</ele>
        <time>2013-07-01T07:49:36Z</time>
      </trkpt>
      <trkpt lat="45.1547" lon="6.14502">
        <ele>3399</ele>
        <time>2013-07-01T07:49:41Z</time>
      </trkpt>
      <trkpt lat="45.15471" lon="6.14499">
        <ele>3400</ele>
        <time>2013-07-01T07:49:46Z</time>
      </trkpt>
      <trkpt lat="45.15471" lon="6.14496">
        <ele>3401</ele>
        <time>2013-07-01T07:49:51Z</time>
      </trkpt>
      <trkpt lat="45.15472" lon="6.14493">
        <ele>3401</ele>
        <time>2013-07-01T07:49:56Z</time>
      </trkpt>
      <trkpt lat="45.15472" lon="6.14493">
        <ele>3402</ele>
        <time>2013-07-01T07:50:01Z</time>
      </trkpt>
      <trkpt lat="45.15472" lon="6.14493">
        <ele>3402</ele>
        <time>2013-07-01T07:50:06Z</time>
      </trkpt>
      <trkpt lat="45.1547" lon="6.14494">
        <ele>3403</ele>
        <time>2013-07-01T07:50:11Z</time>
      </trkpt>
      <trkpt lat="45.15468" lon="6.14495">
        <ele>3404</ele>
        <time>2013-07-01T07:50:16Z</time>
      </trkpt>
      <trkpt lat="45.15466" lon="6.14496">
        <ele>3404</ele>
        <time>2013-07-01T07:50:21Z</time>
      </trkpt>
      <trkpt lat="45.15464" lon="6.14496">
        <ele>3405</ele>
        <time>2013-07-01T07:50:26Z</time>
      </trkpt>
      <trkpt lat="45.15463" lon="6.14497">
        <ele>3406</ele>
        <time>2013-07-01T07:50:31Z</time>
      </trkpt>
      <trkpt lat="45.15463" lon="6.14495">
        <ele>3406</ele>
        <time>2013-07-01T07:50:36Z</time>
      </trkpt>
      <trkpt lat="45.15464" lon="6.14492">
        <ele>3407</ele>
        <time>2013-07-01T07:50:41Z</time>
      </trkpt>
      <trkpt lat="45.15464" lon="6.14489">
        <ele>3408</ele>
        <time>2013-07-01T07:50:46Z</time>
      </trkpt>
      <trkpt lat="45.15465" lon="6.14487">
        <ele>3409</ele>
        <time>2013-07-01T07:50:51Z</time>
      </trkpt>
      <trkpt lat="45.15465" lon="6.14484">
        <ele>3410</ele>
        <time>2013-07-01T07:50:56Z</time>
      </trkpt>
      <trkpt lat="45.15466" lon="6.14481">
        <ele>3410</ele>
        <time>2013-07-01T07:51:01Z</time>
      </trkpt>
      <trkpt lat="45.15466" lon="6.14479">
        <ele>3411</ele>
        <time>2013-07-01T07:51:06Z</time>
      </trkpt>
      <trkpt lat="45.15466" lon="6.14478">
        <ele>3411</ele>
        <time>2013-07-01T07:51:11Z</time>
      </trkpt>
      <trkpt lat="45.15466" lon="6.14477">
        <ele>3412</ele>
        <time>2013-07-01T07:51:16Z</time>
      </trkpt>
      <trkpt lat="45.15466" lon="6.14477">
        <ele>3412</ele>
        <time>2013-07-01T07:51:21Z</time>
      </trkpt>
      <trkpt lat="45.15465" lon="6.14479">
        <ele>3411</ele>
        <time>2013-07-01T07:51:26Z</time>
      </trkpt>
      <trkpt lat="45.15463" lon="6.1448">
        <ele>3412</ele>
        <time>2013-07-01T07:51:31Z</time>
      </trkpt>
      <trkpt lat="45.1546" lon="6.14481">
        <ele>3413</ele>
        <time>2013-07-01T07:51:36Z</time>
      </trkpt>
      <trkpt lat="45.15459" lon="6.14482">
        <ele>3413</ele>
        <time>2013-07-01T07:51:41Z</time>
      </trkpt>
      <trkpt lat="45.15457" lon="6.14483">
        <ele>3414</ele>
        <time>2013-07-01T07:51:46Z</time>
      </trkpt>
      <trkpt lat="45.15455" lon="6.14484">
        <ele>3415</ele>
        <time>2013-07-01T07:51:51Z</time>
      </trkpt>
      <trkpt lat="45.15453" lon="6.14486">
        <ele>3416</ele>
        <time>2013-07-01T07:51:56Z</time>
      </trkpt>
      <trkpt lat="45.15453" lon="6.14486">
        <ele>3416</ele>
        <time>2013-07-01T07:52:01Z</time>
      </trkpt>
      <trkpt lat="45.15455" lon="6.14485">
        <ele>3417</ele>
        <time>2013-07-01T07:52:06Z</time>
      </trkpt>
      <trkpt lat="45.15455" lon="6.14481">
        <ele>3418</ele>
        <time>2013-07-01T07:52:11Z</time>
      </trkpt>
      <trkpt lat="45.15455" lon="6.14478">
        <ele>3419</ele>
        <time>2013-07-01T07:52:16Z</time>
      </trkpt>
      <trkpt lat="45.15455" lon="6.14475">
        <ele>3420</ele>
        <time>2013-07-01T07:52:21Z</time>
      </trkpt>
      <trkpt lat="45.15456" lon="6.14473">
        <ele>3421</ele>
        <time>2013-07-01T07:52:26Z</time>
      </trkpt>
      <trkpt lat="45.15456" lon="6.1447">
        <ele>3421</ele>
        <time>2013-07-01T07:52:31Z</time>
      </trkpt>
      <trkpt lat="45.15456" lon="6.14468">
        <ele>3422</ele>
        <time>2013-07-01T07:52:36Z</time>
      </trkpt>
      <trkpt lat="45.15456" lon="6.14465">
        <ele>3423</ele>
        <time>2013-07-01T07:52:41Z</time>
      </trkpt>
      <trkpt lat="45.15456" lon="6.14462">
        <ele>3424</ele>
        <time>2013-07-01T07:52:46Z</time>
      </trkpt>
      <trkpt lat="45.15457" lon="6.14459">
        <ele>3425</ele>
        <time>2013-07-01T07:52:51Z</time>
      </trkpt>
      <trkpt lat="45.15458" lon="6.14456">
        <ele>3425</ele>
        <time>2013-07-01T07:52:56Z</time>
      </trkpt>
      <trkpt lat="45.15458" lon="6.14453">
        <ele>3426</ele>
        <time>2013-07-01T07:53:01Z</time>
      </trkpt>
      <trkpt lat="45.15459" lon="6.14453">
        <ele>3426</ele>
        <time>2013-07-01T07:53:06Z</time>
      </trkpt>
      <trkpt lat="45.15459" lon="6.14453">
        <ele>3426</ele>
        <time>2013-07-01T07:53:11Z</time>
      </trkpt>
      <trkpt lat="45.15459" lon="6.14453">
        <ele>3426</ele>
        <time>2013-07-01T07:53:16Z</time>
      </trkpt>
      <trkpt lat="45.15459" lon="6.14453">
        <ele>3426</ele>
        <time>2013-07-01T07:53:21Z</time>
      </trkpt>
      <trkpt lat="45.15459" lon="6.14453">
        <ele>3426</ele>
        <time>2013-07-01T07:53:26Z</time>
      </trkpt>
      <trkpt lat="45.15459" lon="6.14453">
        <ele>3426</ele>
        <time>2013-07-01T07:53:31Z</time>
      </trkpt>
      <trkpt lat="45.15459" lon="6.14453">
        <ele>3426</ele>
        <time>2013-07-01T07:53:36Z</time>
      </trkpt>
      <trkpt lat="45.15459" lon="6.14453">
        <ele>3426</ele>
        <time>2013-07-01T07:53:41Z</time>
      </trkpt>
      <trkpt lat="45.15459" lon="6.14453">
        <ele>3426</ele>
        <time>2013-07-01T07:53:46Z</time>
      </trkpt>
      <trkpt lat="45.15459" lon="6.14453">
        <ele>3426</ele>
        <time>2013-07-01T07:53:51Z</time>
      </trkpt>
      <trkpt lat="45.15457" lon="6.14454">
        <ele>3426</ele>
        <time>2013-07-01T07:53:56Z</time>
      </trkpt>
      <trkpt lat="45.15455" lon="6.14455">
        <ele>3427</ele>
        <time>2013-07-01T07:54:01Z</time>
      </trkpt>
      <trkpt lat="45.15453" lon="6.14457">
        <ele>3428</ele>
        <time>2013-07-01T07:54:06Z</time>
      </trkpt>
      <trkpt lat="45.1545" lon="6.14458">
        <ele>3428</ele>
        <time>2013-07-01T07:54:11Z</time>
      </trkpt>
      <trkpt lat="45.15448" lon="6.14459">
        <ele>3429</ele>
        <time>2013-07-01T07:54:16Z</time>
      </trkpt>
      <trkpt lat="45.15447" lon="6.14461">
        <ele>3430</ele>
        <time>2013-07-01T07:54:21Z</time>
      </trkpt>
      <trkpt lat="45.15444" lon="6.14463">
        <ele>3430</ele>
        <time>2013-07-01T07:54:26Z</time>
      </trkpt>
      <trkpt lat="45.15442" lon="6.14466">
        <ele>3431</ele>
        <time>2013-07-01T07:54:31Z</time>
      </trkpt>
      <trkpt lat="45.15441" lon="6.14467">
        <ele>3431</ele>
        <time>2013-07-01T07:54:36Z</time>
      </trkpt>
      <trkpt lat="45.15439" lon="6.14469">
        <ele>3431</ele>
        <time>2013-07-01T07:54:41Z</time>
      </trkpt>
      <trkpt lat="45.15437" lon="6.14471">
        <ele>3432</ele>
        <time>2013-07-01T07:54:46Z</time>
      </trkpt>
      <trkpt lat="45.15437" lon="6.14472">
        <ele>3432</ele>
        <time>2013-07-01T07:54:51Z</time>
      </trkpt>
      <trkpt lat="45.15437" lon="6.14472">
        <ele>3432</ele>
        <time>2013-07-01T07:54:56Z</time>
      </trkpt>
      <trkpt lat="45.15437" lon="6.14472">
        <ele>3432</ele>
        <time>2013-07-01T07:55:01Z</time>
      </trkpt>
      <trkpt lat="45.15437" lon="6.14472">
        <ele>3432</ele>
        <time>2013-07-01T07:55:06Z</time>
      </trkpt>
      <trkpt lat="45.15436" lon="6.14472">
        <ele>3432</ele>
        <time>2013-07-01T07:55:11Z</time>
      </trkpt>
      <trkpt lat="45.15436" lon="6.14472">
        <ele>3431</ele>
        <time>2013-07-01T07:55:16Z</time>
      </trkpt>
      <trkpt lat="45.15436" lon="6.14471">
        <ele>3431</ele>
        <time>2013-07-01T07:55:21Z</time>
      </trkpt>
      <trkpt lat="45.15437" lon="6.14468">
        <ele>3432</ele>
        <time>2013-07-01T07:55:26Z</time>
      </trkpt>
      <trkpt lat="45.15437" lon="6.14465">
        <ele>3433</ele>
        <time>2013-07-01T07:55:31Z</time>
      </trkpt>
      <trkpt lat="45.15437" lon="6.14462">
        <ele>3433</ele>
        <time>2013-07-01T07:55:36Z</time>
      </trkpt>
      <trkpt lat="45.15439" lon="6.14459">
        <ele>3435</ele>
        <time>2013-07-01T07:55:41Z</time>
      </trkpt>
      <trkpt lat="45.15439" lon="6.14457">
        <ele>3435</ele>
        <time>2013-07-01T07:55:46Z</time>
      </trkpt>
      <trkpt lat="45.1544" lon="6.14454">
        <ele>3436</ele>
        <time>2013-07-01T07:55:51Z</time>
      </trkpt>
      <trkpt lat="45.1544" lon="6.14451">
        <ele>3436</ele>
        <time>2013-07-01T07:55:56Z</time>
      </trkpt>
      <trkpt lat="45.1544" lon="6.14448">
        <ele>3437</ele>
        <time>2013-07-01T07:56:01Z</time>
      </trkpt>
      <trkpt lat="45.15441" lon="6.14446">
        <ele>3438</ele>
        <time>2013-07-01T07:56:06Z</time>
      </trkpt>
      <trkpt lat="45.15442" lon="6.14444">
        <ele>3438</ele>
        <time>2013-07-01T07:56:11Z</time>
      </trkpt>
      <trkpt lat="45.15443" lon="6.14442">
        <ele>3439</ele>
        <time>2013-07-01T07:56:16Z</time>
      </trkpt>
      <trkpt lat="45.15444" lon="6.14441">
        <ele>3439</ele>
        <time>2013-07-01T07:56:21Z</time>
      </trkpt>
      <trkpt lat="45.15444" lon="6.14438">
        <ele>3440</ele>
        <time>2013-07-01T07:56:26Z</time>
      </trkpt>
      <trkpt lat="45.15444" lon="6.14436">
        <ele>3441</ele>
        <time>2013-07-01T07:56:31Z</time>
      </trkpt>
      <trkpt lat="45.15445" lon="6.14436">
        <ele>3441</ele>
        <time>2013-07-01T07:56:36Z</time>
      </trkpt>
      <trkpt lat="45.15445" lon="6.14436">
        <ele>3441</ele>
        <time>2013-07-01T07:56:41Z</time>
      </trkpt>
      <trkpt lat="45.15444" lon="6.14436">
        <ele>3442</ele>
        <time>2013-07-01T07:56:46Z</time>
      </trkpt>
      <trkpt lat="45.15444" lon="6.14436">
        <ele>3442</ele>
        <time>2013-07-01T07:56:51Z</time>
      </trkpt>
      <trkpt lat="45.15445" lon="6.14436">
        <ele>3442</ele>
        <time>2013-07-01T07:56:56Z</time>
      </trkpt>
      <trkpt lat="45.15445" lon="6.14436">
        <ele>3442</ele>
        <time>2013-07-01T07:57:01Z</time>
      </trkpt>
      <trkpt lat="45.15445" lon="6.14436">
        <ele>3442</ele>
        <time>2013-07-01T07:57:06Z</time>
      </trkpt>
      <trkpt lat="45.15445" lon="6.14436">
        <ele>3441</ele>
        <time>2013-07-01T07:57:11Z</time>
      </trkpt>
      <trkpt lat="45.15445" lon="6.14436">
        <ele>3441</ele>
        <time>2013-07-01T07:57:16Z</time>
      </trkpt>
      <trkpt lat="45.15444" lon="6.14436">
        <ele>3442</ele>
        <time>2013-07-01T07:57:21Z</time>
      </trkpt>
      <trkpt lat="45.15445" lon="6.14436">
        <ele>3441</ele>
        <time>2013-07-01T07:57:26Z</time>
      </trkpt>
      <trkpt lat="45.15444" lon="6.14438">
        <ele>3443</ele>
        <time>2013-07-01T07:57:31Z</time>
      </trkpt>
      <trkpt lat="45.15444" lon="6.14438">
        <ele>3444</ele>
        <time>2013-07-01T07:57:36Z</time>
      </trkpt>
      <trkpt lat="45.15442" lon="6.14438">
        <ele>3444</ele>
        <time>2013-07-01T07:57:41Z</time>
      </trkpt>
      <trkpt lat="45.15443" lon="6.14439">
        <ele>3444</ele>
        <time>2013-07-01T07:57:46Z</time>
      </trkpt>
      <trkpt lat="45.15444" lon="6.14438">
        <ele>3444</ele>
        <time>2013-07-01T07:57:51Z</time>
      </trkpt>
      <trkpt lat="45.15444" lon="6.14437">
        <ele>3443</ele>
        <time>2013-07-01T07:57:56Z</time>
      </trkpt>
      <trkpt lat="45.15444" lon="6.14436">
        <ele>3443</ele>
        <time>2013-07-01T07:58:01Z</time>
      </trkpt>
      <trkpt lat="45.15443" lon="6.14436">
        <ele>3442</ele>
        <time>2013-07-01T07:58:06Z</time>
      </trkpt>
      <trkpt lat="45.15444" lon="6.14435">
        <ele>3443</ele>
        <time>2013-07-01T07:58:11Z</time>
      </trkpt>
      <trkpt lat="45.15444" lon="6.14433">
        <ele>3443</ele>
        <time>2013-07-01T07:58:16Z</time>
      </trkpt>
      <trkpt lat="45.15444" lon="6.14432">
        <ele>3443</ele>
        <time>2013-07-01T07:58:21Z</time>
      </trkpt>
      <trkpt lat="45.15443" lon="6.14432">
        <ele>3442</ele>
        <time>2013-07-01T07:58:26Z</time>
      </trkpt>
      <trkpt lat="45.15442" lon="6.14433">
        <ele>3443</ele>
        <time>2013-07-01T07:58:31Z</time>
      </trkpt>
      <trkpt lat="45.1544" lon="6.14434">
        <ele>3444</ele>
        <time>2013-07-01T07:58:36Z</time>
      </trkpt>
      <trkpt lat="45.15439" lon="6.14434">
        <ele>3444</ele>
        <time>2013-07-01T07:58:41Z</time>
      </trkpt>
      <trkpt lat="45.15442" lon="6.14435">
        <ele>3445</ele>
        <time>2013-07-01T07:58:46Z</time>
      </trkpt>
      <trkpt lat="45.15442" lon="6.14435">
        <ele>3444</ele>
        <time>2013-07-01T07:58:51Z</time>
      </trkpt>
      <trkpt lat="45.15441" lon="6.14435">
        <ele>3443</ele>
        <time>2013-07-01T07:58:56Z</time>
      </trkpt>
      <trkpt lat="45.15439" lon="6.14434">
        <ele>3442</ele>
        <time>2013-07-01T07:59:01Z</time>
      </trkpt>
      <trkpt lat="45.15438" lon="6.14434">
        <ele>3443</ele>
        <time>2013-07-01T07:59:06Z</time>
      </trkpt>
      <trkpt lat="45.15441" lon="6.14432">
        <ele>3443</ele>
        <time>2013-07-01T07:59:11Z</time>
      </trkpt>
      <trkpt lat="45.15441" lon="6.14433">
        <ele>3444</ele>
        <time>2013-07-01T07:59:16Z</time>
      </trkpt>
      <trkpt lat="45.15442" lon="6.14434">
        <ele>3445</ele>
        <time>2013-07-01T07:59:21Z</time>
      </trkpt>
      <trkpt lat="45.15441" lon="6.14434">
        <ele>3445</ele>
        <time>2013-07-01T07:59:26Z</time>
      </trkpt>
      <trkpt lat="45.15441" lon="6.14435">
        <ele>3445</ele>
        <time>2013-07-01T07:59:31Z</time>
      </trkpt>
      <trkpt lat="45.1544" lon="6.14435">
        <ele>3446</ele>
        <time>2013-07-01T07:59:36Z</time>
      </trkpt>
      <trkpt lat="45.1544" lon="6.14435">
        <ele>3446</ele>
        <time>2013-07-01T07:59:41Z</time>
      </trkpt>
      <trkpt lat="45.1544" lon="6.14435">
        <ele>3446</ele>
        <time>2013-07-01T07:59:46Z</time>
      </trkpt>
      <trkpt lat="45.1544" lon="6.14436">
        <ele>3449</ele>
        <time>2013-07-01T07:59:51Z</time>
      </trkpt>
      <trkpt lat="45.15437" lon="6.14438">
        <ele>3449</ele>
        <time>2013-07-01T07:59:56Z</time>
      </trkpt>
      <trkpt lat="45.15435" lon="6.14442">
        <ele>3450</ele>
        <time>2013-07-01T08:00:01Z</time>
      </trkpt>
      <trkpt lat="45.15432" lon="6.14444">
        <ele>3450</ele>
        <time>2013-07-01T08:00:06Z</time>
      </trkpt>
      <trkpt lat="45.15432" lon="6.14444">
        <ele>3449</ele>
        <time>2013-07-01T08:00:11Z</time>
      </trkpt>
      <trkpt lat="45.15431" lon="6.14444">
        <ele>3449</ele>
        <time>2013-07-01T08:00:16Z</time>
      </trkpt>
      <trkpt lat="45.15431" lon="6.14445">
        <ele>3449</ele>
        <time>2013-07-01T08:00:21Z</time>
      </trkpt>
      <trkpt lat="45.15429" lon="6.14443">
        <ele>3450</ele>
        <time>2013-07-01T08:00:26Z</time>
      </trkpt>
      <trkpt lat="45.15428" lon="6.14442">
        <ele>3450</ele>
        <time>2013-07-01T08:00:31Z</time>
      </trkpt>
      <trkpt lat="45.15427" lon="6.14439">
        <ele>3451</ele>
        <time>2013-07-01T08:00:36Z</time>
      </trkpt>
      <trkpt lat="45.15427" lon="6.14436">
        <ele>3452</ele>
        <time>2013-07-01T08:00:41Z</time>
      </trkpt>
      <trkpt lat="45.15426" lon="6.14433">
        <ele>3453</ele>
        <time>2013-07-01T08:00:46Z</time>
      </trkpt>
      <trkpt lat="45.15426" lon="6.14433">
        <ele>3454</ele>
        <time>2013-07-01T08:00:51Z</time>
      </trkpt>
      <trkpt lat="45.15426" lon="6.14433">
        <ele>3454</ele>
        <time>2013-07-01T08:00:56Z</time>
      </trkpt>
      <trkpt lat="45.15426" lon="6.14433">
        <ele>3455</ele>
        <time>2013-07-01T08:01:01Z</time>
      </trkpt>
      <trkpt lat="45.15426" lon="6.14433">
        <ele>3455</ele>
        <time>2013-07-01T08:01:06Z</time>
      </trkpt>
      <trkpt lat="45.15425" lon="6.14433">
        <ele>3456</ele>
        <time>2013-07-01T08:01:11Z</time>
      </trkpt>
      <trkpt lat="45.15425" lon="6.14433">
        <ele>3456</ele>
        <time>2013-07-01T08:01:16Z</time>
      </trkpt>
      <trkpt lat="45.15425" lon="6.14433">
        <ele>3456</ele>
        <time>2013-07-01T08:01:21Z</time>
      </trkpt>
      <trkpt lat="45.15425" lon="6.14433">
        <ele>3456</ele>
        <time>2013-07-01T08:01:26Z</time>
      </trkpt>
      <trkpt lat="45.15425" lon="6.14433">
        <ele>3457</ele>
        <time>2013-07-01T08:01:31Z</time>
      </trkpt>
      <trkpt lat="45.15425" lon="6.14433">
        <ele>3457</ele>
        <time>2013-07-01T08:01:36Z</time>
      </trkpt>
      <trkpt lat="45.15424" lon="6.1443">
        <ele>3458</ele>
        <time>2013-07-01T08:01:41Z</time>
      </trkpt>
      <trkpt lat="45.15426" lon="6.14428">
        <ele>3459</ele>
        <time>2013-07-01T08:01:46Z</time>
      </trkpt>
      <trkpt lat="45.15428" lon="6.14427">
        <ele>3460</ele>
        <time>2013-07-01T08:01:51Z</time>
      </trkpt>
      <trkpt lat="45.15427" lon="6.14425">
        <ele>3460</ele>
        <time>2013-07-01T08:01:56Z</time>
      </trkpt>
      <trkpt lat="45.15427" lon="6.14423">
        <ele>3461</ele>
        <time>2013-07-01T08:02:01Z</time>
      </trkpt>
      <trkpt lat="45.15427" lon="6.14422">
        <ele>3461</ele>
        <time>2013-07-01T08:02:06Z</time>
      </trkpt>
      <trkpt lat="45.15429" lon="6.14421">
        <ele>3462</ele>
        <time>2013-07-01T08:02:11Z</time>
      </trkpt>
      <trkpt lat="45.15429" lon="6.14419">
        <ele>3463</ele>
        <time>2013-07-01T08:02:16Z</time>
      </trkpt>
      <trkpt lat="45.15429" lon="6.14417">
        <ele>3464</ele>
        <time>2013-07-01T08:02:21Z</time>
      </trkpt>
      <trkpt lat="45.15431" lon="6.14415">
        <ele>3465</ele>
        <time>2013-07-01T08:02:26Z</time>
      </trkpt>
      <trkpt lat="45.15432" lon="6.14413">
        <ele>3465</ele>
        <time>2013-07-01T08:02:31Z</time>
      </trkpt>
      <trkpt lat="45.15433" lon="6.14412">
        <ele>3466</ele>
        <time>2013-07-01T08:02:36Z</time>
      </trkpt>
      <trkpt lat="45.15434" lon="6.1441">
        <ele>3467</ele>
        <time>2013-07-01T08:02:41Z</time>
      </trkpt>
      <trkpt lat="45.15434" lon="6.1441">
        <ele>3467</ele>
        <time>2013-07-01T08:02:46Z</time>
      </trkpt>
      <trkpt lat="45.15434" lon="6.1441">
        <ele>3467</ele>
        <time>2013-07-01T08:02:51Z</time>
      </trkpt>
      <trkpt lat="45.15434" lon="6.1441">
        <ele>3467</ele>
        <time>2013-07-01T08:02:56Z</time>
      </trkpt>
      <trkpt lat="45.15434" lon="6.14408">
        <ele>3468</ele>
        <time>2013-07-01T08:03:01Z</time>
      </trkpt>
      <trkpt lat="45.15435" lon="6.14407">
        <ele>3469</ele>
        <time>2013-07-01T08:03:06Z</time>
      </trkpt>
      <trkpt lat="45.15437" lon="6.14407">
        <ele>3469</ele>
        <time>2013-07-01T08:03:11Z</time>
      </trkpt>
      <trkpt lat="45.15437" lon="6.14405">
        <ele>3470</ele>
        <time>2013-07-01T08:03:16Z</time>
      </trkpt>
      <trkpt lat="45.15437" lon="6.14405">
        <ele>3470</ele>
        <time>2013-07-01T08:03:21Z</time>
      </trkpt>
      <trkpt lat="45.15437" lon="6.14402">
        <ele>3471</ele>
        <time>2013-07-01T08:03:26Z</time>
      </trkpt>
      <trkpt lat="45.15437" lon="6.14399">
        <ele>3472</ele>
        <time>2013-07-01T08:03:31Z</time>
      </trkpt>
      <trkpt lat="45.15437" lon="6.14396">
        <ele>3473</ele>
        <time>2013-07-01T08:03:36Z</time>
      </trkpt>
      <trkpt lat="45.15438" lon="6.14394">
        <ele>3473</ele>
        <time>2013-07-01T08:03:41Z</time>
      </trkpt>
      <trkpt lat="45.15439" lon="6.14392">
        <ele>3474</ele>
        <time>2013-07-01T08:03:46Z</time>
      </trkpt>
      <trkpt lat="45.1544" lon="6.14392">
        <ele>3474</ele>
        <time>2013-07-01T08:03:51Z</time>
      </trkpt>
      <trkpt lat="45.1544" lon="6.14392">
        <ele>3474</ele>
        <time>2013-07-01T08:03:56Z</time>
      </trkpt>
      <trkpt lat="45.15442" lon="6.14393">
        <ele>3474</ele>
        <time>2013-07-01T08:04:01Z</time>
      </trkpt>
      <trkpt lat="45.15444" lon="6.14393">
        <ele>3475</ele>
        <time>2013-07-01T08:04:06Z</time>
      </trkpt>
      <trkpt lat="45.15444" lon="6.14393">
        <ele>3475</ele>
        <time>2013-07-01T08:04:11Z</time>
      </trkpt>
      <trkpt lat="45.15444" lon="6.14393">
        <ele>3475</ele>
        <time>2013-07-01T08:04:16Z</time>
      </trkpt>
      <trkpt lat="45.15444" lon="6.14393">
        <ele>3475</ele>
        <time>2013-07-01T08:04:21Z</time>
      </trkpt>
      <trkpt lat="45.15444" lon="6.14393">
        <ele>3475</ele>
        <time>2013-07-01T08:04:26Z</time>
      </trkpt>
      <trkpt lat="45.15444" lon="6.14393">
        <ele>3475</ele>
        <time>2013-07-01T08:04:31Z</time>
      </trkpt>
      <trkpt lat="45.15444" lon="6.14392">
        <ele>3475</ele>
        <time>2013-07-01T08:04:36Z</time>
      </trkpt>
      <trkpt lat="45.15444" lon="6.14394">
        <ele>3475</ele>
        <time>2013-07-01T08:18:06Z</time>
      </trkpt>
      <trkpt lat="45.15444" lon="6.14394">
        <ele>3475</ele>
        <time>2013-07-01T08:18:11Z</time>
      </trkpt>
      <trkpt lat="45.15444" lon="6.14395">
        <ele>3475</ele>
        <time>2013-07-01T08:18:16Z</time>
      </trkpt>
      <trkpt lat="45.15443" lon="6.14394">
        <ele>3474</ele>
        <time>2013-07-01T08:18:21Z</time>
      </trkpt>
      <trkpt lat="45.15443" lon="6.14394">
        <ele>3475</ele>
        <time>2013-07-01T08:18:26Z</time>
      </trkpt>
      <trkpt lat="45.15443" lon="6.14394">
        <ele>3475</ele>
        <time>2013-07-01T08:18:31Z</time>
      </trkpt>
      <trkpt lat="45.15442" lon="6.14394">
        <ele>3475</ele>
        <time>2013-07-01T08:18:36Z</time>
      </trkpt>
      <trkpt lat="45.15442" lon="6.14394">
        <ele>3475</ele>
        <time>2013-07-01T08:18:41Z</time>
      </trkpt>
      <trkpt lat="45.15442" lon="6.14394">
        <ele>3476</ele>
        <time>2013-07-01T08:18:46Z</time>
      </trkpt>
      <trkpt lat="45.15442" lon="6.14394">
        <ele>3475</ele>
        <time>2013-07-01T08:18:51Z</time>
      </trkpt>
      <trkpt lat="45.15441" lon="6.14394">
        <ele>3475</ele>
        <time>2013-07-01T08:18:56Z</time>
      </trkpt>
      <trkpt lat="45.15441" lon="6.14394">
        <ele>3474</ele>
        <time>2013-07-01T08:19:01Z</time>
      </trkpt>
      <trkpt lat="45.15441" lon="6.14395">
        <ele>3474</ele>
        <time>2013-07-01T08:19:06Z</time>
      </trkpt>
      <trkpt lat="45.15441" lon="6.14396">
        <ele>3473</ele>
        <time>2013-07-01T08:19:11Z</time>
      </trkpt>
      <trkpt lat="45.1544" lon="6.14395">
        <ele>3473</ele>
        <time>2013-07-01T08:19:16Z</time>
      </trkpt>
      <trkpt lat="45.15437" lon="6.14403">
        <ele>3471</ele>
        <time>2013-07-01T08:19:21Z</time>
      </trkpt>
      <trkpt lat="45.15438" lon="6.14403">
        <ele>3471</ele>
        <time>2013-07-01T08:19:26Z</time>
      </trkpt>
      <trkpt lat="45.15439" lon="6.14404">
        <ele>3471</ele>
        <time>2013-07-01T08:19:31Z</time>
      </trkpt>
      <trkpt lat="45.15437" lon="6.14409">
        <ele>3469</ele>
        <time>2013-07-01T08:19:36Z</time>
      </trkpt>
      <trkpt lat="45.15433" lon="6.14415">
        <ele>3466</ele>
        <time>2013-07-01T08:19:41Z</time>
      </trkpt>
      <trkpt lat="45.15431" lon="6.14421">
        <ele>3462</ele>
        <time>2013-07-01T08:19:46Z</time>
      </trkpt>
      <trkpt lat="45.15431" lon="6.14421">
        <ele>3461</ele>
        <time>2013-07-01T08:19:51Z</time>
      </trkpt>
      <trkpt lat="45.15431" lon="6.14421">
        <ele>3460</ele>
        <time>2013-07-01T08:19:56Z</time>
      </trkpt>
      <trkpt lat="45.15431" lon="6.14421">
        <ele>3460</ele>
        <time>2013-07-01T08:20:01Z</time>
      </trkpt>
      <trkpt lat="45.15431" lon="6.14421">
        <ele>3460</ele>
        <time>2013-07-01T08:20:06Z</time>
      </trkpt>
      <trkpt lat="45.15431" lon="6.14427">
        <ele>3458</ele>
        <time>2013-07-01T08:20:11Z</time>
      </trkpt>
      <trkpt lat="45.15428" lon="6.14429">
        <ele>3455</ele>
        <time>2013-07-01T08:20:16Z</time>
      </trkpt>
      <trkpt lat="45.15426" lon="6.14433">
        <ele>3454</ele>
        <time>2013-07-01T08:20:21Z</time>
      </trkpt>
      <trkpt lat="45.15427" lon="6.14435">
        <ele>3453</ele>
        <time>2013-07-01T08:20:26Z</time>
      </trkpt>
      <trkpt lat="45.15427" lon="6.14435">
        <ele>3453</ele>
        <time>2013-07-01T08:20:31Z</time>
      </trkpt>
      <trkpt lat="45.15428" lon="6.14437">
        <ele>3453</ele>
        <time>2013-07-01T08:20:36Z</time>
      </trkpt>
      <trkpt lat="45.15426" lon="6.14446">
        <ele>3449</ele>
        <time>2013-07-01T08:20:41Z</time>
      </trkpt>
      <trkpt lat="45.15427" lon="6.14447">
        <ele>3446</ele>
        <time>2013-07-01T08:20:46Z</time>
      </trkpt>
      <trkpt lat="45.15428" lon="6.14446">
        <ele>3446</ele>
        <time>2013-07-01T08:20:51Z</time>
      </trkpt>
      <trkpt lat="45.15429" lon="6.14446">
        <ele>3445</ele>
        <time>2013-07-01T08:20:56Z</time>
      </trkpt>
      <trkpt lat="45.1543" lon="6.14445">
        <ele>3444</ele>
        <time>2013-07-01T08:21:01Z</time>
      </trkpt>
      <trkpt lat="45.1543" lon="6.14444">
        <ele>3444</ele>
        <time>2013-07-01T08:21:06Z</time>
      </trkpt>
      <trkpt lat="45.1543" lon="6.14444">
        <ele>3444</ele>
        <time>2013-07-01T08:21:11Z</time>
      </trkpt>
      <trkpt lat="45.1543" lon="6.14443">
        <ele>3445</ele>
        <time>2013-07-01T08:21:16Z</time>
      </trkpt>
      <trkpt lat="45.1543" lon="6.14441">
        <ele>3446</ele>
        <time>2013-07-01T08:21:21Z</time>
      </trkpt>
      <trkpt lat="45.15431" lon="6.14441">
        <ele>3446</ele>
        <time>2013-07-01T08:21:26Z</time>
      </trkpt>
      <trkpt lat="45.15431" lon="6.1444">
        <ele>3447</ele>
        <time>2013-07-01T08:21:31Z</time>
      </trkpt>
      <trkpt lat="45.15431" lon="6.1444">
        <ele>3446</ele>
        <time>2013-07-01T08:21:36Z</time>
      </trkpt>
      <trkpt lat="45.15431" lon="6.1444">
        <ele>3446</ele>
        <time>2013-07-01T08:21:41Z</time>
      </trkpt>
      <trkpt lat="45.15431" lon="6.1444">
        <ele>3447</ele>
        <time>2013-07-01T08:21:46Z</time>
      </trkpt>
      <trkpt lat="45.15432" lon="6.14443">
        <ele>3447</ele>
        <time>2013-07-01T08:21:51Z</time>
      </trkpt>
      <trkpt lat="45.15432" lon="6.14444">
        <ele>3447</ele>
        <time>2013-07-01T08:21:56Z</time>
      </trkpt>
      <trkpt lat="45.15431" lon="6.14443">
        <ele>3447</ele>
        <time>2013-07-01T08:22:01Z</time>
      </trkpt>
      <trkpt lat="45.15431" lon="6.14443">
        <ele>3447</ele>
        <time>2013-07-01T08:22:06Z</time>
      </trkpt>
      <trkpt lat="45.15431" lon="6.14443">
        <ele>3447</ele>
        <time>2013-07-01T08:22:11Z</time>
      </trkpt>
      <trkpt lat="45.15431" lon="6.14442">
        <ele>3447</ele>
        <time>2013-07-01T08:22:16Z</time>
      </trkpt>
      <trkpt lat="45.15432" lon="6.14442">
        <ele>3447</ele>
        <time>2013-07-01T08:22:21Z</time>
      </trkpt>
      <trkpt lat="45.15439" lon="6.14435">
        <ele>3444</ele>
        <time>2013-07-01T08:22:26Z</time>
      </trkpt>
      <trkpt lat="45.15443" lon="6.14435">
        <ele>3444</ele>
        <time>2013-07-01T08:22:31Z</time>
      </trkpt>
      <trkpt lat="45.15447" lon="6.14446">
        <ele>3442</ele>
        <time>2013-07-01T08:22:36Z</time>
      </trkpt>
      <trkpt lat="45.15456" lon="6.14443">
        <ele>3437</ele>
        <time>2013-07-01T08:22:41Z</time>
      </trkpt>
      <trkpt lat="45.15446" lon="6.14467">
        <ele>3433</ele>
        <time>2013-07-01T08:22:46Z</time>
      </trkpt>
      <trkpt lat="45.15448" lon="6.14479">
        <ele>3427</ele>
        <time>2013-07-01T08:22:51Z</time>
      </trkpt>
      <trkpt lat="45.1545" lon="6.14499">
        <ele>3418</ele>
        <time>2013-07-01T08:22:56Z</time>
      </trkpt>
      <trkpt lat="45.15463" lon="6.14507">
        <ele>3411</ele>
        <time>2013-07-01T08:23:01Z</time>
      </trkpt>
      <trkpt lat="45.15457" lon="6.14511">
        <ele>3410</ele>
        <time>2013-07-01T08:23:06Z</time>
      </trkpt>
      <trkpt lat="45.15457" lon="6.1451">
        <ele>3408</ele>
        <time>2013-07-01T08:23:11Z</time>
      </trkpt>
      <trkpt lat="45.15458" lon="6.1451">
        <ele>3407</ele>
        <time>2013-07-01T08:23:16Z</time>
      </trkpt>
      <trkpt lat="45.15456" lon="6.14509">
        <ele>3407</ele>
        <time>2013-07-01T08:23:21Z</time>
      </trkpt>
      <trkpt lat="45.15458" lon="6.1451">
        <ele>3406</ele>
        <time>2013-07-01T08:23:26Z</time>
      </trkpt>
      <trkpt lat="45.1546" lon="6.1451">
        <ele>3406</ele>
        <time>2013-07-01T08:23:31Z</time>
      </trkpt>
      <trkpt lat="45.15463" lon="6.14511">
        <ele>3407</ele>
        <time>2013-07-01T08:23:36Z</time>
      </trkpt>
      <trkpt lat="45.15464" lon="6.14516">
        <ele>3406</ele>
        <time>2013-07-01T08:23:41Z</time>
      </trkpt>
      <trkpt lat="45.15461" lon="6.14538">
        <ele>3402</ele>
        <time>2013-07-01T08:23:46Z</time>
      </trkpt>
      <trkpt lat="45.15486" lon="6.14542">
        <ele>3402</ele>
        <time>2013-07-01T08:23:52Z</time>
      </trkpt>
      <trkpt lat="45.15482" lon="6.14539">
        <ele>3388</ele>
        <time>2013-07-01T08:23:57Z</time>
      </trkpt>
      <trkpt lat="45.15475" lon="6.14559">
        <ele>3385</ele>
        <time>2013-07-01T08:24:02Z</time>
      </trkpt>
      <trkpt lat="45.15491" lon="6.14583">
        <ele>3372</ele>
        <time>2013-07-01T08:24:08Z</time>
      </trkpt>
      <trkpt lat="45.155" lon="6.14602">
        <ele>3362</ele>
        <time>2013-07-01T08:24:15Z</time>
      </trkpt>
      <trkpt lat="45.15531" lon="6.14597">
        <ele>3329</ele>
        <time>2013-07-01T08:28:38Z</time>
      </trkpt>
      <trkpt lat="45.15531" lon="6.14596">
        <ele>3332</ele>
        <time>2013-07-01T08:28:44Z</time>
      </trkpt>
      <trkpt lat="45.15531" lon="6.14595">
        <ele>3333</ele>
        <time>2013-07-01T08:28:49Z</time>
      </trkpt>
      <trkpt lat="45.1553" lon="6.14595">
        <ele>3334</ele>
        <time>2013-07-01T08:28:54Z</time>
      </trkpt>
      <trkpt lat="45.15531" lon="6.14599">
        <ele>3335</ele>
        <time>2013-07-01T08:28:59Z</time>
      </trkpt>
      <trkpt lat="45.15539" lon="6.1462">
        <ele>3328</ele>
        <time>2013-07-01T08:29:04Z</time>
      </trkpt>
      <trkpt lat="45.15539" lon="6.14652">
        <ele>3320</ele>
        <time>2013-07-01T08:29:09Z</time>
      </trkpt>
      <trkpt lat="45.15559" lon="6.14677">
        <ele>3306</ele>
        <time>2013-07-01T08:29:14Z</time>
      </trkpt>
      <trkpt lat="45.15584" lon="6.147">
        <ele>3291</ele>
        <time>2013-07-01T08:29:19Z</time>
      </trkpt>
      <trkpt lat="45.15607" lon="6.1472">
        <ele>3277</ele>
        <time>2013-07-01T08:29:24Z</time>
      </trkpt>
      <trkpt lat="45.15611" lon="6.14754">
        <ele>3264</ele>
        <time>2013-07-01T08:29:29Z</time>
      </trkpt>
      <trkpt lat="45.15626" lon="6.14786">
        <ele>3252</ele>
        <time>2013-07-01T08:29:34Z</time>
      </trkpt>
      <trkpt lat="45.15622" lon="6.14825">
        <ele>3247</ele>
        <time>2013-07-01T08:29:39Z</time>
      </trkpt>
      <trkpt lat="45.15626" lon="6.14847">
        <ele>3240</ele>
        <time>2013-07-01T08:29:44Z</time>
      </trkpt>
      <trkpt lat="45.15642" lon="6.14842">
        <ele>3236</ele>
        <time>2013-07-01T08:29:49Z</time>
      </trkpt>
      <trkpt lat="45.15686" lon="6.14835">
        <ele>3227</ele>
        <time>2013-07-01T08:29:54Z</time>
      </trkpt>
      <trkpt lat="45.15738" lon="6.14836">
        <ele>3222</ele>
        <time>2013-07-01T08:29:59Z</time>
      </trkpt>
      <trkpt lat="45.15779" lon="6.14842">
        <ele>3219</ele>
        <time>2013-07-01T08:30:04Z</time>
      </trkpt>
      <trkpt lat="45.15828" lon="6.14859">
        <ele>3213</ele>
        <time>2013-07-01T08:30:09Z</time>
      </trkpt>
      <trkpt lat="45.15857" lon="6.14879">
        <ele>3213</ele>
        <time>2013-07-01T08:30:14Z</time>
      </trkpt>
      <trkpt lat="45.1587" lon="6.14897">
        <ele>3212</ele>
        <time>2013-07-01T08:30:19Z</time>
      </trkpt>
      <trkpt lat="45.15884" lon="6.14911">
        <ele>3211</ele>
        <time>2013-07-01T08:30:24Z</time>
      </trkpt>
      <trkpt lat="45.15897" lon="6.1492">
        <ele>3210</ele>
        <time>2013-07-01T08:30:29Z</time>
      </trkpt>
      <trkpt lat="45.15906" lon="6.14924">
        <ele>3209</ele>
        <time>2013-07-01T08:30:34Z</time>
      </trkpt>
      <trkpt lat="45.1592" lon="6.14928">
        <ele>3208</ele>
        <time>2013-07-01T08:30:39Z</time>
      </trkpt>
      <trkpt lat="45.15942" lon="6.14934">
        <ele>3205</ele>
        <time>2013-07-01T08:30:44Z</time>
      </trkpt>
      <trkpt lat="45.1597" lon="6.14942">
        <ele>3201</ele>
        <time>2013-07-01T08:30:49Z</time>
      </trkpt>
      <trkpt lat="45.15989" lon="6.14955">
        <ele>3197</ele>
        <time>2013-07-01T08:30:54Z</time>
      </trkpt>
      <trkpt lat="45.16007" lon="6.14976">
        <ele>3190</ele>
        <time>2013-07-01T08:30:59Z</time>
      </trkpt>
      <trkpt lat="45.16016" lon="6.15011">
        <ele>3181</ele>
        <time>2013-07-01T08:31:04Z</time>
      </trkpt>
      <trkpt lat="45.16031" lon="6.15042">
        <ele>3171</ele>
        <time>2013-07-01T08:31:09Z</time>
      </trkpt>
      <trkpt lat="45.16039" lon="6.15075">
        <ele>3160</ele>
        <time>2013-07-01T08:31:14Z</time>
      </trkpt>
      <trkpt lat="45.16057" lon="6.15089">
        <ele>3150</ele>
        <time>2013-07-01T08:31:19Z</time>
      </trkpt>
      <trkpt lat="45.16066" lon="6.15113">
        <ele>3138</ele>
        <time>2013-07-01T08:31:24Z</time>
      </trkpt>
      <trkpt lat="45.16071" lon="6.15119">
        <ele>3129</ele>
        <time>2013-07-01T08:31:29Z</time>
      </trkpt>
      <trkpt lat="45.16072" lon="6.15119">
        <ele>3128</ele>
        <time>2013-07-01T08:31:34Z</time>
      </trkpt>
      <trkpt lat="45.16072" lon="6.15119">
        <ele>3128</ele>
        <time>2013-07-01T08:31:39Z</time>
      </trkpt>
      <trkpt lat="45.16076" lon="6.15112">
        <ele>3126</ele>
        <time>2013-07-01T08:31:44Z</time>
      </trkpt>
      <trkpt lat="45.16088" lon="6.15101">
        <ele>3122</ele>
        <time>2013-07-01T08:31:49Z</time>
      </trkpt>
      <trkpt lat="45.16103" lon="6.15113">
        <ele>3112</ele>
        <time>2013-07-01T08:31:54Z</time>
      </trkpt>
      <trkpt lat="45.16116" lon="6.15128">
        <ele>3099</ele>
        <time>2013-07-01T08:31:59Z</time>
      </trkpt>
      <trkpt lat="45.16134" lon="6.15148">
        <ele>3082</ele>
        <time>2013-07-01T08:32:04Z</time>
      </trkpt>
      <trkpt lat="45.16155" lon="6.15161">
        <ele>3067</ele>
        <time>2013-07-01T08:32:09Z</time>
      </trkpt>
      <trkpt lat="45.16161" lon="6.1516">
        <ele>3057</ele>
        <time>2013-07-01T08:32:14Z</time>
      </trkpt>
      <trkpt lat="45.1616" lon="6.15159">
        <ele>3056</ele>
        <time>2013-07-01T08:32:19Z</time>
      </trkpt>
      <trkpt lat="45.16162" lon="6.15156">
        <ele>3056</ele>
        <time>2013-07-01T08:32:24Z</time>
      </trkpt>
      <trkpt lat="45.16184" lon="6.15132">
        <ele>3051</ele>
        <time>2013-07-01T08:32:29Z</time>
      </trkpt>
      <trkpt lat="45.16193" lon="6.15116">
        <ele>3050</ele>
        <time>2013-07-01T08:32:34Z</time>
      </trkpt>
      <trkpt lat="45.16193" lon="6.15116">
        <ele>3050</ele>
        <time>2013-07-01T08:32:39Z</time>
      </trkpt>
      <trkpt lat="45.16199" lon="6.15115">
        <ele>3049</ele>
        <time>2013-07-01T08:32:44Z</time>
      </trkpt>
      <trkpt lat="45.16219" lon="6.15131">
        <ele>3042</ele>
        <time>2013-07-01T08:32:49Z</time>
      </trkpt>
      <trkpt lat="45.16225" lon="6.15159">
        <ele>3031</ele>
        <time>2013-07-01T08:32:54Z</time>
      </trkpt>
      <trkpt lat="45.16239" lon="6.15186">
        <ele>3016</ele>
        <time>2013-07-01T08:32:59Z</time>
      </trkpt>
      <trkpt lat="45.1627" lon="6.15189">
        <ele>3001</ele>
        <time>2013-07-01T08:33:04Z</time>
      </trkpt>
      <trkpt lat="45.16295" lon="6.15194">
        <ele>2996</ele>
        <time>2013-07-01T08:33:09Z</time>
      </trkpt>
      <trkpt lat="45.16319" lon="6.15211">
        <ele>2993</ele>
        <time>2013-07-01T08:33:14Z</time>
      </trkpt>
      <trkpt lat="45.16326" lon="6.15249">
        <ele>2984</ele>
        <time>2013-07-01T08:33:19Z</time>
      </trkpt>
      <trkpt lat="45.16338" lon="6.15285">
        <ele>2969</ele>
        <time>2013-07-01T08:33:24Z</time>
      </trkpt>
      <trkpt lat="45.16343" lon="6.15328">
        <ele>2951</ele>
        <time>2013-07-01T08:33:29Z</time>
      </trkpt>
      <trkpt lat="45.16348" lon="6.15373">
        <ele>2934</ele>
        <time>2013-07-01T08:33:34Z</time>
      </trkpt>
      <trkpt lat="45.16367" lon="6.15418">
        <ele>2923</ele>
        <time>2013-07-01T08:33:39Z</time>
      </trkpt>
      <trkpt lat="45.16346" lon="6.1546">
        <ele>2914</ele>
        <time>2013-07-01T08:33:44Z</time>
      </trkpt>
      <trkpt lat="45.1635" lon="6.15524">
        <ele>2904</ele>
        <time>2013-07-01T08:33:49Z</time>
      </trkpt>
      <trkpt lat="45.16372" lon="6.15598">
        <ele>2897</ele>
        <time>2013-07-01T08:33:54Z</time>
      </trkpt>
      <trkpt lat="45.16383" lon="6.15643">
        <ele>2897</ele>
        <time>2013-07-01T08:33:59Z</time>
      </trkpt>
      <trkpt lat="45.16389" lon="6.15677">
        <ele>2895</ele>
        <time>2013-07-01T08:34:04Z</time>
      </trkpt>
      <trkpt lat="45.16391" lon="6.15698">
        <ele>2892</ele>
        <time>2013-07-01T08:34:09Z</time>
      </trkpt>
      <trkpt lat="45.1639" lon="6.15697">
        <ele>2891</ele>
        <time>2013-07-01T08:34:14Z</time>
      </trkpt>
      <trkpt lat="45.1639" lon="6.15696">
        <ele>2891</ele>
        <time>2013-07-01T08:34:19Z</time>
      </trkpt>
      <trkpt lat="45.1639" lon="6.15696">
        <ele>2891</ele>
        <time>2013-07-01T08:34:24Z</time>
      </trkpt>
      <trkpt lat="45.1639" lon="6.15696">
        <ele>2891</ele>
        <time>2013-07-01T08:34:29Z</time>
      </trkpt>
      <trkpt lat="45.1639" lon="6.15695">
        <ele>2892</ele>
        <time>2013-07-01T08:34:34Z</time>
      </trkpt>
      <trkpt lat="45.1639" lon="6.15695">
        <ele>2892</ele>
        <time>2013-07-01T08:34:39Z</time>
      </trkpt>
      <trkpt lat="45.1639" lon="6.15695">
        <ele>2892</ele>
        <time>2013-07-01T08:34:44Z</time>
      </trkpt>
      <trkpt lat="45.1639" lon="6.15695">
        <ele>2893</ele>
        <time>2013-07-01T08:34:49Z</time>
      </trkpt>
      <trkpt lat="45.1639" lon="6.15694">
        <ele>2893</ele>
        <time>2013-07-01T08:34:54Z</time>
      </trkpt>
      <trkpt lat="45.16389" lon="6.15695">
        <ele>2892</ele>
        <time>2013-07-01T08:34:59Z</time>
      </trkpt>
      <trkpt lat="45.16393" lon="6.15728">
        <ele>2889</ele>
        <time>2013-07-01T08:35:04Z</time>
      </trkpt>
      <trkpt lat="45.16402" lon="6.15762">
        <ele>2882</ele>
        <time>2013-07-01T08:35:09Z</time>
      </trkpt>
      <trkpt lat="45.16404" lon="6.15795">
        <ele>2870</ele>
        <time>2013-07-01T08:35:14Z</time>
      </trkpt>
      <trkpt lat="45.16384" lon="6.15816">
        <ele>2858</ele>
        <time>2013-07-01T08:35:19Z</time>
      </trkpt>
      <trkpt lat="45.16399" lon="6.15846">
        <ele>2849</ele>
        <time>2013-07-01T08:35:24Z</time>
      </trkpt>
      <trkpt lat="45.16398" lon="6.1587">
        <ele>2839</ele>
        <time>2013-07-01T08:35:29Z</time>
      </trkpt>
      <trkpt lat="45.16382" lon="6.1588">
        <ele>2831</ele>
        <time>2013-07-01T08:35:34Z</time>
      </trkpt>
      <trkpt lat="45.16361" lon="6.15894">
        <ele>2827</ele>
        <time>2013-07-01T08:35:39Z</time>
      </trkpt>
      <trkpt lat="45.16354" lon="6.15924">
        <ele>2822</ele>
        <time>2013-07-01T08:35:44Z</time>
      </trkpt>
      <trkpt lat="45.16366" lon="6.15967">
        <ele>2809</ele>
        <time>2013-07-01T08:35:49Z</time>
      </trkpt>
      <trkpt lat="45.16392" lon="6.16009">
        <ele>2794</ele>
        <time>2013-07-01T08:35:54Z</time>
      </trkpt>
      <trkpt lat="45.16424" lon="6.16046">
        <ele>2782</ele>
        <time>2013-07-01T08:35:59Z</time>
      </trkpt>
      <trkpt lat="45.16441" lon="6.16104">
        <ele>2775</ele>
        <time>2013-07-01T08:36:04Z</time>
      </trkpt>
      <trkpt lat="45.16462" lon="6.16146">
        <ele>2770</ele>
        <time>2013-07-01T08:36:09Z</time>
      </trkpt>
      <trkpt lat="45.16471" lon="6.16139">
        <ele>2768</ele>
        <time>2013-07-01T08:36:14Z</time>
      </trkpt>
      <trkpt lat="45.16471" lon="6.16138">
        <ele>2768</ele>
        <time>2013-07-01T08:36:19Z</time>
      </trkpt>
      <trkpt lat="45.1647" lon="6.16138">
        <ele>2768</ele>
        <time>2013-07-01T08:36:24Z</time>
      </trkpt>
      <trkpt lat="45.1647" lon="6.16138">
        <ele>2768</ele>
        <time>2013-07-01T08:36:29Z</time>
      </trkpt>
      <trkpt lat="45.1647" lon="6.16137">
        <ele>2768</ele>
        <time>2013-07-01T08:36:34Z</time>
      </trkpt>
      <trkpt lat="45.16469" lon="6.16137">
        <ele>2768</ele>
        <time>2013-07-01T08:36:39Z</time>
      </trkpt>
      <trkpt lat="45.16469" lon="6.16137">
        <ele>2768</ele>
        <time>2013-07-01T08:36:44Z</time>
      </trkpt>
      <trkpt lat="45.16469" lon="6.16137">
        <ele>2768</ele>
        <time>2013-07-01T08:36:49Z</time>
      </trkpt>
      <trkpt lat="45.16469" lon="6.16136">
        <ele>2767</ele>
        <time>2013-07-01T08:36:54Z</time>
      </trkpt>
      <trkpt lat="45.16469" lon="6.16136">
        <ele>2768</ele>
        <time>2013-07-01T08:36:59Z</time>
      </trkpt>
      <trkpt lat="45.16469" lon="6.16136">
        <ele>2768</ele>
        <time>2013-07-01T08:37:04Z</time>
      </trkpt>
      <trkpt lat="45.16469" lon="6.16136">
        <ele>2768</ele>
        <time>2013-07-01T08:37:09Z</time>
      </trkpt>
      <trkpt lat="45.16469" lon="6.16136">
        <ele>2768</ele>
        <time>2013-07-01T08:37:14Z</time>
      </trkpt>
      <trkpt lat="45.16469" lon="6.16136">
        <ele>2768</ele>
        <time>2013-07-01T08:37:19Z</time>
      </trkpt>
      <trkpt lat="45.16479" lon="6.16139">
        <ele>2766</ele>
        <time>2013-07-01T08:37:24Z</time>
      </trkpt>
      <trkpt lat="45.16503" lon="6.16153">
        <ele>2763</ele>
        <time>2013-07-01T08:37:29Z</time>
      </trkpt>
      <trkpt lat="45.16536" lon="6.16175">
        <ele>2759</ele>
        <time>2013-07-01T08:37:34Z</time>
      </trkpt>
      <trkpt lat="45.16578" lon="6.16202">
        <ele>2752</ele>
        <time>2013-07-01T08:37:39Z</time>
      </trkpt>
      <trkpt lat="45.16625" lon="6.16228">
        <ele>2745</ele>
        <time>2013-07-01T08:37:44Z</time>
      </trkpt>
      <trkpt lat="45.16671" lon="6.16249">
        <ele>2739</ele>
        <time>2013-07-01T08:37:49Z</time>
      </trkpt>
      <trkpt lat="45.16713" lon="6.16267">
        <ele>2733</ele>
        <time>2013-07-01T08:37:54Z</time>
      </trkpt>
      <trkpt lat="45.16749" lon="6.1628">
        <ele>2727</ele>
        <time>2013-07-01T08:37:59Z</time>
      </trkpt>
      <trkpt lat="45.16784" lon="6.16293">
        <ele>2722</ele>
        <time>2013-07-01T08:38:04Z</time>
      </trkpt>
      <trkpt lat="45.16816" lon="6.16306">
        <ele>2718</ele>
        <time>2013-07-01T08:38:09Z</time>
      </trkpt>
      <trkpt lat="45.16842" lon="6.16314">
        <ele>2716</ele>
        <time>2013-07-01T08:38:14Z</time>
      </trkpt>
      <trkpt lat="45.16868" lon="6.16321">
        <ele>2712</ele>
        <time>2013-07-01T08:38:19Z</time>
      </trkpt>
      <trkpt lat="45.16901" lon="6.16331">
        <ele>2707</ele>
        <time>2013-07-01T08:38:24Z</time>
      </trkpt>
      <trkpt lat="45.1694" lon="6.16346">
        <ele>2703</ele>
        <time>2013-07-01T08:38:29Z</time>
      </trkpt>
      <trkpt lat="45.16974" lon="6.16364">
        <ele>2699</ele>
        <time>2013-07-01T08:38:34Z</time>
      </trkpt>
      <trkpt lat="45.17006" lon="6.1638">
        <ele>2696</ele>
        <time>2013-07-01T08:38:39Z</time>
      </trkpt>
      <trkpt lat="45.17024" lon="6.16392">
        <ele>2696</ele>
        <time>2013-07-01T08:38:44Z</time>
      </trkpt>
      <trkpt lat="45.17028" lon="6.16397">
        <ele>2696</ele>
        <time>2013-07-01T08:38:49Z</time>
      </trkpt>
      <trkpt lat="45.17033" lon="6.16401">
        <ele>2696</ele>
        <time>2013-07-01T08:38:54Z</time>
      </trkpt>
      <trkpt lat="45.17041" lon="6.16405">
        <ele>2694</ele>
        <time>2013-07-01T08:38:59Z</time>
      </trkpt>
      <trkpt lat="45.17042" lon="6.16405">
        <ele>2696</ele>
        <time>2013-07-01T08:47:24Z</time>
      </trkpt>
      <trkpt lat="45.17044" lon="6.16405">
        <ele>2697</ele>
        <time>2013-07-01T08:47:29Z</time>
      </trkpt>
      <trkpt lat="45.17047" lon="6.16405">
        <ele>2697</ele>
        <time>2013-07-01T08:47:34Z</time>
      </trkpt>
      <trkpt lat="45.17051" lon="6.16405">
        <ele>2697</ele>
        <time>2013-07-01T08:47:39Z</time>
      </trkpt>
      <trkpt lat="45.17056" lon="6.16407">
        <ele>2697</ele>
        <time>2013-07-01T08:47:44Z</time>
      </trkpt>
      <trkpt lat="45.17061" lon="6.16408">
        <ele>2697</ele>
        <time>2013-07-01T08:47:49Z</time>
      </trkpt>
      <trkpt lat="45.17065" lon="6.16408">
        <ele>2699</ele>
        <time>2013-07-01T08:47:54Z</time>
      </trkpt>
      <trkpt lat="45.1707" lon="6.16408">
        <ele>2699</ele>
        <time>2013-07-01T08:47:59Z</time>
      </trkpt>
      <trkpt lat="45.17077" lon="6.16408">
        <ele>2699</ele>
        <time>2013-07-01T08:48:04Z</time>
      </trkpt>
      <trkpt lat="45.17085" lon="6.16412">
        <ele>2699</ele>
        <time>2013-07-01T08:48:09Z</time>
      </trkpt>
      <trkpt lat="45.17089" lon="6.16412">
        <ele>2699</ele>
        <time>2013-07-01T08:48:14Z</time>
      </trkpt>
      <trkpt lat="45.17094" lon="6.16415">
        <ele>2699</ele>
        <time>2013-07-01T08:48:19Z</time>
      </trkpt>
      <trkpt lat="45.17101" lon="6.1642">
        <ele>2699</ele>
        <time>2013-07-01T08:48:24Z</time>
      </trkpt>
      <trkpt lat="45.17107" lon="6.16425">
        <ele>2699</ele>
        <time>2013-07-01T08:48:29Z</time>
      </trkpt>
      <trkpt lat="45.17115" lon="6.16431">
        <ele>2698</ele>
        <time>2013-07-01T08:48:34Z</time>
      </trkpt>
      <trkpt lat="45.17125" lon="6.16438">
        <ele>2697</ele>
        <time>2013-07-01T08:48:39Z</time>
      </trkpt>
      <trkpt lat="45.17131" lon="6.16442">
        <ele>2696</ele>
        <time>2013-07-01T08:48:44Z</time>
      </trkpt>
      <trkpt lat="45.17138" lon="6.16449">
        <ele>2695</ele>
        <time>2013-07-01T08:48:49Z</time>
      </trkpt>
      <trkpt lat="45.17144" lon="6.16456">
        <ele>2694</ele>
        <time>2013-07-01T08:48:54Z</time>
      </trkpt>
      <trkpt lat="45.17157" lon="6.16466">
        <ele>2693</ele>
        <time>2013-07-01T08:48:59Z</time>
      </trkpt>
      <trkpt lat="45.17168" lon="6.16474">
        <ele>2692</ele>
        <time>2013-07-01T08:49:04Z</time>
      </trkpt>
      <trkpt lat="45.17175" lon="6.16476">
        <ele>2692</ele>
        <time>2013-07-01T08:49:09Z</time>
      </trkpt>
      <trkpt lat="45.1718" lon="6.16479">
        <ele>2693</ele>
        <time>2013-07-01T08:49:14Z</time>
      </trkpt>
      <trkpt lat="45.17185" lon="6.16482">
        <ele>2692</ele>
        <time>2013-07-01T08:49:19Z</time>
      </trkpt>
      <trkpt lat="45.17193" lon="6.16487">
        <ele>2692</ele>
        <time>2013-07-01T08:49:24Z</time>
      </trkpt>
      <trkpt lat="45.172" lon="6.16496">
        <ele>2692</ele>
        <time>2013-07-01T08:49:29Z</time>
      </trkpt>
      <trkpt lat="45.17204" lon="6.165">
        <ele>2692</ele>
        <time>2013-07-01T08:49:34Z</time>
      </trkpt>
      <trkpt lat="45.17207" lon="6.16502">
        <ele>2693</ele>
        <time>2013-07-01T08:49:39Z</time>
      </trkpt>
      <trkpt lat="45.17214" lon="6.16507">
        <ele>2693</ele>
        <time>2013-07-01T08:49:44Z</time>
      </trkpt>
      <trkpt lat="45.17223" lon="6.16514">
        <ele>2692</ele>
        <time>2013-07-01T08:49:49Z</time>
      </trkpt>
      <trkpt lat="45.1723" lon="6.16522">
        <ele>2691</ele>
        <time>2013-07-01T08:49:54Z</time>
      </trkpt>
      <trkpt lat="45.17239" lon="6.16532">
        <ele>2691</ele>
        <time>2013-07-01T08:49:59Z</time>
      </trkpt>
      <trkpt lat="45.17246" lon="6.16542">
        <ele>2691</ele>
        <time>2013-07-01T08:50:04Z</time>
      </trkpt>
      <trkpt lat="45.17252" lon="6.16552">
        <ele>2691</ele>
        <time>2013-07-01T08:50:09Z</time>
      </trkpt>
      <trkpt lat="45.17256" lon="6.16556">
        <ele>2691</ele>
        <time>2013-07-01T08:50:14Z</time>
      </trkpt>
      <trkpt lat="45.1726" lon="6.1656">
        <ele>2691</ele>
        <time>2013-07-01T08:50:19Z</time>
      </trkpt>
      <trkpt lat="45.17263" lon="6.16563">
        <ele>2691</ele>
        <time>2013-07-01T08:50:24Z</time>
      </trkpt>
      <trkpt lat="45.17267" lon="6.16567">
        <ele>2691</ele>
        <time>2013-07-01T08:50:29Z</time>
      </trkpt>
      <trkpt lat="45.17273" lon="6.16574">
        <ele>2691</ele>
        <time>2013-07-01T08:50:34Z</time>
      </trkpt>
      <trkpt lat="45.17279" lon="6.1658">
        <ele>2690</ele>
        <time>2013-07-01T08:50:39Z</time>
      </trkpt>
      <trkpt lat="45.17283" lon="6.16584">
        <ele>2690</ele>
        <time>2013-07-01T08:50:44Z</time>
      </trkpt>
      <trkpt lat="45.17287" lon="6.16587">
        <ele>2689</ele>
        <time>2013-07-01T08:50:49Z</time>
      </trkpt>
      <trkpt lat="45.17291" lon="6.1659">
        <ele>2689</ele>
        <time>2013-07-01T08:50:54Z</time>
      </trkpt>
      <trkpt lat="45.17295" lon="6.16593">
        <ele>2689</ele>
        <time>2013-07-01T08:50:59Z</time>
      </trkpt>
      <trkpt lat="45.17301" lon="6.16599">
        <ele>2689</ele>
        <time>2013-07-01T08:51:04Z</time>
      </trkpt>
      <trkpt lat="45.17307" lon="6.16603">
        <ele>2689</ele>
        <time>2013-07-01T08:51:09Z</time>
      </trkpt>
      <trkpt lat="45.17313" lon="6.16606">
        <ele>2689</ele>
        <time>2013-07-01T08:51:14Z</time>
      </trkpt>
      <trkpt lat="45.17316" lon="6.16606">
        <ele>2689</ele>
        <time>2013-07-01T08:51:19Z</time>
      </trkpt>
      <trkpt lat="45.17316" lon="6.16606">
        <ele>2689</ele>
        <time>2013-07-01T08:51:24Z</time>
      </trkpt>
      <trkpt lat="45.17316" lon="6.16606">
        <ele>2689</ele>
        <time>2013-07-01T08:51:29Z</time>
      </trkpt>
      <trkpt lat="45.17316" lon="6.16606">
        <ele>2689</ele>
        <time>2013-07-01T08:51:34Z</time>
      </trkpt>
      <trkpt lat="45.17316" lon="6.16607">
        <ele>2689</ele>
        <time>2013-07-01T08:51:39Z</time>
      </trkpt>
      <trkpt lat="45.17316" lon="6.16607">
        <ele>2689</ele>
        <time>2013-07-01T08:51:44Z</time>
      </trkpt>
      <trkpt lat="45.17315" lon="6.16607">
        <ele>2689</ele>
        <time>2013-07-01T08:51:49Z</time>
      </trkpt>
      <trkpt lat="45.17318" lon="6.16608">
        <ele>2689</ele>
        <time>2013-07-01T08:51:54Z</time>
      </trkpt>
      <trkpt lat="45.17326" lon="6.16613">
        <ele>2688</ele>
        <time>2013-07-01T08:51:59Z</time>
      </trkpt>
      <trkpt lat="45.17333" lon="6.16618">
        <ele>2688</ele>
        <time>2013-07-01T08:52:04Z</time>
      </trkpt>
      <trkpt lat="45.17339" lon="6.16624">
        <ele>2688</ele>
        <time>2013-07-01T08:52:09Z</time>
      </trkpt>
      <trkpt lat="45.17344" lon="6.16628">
        <ele>2688</ele>
        <time>2013-07-01T08:52:14Z</time>
      </trkpt>
      <trkpt lat="45.17349" lon="6.16631">
        <ele>2689</ele>
        <time>2013-07-01T08:52:19Z</time>
      </trkpt>
      <trkpt lat="45.17354" lon="6.16635">
        <ele>2689</ele>
        <time>2013-07-01T08:52:24Z</time>
      </trkpt>
      <trkpt lat="45.17358" lon="6.16638">
        <ele>2690</ele>
        <time>2013-07-01T08:52:29Z</time>
      </trkpt>
      <trkpt lat="45.17363" lon="6.16643">
        <ele>2690</ele>
        <time>2013-07-01T08:52:34Z</time>
      </trkpt>
      <trkpt lat="45.1737" lon="6.16647">
        <ele>2691</ele>
        <time>2013-07-01T08:52:39Z</time>
      </trkpt>
      <trkpt lat="45.17375" lon="6.16652">
        <ele>2691</ele>
        <time>2013-07-01T08:52:44Z</time>
      </trkpt>
      <trkpt lat="45.17381" lon="6.16656">
        <ele>2691</ele>
        <time>2013-07-01T08:52:49Z</time>
      </trkpt>
      <trkpt lat="45.17387" lon="6.16662">
        <ele>2691</ele>
        <time>2013-07-01T08:52:54Z</time>
      </trkpt>
      <trkpt lat="45.17395" lon="6.16665">
        <ele>2691</ele>
        <time>2013-07-01T08:52:59Z</time>
      </trkpt>
      <trkpt lat="45.174" lon="6.16669">
        <ele>2691</ele>
        <time>2013-07-01T08:53:04Z</time>
      </trkpt>
      <trkpt lat="45.17407" lon="6.16673">
        <ele>2691</ele>
        <time>2013-07-01T08:53:09Z</time>
      </trkpt>
      <trkpt lat="45.17412" lon="6.16678">
        <ele>2691</ele>
        <time>2013-07-01T08:53:14Z</time>
      </trkpt>
      <trkpt lat="45.17417" lon="6.16682">
        <ele>2691</ele>
        <time>2013-07-01T08:53:19Z</time>
      </trkpt>
      <trkpt lat="45.17422" lon="6.16686">
        <ele>2690</ele>
        <time>2013-07-01T08:53:24Z</time>
      </trkpt>
      <trkpt lat="45.17428" lon="6.1669">
        <ele>2690</ele>
        <time>2013-07-01T08:53:29Z</time>
      </trkpt>
      <trkpt lat="45.17434" lon="6.16695">
        <ele>2690</ele>
        <time>2013-07-01T08:53:34Z</time>
      </trkpt>
      <trkpt lat="45.17441" lon="6.16703">
        <ele>2689</ele>
        <time>2013-07-01T08:53:39Z</time>
      </trkpt>
      <trkpt lat="45.17445" lon="6.16712">
        <ele>2688</ele>
        <time>2013-07-01T08:53:44Z</time>
      </trkpt>
      <trkpt lat="45.17445" lon="6.16713">
        <ele>2688</ele>
        <time>2013-07-01T08:53:49Z</time>
      </trkpt>
      <trkpt lat="45.17445" lon="6.16713">
        <ele>2688</ele>
        <time>2013-07-01T08:53:54Z</time>
      </trkpt>
      <trkpt lat="45.17445" lon="6.16714">
        <ele>2688</ele>
        <time>2013-07-01T08:53:59Z</time>
      </trkpt>
      <trkpt lat="45.17445" lon="6.16714">
        <ele>2688</ele>
        <time>2013-07-01T08:54:04Z</time>
      </trkpt>
      <trkpt lat="45.17445" lon="6.16714">
        <ele>2688</ele>
        <time>2013-07-01T08:54:09Z</time>
      </trkpt>
      <trkpt lat="45.17445" lon="6.16714">
        <ele>2688</ele>
        <time>2013-07-01T08:54:14Z</time>
      </trkpt>
      <trkpt lat="45.17445" lon="6.16714">
        <ele>2688</ele>
        <time>2013-07-01T08:54:19Z</time>
      </trkpt>
      <trkpt lat="45.17445" lon="6.16714">
        <ele>2688</ele>
        <time>2013-07-01T08:54:24Z</time>
      </trkpt>
      <trkpt lat="45.17445" lon="6.16715">
        <ele>2688</ele>
        <time>2013-07-01T08:54:29Z</time>
      </trkpt>
      <trkpt lat="45.17448" lon="6.16723">
        <ele>2688</ele>
        <time>2013-07-01T08:54:34Z</time>
      </trkpt>
      <trkpt lat="45.17454" lon="6.16749">
        <ele>2685</ele>
        <time>2013-07-01T08:54:39Z</time>
      </trkpt>
      <trkpt lat="45.17466" lon="6.16781">
        <ele>2683</ele>
        <time>2013-07-01T08:54:44Z</time>
      </trkpt>
      <trkpt lat="45.17484" lon="6.16804">
        <ele>2680</ele>
        <time>2013-07-01T08:54:49Z</time>
      </trkpt>
      <trkpt lat="45.17503" lon="6.16826">
        <ele>2678</ele>
        <time>2013-07-01T08:54:54Z</time>
      </trkpt>
      <trkpt lat="45.17522" lon="6.16849">
        <ele>2675</ele>
        <time>2013-07-01T08:54:59Z</time>
      </trkpt>
      <trkpt lat="45.17542" lon="6.16869">
        <ele>2672</ele>
        <time>2013-07-01T08:55:04Z</time>
      </trkpt>
      <trkpt lat="45.17564" lon="6.1689">
        <ele>2669</ele>
        <time>2013-07-01T08:55:09Z</time>
      </trkpt>
      <trkpt lat="45.17589" lon="6.16912">
        <ele>2664</ele>
        <time>2013-07-01T08:55:14Z</time>
      </trkpt>
      <trkpt lat="45.17616" lon="6.16929">
        <ele>2661</ele>
        <time>2013-07-01T08:55:19Z</time>
      </trkpt>
      <trkpt lat="45.17642" lon="6.16947">
        <ele>2658</ele>
        <time>2013-07-01T08:55:24Z</time>
      </trkpt>
      <trkpt lat="45.17671" lon="6.16966">
        <ele>2654</ele>
        <time>2013-07-01T08:55:29Z</time>
      </trkpt>
      <trkpt lat="45.17697" lon="6.16982">
        <ele>2652</ele>
        <time>2013-07-01T08:55:34Z</time>
      </trkpt>
      <trkpt lat="45.17722" lon="6.16994">
        <ele>2649</ele>
        <time>2013-07-01T08:55:39Z</time>
      </trkpt>
      <trkpt lat="45.17751" lon="6.17003">
        <ele>2645</ele>
        <time>2013-07-01T08:55:44Z</time>
      </trkpt>
      <trkpt lat="45.17778" lon="6.16997">
        <ele>2639</ele>
        <time>2013-07-01T08:55:49Z</time>
      </trkpt>
      <trkpt lat="45.17804" lon="6.16994">
        <ele>2633</ele>
        <time>2013-07-01T08:55:54Z</time>
      </trkpt>
      <trkpt lat="45.17832" lon="6.16986">
        <ele>2626</ele>
        <time>2013-07-01T08:55:59Z</time>
      </trkpt>
      <trkpt lat="45.17864" lon="6.16992">
        <ele>2619</ele>
        <time>2013-07-01T08:56:04Z</time>
      </trkpt>
      <trkpt lat="45.17888" lon="6.17021">
        <ele>2616</ele>
        <time>2013-07-01T08:56:09Z</time>
      </trkpt>
      <trkpt lat="45.17907" lon="6.1705">
        <ele>2612</ele>
        <time>2013-07-01T08:56:14Z</time>
      </trkpt>
      <trkpt lat="45.17931" lon="6.17086">
        <ele>2606</ele>
        <time>2013-07-01T08:56:19Z</time>
      </trkpt>
      <trkpt lat="45.1796" lon="6.17106">
        <ele>2600</ele>
        <time>2013-07-01T08:56:24Z</time>
      </trkpt>
      <trkpt lat="45.17991" lon="6.17101">
        <ele>2590</ele>
        <time>2013-07-01T08:56:29Z</time>
      </trkpt>
      <trkpt lat="45.18019" lon="6.17116">
        <ele>2582</ele>
        <time>2013-07-01T08:56:34Z</time>
      </trkpt>
      <trkpt lat="45.1805" lon="6.17119">
        <ele>2573</ele>
        <time>2013-07-01T08:56:39Z</time>
      </trkpt>
      <trkpt lat="45.18081" lon="6.17129">
        <ele>2564</ele>
        <time>2013-07-01T08:56:44Z</time>
      </trkpt>
      <trkpt lat="45.18103" lon="6.17156">
        <ele>2559</ele>
        <time>2013-07-01T08:56:49Z</time>
      </trkpt>
      <trkpt lat="45.18115" lon="6.17165">
        <ele>2557</ele>
        <time>2013-07-01T08:56:54Z</time>
      </trkpt>
      <trkpt lat="45.18139" lon="6.17177">
        <ele>2553</ele>
        <time>2013-07-01T08:56:59Z</time>
      </trkpt>
      <trkpt lat="45.18171" lon="6.17197">
        <ele>2547</ele>
        <time>2013-07-01T08:57:04Z</time>
      </trkpt>
      <trkpt lat="45.18207" lon="6.17218">
        <ele>2542</ele>
        <time>2013-07-01T08:57:09Z</time>
      </trkpt>
      <trkpt lat="45.18245" lon="6.17239">
        <ele>2536</ele>
        <time>2013-07-01T08:57:14Z</time>
      </trkpt>
      <trkpt lat="45.18279" lon="6.1726">
        <ele>2532</ele>
        <time>2013-07-01T08:57:19Z</time>
      </trkpt>
      <trkpt lat="45.18315" lon="6.17278">
        <ele>2526</ele>
        <time>2013-07-01T08:57:24Z</time>
      </trkpt>
      <trkpt lat="45.18352" lon="6.17303">
        <ele>2522</ele>
        <time>2013-07-01T08:57:29Z</time>
      </trkpt>
      <trkpt lat="45.18385" lon="6.17319">
        <ele>2517</ele>
        <time>2013-07-01T08:57:34Z</time>
      </trkpt>
      <trkpt lat="45.18425" lon="6.17327">
        <ele>2511</ele>
        <time>2013-07-01T08:57:39Z</time>
      </trkpt>
      <trkpt lat="45.18463" lon="6.17326">
        <ele>2508</ele>
        <time>2013-07-01T08:57:44Z</time>
      </trkpt>
      <trkpt lat="45.18492" lon="6.17319">
        <ele>2506</ele>
        <time>2013-07-01T08:57:49Z</time>
      </trkpt>
      <trkpt lat="45.18514" lon="6.17311">
        <ele>2505</ele>
        <time>2013-07-01T08:57:54Z</time>
      </trkpt>
      <trkpt lat="45.18529" lon="6.17305">
        <ele>2504</ele>
        <time>2013-07-01T08:57:59Z</time>
      </trkpt>
      <trkpt lat="45.18538" lon="6.17301">
        <ele>2504</ele>
        <time>2013-07-01T08:58:04Z</time>
      </trkpt>
      <trkpt lat="45.18545" lon="6.17302">
        <ele>2505</ele>
        <time>2013-07-01T08:58:09Z</time>
      </trkpt>
      <trkpt lat="45.18549" lon="6.173">
        <ele>2505</ele>
        <time>2013-07-01T08:58:14Z</time>
      </trkpt>
      <trkpt lat="45.18552" lon="6.17298">
        <ele>2505</ele>
        <time>2013-07-01T08:58:19Z</time>
      </trkpt>
      <trkpt lat="45.18552" lon="6.17298">
        <ele>2506</ele>
        <time>2013-07-01T08:58:24Z</time>
      </trkpt>
      <trkpt lat="45.18551" lon="6.17298">
        <ele>2506</ele>
        <time>2013-07-01T08:58:29Z</time>
      </trkpt>
      <trkpt lat="45.18551" lon="6.17298">
        <ele>2505</ele>
        <time>2013-07-01T08:58:34Z</time>
      </trkpt>
      <trkpt lat="45.18551" lon="6.17298">
        <ele>2506</ele>
        <time>2013-07-01T08:58:39Z</time>
      </trkpt>
      <trkpt lat="45.18554" lon="6.17297">
        <ele>2507</ele>
        <time>2013-07-01T08:58:44Z</time>
      </trkpt>
      <trkpt lat="45.18559" lon="6.17295">
        <ele>2507</ele>
        <time>2013-07-01T08:58:49Z</time>
      </trkpt>
      <trkpt lat="45.18563" lon="6.17293">
        <ele>2507</ele>
        <time>2013-07-01T08:58:54Z</time>
      </trkpt>
      <trkpt lat="45.18567" lon="6.17291">
        <ele>2508</ele>
        <time>2013-07-01T08:58:59Z</time>
      </trkpt>
      <trkpt lat="45.18568" lon="6.17292">
        <ele>2508</ele>
        <time>2013-07-01T08:59:04Z</time>
      </trkpt>
      <trkpt lat="45.18569" lon="6.17291">
        <ele>2508</ele>
        <time>2013-07-01T08:59:09Z</time>
      </trkpt>
      <trkpt lat="45.18573" lon="6.17291">
        <ele>2508</ele>
        <time>2013-07-01T08:59:14Z</time>
      </trkpt>
      <trkpt lat="45.18578" lon="6.1729">
        <ele>2508</ele>
        <time>2013-07-01T08:59:19Z</time>
      </trkpt>
      <trkpt lat="45.18583" lon="6.1729">
        <ele>2508</ele>
        <time>2013-07-01T08:59:24Z</time>
      </trkpt>
      <trkpt lat="45.18588" lon="6.1729">
        <ele>2508</ele>
        <time>2013-07-01T08:59:29Z</time>
      </trkpt>
      <trkpt lat="45.18593" lon="6.1729">
        <ele>2508</ele>
        <time>2013-07-01T08:59:34Z</time>
      </trkpt>
      <trkpt lat="45.18599" lon="6.17289">
        <ele>2508</ele>
        <time>2013-07-01T08:59:39Z</time>
      </trkpt>
      <trkpt lat="45.18605" lon="6.1729">
        <ele>2508</ele>
        <time>2013-07-01T08:59:44Z</time>
      </trkpt>
      <trkpt lat="45.18611" lon="6.17291">
        <ele>2508</ele>
        <time>2013-07-01T08:59:49Z</time>
      </trkpt>
      <trkpt lat="45.18618" lon="6.17291">
        <ele>2508</ele>
        <time>2013-07-01T08:59:54Z</time>
      </trkpt>
      <trkpt lat="45.18626" lon="6.17291">
        <ele>2508</ele>
        <time>2013-07-01T08:59:59Z</time>
      </trkpt>
      <trkpt lat="45.18635" lon="6.17293">
        <ele>2508</ele>
        <time>2013-07-01T09:00:04Z</time>
      </trkpt>
      <trkpt lat="45.18645" lon="6.17293">
        <ele>2507</ele>
        <time>2013-07-01T09:00:09Z</time>
      </trkpt>
      <trkpt lat="45.18652" lon="6.17294">
        <ele>2507</ele>
        <time>2013-07-01T09:00:14Z</time>
      </trkpt>
      <trkpt lat="45.18658" lon="6.17295">
        <ele>2507</ele>
        <time>2013-07-01T09:00:19Z</time>
      </trkpt>
      <trkpt lat="45.18663" lon="6.17295">
        <ele>2507</ele>
        <time>2013-07-01T09:00:24Z</time>
      </trkpt>
      <trkpt lat="45.18668" lon="6.17294">
        <ele>2507</ele>
        <time>2013-07-01T09:00:29Z</time>
      </trkpt>
      <trkpt lat="45.18672" lon="6.17295">
        <ele>2508</ele>
        <time>2013-07-01T09:00:34Z</time>
      </trkpt>
      <trkpt lat="45.18676" lon="6.17294">
        <ele>2508</ele>
        <time>2013-07-01T09:00:39Z</time>
      </trkpt>
      <trkpt lat="45.18681" lon="6.17293">
        <ele>2508</ele>
        <time>2013-07-01T09:00:44Z</time>
      </trkpt>
      <trkpt lat="45.18685" lon="6.17293">
        <ele>2508</ele>
        <time>2013-07-01T09:00:49Z</time>
      </trkpt>
      <trkpt lat="45.1869" lon="6.17292">
        <ele>2508</ele>
        <time>2013-07-01T09:00:54Z</time>
      </trkpt>
      <trkpt lat="45.18693" lon="6.17291">
        <ele>2509</ele>
        <time>2013-07-01T09:00:59Z</time>
      </trkpt>
      <trkpt lat="45.18697" lon="6.1729">
        <ele>2509</ele>
        <time>2013-07-01T09:01:04Z</time>
      </trkpt>
      <trkpt lat="45.18699" lon="6.17289">
        <ele>2509</ele>
        <time>2013-07-01T09:01:09Z</time>
      </trkpt>
      <trkpt lat="45.18699" lon="6.17289">
        <ele>2509</ele>
        <time>2013-07-01T09:01:14Z</time>
      </trkpt>
      <trkpt lat="45.18699" lon="6.17289">
        <ele>2510</ele>
        <time>2013-07-01T09:01:19Z</time>
      </trkpt>
      <trkpt lat="45.18699" lon="6.17289">
        <ele>2510</ele>
        <time>2013-07-01T09:01:24Z</time>
      </trkpt>
      <trkpt lat="45.18704" lon="6.17288">
        <ele>2510</ele>
        <time>2013-07-01T09:01:29Z</time>
      </trkpt>
      <trkpt lat="45.18708" lon="6.17286">
        <ele>2510</ele>
        <time>2013-07-01T09:01:34Z</time>
      </trkpt>
      <trkpt lat="45.18713" lon="6.17285">
        <ele>2510</ele>
        <time>2013-07-01T09:01:39Z</time>
      </trkpt>
      <trkpt lat="45.18718" lon="6.17283">
        <ele>2510</ele>
        <time>2013-07-01T09:01:44Z</time>
      </trkpt>
      <trkpt lat="45.18722" lon="6.17282">
        <ele>2510</ele>
        <time>2013-07-01T09:01:49Z</time>
      </trkpt>
      <trkpt lat="45.18726" lon="6.17281">
        <ele>2511</ele>
        <time>2013-07-01T09:01:54Z</time>
      </trkpt>
      <trkpt lat="45.1873" lon="6.1728">
        <ele>2511</ele>
        <time>2013-07-01T09:01:59Z</time>
      </trkpt>
      <trkpt lat="45.18734" lon="6.17279">
        <ele>2511</ele>
        <time>2013-07-01T09:02:04Z</time>
      </trkpt>
      <trkpt lat="45.18737" lon="6.17281">
        <ele>2511</ele>
        <time>2013-07-01T09:02:09Z</time>
      </trkpt>
      <trkpt lat="45.1874" lon="6.17282">
        <ele>2511</ele>
        <time>2013-07-01T09:02:14Z</time>
      </trkpt>
      <trkpt lat="45.18743" lon="6.17283">
        <ele>2511</ele>
        <time>2013-07-01T09:02:19Z</time>
      </trkpt>
      <trkpt lat="45.18743" lon="6.17284">
        <ele>2511</ele>
        <time>2013-07-01T09:02:24Z</time>
      </trkpt>
      <trkpt lat="45.18744" lon="6.17283">
        <ele>2512</ele>
        <time>2013-07-01T09:02:29Z</time>
      </trkpt>
      <trkpt lat="45.18744" lon="6.17283">
        <ele>2512</ele>
        <time>2013-07-01T09:02:34Z</time>
      </trkpt>
      <trkpt lat="45.18748" lon="6.17285">
        <ele>2512</ele>
        <time>2013-07-01T09:02:39Z</time>
      </trkpt>
      <trkpt lat="45.18749" lon="6.17286">
        <ele>2513</ele>
        <time>2013-07-01T09:02:44Z</time>
      </trkpt>
      <trkpt lat="45.18751" lon="6.17287">
        <ele>2513</ele>
        <time>2013-07-01T09:02:49Z</time>
      </trkpt>
      <trkpt lat="45.18755" lon="6.17289">
        <ele>2513</ele>
        <time>2013-07-01T09:02:54Z</time>
      </trkpt>
      <trkpt lat="45.18759" lon="6.17292">
        <ele>2514</ele>
        <time>2013-07-01T09:02:59Z</time>
      </trkpt>
      <trkpt lat="45.18763" lon="6.17294">
        <ele>2514</ele>
        <time>2013-07-01T09:03:04Z</time>
      </trkpt>
      <trkpt lat="45.18767" lon="6.17295">
        <ele>2514</ele>
        <time>2013-07-01T09:03:09Z</time>
      </trkpt>
      <trkpt lat="45.18771" lon="6.17295">
        <ele>2515</ele>
        <time>2013-07-01T09:03:14Z</time>
      </trkpt>
      <trkpt lat="45.18776" lon="6.17295">
        <ele>2515</ele>
        <time>2013-07-01T09:03:19Z</time>
      </trkpt>
      <trkpt lat="45.18782" lon="6.17295">
        <ele>2515</ele>
        <time>2013-07-01T09:03:24Z</time>
      </trkpt>
      <trkpt lat="45.18787" lon="6.17295">
        <ele>2515</ele>
        <time>2013-07-01T09:03:29Z</time>
      </trkpt>
      <trkpt lat="45.18793" lon="6.17293">
        <ele>2516</ele>
        <time>2013-07-01T09:03:34Z</time>
      </trkpt>
      <trkpt lat="45.18798" lon="6.17293">
        <ele>2516</ele>
        <time>2013-07-01T09:03:39Z</time>
      </trkpt>
      <trkpt lat="45.18799" lon="6.17293">
        <ele>2516</ele>
        <time>2013-07-01T09:03:44Z</time>
      </trkpt>
      <trkpt lat="45.188" lon="6.17294">
        <ele>2516</ele>
        <time>2013-07-01T09:03:49Z</time>
      </trkpt>
      <trkpt lat="45.18803" lon="6.17294">
        <ele>2516</ele>
        <time>2013-07-01T09:03:54Z</time>
      </trkpt>
      <trkpt lat="45.18803" lon="6.17294">
        <ele>2516</ele>
        <time>2013-07-01T09:03:59Z</time>
      </trkpt>
      <trkpt lat="45.18802" lon="6.17294">
        <ele>2516</ele>
        <time>2013-07-01T09:04:04Z</time>
      </trkpt>
      <trkpt lat="45.18803" lon="6.17294">
        <ele>2516</ele>
        <time>2013-07-01T09:04:09Z</time>
      </trkpt>
      <trkpt lat="45.1881" lon="6.17295">
        <ele>2515</ele>
        <time>2013-07-01T09:04:14Z</time>
      </trkpt>
      <trkpt lat="45.18817" lon="6.17295">
        <ele>2515</ele>
        <time>2013-07-01T09:04:19Z</time>
      </trkpt>
      <trkpt lat="45.18824" lon="6.17295">
        <ele>2515</ele>
        <time>2013-07-01T09:04:24Z</time>
      </trkpt>
      <trkpt lat="45.18829" lon="6.17296">
        <ele>2515</ele>
        <time>2013-07-01T09:04:29Z</time>
      </trkpt>
      <trkpt lat="45.18834" lon="6.17296">
        <ele>2516</ele>
        <time>2013-07-01T09:04:34Z</time>
      </trkpt>
      <trkpt lat="45.18837" lon="6.17295">
        <ele>2516</ele>
        <time>2013-07-01T09:04:39Z</time>
      </trkpt>
      <trkpt lat="45.18842" lon="6.17294">
        <ele>2517</ele>
        <time>2013-07-01T09:04:44Z</time>
      </trkpt>
      <trkpt lat="45.18845" lon="6.17292">
        <ele>2517</ele>
        <time>2013-07-01T09:04:49Z</time>
      </trkpt>
      <trkpt lat="45.18847" lon="6.1729">
        <ele>2518</ele>
        <time>2013-07-01T09:04:54Z</time>
      </trkpt>
      <trkpt lat="45.1885" lon="6.17288">
        <ele>2518</ele>
        <time>2013-07-01T09:04:59Z</time>
      </trkpt>
      <trkpt lat="45.18853" lon="6.17287">
        <ele>2519</ele>
        <time>2013-07-01T09:05:04Z</time>
      </trkpt>
      <trkpt lat="45.18857" lon="6.17286">
        <ele>2519</ele>
        <time>2013-07-01T09:05:09Z</time>
      </trkpt>
      <trkpt lat="45.18861" lon="6.17284">
        <ele>2520</ele>
        <time>2013-07-01T09:05:14Z</time>
      </trkpt>
      <trkpt lat="45.18865" lon="6.17283">
        <ele>2520</ele>
        <time>2013-07-01T09:05:19Z</time>
      </trkpt>
      <trkpt lat="45.1887" lon="6.17281">
        <ele>2520</ele>
        <time>2013-07-01T09:05:24Z</time>
      </trkpt>
      <trkpt lat="45.18872" lon="6.17278">
        <ele>2521</ele>
        <time>2013-07-01T09:05:29Z</time>
      </trkpt>
      <trkpt lat="45.18876" lon="6.17276">
        <ele>2521</ele>
        <time>2013-07-01T09:05:34Z</time>
      </trkpt>
      <trkpt lat="45.18881" lon="6.17277">
        <ele>2521</ele>
        <time>2013-07-01T09:05:39Z</time>
      </trkpt>
      <trkpt lat="45.18886" lon="6.17274">
        <ele>2521</ele>
        <time>2013-07-01T09:05:44Z</time>
      </trkpt>
      <trkpt lat="45.18889" lon="6.17273">
        <ele>2521</ele>
        <time>2013-07-01T09:05:49Z</time>
      </trkpt>
      <trkpt lat="45.18891" lon="6.1727">
        <ele>2521</ele>
        <time>2013-07-01T09:05:54Z</time>
      </trkpt>
      <trkpt lat="45.18891" lon="6.17271">
        <ele>2521</ele>
        <time>2013-07-01T09:05:59Z</time>
      </trkpt>
      <trkpt lat="45.18891" lon="6.17271">
        <ele>2521</ele>
        <time>2013-07-01T09:06:04Z</time>
      </trkpt>
      <trkpt lat="45.18891" lon="6.17271">
        <ele>2521</ele>
        <time>2013-07-01T09:06:09Z</time>
      </trkpt>
      <trkpt lat="45.18891" lon="6.17271">
        <ele>2522</ele>
        <time>2013-07-01T09:06:14Z</time>
      </trkpt>
      <trkpt lat="45.1889" lon="6.17271">
        <ele>2522</ele>
        <time>2013-07-01T09:06:19Z</time>
      </trkpt>
      <trkpt lat="45.1889" lon="6.17271">
        <ele>2521</ele>
        <time>2013-07-01T09:06:24Z</time>
      </trkpt>
      <trkpt lat="45.1889" lon="6.17271">
        <ele>2521</ele>
        <time>2013-07-01T09:06:29Z</time>
      </trkpt>
      <trkpt lat="45.1889" lon="6.1727">
        <ele>2521</ele>
        <time>2013-07-01T09:06:34Z</time>
      </trkpt>
      <trkpt lat="45.18891" lon="6.17269">
        <ele>2521</ele>
        <time>2013-07-01T09:06:39Z</time>
      </trkpt>
      <trkpt lat="45.18896" lon="6.17266">
        <ele>2521</ele>
        <time>2013-07-01T09:06:44Z</time>
      </trkpt>
      <trkpt lat="45.18897" lon="6.17266">
        <ele>2521</ele>
        <time>2013-07-01T09:06:49Z</time>
      </trkpt>
      <trkpt lat="45.18897" lon="6.17266">
        <ele>2521</ele>
        <time>2013-07-01T09:06:54Z</time>
      </trkpt>
      <trkpt lat="45.18897" lon="6.17266">
        <ele>2522</ele>
        <time>2013-07-01T09:06:59Z</time>
      </trkpt>
      <trkpt lat="45.18898" lon="6.17266">
        <ele>2522</ele>
        <time>2013-07-01T09:07:04Z</time>
      </trkpt>
      <trkpt lat="45.18901" lon="6.17265">
        <ele>2521</ele>
        <time>2013-07-01T09:07:09Z</time>
      </trkpt>
      <trkpt lat="45.18914" lon="6.1725">
        <ele>2519</ele>
        <time>2013-07-01T09:07:14Z</time>
      </trkpt>
      <trkpt lat="45.18931" lon="6.17243">
        <ele>2516</ele>
        <time>2013-07-01T09:07:19Z</time>
      </trkpt>
      <trkpt lat="45.18948" lon="6.17236">
        <ele>2514</ele>
        <time>2013-07-01T09:07:24Z</time>
      </trkpt>
      <trkpt lat="45.18977" lon="6.17229">
        <ele>2506</ele>
        <time>2013-07-01T09:07:29Z</time>
      </trkpt>
      <trkpt lat="45.19008" lon="6.17243">
        <ele>2500</ele>
        <time>2013-07-01T09:07:34Z</time>
      </trkpt>
      <trkpt lat="45.19042" lon="6.17257">
        <ele>2494</ele>
        <time>2013-07-01T09:07:39Z</time>
      </trkpt>
      <trkpt lat="45.19069" lon="6.17247">
        <ele>2489</ele>
        <time>2013-07-01T09:07:44Z</time>
      </trkpt>
      <trkpt lat="45.19095" lon="6.17239">
        <ele>2486</ele>
        <time>2013-07-01T09:07:49Z</time>
      </trkpt>
      <trkpt lat="45.19121" lon="6.17234">
        <ele>2481</ele>
        <time>2013-07-01T09:07:54Z</time>
      </trkpt>
      <trkpt lat="45.19145" lon="6.17236">
        <ele>2479</ele>
        <time>2013-07-01T09:07:59Z</time>
      </trkpt>
      <trkpt lat="45.19158" lon="6.17242">
        <ele>2478</ele>
        <time>2013-07-01T09:08:04Z</time>
      </trkpt>
      <trkpt lat="45.19164" lon="6.17244">
        <ele>2477</ele>
        <time>2013-07-01T09:08:09Z</time>
      </trkpt>
      <trkpt lat="45.19171" lon="6.17246">
        <ele>2476</ele>
        <time>2013-07-01T09:08:14Z</time>
      </trkpt>
      <trkpt lat="45.1918" lon="6.1725">
        <ele>2475</ele>
        <time>2013-07-01T09:08:19Z</time>
      </trkpt>
      <trkpt lat="45.19186" lon="6.17253">
        <ele>2475</ele>
        <time>2013-07-01T09:08:24Z</time>
      </trkpt>
      <trkpt lat="45.19189" lon="6.17256">
        <ele>2475</ele>
        <time>2013-07-01T09:08:29Z</time>
      </trkpt>
      <trkpt lat="45.19192" lon="6.17258">
        <ele>2475</ele>
        <time>2013-07-01T09:08:34Z</time>
      </trkpt>
      <trkpt lat="45.19196" lon="6.17261">
        <ele>2475</ele>
        <time>2013-07-01T09:08:39Z</time>
      </trkpt>
      <trkpt lat="45.19199" lon="6.17265">
        <ele>2475</ele>
        <time>2013-07-01T09:08:44Z</time>
      </trkpt>
      <trkpt lat="45.19198" lon="6.17265">
        <ele>2468</ele>
        <time>2013-07-01T09:12:49Z</time>
      </trkpt>
      <trkpt lat="45.19202" lon="6.17268">
        <ele>2469</ele>
        <time>2013-07-01T09:12:54Z</time>
      </trkpt>
      <trkpt lat="45.19205" lon="6.17272">
        <ele>2469</ele>
        <time>2013-07-01T09:12:59Z</time>
      </trkpt>
      <trkpt lat="45.19208" lon="6.17274">
        <ele>2470</ele>
        <time>2013-07-01T09:13:04Z</time>
      </trkpt>
      <trkpt lat="45.19207" lon="6.17273">
        <ele>2470</ele>
        <time>2013-07-01T09:13:09Z</time>
      </trkpt>
      <trkpt lat="45.19209" lon="6.17273">
        <ele>2469</ele>
        <time>2013-07-01T09:13:14Z</time>
      </trkpt>
      <trkpt lat="45.19211" lon="6.17277">
        <ele>2469</ele>
        <time>2013-07-01T09:13:19Z</time>
      </trkpt>
      <trkpt lat="45.19215" lon="6.17283">
        <ele>2470</ele>
        <time>2013-07-01T09:13:24Z</time>
      </trkpt>
      <trkpt lat="45.19219" lon="6.17286">
        <ele>2471</ele>
        <time>2013-07-01T09:13:29Z</time>
      </trkpt>
      <trkpt lat="45.19222" lon="6.17287">
        <ele>2472</ele>
        <time>2013-07-01T09:13:34Z</time>
      </trkpt>
      <trkpt lat="45.19227" lon="6.1729">
        <ele>2472</ele>
        <time>2013-07-01T09:13:39Z</time>
      </trkpt>
      <trkpt lat="45.19231" lon="6.17293">
        <ele>2474</ele>
        <time>2013-07-01T09:13:44Z</time>
      </trkpt>
      <trkpt lat="45.19235" lon="6.17294">
        <ele>2474</ele>
        <time>2013-07-01T09:13:49Z</time>
      </trkpt>
      <trkpt lat="45.19239" lon="6.17296">
        <ele>2474</ele>
        <time>2013-07-01T09:13:54Z</time>
      </trkpt>
      <trkpt lat="45.19244" lon="6.17298">
        <ele>2474</ele>
        <time>2013-07-01T09:13:59Z</time>
      </trkpt>
      <trkpt lat="45.19248" lon="6.17298">
        <ele>2474</ele>
        <time>2013-07-01T09:14:04Z</time>
      </trkpt>
      <trkpt lat="45.19252" lon="6.17298">
        <ele>2475</ele>
        <time>2013-07-01T09:14:09Z</time>
      </trkpt>
      <trkpt lat="45.19256" lon="6.173">
        <ele>2475</ele>
        <time>2013-07-01T09:14:14Z</time>
      </trkpt>
      <trkpt lat="45.1926" lon="6.17302">
        <ele>2475</ele>
        <time>2013-07-01T09:14:19Z</time>
      </trkpt>
      <trkpt lat="45.19265" lon="6.17305">
        <ele>2475</ele>
        <time>2013-07-01T09:14:24Z</time>
      </trkpt>
      <trkpt lat="45.19269" lon="6.17307">
        <ele>2475</ele>
        <time>2013-07-01T09:14:29Z</time>
      </trkpt>
      <trkpt lat="45.19273" lon="6.17309">
        <ele>2475</ele>
        <time>2013-07-01T09:14:34Z</time>
      </trkpt>
      <trkpt lat="45.19277" lon="6.17313">
        <ele>2476</ele>
        <time>2013-07-01T09:14:39Z</time>
      </trkpt>
      <trkpt lat="45.1928" lon="6.17313">
        <ele>2476</ele>
        <time>2013-07-01T09:14:44Z</time>
      </trkpt>
      <trkpt lat="45.19284" lon="6.17315">
        <ele>2476</ele>
        <time>2013-07-01T09:14:49Z</time>
      </trkpt>
      <trkpt lat="45.19288" lon="6.17317">
        <ele>2477</ele>
        <time>2013-07-01T09:14:54Z</time>
      </trkpt>
      <trkpt lat="45.19291" lon="6.17317">
        <ele>2477</ele>
        <time>2013-07-01T09:14:59Z</time>
      </trkpt>
      <trkpt lat="45.19294" lon="6.17317">
        <ele>2478</ele>
        <time>2013-07-01T09:15:04Z</time>
      </trkpt>
      <trkpt lat="45.19297" lon="6.17318">
        <ele>2478</ele>
        <time>2013-07-01T09:15:09Z</time>
      </trkpt>
      <trkpt lat="45.19301" lon="6.1732">
        <ele>2479</ele>
        <time>2013-07-01T09:15:14Z</time>
      </trkpt>
      <trkpt lat="45.19304" lon="6.17322">
        <ele>2479</ele>
        <time>2013-07-01T09:15:19Z</time>
      </trkpt>
      <trkpt lat="45.19308" lon="6.17323">
        <ele>2480</ele>
        <time>2013-07-01T09:15:24Z</time>
      </trkpt>
      <trkpt lat="45.19312" lon="6.17325">
        <ele>2480</ele>
        <time>2013-07-01T09:15:29Z</time>
      </trkpt>
      <trkpt lat="45.19316" lon="6.17325">
        <ele>2480</ele>
        <time>2013-07-01T09:15:34Z</time>
      </trkpt>
      <trkpt lat="45.1932" lon="6.17327">
        <ele>2480</ele>
        <time>2013-07-01T09:15:39Z</time>
      </trkpt>
      <trkpt lat="45.19323" lon="6.17328">
        <ele>2480</ele>
        <time>2013-07-01T09:15:44Z</time>
      </trkpt>
      <trkpt lat="45.19328" lon="6.17329">
        <ele>2481</ele>
        <time>2013-07-01T09:15:49Z</time>
      </trkpt>
      <trkpt lat="45.19332" lon="6.17331">
        <ele>2481</ele>
        <time>2013-07-01T09:15:54Z</time>
      </trkpt>
      <trkpt lat="45.19336" lon="6.17332">
        <ele>2481</ele>
        <time>2013-07-01T09:15:59Z</time>
      </trkpt>
      <trkpt lat="45.19341" lon="6.17334">
        <ele>2481</ele>
        <time>2013-07-01T09:16:04Z</time>
      </trkpt>
      <trkpt lat="45.19346" lon="6.17336">
        <ele>2481</ele>
        <time>2013-07-01T09:16:09Z</time>
      </trkpt>
      <trkpt lat="45.19351" lon="6.17338">
        <ele>2481</ele>
        <time>2013-07-01T09:16:14Z</time>
      </trkpt>
      <trkpt lat="45.19355" lon="6.17338">
        <ele>2481</ele>
        <time>2013-07-01T09:16:19Z</time>
      </trkpt>
      <trkpt lat="45.19358" lon="6.17338">
        <ele>2482</ele>
        <time>2013-07-01T09:16:24Z</time>
      </trkpt>
      <trkpt lat="45.19361" lon="6.17339">
        <ele>2483</ele>
        <time>2013-07-01T09:16:29Z</time>
      </trkpt>
      <trkpt lat="45.19365" lon="6.17339">
        <ele>2484</ele>
        <time>2013-07-01T09:16:34Z</time>
      </trkpt>
      <trkpt lat="45.19368" lon="6.1734">
        <ele>2485</ele>
        <time>2013-07-01T09:16:39Z</time>
      </trkpt>
      <trkpt lat="45.19371" lon="6.1734">
        <ele>2485</ele>
        <time>2013-07-01T09:16:44Z</time>
      </trkpt>
      <trkpt lat="45.19375" lon="6.1734">
        <ele>2486</ele>
        <time>2013-07-01T09:16:49Z</time>
      </trkpt>
      <trkpt lat="45.19379" lon="6.17341">
        <ele>2486</ele>
        <time>2013-07-01T09:16:54Z</time>
      </trkpt>
      <trkpt lat="45.19383" lon="6.17341">
        <ele>2485</ele>
        <time>2013-07-01T09:16:59Z</time>
      </trkpt>
      <trkpt lat="45.19387" lon="6.1734">
        <ele>2483</ele>
        <time>2013-07-01T09:17:04Z</time>
      </trkpt>
      <trkpt lat="45.19391" lon="6.17342">
        <ele>2483</ele>
        <time>2013-07-01T09:17:09Z</time>
      </trkpt>
      <trkpt lat="45.19396" lon="6.17343">
        <ele>2482</ele>
        <time>2013-07-01T09:17:14Z</time>
      </trkpt>
      <trkpt lat="45.19399" lon="6.17343">
        <ele>2482</ele>
        <time>2013-07-01T09:17:19Z</time>
      </trkpt>
      <trkpt lat="45.19402" lon="6.17344">
        <ele>2482</ele>
        <time>2013-07-01T09:17:24Z</time>
      </trkpt>
      <trkpt lat="45.19406" lon="6.17345">
        <ele>2482</ele>
        <time>2013-07-01T09:17:29Z</time>
      </trkpt>
      <trkpt lat="45.1941" lon="6.17347">
        <ele>2481</ele>
        <time>2013-07-01T09:17:34Z</time>
      </trkpt>
      <trkpt lat="45.19414" lon="6.17348">
        <ele>2481</ele>
        <time>2013-07-01T09:17:39Z</time>
      </trkpt>
      <trkpt lat="45.19418" lon="6.17349">
        <ele>2481</ele>
        <time>2013-07-01T09:17:44Z</time>
      </trkpt>
      <trkpt lat="45.19422" lon="6.17351">
        <ele>2481</ele>
        <time>2013-07-01T09:17:49Z</time>
      </trkpt>
      <trkpt lat="45.19426" lon="6.17352">
        <ele>2482</ele>
        <time>2013-07-01T09:17:54Z</time>
      </trkpt>
      <trkpt lat="45.19429" lon="6.17356">
        <ele>2483</ele>
        <time>2013-07-01T09:17:59Z</time>
      </trkpt>
      <trkpt lat="45.19433" lon="6.17358">
        <ele>2482</ele>
        <time>2013-07-01T09:18:04Z</time>
      </trkpt>
      <trkpt lat="45.19437" lon="6.17359">
        <ele>2482</ele>
        <time>2013-07-01T09:18:09Z</time>
      </trkpt>
      <trkpt lat="45.19441" lon="6.17362">
        <ele>2482</ele>
        <time>2013-07-01T09:18:14Z</time>
      </trkpt>
      <trkpt lat="45.19444" lon="6.17364">
        <ele>2483</ele>
        <time>2013-07-01T09:18:19Z</time>
      </trkpt>
      <trkpt lat="45.19448" lon="6.17365">
        <ele>2483</ele>
        <time>2013-07-01T09:18:24Z</time>
      </trkpt>
      <trkpt lat="45.19451" lon="6.17366">
        <ele>2483</ele>
        <time>2013-07-01T09:18:29Z</time>
      </trkpt>
      <trkpt lat="45.19454" lon="6.17367">
        <ele>2484</ele>
        <time>2013-07-01T09:18:34Z</time>
      </trkpt>
      <trkpt lat="45.19458" lon="6.17368">
        <ele>2484</ele>
        <time>2013-07-01T09:18:39Z</time>
      </trkpt>
      <trkpt lat="45.19462" lon="6.17369">
        <ele>2485</ele>
        <time>2013-07-01T09:18:44Z</time>
      </trkpt>
      <trkpt lat="45.19466" lon="6.17369">
        <ele>2485</ele>
        <time>2013-07-01T09:18:49Z</time>
      </trkpt>
      <trkpt lat="45.19471" lon="6.1737">
        <ele>2485</ele>
        <time>2013-07-01T09:18:54Z</time>
      </trkpt>
      <trkpt lat="45.19475" lon="6.17371">
        <ele>2485</ele>
        <time>2013-07-01T09:18:59Z</time>
      </trkpt>
      <trkpt lat="45.19479" lon="6.17371">
        <ele>2485</ele>
        <time>2013-07-01T09:19:04Z</time>
      </trkpt>
      <trkpt lat="45.19484" lon="6.17372">
        <ele>2485</ele>
        <time>2013-07-01T09:19:09Z</time>
      </trkpt>
      <trkpt lat="45.19489" lon="6.17372">
        <ele>2485</ele>
        <time>2013-07-01T09:19:14Z</time>
      </trkpt>
      <trkpt lat="45.19493" lon="6.17373">
        <ele>2485</ele>
        <time>2013-07-01T09:19:19Z</time>
      </trkpt>
      <trkpt lat="45.19499" lon="6.17374">
        <ele>2484</ele>
        <time>2013-07-01T09:19:24Z</time>
      </trkpt>
      <trkpt lat="45.19504" lon="6.17374">
        <ele>2482</ele>
        <time>2013-07-01T09:19:29Z</time>
      </trkpt>
      <trkpt lat="45.19509" lon="6.17375">
        <ele>2481</ele>
        <time>2013-07-01T09:19:34Z</time>
      </trkpt>
      <trkpt lat="45.19515" lon="6.17376">
        <ele>2479</ele>
        <time>2013-07-01T09:19:39Z</time>
      </trkpt>
      <trkpt lat="45.1952" lon="6.17377">
        <ele>2478</ele>
        <time>2013-07-01T09:19:44Z</time>
      </trkpt>
      <trkpt lat="45.19522" lon="6.17379">
        <ele>2478</ele>
        <time>2013-07-01T09:19:49Z</time>
      </trkpt>
      <trkpt lat="45.19522" lon="6.17379">
        <ele>2477</ele>
        <time>2013-07-01T09:19:54Z</time>
      </trkpt>
      <trkpt lat="45.19522" lon="6.17379">
        <ele>2477</ele>
        <time>2013-07-01T09:19:59Z</time>
      </trkpt>
      <trkpt lat="45.19523" lon="6.17379">
        <ele>2477</ele>
        <time>2013-07-01T09:20:04Z</time>
      </trkpt>
      <trkpt lat="45.19523" lon="6.1738">
        <ele>2477</ele>
        <time>2013-07-01T09:20:09Z</time>
      </trkpt>
      <trkpt lat="45.19523" lon="6.1738">
        <ele>2477</ele>
        <time>2013-07-01T09:20:14Z</time>
      </trkpt>
      <trkpt lat="45.19523" lon="6.1738">
        <ele>2478</ele>
        <time>2013-07-01T09:20:19Z</time>
      </trkpt>
      <trkpt lat="45.19526" lon="6.1738">
        <ele>2478</ele>
        <time>2013-07-01T09:20:24Z</time>
      </trkpt>
      <trkpt lat="45.19529" lon="6.17385">
        <ele>2477</ele>
        <time>2013-07-01T09:20:29Z</time>
      </trkpt>
      <trkpt lat="45.19534" lon="6.17392">
        <ele>2476</ele>
        <time>2013-07-01T09:20:34Z</time>
      </trkpt>
      <trkpt lat="45.19535" lon="6.17401">
        <ele>2477</ele>
        <time>2013-07-01T09:20:39Z</time>
      </trkpt>
      <trkpt lat="45.19537" lon="6.17405">
        <ele>2477</ele>
        <time>2013-07-01T09:20:44Z</time>
      </trkpt>
      <trkpt lat="45.19539" lon="6.17412">
        <ele>2477</ele>
        <time>2013-07-01T09:20:49Z</time>
      </trkpt>
      <trkpt lat="45.19542" lon="6.17419">
        <ele>2477</ele>
        <time>2013-07-01T09:20:54Z</time>
      </trkpt>
      <trkpt lat="45.19545" lon="6.17425">
        <ele>2477</ele>
        <time>2013-07-01T09:20:59Z</time>
      </trkpt>
      <trkpt lat="45.19546" lon="6.17432">
        <ele>2478</ele>
        <time>2013-07-01T09:21:04Z</time>
      </trkpt>
      <trkpt lat="45.19548" lon="6.17439">
        <ele>2477</ele>
        <time>2013-07-01T09:21:09Z</time>
      </trkpt>
      <trkpt lat="45.19551" lon="6.17445">
        <ele>2477</ele>
        <time>2013-07-01T09:21:14Z</time>
      </trkpt>
      <trkpt lat="45.19553" lon="6.17452">
        <ele>2477</ele>
        <time>2013-07-01T09:21:19Z</time>
      </trkpt>
      <trkpt lat="45.19555" lon="6.17458">
        <ele>2477</ele>
        <time>2013-07-01T09:21:24Z</time>
      </trkpt>
      <trkpt lat="45.19557" lon="6.17465">
        <ele>2478</ele>
        <time>2013-07-01T09:21:29Z</time>
      </trkpt>
      <trkpt lat="45.19559" lon="6.17473">
        <ele>2478</ele>
        <time>2013-07-01T09:21:34Z</time>
      </trkpt>
      <trkpt lat="45.1956" lon="6.1748">
        <ele>2478</ele>
        <time>2013-07-01T09:21:39Z</time>
      </trkpt>
      <trkpt lat="45.19562" lon="6.17487">
        <ele>2478</ele>
        <time>2013-07-01T09:21:44Z</time>
      </trkpt>
      <trkpt lat="45.19564" lon="6.17494">
        <ele>2478</ele>
        <time>2013-07-01T09:21:49Z</time>
      </trkpt>
      <trkpt lat="45.19566" lon="6.175">
        <ele>2478</ele>
        <time>2013-07-01T09:21:54Z</time>
      </trkpt>
      <trkpt lat="45.19569" lon="6.17504">
        <ele>2479</ele>
        <time>2013-07-01T09:21:59Z</time>
      </trkpt>
      <trkpt lat="45.19572" lon="6.17509">
        <ele>2480</ele>
        <time>2013-07-01T09:22:04Z</time>
      </trkpt>
      <trkpt lat="45.19573" lon="6.17514">
        <ele>2480</ele>
        <time>2013-07-01T09:22:09Z</time>
      </trkpt>
      <trkpt lat="45.19575" lon="6.17518">
        <ele>2481</ele>
        <time>2013-07-01T09:22:14Z</time>
      </trkpt>
      <trkpt lat="45.19577" lon="6.17521">
        <ele>2481</ele>
        <time>2013-07-01T09:22:19Z</time>
      </trkpt>
      <trkpt lat="45.19579" lon="6.17524">
        <ele>2481</ele>
        <time>2013-07-01T09:22:24Z</time>
      </trkpt>
      <trkpt lat="45.19582" lon="6.17522">
        <ele>2482</ele>
        <time>2013-07-01T09:22:29Z</time>
      </trkpt>
      <trkpt lat="45.19586" lon="6.1752">
        <ele>2482</ele>
        <time>2013-07-01T09:22:34Z</time>
      </trkpt>
      <trkpt lat="45.1959" lon="6.17517">
        <ele>2482</ele>
        <time>2013-07-01T09:22:39Z</time>
      </trkpt>
      <trkpt lat="45.19596" lon="6.17515">
        <ele>2482</ele>
        <time>2013-07-01T09:22:44Z</time>
      </trkpt>
      <trkpt lat="45.19601" lon="6.17516">
        <ele>2481</ele>
        <time>2013-07-01T09:22:49Z</time>
      </trkpt>
      <trkpt lat="45.19607" lon="6.17517">
        <ele>2481</ele>
        <time>2013-07-01T09:22:54Z</time>
      </trkpt>
      <trkpt lat="45.19613" lon="6.17516">
        <ele>2481</ele>
        <time>2013-07-01T09:22:59Z</time>
      </trkpt>
      <trkpt lat="45.19619" lon="6.17516">
        <ele>2480</ele>
        <time>2013-07-01T09:23:04Z</time>
      </trkpt>
      <trkpt lat="45.19626" lon="6.17517">
        <ele>2479</ele>
        <time>2013-07-01T09:23:09Z</time>
      </trkpt>
      <trkpt lat="45.19632" lon="6.1752">
        <ele>2479</ele>
        <time>2013-07-01T09:23:14Z</time>
      </trkpt>
      <trkpt lat="45.19634" lon="6.17525">
        <ele>2479</ele>
        <time>2013-07-01T09:23:19Z</time>
      </trkpt>
      <trkpt lat="45.19639" lon="6.17529">
        <ele>2480</ele>
        <time>2013-07-01T09:23:24Z</time>
      </trkpt>
      <trkpt lat="45.19644" lon="6.17533">
        <ele>2479</ele>
        <time>2013-07-01T09:23:29Z</time>
      </trkpt>
      <trkpt lat="45.19647" lon="6.17538">
        <ele>2480</ele>
        <time>2013-07-01T09:23:34Z</time>
      </trkpt>
      <trkpt lat="45.19651" lon="6.17543">
        <ele>2480</ele>
        <time>2013-07-01T09:23:39Z</time>
      </trkpt>
      <trkpt lat="45.19654" lon="6.17547">
        <ele>2481</ele>
        <time>2013-07-01T09:23:44Z</time>
      </trkpt>
      <trkpt lat="45.19658" lon="6.17552">
        <ele>2481</ele>
        <time>2013-07-01T09:23:49Z</time>
      </trkpt>
      <trkpt lat="45.19662" lon="6.17557">
        <ele>2481</ele>
        <time>2013-07-01T09:23:54Z</time>
      </trkpt>
      <trkpt lat="45.19666" lon="6.1756">
        <ele>2481</ele>
        <time>2013-07-01T09:23:59Z</time>
      </trkpt>
      <trkpt lat="45.1967" lon="6.17564">
        <ele>2481</ele>
        <time>2013-07-01T09:24:04Z</time>
      </trkpt>
      <trkpt lat="45.19674" lon="6.17567">
        <ele>2481</ele>
        <time>2013-07-01T09:24:09Z</time>
      </trkpt>
      <trkpt lat="45.19676" lon="6.17571">
        <ele>2482</ele>
        <time>2013-07-01T09:24:14Z</time>
      </trkpt>
      <trkpt lat="45.19678" lon="6.17574">
        <ele>2483</ele>
        <time>2013-07-01T09:24:19Z</time>
      </trkpt>
      <trkpt lat="45.19681" lon="6.17578">
        <ele>2483</ele>
        <time>2013-07-01T09:24:24Z</time>
      </trkpt>
      <trkpt lat="45.19684" lon="6.17581">
        <ele>2483</ele>
        <time>2013-07-01T09:24:29Z</time>
      </trkpt>
      <trkpt lat="45.19687" lon="6.17585">
        <ele>2482</ele>
        <time>2013-07-01T09:24:34Z</time>
      </trkpt>
      <trkpt lat="45.1969" lon="6.17588">
        <ele>2481</ele>
        <time>2013-07-01T09:24:39Z</time>
      </trkpt>
      <trkpt lat="45.19694" lon="6.17591">
        <ele>2481</ele>
        <time>2013-07-01T09:24:44Z</time>
      </trkpt>
      <trkpt lat="45.19698" lon="6.17594">
        <ele>2481</ele>
        <time>2013-07-01T09:24:49Z</time>
      </trkpt>
      <trkpt lat="45.19702" lon="6.17597">
        <ele>2481</ele>
        <time>2013-07-01T09:24:54Z</time>
      </trkpt>
      <trkpt lat="45.19706" lon="6.17601">
        <ele>2481</ele>
        <time>2013-07-01T09:24:59Z</time>
      </trkpt>
      <trkpt lat="45.19709" lon="6.17604">
        <ele>2480</ele>
        <time>2013-07-01T09:25:04Z</time>
      </trkpt>
      <trkpt lat="45.19713" lon="6.17608">
        <ele>2480</ele>
        <time>2013-07-01T09:25:09Z</time>
      </trkpt>
      <trkpt lat="45.19717" lon="6.17611">
        <ele>2479</ele>
        <time>2013-07-01T09:25:14Z</time>
      </trkpt>
      <trkpt lat="45.19721" lon="6.17614">
        <ele>2479</ele>
        <time>2013-07-01T09:25:19Z</time>
      </trkpt>
      <trkpt lat="45.19725" lon="6.17617">
        <ele>2478</ele>
        <time>2013-07-01T09:25:24Z</time>
      </trkpt>
      <trkpt lat="45.19729" lon="6.17619">
        <ele>2478</ele>
        <time>2013-07-01T09:25:29Z</time>
      </trkpt>
      <trkpt lat="45.19733" lon="6.17623">
        <ele>2477</ele>
        <time>2013-07-01T09:25:34Z</time>
      </trkpt>
      <trkpt lat="45.19736" lon="6.17626">
        <ele>2477</ele>
        <time>2013-07-01T09:25:39Z</time>
      </trkpt>
      <trkpt lat="45.19739" lon="6.1763">
        <ele>2478</ele>
        <time>2013-07-01T09:25:44Z</time>
      </trkpt>
      <trkpt lat="45.19742" lon="6.17633">
        <ele>2478</ele>
        <time>2013-07-01T09:25:49Z</time>
      </trkpt>
      <trkpt lat="45.19746" lon="6.17635">
        <ele>2478</ele>
        <time>2013-07-01T09:25:54Z</time>
      </trkpt>
      <trkpt lat="45.19749" lon="6.17639">
        <ele>2478</ele>
        <time>2013-07-01T09:25:59Z</time>
      </trkpt>
      <trkpt lat="45.19751" lon="6.17642">
        <ele>2479</ele>
        <time>2013-07-01T09:26:04Z</time>
      </trkpt>
      <trkpt lat="45.19755" lon="6.17646">
        <ele>2479</ele>
        <time>2013-07-01T09:26:09Z</time>
      </trkpt>
      <trkpt lat="45.19758" lon="6.1765">
        <ele>2480</ele>
        <time>2013-07-01T09:26:14Z</time>
      </trkpt>
      <trkpt lat="45.19761" lon="6.17653">
        <ele>2480</ele>
        <time>2013-07-01T09:26:19Z</time>
      </trkpt>
      <trkpt lat="45.19763" lon="6.17656">
        <ele>2480</ele>
        <time>2013-07-01T09:26:24Z</time>
      </trkpt>
      <trkpt lat="45.19766" lon="6.17659">
        <ele>2481</ele>
        <time>2013-07-01T09:26:29Z</time>
      </trkpt>
      <trkpt lat="45.19769" lon="6.17662">
        <ele>2480</ele>
        <time>2013-07-01T09:26:34Z</time>
      </trkpt>
      <trkpt lat="45.19772" lon="6.17664">
        <ele>2480</ele>
        <time>2013-07-01T09:26:39Z</time>
      </trkpt>
      <trkpt lat="45.19775" lon="6.17667">
        <ele>2480</ele>
        <time>2013-07-01T09:26:44Z</time>
      </trkpt>
      <trkpt lat="45.19777" lon="6.1767">
        <ele>2481</ele>
        <time>2013-07-01T09:26:49Z</time>
      </trkpt>
      <trkpt lat="45.1978" lon="6.17673">
        <ele>2481</ele>
        <time>2013-07-01T09:26:54Z</time>
      </trkpt>
      <trkpt lat="45.19783" lon="6.17677">
        <ele>2481</ele>
        <time>2013-07-01T09:26:59Z</time>
      </trkpt>
      <trkpt lat="45.19785" lon="6.1768">
        <ele>2481</ele>
        <time>2013-07-01T09:27:04Z</time>
      </trkpt>
      <trkpt lat="45.19787" lon="6.17683">
        <ele>2481</ele>
        <time>2013-07-01T09:27:09Z</time>
      </trkpt>
      <trkpt lat="45.1979" lon="6.17685">
        <ele>2481</ele>
        <time>2013-07-01T09:27:14Z</time>
      </trkpt>
      <trkpt lat="45.19793" lon="6.17687">
        <ele>2480</ele>
        <time>2013-07-01T09:27:19Z</time>
      </trkpt>
      <trkpt lat="45.19796" lon="6.17691">
        <ele>2479</ele>
        <time>2013-07-01T09:27:24Z</time>
      </trkpt>
      <trkpt lat="45.19799" lon="6.17694">
        <ele>2480</ele>
        <time>2013-07-01T09:27:29Z</time>
      </trkpt>
      <trkpt lat="45.19801" lon="6.17697">
        <ele>2480</ele>
        <time>2013-07-01T09:27:34Z</time>
      </trkpt>
      <trkpt lat="45.19802" lon="6.177">
        <ele>2481</ele>
        <time>2013-07-01T09:27:39Z</time>
      </trkpt>
      <trkpt lat="45.19804" lon="6.17702">
        <ele>2481</ele>
        <time>2013-07-01T09:27:44Z</time>
      </trkpt>
      <trkpt lat="45.19806" lon="6.17705">
        <ele>2481</ele>
        <time>2013-07-01T09:27:49Z</time>
      </trkpt>
      <trkpt lat="45.19808" lon="6.1771">
        <ele>2480</ele>
        <time>2013-07-01T09:27:54Z</time>
      </trkpt>
      <trkpt lat="45.19811" lon="6.17714">
        <ele>2479</ele>
        <time>2013-07-01T09:27:59Z</time>
      </trkpt>
      <trkpt lat="45.19815" lon="6.17718">
        <ele>2479</ele>
        <time>2013-07-01T09:28:04Z</time>
      </trkpt>
      <trkpt lat="45.19818" lon="6.17721">
        <ele>2479</ele>
        <time>2013-07-01T09:28:09Z</time>
      </trkpt>
      <trkpt lat="45.1982" lon="6.17725">
        <ele>2478</ele>
        <time>2013-07-01T09:28:14Z</time>
      </trkpt>
      <trkpt lat="45.19822" lon="6.17728">
        <ele>2478</ele>
        <time>2013-07-01T09:28:19Z</time>
      </trkpt>
      <trkpt lat="45.19825" lon="6.17733">
        <ele>2479</ele>
        <time>2013-07-01T09:28:24Z</time>
      </trkpt>
      <trkpt lat="45.19828" lon="6.17735">
        <ele>2479</ele>
        <time>2013-07-01T09:28:29Z</time>
      </trkpt>
      <trkpt lat="45.19832" lon="6.17739">
        <ele>2479</ele>
        <time>2013-07-01T09:28:34Z</time>
      </trkpt>
      <trkpt lat="45.19834" lon="6.17742">
        <ele>2479</ele>
        <time>2013-07-01T09:28:39Z</time>
      </trkpt>
      <trkpt lat="45.19837" lon="6.17746">
        <ele>2480</ele>
        <time>2013-07-01T09:28:44Z</time>
      </trkpt>
      <trkpt lat="45.1984" lon="6.17751">
        <ele>2480</ele>
        <time>2013-07-01T09:28:49Z</time>
      </trkpt>
      <trkpt lat="45.19843" lon="6.17754">
        <ele>2480</ele>
        <time>2013-07-01T09:28:54Z</time>
      </trkpt>
      <trkpt lat="45.19847" lon="6.17756">
        <ele>2480</ele>
        <time>2013-07-01T09:28:59Z</time>
      </trkpt>
      <trkpt lat="45.19849" lon="6.17759">
        <ele>2479</ele>
        <time>2013-07-01T09:29:04Z</time>
      </trkpt>
      <trkpt lat="45.19853" lon="6.17763">
        <ele>2479</ele>
        <time>2013-07-01T09:29:09Z</time>
      </trkpt>
      <trkpt lat="45.19855" lon="6.17766">
        <ele>2480</ele>
        <time>2013-07-01T09:29:14Z</time>
      </trkpt>
      <trkpt lat="45.19858" lon="6.17769">
        <ele>2479</ele>
        <time>2013-07-01T09:29:19Z</time>
      </trkpt>
      <trkpt lat="45.19861" lon="6.17772">
        <ele>2480</ele>
        <time>2013-07-01T09:29:24Z</time>
      </trkpt>
      <trkpt lat="45.19864" lon="6.17776">
        <ele>2480</ele>
        <time>2013-07-01T09:29:29Z</time>
      </trkpt>
      <trkpt lat="45.19866" lon="6.1778">
        <ele>2480</ele>
        <time>2013-07-01T09:29:34Z</time>
      </trkpt>
      <trkpt lat="45.1987" lon="6.17783">
        <ele>2480</ele>
        <time>2013-07-01T09:29:39Z</time>
      </trkpt>
      <trkpt lat="45.19873" lon="6.17786">
        <ele>2481</ele>
        <time>2013-07-01T09:29:44Z</time>
      </trkpt>
      <trkpt lat="45.19877" lon="6.17788">
        <ele>2481</ele>
        <time>2013-07-01T09:29:49Z</time>
      </trkpt>
      <trkpt lat="45.19881" lon="6.17792">
        <ele>2482</ele>
        <time>2013-07-01T09:29:54Z</time>
      </trkpt>
      <trkpt lat="45.19885" lon="6.17794">
        <ele>2482</ele>
        <time>2013-07-01T09:29:59Z</time>
      </trkpt>
      <trkpt lat="45.1989" lon="6.17796">
        <ele>2481</ele>
        <time>2013-07-01T09:30:04Z</time>
      </trkpt>
      <trkpt lat="45.19893" lon="6.17798">
        <ele>2481</ele>
        <time>2013-07-01T09:30:09Z</time>
      </trkpt>
      <trkpt lat="45.19897" lon="6.17801">
        <ele>2480</ele>
        <time>2013-07-01T09:30:14Z</time>
      </trkpt>
      <trkpt lat="45.19901" lon="6.17803">
        <ele>2480</ele>
        <time>2013-07-01T09:30:19Z</time>
      </trkpt>
      <trkpt lat="45.19904" lon="6.17806">
        <ele>2480</ele>
        <time>2013-07-01T09:30:24Z</time>
      </trkpt>
      <trkpt lat="45.19908" lon="6.17808">
        <ele>2481</ele>
        <time>2013-07-01T09:30:29Z</time>
      </trkpt>
      <trkpt lat="45.19911" lon="6.1781">
        <ele>2481</ele>
        <time>2013-07-01T09:30:34Z</time>
      </trkpt>
      <trkpt lat="45.19914" lon="6.17812">
        <ele>2480</ele>
        <time>2013-07-01T09:30:39Z</time>
      </trkpt>
      <trkpt lat="45.19917" lon="6.17814">
        <ele>2481</ele>
        <time>2013-07-01T09:30:44Z</time>
      </trkpt>
      <trkpt lat="45.19921" lon="6.17816">
        <ele>2480</ele>
        <time>2013-07-01T09:30:49Z</time>
      </trkpt>
      <trkpt lat="45.19924" lon="6.17818">
        <ele>2480</ele>
        <time>2013-07-01T09:30:54Z</time>
      </trkpt>
      <trkpt lat="45.19928" lon="6.17821">
        <ele>2480</ele>
        <time>2013-07-01T09:30:59Z</time>
      </trkpt>
      <trkpt lat="45.1993" lon="6.17823">
        <ele>2481</ele>
        <time>2013-07-01T09:31:04Z</time>
      </trkpt>
      <trkpt lat="45.19933" lon="6.17825">
        <ele>2481</ele>
        <time>2013-07-01T09:31:09Z</time>
      </trkpt>
      <trkpt lat="45.19936" lon="6.17826">
        <ele>2482</ele>
        <time>2013-07-01T09:31:14Z</time>
      </trkpt>
      <trkpt lat="45.19939" lon="6.17828">
        <ele>2482</ele>
        <time>2013-07-01T09:31:19Z</time>
      </trkpt>
      <trkpt lat="45.19941" lon="6.1783">
        <ele>2482</ele>
        <time>2013-07-01T09:31:24Z</time>
      </trkpt>
      <trkpt lat="45.19944" lon="6.17832">
        <ele>2483</ele>
        <time>2013-07-01T09:31:29Z</time>
      </trkpt>
      <trkpt lat="45.19946" lon="6.17834">
        <ele>2483</ele>
        <time>2013-07-01T09:31:34Z</time>
      </trkpt>
      <trkpt lat="45.19949" lon="6.17836">
        <ele>2484</ele>
        <time>2013-07-01T09:31:39Z</time>
      </trkpt>
      <trkpt lat="45.19951" lon="6.17837">
        <ele>2484</ele>
        <time>2013-07-01T09:31:44Z</time>
      </trkpt>
      <trkpt lat="45.19953" lon="6.17839">
        <ele>2484</ele>
        <time>2013-07-01T09:31:49Z</time>
      </trkpt>
      <trkpt lat="45.19953" lon="6.17838">
        <ele>2484</ele>
        <time>2013-07-01T09:31:54Z</time>
      </trkpt>
      <trkpt lat="45.19954" lon="6.17838">
        <ele>2484</ele>
        <time>2013-07-01T09:31:59Z</time>
      </trkpt>
      <trkpt lat="45.19955" lon="6.17839">
        <ele>2485</ele>
        <time>2013-07-01T09:32:04Z</time>
      </trkpt>
      <trkpt lat="45.19957" lon="6.17841">
        <ele>2486</ele>
        <time>2013-07-01T09:32:09Z</time>
      </trkpt>
      <trkpt lat="45.19961" lon="6.17843">
        <ele>2487</ele>
        <time>2013-07-01T09:32:14Z</time>
      </trkpt>
      <trkpt lat="45.19964" lon="6.17846">
        <ele>2489</ele>
        <time>2013-07-01T09:32:19Z</time>
      </trkpt>
      <trkpt lat="45.19966" lon="6.17848">
        <ele>2489</ele>
        <time>2013-07-01T09:32:24Z</time>
      </trkpt>
      <trkpt lat="45.19968" lon="6.17849">
        <ele>2489</ele>
        <time>2013-07-01T09:32:29Z</time>
      </trkpt>
      <trkpt lat="45.19972" lon="6.17849">
        <ele>2488</ele>
        <time>2013-07-01T09:32:34Z</time>
      </trkpt>
      <trkpt lat="45.19975" lon="6.1785">
        <ele>2489</ele>
        <time>2013-07-01T09:32:39Z</time>
      </trkpt>
      <trkpt lat="45.19979" lon="6.17852">
        <ele>2489</ele>
        <time>2013-07-01T09:32:44Z</time>
      </trkpt>
      <trkpt lat="45.19985" lon="6.17854">
        <ele>2490</ele>
        <time>2013-07-01T09:32:49Z</time>
      </trkpt>
      <trkpt lat="45.19988" lon="6.17856">
        <ele>2490</ele>
        <time>2013-07-01T09:32:54Z</time>
      </trkpt>
      <trkpt lat="45.19992" lon="6.17859">
        <ele>2491</ele>
        <time>2013-07-01T09:32:59Z</time>
      </trkpt>
      <trkpt lat="45.19996" lon="6.17862">
        <ele>2492</ele>
        <time>2013-07-01T09:33:04Z</time>
      </trkpt>
      <trkpt lat="45.20001" lon="6.17864">
        <ele>2493</ele>
        <time>2013-07-01T09:33:09Z</time>
      </trkpt>
      <trkpt lat="45.20003" lon="6.17866">
        <ele>2493</ele>
        <time>2013-07-01T09:33:14Z</time>
      </trkpt>
      <trkpt lat="45.20006" lon="6.17867">
        <ele>2494</ele>
        <time>2013-07-01T09:33:19Z</time>
      </trkpt>
      <trkpt lat="45.20009" lon="6.17869">
        <ele>2494</ele>
        <time>2013-07-01T09:33:24Z</time>
      </trkpt>
      <trkpt lat="45.20012" lon="6.1787">
        <ele>2494</ele>
        <time>2013-07-01T09:33:29Z</time>
      </trkpt>
      <trkpt lat="45.20015" lon="6.17872">
        <ele>2493</ele>
        <time>2013-07-01T09:33:34Z</time>
      </trkpt>
      <trkpt lat="45.20019" lon="6.17874">
        <ele>2494</ele>
        <time>2013-07-01T09:33:39Z</time>
      </trkpt>
      <trkpt lat="45.20021" lon="6.17875">
        <ele>2494</ele>
        <time>2013-07-01T09:33:44Z</time>
      </trkpt>
      <trkpt lat="45.20026" lon="6.17876">
        <ele>2495</ele>
        <time>2013-07-01T09:33:49Z</time>
      </trkpt>
      <trkpt lat="45.2003" lon="6.1788">
        <ele>2497</ele>
        <time>2013-07-01T09:33:54Z</time>
      </trkpt>
      <trkpt lat="45.20033" lon="6.17882">
        <ele>2498</ele>
        <time>2013-07-01T09:33:59Z</time>
      </trkpt>
      <trkpt lat="45.20036" lon="6.17883">
        <ele>2499</ele>
        <time>2013-07-01T09:34:04Z</time>
      </trkpt>
      <trkpt lat="45.2004" lon="6.17885">
        <ele>2500</ele>
        <time>2013-07-01T09:34:09Z</time>
      </trkpt>
      <trkpt lat="45.20044" lon="6.17888">
        <ele>2500</ele>
        <time>2013-07-01T09:34:14Z</time>
      </trkpt>
      <trkpt lat="45.20047" lon="6.1789">
        <ele>2501</ele>
        <time>2013-07-01T09:34:19Z</time>
      </trkpt>
      <trkpt lat="45.20049" lon="6.17891">
        <ele>2501</ele>
        <time>2013-07-01T09:34:24Z</time>
      </trkpt>
      <trkpt lat="45.2005" lon="6.17892">
        <ele>2501</ele>
        <time>2013-07-01T09:34:29Z</time>
      </trkpt>
      <trkpt lat="45.2005" lon="6.17892">
        <ele>2502</ele>
        <time>2013-07-01T09:34:34Z</time>
      </trkpt>
      <trkpt lat="45.20049" lon="6.17891">
        <ele>2503</ele>
        <time>2013-07-01T09:34:39Z</time>
      </trkpt>
      <trkpt lat="45.20047" lon="6.17891">
        <ele>2503</ele>
        <time>2013-07-01T09:34:44Z</time>
      </trkpt>
      <trkpt lat="45.20047" lon="6.1789">
        <ele>2503</ele>
        <time>2013-07-01T09:34:49Z</time>
      </trkpt>
      <trkpt lat="45.20047" lon="6.17889">
        <ele>2504</ele>
        <time>2013-07-01T09:34:54Z</time>
      </trkpt>
      <trkpt lat="45.20047" lon="6.17889">
        <ele>2504</ele>
        <time>2013-07-01T09:34:59Z</time>
      </trkpt>
      <trkpt lat="45.20048" lon="6.17889">
        <ele>2505</ele>
        <time>2013-07-01T09:35:04Z</time>
      </trkpt>
      <trkpt lat="45.20049" lon="6.1789">
        <ele>2506</ele>
        <time>2013-07-01T09:35:09Z</time>
      </trkpt>
      <trkpt lat="45.20052" lon="6.17891">
        <ele>2506</ele>
        <time>2013-07-01T09:35:14Z</time>
      </trkpt>
      <trkpt lat="45.20055" lon="6.17893">
        <ele>2505</ele>
        <time>2013-07-01T09:35:19Z</time>
      </trkpt>
      <trkpt lat="45.20058" lon="6.17895">
        <ele>2506</ele>
        <time>2013-07-01T09:35:24Z</time>
      </trkpt>
      <trkpt lat="45.2006" lon="6.17897">
        <ele>2506</ele>
        <time>2013-07-01T09:35:29Z</time>
      </trkpt>
      <trkpt lat="45.20063" lon="6.17899">
        <ele>2506</ele>
        <time>2013-07-01T09:35:34Z</time>
      </trkpt>
      <trkpt lat="45.20066" lon="6.17902">
        <ele>2507</ele>
        <time>2013-07-01T09:35:39Z</time>
      </trkpt>
      <trkpt lat="45.20068" lon="6.17904">
        <ele>2508</ele>
        <time>2013-07-01T09:35:44Z</time>
      </trkpt>
      <trkpt lat="45.2007" lon="6.17905">
        <ele>2508</ele>
        <time>2013-07-01T09:35:49Z</time>
      </trkpt>
      <trkpt lat="45.20073" lon="6.17907">
        <ele>2508</ele>
        <time>2013-07-01T09:35:54Z</time>
      </trkpt>
      <trkpt lat="45.20075" lon="6.17909">
        <ele>2509</ele>
        <time>2013-07-01T09:35:59Z</time>
      </trkpt>
      <trkpt lat="45.20076" lon="6.17911">
        <ele>2509</ele>
        <time>2013-07-01T09:36:04Z</time>
      </trkpt>
      <trkpt lat="45.20079" lon="6.17912">
        <ele>2509</ele>
        <time>2013-07-01T09:36:09Z</time>
      </trkpt>
      <trkpt lat="45.20081" lon="6.17914">
        <ele>2510</ele>
        <time>2013-07-01T09:36:14Z</time>
      </trkpt>
      <trkpt lat="45.20083" lon="6.17915">
        <ele>2511</ele>
        <time>2013-07-01T09:36:19Z</time>
      </trkpt>
      <trkpt lat="45.20086" lon="6.17917">
        <ele>2512</ele>
        <time>2013-07-01T09:36:24Z</time>
      </trkpt>
      <trkpt lat="45.20088" lon="6.17918">
        <ele>2512</ele>
        <time>2013-07-01T09:36:29Z</time>
      </trkpt>
      <trkpt lat="45.20091" lon="6.17919">
        <ele>2512</ele>
        <time>2013-07-01T09:36:34Z</time>
      </trkpt>
      <trkpt lat="45.20093" lon="6.17921">
        <ele>2512</ele>
        <time>2013-07-01T09:36:39Z</time>
      </trkpt>
      <trkpt lat="45.20096" lon="6.17922">
        <ele>2512</ele>
        <time>2013-07-01T09:36:44Z</time>
      </trkpt>
      <trkpt lat="45.20097" lon="6.17923">
        <ele>2513</ele>
        <time>2013-07-01T09:36:49Z</time>
      </trkpt>
      <trkpt lat="45.201" lon="6.17925">
        <ele>2513</ele>
        <time>2013-07-01T09:36:54Z</time>
      </trkpt>
      <trkpt lat="45.20102" lon="6.17929">
        <ele>2512</ele>
        <time>2013-07-01T09:36:59Z</time>
      </trkpt>
      <trkpt lat="45.20105" lon="6.17927">
        <ele>2514</ele>
        <time>2013-07-01T09:37:04Z</time>
      </trkpt>
      <trkpt lat="45.20108" lon="6.17925">
        <ele>2513</ele>
        <time>2013-07-01T09:37:09Z</time>
      </trkpt>
      <trkpt lat="45.20112" lon="6.17924">
        <ele>2513</ele>
        <time>2013-07-01T09:37:14Z</time>
      </trkpt>
      <trkpt lat="45.20115" lon="6.17925">
        <ele>2512</ele>
        <time>2013-07-01T09:37:19Z</time>
      </trkpt>
      <trkpt lat="45.20119" lon="6.17926">
        <ele>2512</ele>
        <time>2013-07-01T09:37:24Z</time>
      </trkpt>
      <trkpt lat="45.20121" lon="6.17926">
        <ele>2511</ele>
        <time>2013-07-01T09:37:29Z</time>
      </trkpt>
      <trkpt lat="45.20125" lon="6.1793">
        <ele>2512</ele>
        <time>2013-07-01T09:37:34Z</time>
      </trkpt>
      <trkpt lat="45.20129" lon="6.17932">
        <ele>2513</ele>
        <time>2013-07-01T09:37:39Z</time>
      </trkpt>
      <trkpt lat="45.20133" lon="6.17933">
        <ele>2513</ele>
        <time>2013-07-01T09:37:44Z</time>
      </trkpt>
      <trkpt lat="45.20135" lon="6.17936">
        <ele>2512</ele>
        <time>2013-07-01T09:37:49Z</time>
      </trkpt>
      <trkpt lat="45.20139" lon="6.17937">
        <ele>2511</ele>
        <time>2013-07-01T09:37:54Z</time>
      </trkpt>
      <trkpt lat="45.20144" lon="6.17939">
        <ele>2511</ele>
        <time>2013-07-01T09:37:59Z</time>
      </trkpt>
      <trkpt lat="45.20148" lon="6.17939">
        <ele>2512</ele>
        <time>2013-07-01T09:38:04Z</time>
      </trkpt>
      <trkpt lat="45.20153" lon="6.17939">
        <ele>2512</ele>
        <time>2013-07-01T09:38:09Z</time>
      </trkpt>
      <trkpt lat="45.20158" lon="6.17939">
        <ele>2512</ele>
        <time>2013-07-01T09:38:14Z</time>
      </trkpt>
      <trkpt lat="45.2016" lon="6.17939">
        <ele>2511</ele>
        <time>2013-07-01T09:38:19Z</time>
      </trkpt>
      <trkpt lat="45.20162" lon="6.1794">
        <ele>2511</ele>
        <time>2013-07-01T09:38:24Z</time>
      </trkpt>
      <trkpt lat="45.20165" lon="6.17938">
        <ele>2510</ele>
        <time>2013-07-01T09:38:29Z</time>
      </trkpt>
      <trkpt lat="45.20171" lon="6.17939">
        <ele>2511</ele>
        <time>2013-07-01T09:38:34Z</time>
      </trkpt>
      <trkpt lat="45.20179" lon="6.17944">
        <ele>2513</ele>
        <time>2013-07-01T09:38:39Z</time>
      </trkpt>
      <trkpt lat="45.20186" lon="6.17947">
        <ele>2515</ele>
        <time>2013-07-01T09:38:44Z</time>
      </trkpt>
      <trkpt lat="45.20189" lon="6.17947">
        <ele>2514</ele>
        <time>2013-07-01T09:38:49Z</time>
      </trkpt>
      <trkpt lat="45.20191" lon="6.17946">
        <ele>2513</ele>
        <time>2013-07-01T09:38:54Z</time>
      </trkpt>
      <trkpt lat="45.20193" lon="6.17947">
        <ele>2513</ele>
        <time>2013-07-01T09:38:59Z</time>
      </trkpt>
      <trkpt lat="45.20197" lon="6.17949">
        <ele>2514</ele>
        <time>2013-07-01T09:39:04Z</time>
      </trkpt>
      <trkpt lat="45.20204" lon="6.17951">
        <ele>2516</ele>
        <time>2013-07-01T09:39:09Z</time>
      </trkpt>
      <trkpt lat="45.20209" lon="6.17952">
        <ele>2517</ele>
        <time>2013-07-01T09:39:14Z</time>
      </trkpt>
      <trkpt lat="45.20214" lon="6.17953">
        <ele>2518</ele>
        <time>2013-07-01T09:39:19Z</time>
      </trkpt>
      <trkpt lat="45.20221" lon="6.17957">
        <ele>2519</ele>
        <time>2013-07-01T09:39:24Z</time>
      </trkpt>
      <trkpt lat="45.20224" lon="6.17958">
        <ele>2520</ele>
        <time>2013-07-01T09:39:29Z</time>
      </trkpt>
      <trkpt lat="45.20223" lon="6.17957">
        <ele>2518</ele>
        <time>2013-07-01T09:39:34Z</time>
      </trkpt>
      <trkpt lat="45.20222" lon="6.17957">
        <ele>2515</ele>
        <time>2013-07-01T09:39:39Z</time>
      </trkpt>
      <trkpt lat="45.2022" lon="6.17957">
        <ele>2515</ele>
        <time>2013-07-01T09:39:44Z</time>
      </trkpt>
      <trkpt lat="45.20219" lon="6.17957">
        <ele>2514</ele>
        <time>2013-07-01T09:39:49Z</time>
      </trkpt>
      <trkpt lat="45.20217" lon="6.17956">
        <ele>2514</ele>
        <time>2013-07-01T09:39:54Z</time>
      </trkpt>
      <trkpt lat="45.20219" lon="6.17956">
        <ele>2514</ele>
        <time>2013-07-01T09:39:59Z</time>
      </trkpt>
      <trkpt lat="45.20221" lon="6.17957">
        <ele>2514</ele>
        <time>2013-07-01T09:40:04Z</time>
      </trkpt>
      <trkpt lat="45.20224" lon="6.17957">
        <ele>2514</ele>
        <time>2013-07-01T09:40:09Z</time>
      </trkpt>
      <trkpt lat="45.20226" lon="6.17957">
        <ele>2514</ele>
        <time>2013-07-01T09:40:14Z</time>
      </trkpt>
      <trkpt lat="45.20228" lon="6.17957">
        <ele>2514</ele>
        <time>2013-07-01T09:40:19Z</time>
      </trkpt>
      <trkpt lat="45.20231" lon="6.17956">
        <ele>2514</ele>
        <time>2013-07-01T09:40:24Z</time>
      </trkpt>
      <trkpt lat="45.20235" lon="6.17957">
        <ele>2515</ele>
        <time>2013-07-01T09:40:29Z</time>
      </trkpt>
      <trkpt lat="45.2024" lon="6.17959">
        <ele>2516</ele>
        <time>2013-07-01T09:40:34Z</time>
      </trkpt>
      <trkpt lat="45.20245" lon="6.1796">
        <ele>2517</ele>
        <time>2013-07-01T09:40:39Z</time>
      </trkpt>
      <trkpt lat="45.20251" lon="6.17961">
        <ele>2518</ele>
        <time>2013-07-01T09:40:44Z</time>
      </trkpt>
      <trkpt lat="45.20256" lon="6.1796">
        <ele>2517</ele>
        <time>2013-07-01T09:40:49Z</time>
      </trkpt>
      <trkpt lat="45.20262" lon="6.1796">
        <ele>2517</ele>
        <time>2013-07-01T09:40:54Z</time>
      </trkpt>
      <trkpt lat="45.20268" lon="6.1796">
        <ele>2517</ele>
        <time>2013-07-01T09:40:59Z</time>
      </trkpt>
      <trkpt lat="45.20272" lon="6.17961">
        <ele>2517</ele>
        <time>2013-07-01T09:41:04Z</time>
      </trkpt>
      <trkpt lat="45.20274" lon="6.17961">
        <ele>2517</ele>
        <time>2013-07-01T09:41:09Z</time>
      </trkpt>
      <trkpt lat="45.20276" lon="6.1796">
        <ele>2517</ele>
        <time>2013-07-01T09:41:14Z</time>
      </trkpt>
      <trkpt lat="45.20276" lon="6.17958">
        <ele>2516</ele>
        <time>2013-07-01T09:41:19Z</time>
      </trkpt>
      <trkpt lat="45.2028" lon="6.17958">
        <ele>2517</ele>
        <time>2013-07-01T09:41:24Z</time>
      </trkpt>
      <trkpt lat="45.20282" lon="6.1796">
        <ele>2518</ele>
        <time>2013-07-01T09:41:29Z</time>
      </trkpt>
      <trkpt lat="45.20283" lon="6.17961">
        <ele>2519</ele>
        <time>2013-07-01T09:41:34Z</time>
      </trkpt>
      <trkpt lat="45.20285" lon="6.17963">
        <ele>2520</ele>
        <time>2013-07-01T09:41:39Z</time>
      </trkpt>
      <trkpt lat="45.20287" lon="6.17965">
        <ele>2521</ele>
        <time>2013-07-01T09:41:44Z</time>
      </trkpt>
      <trkpt lat="45.2029" lon="6.17967">
        <ele>2522</ele>
        <time>2013-07-01T09:41:49Z</time>
      </trkpt>
      <trkpt lat="45.20292" lon="6.1797">
        <ele>2524</ele>
        <time>2013-07-01T09:41:54Z</time>
      </trkpt>
      <trkpt lat="45.20295" lon="6.17973">
        <ele>2526</ele>
        <time>2013-07-01T09:41:59Z</time>
      </trkpt>
      <trkpt lat="45.20297" lon="6.17975">
        <ele>2527</ele>
        <time>2013-07-01T09:42:04Z</time>
      </trkpt>
      <trkpt lat="45.20296" lon="6.17974">
        <ele>2526</ele>
        <time>2013-07-01T09:42:09Z</time>
      </trkpt>
      <trkpt lat="45.20298" lon="6.17973">
        <ele>2525</ele>
        <time>2013-07-01T09:42:14Z</time>
      </trkpt>
      <trkpt lat="45.203" lon="6.1797">
        <ele>2524</ele>
        <time>2013-07-01T09:42:19Z</time>
      </trkpt>
      <trkpt lat="45.20303" lon="6.17968">
        <ele>2523</ele>
        <time>2013-07-01T09:42:24Z</time>
      </trkpt>
      <trkpt lat="45.20308" lon="6.17969">
        <ele>2524</ele>
        <time>2013-07-01T09:42:29Z</time>
      </trkpt>
      <trkpt lat="45.2031" lon="6.1797">
        <ele>2526</ele>
        <time>2013-07-01T09:42:34Z</time>
      </trkpt>
      <trkpt lat="45.20311" lon="6.17968">
        <ele>2525</ele>
        <time>2013-07-01T09:42:39Z</time>
      </trkpt>
      <trkpt lat="45.20314" lon="6.17968">
        <ele>2524</ele>
        <time>2013-07-01T09:42:44Z</time>
      </trkpt>
      <trkpt lat="45.20313" lon="6.17967">
        <ele>2523</ele>
        <time>2013-07-01T09:42:49Z</time>
      </trkpt>
      <trkpt lat="45.20311" lon="6.17966">
        <ele>2521</ele>
        <time>2013-07-01T09:42:54Z</time>
      </trkpt>
      <trkpt lat="45.20311" lon="6.17965">
        <ele>2521</ele>
        <time>2013-07-01T09:42:59Z</time>
      </trkpt>
      <trkpt lat="45.2031" lon="6.17963">
        <ele>2520</ele>
        <time>2013-07-01T09:43:04Z</time>
      </trkpt>
      <trkpt lat="45.20308" lon="6.17962">
        <ele>2520</ele>
        <time>2013-07-01T09:43:09Z</time>
      </trkpt>
      <trkpt lat="45.20308" lon="6.17961">
        <ele>2520</ele>
        <time>2013-07-01T09:43:14Z</time>
      </trkpt>
      <trkpt lat="45.20307" lon="6.1796">
        <ele>2519</ele>
        <time>2013-07-01T09:43:19Z</time>
      </trkpt>
      <trkpt lat="45.20305" lon="6.17958">
        <ele>2518</ele>
        <time>2013-07-01T09:43:24Z</time>
      </trkpt>
      <trkpt lat="45.20304" lon="6.17957">
        <ele>2517</ele>
        <time>2013-07-01T09:43:29Z</time>
      </trkpt>
      <trkpt lat="45.20303" lon="6.17957">
        <ele>2516</ele>
        <time>2013-07-01T09:43:34Z</time>
      </trkpt>
      <trkpt lat="45.20302" lon="6.17955">
        <ele>2515</ele>
        <time>2013-07-01T09:43:39Z</time>
      </trkpt>
      <trkpt lat="45.20302" lon="6.17955">
        <ele>2514</ele>
        <time>2013-07-01T09:43:44Z</time>
      </trkpt>
      <trkpt lat="45.20302" lon="6.17955">
        <ele>2513</ele>
        <time>2013-07-01T09:43:49Z</time>
      </trkpt>
      <trkpt lat="45.20302" lon="6.17955">
        <ele>2512</ele>
        <time>2013-07-01T09:43:54Z</time>
      </trkpt>
      <trkpt lat="45.20302" lon="6.17955">
        <ele>2510</ele>
        <time>2013-07-01T09:43:59Z</time>
      </trkpt>
      <trkpt lat="45.20301" lon="6.17955">
        <ele>2508</ele>
        <time>2013-07-01T09:44:04Z</time>
      </trkpt>
      <trkpt lat="45.20301" lon="6.17955">
        <ele>2506</ele>
        <time>2013-07-01T09:44:09Z</time>
      </trkpt>
      <trkpt lat="45.20301" lon="6.17954">
        <ele>2505</ele>
        <time>2013-07-01T09:44:14Z</time>
      </trkpt>
      <trkpt lat="45.203" lon="6.17953">
        <ele>2506</ele>
        <time>2013-07-01T09:44:19Z</time>
      </trkpt>
      <trkpt lat="45.203" lon="6.17953">
        <ele>2507</ele>
        <time>2013-07-01T09:44:24Z</time>
      </trkpt>
      <trkpt lat="45.20299" lon="6.17953">
        <ele>2508</ele>
        <time>2013-07-01T09:44:29Z</time>
      </trkpt>
      <trkpt lat="45.20299" lon="6.17952">
        <ele>2511</ele>
        <time>2013-07-01T09:44:34Z</time>
      </trkpt>
      <trkpt lat="45.203" lon="6.17953">
        <ele>2512</ele>
        <time>2013-07-01T09:44:39Z</time>
      </trkpt>
      <trkpt lat="45.20299" lon="6.17952">
        <ele>2512</ele>
        <time>2013-07-01T09:44:44Z</time>
      </trkpt>
      <trkpt lat="45.20299" lon="6.17951">
        <ele>2513</ele>
        <time>2013-07-01T09:44:49Z</time>
      </trkpt>
      <trkpt lat="45.20299" lon="6.1795">
        <ele>2513</ele>
        <time>2013-07-01T09:44:54Z</time>
      </trkpt>
      <trkpt lat="45.20299" lon="6.1795">
        <ele>2514</ele>
        <time>2013-07-01T09:44:59Z</time>
      </trkpt>
      <trkpt lat="45.20299" lon="6.17949">
        <ele>2514</ele>
        <time>2013-07-01T09:45:04Z</time>
      </trkpt>
      <trkpt lat="45.20298" lon="6.17949">
        <ele>2514</ele>
        <time>2013-07-01T09:45:09Z</time>
      </trkpt>
      <trkpt lat="45.20298" lon="6.17948">
        <ele>2515</ele>
        <time>2013-07-01T09:45:14Z</time>
      </trkpt>
      <trkpt lat="45.20298" lon="6.17948">
        <ele>2515</ele>
        <time>2013-07-01T09:45:19Z</time>
      </trkpt>
      <trkpt lat="45.20298" lon="6.17948">
        <ele>2513</ele>
        <time>2013-07-01T09:45:24Z</time>
      </trkpt>
      <trkpt lat="45.20298" lon="6.17948">
        <ele>2511</ele>
        <time>2013-07-01T09:45:29Z</time>
      </trkpt>
      <trkpt lat="45.20298" lon="6.17949">
        <ele>2511</ele>
        <time>2013-07-01T09:45:34Z</time>
      </trkpt>
      <trkpt lat="45.20298" lon="6.17949">
        <ele>2512</ele>
        <time>2013-07-01T09:45:39Z</time>
      </trkpt>
      <trkpt lat="45.20298" lon="6.17949">
        <ele>2513</ele>
        <time>2013-07-01T09:45:44Z</time>
      </trkpt>
      <trkpt lat="45.20298" lon="6.17948">
        <ele>2514</ele>
        <time>2013-07-01T09:45:49Z</time>
      </trkpt>
      <trkpt lat="45.20298" lon="6.17947">
        <ele>2515</ele>
        <time>2013-07-01T09:45:54Z</time>
      </trkpt>
      <trkpt lat="45.20303" lon="6.17949">
        <ele>2516</ele>
        <time>2013-07-01T09:45:59Z</time>
      </trkpt>
      <trkpt lat="45.20306" lon="6.17949">
        <ele>2518</ele>
        <time>2013-07-01T09:46:04Z</time>
      </trkpt>
      <trkpt lat="45.20311" lon="6.1795">
        <ele>2519</ele>
        <time>2013-07-01T09:46:09Z</time>
      </trkpt>
      <trkpt lat="45.20313" lon="6.17951">
        <ele>2520</ele>
        <time>2013-07-01T09:46:14Z</time>
      </trkpt>
      <trkpt lat="45.20317" lon="6.17953">
        <ele>2520</ele>
        <time>2013-07-01T09:46:19Z</time>
      </trkpt>
      <trkpt lat="45.2032" lon="6.17953">
        <ele>2520</ele>
        <time>2013-07-01T09:46:24Z</time>
      </trkpt>
      <trkpt lat="45.20322" lon="6.17953">
        <ele>2521</ele>
        <time>2013-07-01T09:46:29Z</time>
      </trkpt>
      <trkpt lat="45.20325" lon="6.17954">
        <ele>2522</ele>
        <time>2013-07-01T09:46:34Z</time>
      </trkpt>
      <trkpt lat="45.20326" lon="6.17955">
        <ele>2522</ele>
        <time>2013-07-01T09:46:39Z</time>
      </trkpt>
      <trkpt lat="45.20326" lon="6.17955">
        <ele>2522</ele>
        <time>2013-07-01T09:46:44Z</time>
      </trkpt>
      <trkpt lat="45.20326" lon="6.17955">
        <ele>2523</ele>
        <time>2013-07-01T09:46:49Z</time>
      </trkpt>
      <trkpt lat="45.20326" lon="6.17955">
        <ele>2523</ele>
        <time>2013-07-01T09:46:54Z</time>
      </trkpt>
      <trkpt lat="45.20325" lon="6.17955">
        <ele>2523</ele>
        <time>2013-07-01T09:46:59Z</time>
      </trkpt>
      <trkpt lat="45.20324" lon="6.17956">
        <ele>2523</ele>
        <time>2013-07-01T09:47:04Z</time>
      </trkpt>
      <trkpt lat="45.20324" lon="6.17956">
        <ele>2523</ele>
        <time>2013-07-01T09:47:09Z</time>
      </trkpt>
      <trkpt lat="45.20324" lon="6.17956">
        <ele>2523</ele>
        <time>2013-07-01T09:47:14Z</time>
      </trkpt>
      <trkpt lat="45.20324" lon="6.17956">
        <ele>2523</ele>
        <time>2013-07-01T09:47:19Z</time>
      </trkpt>
      <trkpt lat="45.20324" lon="6.17956">
        <ele>2523</ele>
        <time>2013-07-01T09:47:24Z</time>
      </trkpt>
      <trkpt lat="45.20324" lon="6.17958">
        <ele>2524</ele>
        <time>2013-07-01T09:47:29Z</time>
      </trkpt>
      <trkpt lat="45.20328" lon="6.1796">
        <ele>2523</ele>
        <time>2013-07-01T09:47:34Z</time>
      </trkpt>
      <trkpt lat="45.20333" lon="6.17961">
        <ele>2523</ele>
        <time>2013-07-01T09:47:39Z</time>
      </trkpt>
      <trkpt lat="45.20335" lon="6.17962">
        <ele>2524</ele>
        <time>2013-07-01T09:47:44Z</time>
      </trkpt>
      <trkpt lat="45.20338" lon="6.17964">
        <ele>2524</ele>
        <time>2013-07-01T09:47:49Z</time>
      </trkpt>
      <trkpt lat="45.20341" lon="6.17965">
        <ele>2525</ele>
        <time>2013-07-01T09:47:54Z</time>
      </trkpt>
      <trkpt lat="45.20344" lon="6.17967">
        <ele>2525</ele>
        <time>2013-07-01T09:47:59Z</time>
      </trkpt>
      <trkpt lat="45.20347" lon="6.17969">
        <ele>2526</ele>
        <time>2013-07-01T09:48:04Z</time>
      </trkpt>
      <trkpt lat="45.2035" lon="6.1797">
        <ele>2526</ele>
        <time>2013-07-01T09:48:09Z</time>
      </trkpt>
      <trkpt lat="45.20353" lon="6.17972">
        <ele>2526</ele>
        <time>2013-07-01T09:48:14Z</time>
      </trkpt>
      <trkpt lat="45.20357" lon="6.17974">
        <ele>2526</ele>
        <time>2013-07-01T09:48:19Z</time>
      </trkpt>
      <trkpt lat="45.2036" lon="6.17976">
        <ele>2527</ele>
        <time>2013-07-01T09:48:24Z</time>
      </trkpt>
      <trkpt lat="45.20363" lon="6.17977">
        <ele>2526</ele>
        <time>2013-07-01T09:48:29Z</time>
      </trkpt>
      <trkpt lat="45.20366" lon="6.17979">
        <ele>2527</ele>
        <time>2013-07-01T09:48:34Z</time>
      </trkpt>
      <trkpt lat="45.20368" lon="6.1798">
        <ele>2527</ele>
        <time>2013-07-01T09:48:39Z</time>
      </trkpt>
      <trkpt lat="45.20371" lon="6.17982">
        <ele>2527</ele>
        <time>2013-07-01T09:48:44Z</time>
      </trkpt>
      <trkpt lat="45.20374" lon="6.17984">
        <ele>2528</ele>
        <time>2013-07-01T09:48:49Z</time>
      </trkpt>
      <trkpt lat="45.20377" lon="6.17985">
        <ele>2528</ele>
        <time>2013-07-01T09:48:54Z</time>
      </trkpt>
      <trkpt lat="45.20379" lon="6.17987">
        <ele>2528</ele>
        <time>2013-07-01T09:48:59Z</time>
      </trkpt>
      <trkpt lat="45.20382" lon="6.17989">
        <ele>2529</ele>
        <time>2013-07-01T09:49:04Z</time>
      </trkpt>
      <trkpt lat="45.20385" lon="6.17991">
        <ele>2530</ele>
        <time>2013-07-01T09:49:09Z</time>
      </trkpt>
      <trkpt lat="45.20387" lon="6.17993">
        <ele>2531</ele>
        <time>2013-07-01T09:49:14Z</time>
      </trkpt>
      <trkpt lat="45.20388" lon="6.17994">
        <ele>2530</ele>
        <time>2013-07-01T09:49:19Z</time>
      </trkpt>
      <trkpt lat="45.20389" lon="6.17993">
        <ele>2530</ele>
        <time>2013-07-01T09:49:24Z</time>
      </trkpt>
      <trkpt lat="45.20392" lon="6.17997">
        <ele>2531</ele>
        <time>2013-07-01T09:49:29Z</time>
      </trkpt>
      <trkpt lat="45.20394" lon="6.17998">
        <ele>2531</ele>
        <time>2013-07-01T09:49:34Z</time>
      </trkpt>
      <trkpt lat="45.20397" lon="6.18001">
        <ele>2532</ele>
        <time>2013-07-01T09:49:39Z</time>
      </trkpt>
      <trkpt lat="45.204" lon="6.18002">
        <ele>2532</ele>
        <time>2013-07-01T09:49:44Z</time>
      </trkpt>
      <trkpt lat="45.204" lon="6.18002">
        <ele>2532</ele>
        <time>2013-07-01T09:49:49Z</time>
      </trkpt>
      <trkpt lat="45.204" lon="6.18002">
        <ele>2531</ele>
        <time>2013-07-01T09:49:54Z</time>
      </trkpt>
      <trkpt lat="45.20401" lon="6.18002">
        <ele>2531</ele>
        <time>2013-07-01T09:49:59Z</time>
      </trkpt>
      <trkpt lat="45.20401" lon="6.18002">
        <ele>2531</ele>
        <time>2013-07-01T09:50:04Z</time>
      </trkpt>
      <trkpt lat="45.20401" lon="6.18002">
        <ele>2531</ele>
        <time>2013-07-01T09:50:09Z</time>
      </trkpt>
      <trkpt lat="45.20402" lon="6.18002">
        <ele>2532</ele>
        <time>2013-07-01T09:50:14Z</time>
      </trkpt>
      <trkpt lat="45.20405" lon="6.18004">
        <ele>2532</ele>
        <time>2013-07-01T09:50:19Z</time>
      </trkpt>
      <trkpt lat="45.20409" lon="6.18006">
        <ele>2533</ele>
        <time>2013-07-01T09:50:24Z</time>
      </trkpt>
      <trkpt lat="45.20414" lon="6.18007">
        <ele>2533</ele>
        <time>2013-07-01T09:50:29Z</time>
      </trkpt>
      <trkpt lat="45.20417" lon="6.18006">
        <ele>2533</ele>
        <time>2013-07-01T09:50:34Z</time>
      </trkpt>
      <trkpt lat="45.20417" lon="6.18006">
        <ele>2534</ele>
        <time>2013-07-01T09:50:39Z</time>
      </trkpt>
      <trkpt lat="45.20417" lon="6.18006">
        <ele>2534</ele>
        <time>2013-07-01T09:50:44Z</time>
      </trkpt>
      <trkpt lat="45.20417" lon="6.18006">
        <ele>2534</ele>
        <time>2013-07-01T09:50:49Z</time>
      </trkpt>
      <trkpt lat="45.20417" lon="6.18005">
        <ele>2534</ele>
        <time>2013-07-01T09:50:54Z</time>
      </trkpt>
      <trkpt lat="45.20417" lon="6.18006">
        <ele>2533</ele>
        <time>2013-07-01T09:50:59Z</time>
      </trkpt>
      <trkpt lat="45.20417" lon="6.18006">
        <ele>2533</ele>
        <time>2013-07-01T09:51:04Z</time>
      </trkpt>
      <trkpt lat="45.20416" lon="6.18006">
        <ele>2532</ele>
        <time>2013-07-01T09:51:09Z</time>
      </trkpt>
      <trkpt lat="45.20416" lon="6.18006">
        <ele>2532</ele>
        <time>2013-07-01T09:51:14Z</time>
      </trkpt>
      <trkpt lat="45.20416" lon="6.18006">
        <ele>2532</ele>
        <time>2013-07-01T09:51:19Z</time>
      </trkpt>
      <trkpt lat="45.20416" lon="6.18006">
        <ele>2531</ele>
        <time>2013-07-01T09:51:24Z</time>
      </trkpt>
      <trkpt lat="45.20416" lon="6.18006">
        <ele>2531</ele>
        <time>2013-07-01T09:51:29Z</time>
      </trkpt>
      <trkpt lat="45.20416" lon="6.18006">
        <ele>2531</ele>
        <time>2013-07-01T09:51:34Z</time>
      </trkpt>
      <trkpt lat="45.20416" lon="6.18006">
        <ele>2531</ele>
        <time>2013-07-01T09:51:39Z</time>
      </trkpt>
      <trkpt lat="45.20416" lon="6.18006">
        <ele>2531</ele>
        <time>2013-07-01T09:51:44Z</time>
      </trkpt>
      <trkpt lat="45.20416" lon="6.18005">
        <ele>2531</ele>
        <time>2013-07-01T09:51:49Z</time>
      </trkpt>
      <trkpt lat="45.20416" lon="6.18005">
        <ele>2531</ele>
        <time>2013-07-01T09:51:54Z</time>
      </trkpt>
      <trkpt lat="45.20417" lon="6.18005">
        <ele>2531</ele>
        <time>2013-07-01T09:51:59Z</time>
      </trkpt>
      <trkpt lat="45.20417" lon="6.18005">
        <ele>2531</ele>
        <time>2013-07-01T09:52:04Z</time>
      </trkpt>
      <trkpt lat="45.20417" lon="6.18005">
        <ele>2530</ele>
        <time>2013-07-01T09:52:09Z</time>
      </trkpt>
      <trkpt lat="45.20417" lon="6.18005">
        <ele>2529</ele>
        <time>2013-07-01T09:52:14Z</time>
      </trkpt>
      <trkpt lat="45.20416" lon="6.18005">
        <ele>2530</ele>
        <time>2013-07-01T09:52:19Z</time>
      </trkpt>
      <trkpt lat="45.20417" lon="6.18005">
        <ele>2530</ele>
        <time>2013-07-01T09:52:24Z</time>
      </trkpt>
      <trkpt lat="45.20417" lon="6.18005">
        <ele>2531</ele>
        <time>2013-07-01T09:52:29Z</time>
      </trkpt>
      <trkpt lat="45.20417" lon="6.18005">
        <ele>2531</ele>
        <time>2013-07-01T09:52:34Z</time>
      </trkpt>
      <trkpt lat="45.20417" lon="6.18005">
        <ele>2531</ele>
        <time>2013-07-01T09:52:39Z</time>
      </trkpt>
      <trkpt lat="45.20417" lon="6.18004">
        <ele>2531</ele>
        <time>2013-07-01T09:52:44Z</time>
      </trkpt>
      <trkpt lat="45.20417" lon="6.18004">
        <ele>2531</ele>
        <time>2013-07-01T09:52:49Z</time>
      </trkpt>
      <trkpt lat="45.20417" lon="6.18004">
        <ele>2530</ele>
        <time>2013-07-01T09:52:54Z</time>
      </trkpt>
      <trkpt lat="45.20417" lon="6.18004">
        <ele>2530</ele>
        <time>2013-07-01T09:52:59Z</time>
      </trkpt>
      <trkpt lat="45.20417" lon="6.18004">
        <ele>2529</ele>
        <time>2013-07-01T09:53:04Z</time>
      </trkpt>
      <trkpt lat="45.20419" lon="6.18005">
        <ele>2529</ele>
        <time>2013-07-01T09:53:09Z</time>
      </trkpt>
      <trkpt lat="45.20423" lon="6.18005">
        <ele>2529</ele>
        <time>2013-07-01T09:53:14Z</time>
      </trkpt>
      <trkpt lat="45.20427" lon="6.18008">
        <ele>2530</ele>
        <time>2013-07-01T09:53:19Z</time>
      </trkpt>
      <trkpt lat="45.2043" lon="6.18011">
        <ele>2531</ele>
        <time>2013-07-01T09:53:24Z</time>
      </trkpt>
      <trkpt lat="45.20434" lon="6.18011">
        <ele>2532</ele>
        <time>2013-07-01T09:53:29Z</time>
      </trkpt>
      <trkpt lat="45.20438" lon="6.18014">
        <ele>2533</ele>
        <time>2013-07-01T09:53:34Z</time>
      </trkpt>
      <trkpt lat="45.20442" lon="6.18017">
        <ele>2534</ele>
        <time>2013-07-01T09:53:39Z</time>
      </trkpt>
      <trkpt lat="45.20446" lon="6.18018">
        <ele>2535</ele>
        <time>2013-07-01T09:53:44Z</time>
      </trkpt>
      <trkpt lat="45.20449" lon="6.1802">
        <ele>2534</ele>
        <time>2013-07-01T09:53:49Z</time>
      </trkpt>
      <trkpt lat="45.20452" lon="6.18022">
        <ele>2535</ele>
        <time>2013-07-01T09:53:54Z</time>
      </trkpt>
      <trkpt lat="45.20456" lon="6.18026">
        <ele>2535</ele>
        <time>2013-07-01T09:53:59Z</time>
      </trkpt>
      <trkpt lat="45.20459" lon="6.18029">
        <ele>2536</ele>
        <time>2013-07-01T09:54:04Z</time>
      </trkpt>
      <trkpt lat="45.20463" lon="6.18032">
        <ele>2536</ele>
        <time>2013-07-01T09:54:09Z</time>
      </trkpt>
      <trkpt lat="45.20468" lon="6.18033">
        <ele>2536</ele>
        <time>2013-07-01T09:54:14Z</time>
      </trkpt>
      <trkpt lat="45.20473" lon="6.18032">
        <ele>2535</ele>
        <time>2013-07-01T09:54:19Z</time>
      </trkpt>
      <trkpt lat="45.20478" lon="6.18031">
        <ele>2534</ele>
        <time>2013-07-01T09:54:24Z</time>
      </trkpt>
      <trkpt lat="45.20483" lon="6.18031">
        <ele>2533</ele>
        <time>2013-07-01T09:54:29Z</time>
      </trkpt>
      <trkpt lat="45.20488" lon="6.18031">
        <ele>2533</ele>
        <time>2013-07-01T09:54:34Z</time>
      </trkpt>
      <trkpt lat="45.2049" lon="6.18031">
        <ele>2533</ele>
        <time>2013-07-01T09:54:39Z</time>
      </trkpt>
      <trkpt lat="45.2049" lon="6.18031">
        <ele>2533</ele>
        <time>2013-07-01T09:54:44Z</time>
      </trkpt>
      <trkpt lat="45.2049" lon="6.18031">
        <ele>2532</ele>
        <time>2013-07-01T09:54:49Z</time>
      </trkpt>
      <trkpt lat="45.2049" lon="6.18031">
        <ele>2532</ele>
        <time>2013-07-01T09:54:54Z</time>
      </trkpt>
      <trkpt lat="45.2049" lon="6.18031">
        <ele>2532</ele>
        <time>2013-07-01T09:54:59Z</time>
      </trkpt>
      <trkpt lat="45.20491" lon="6.18031">
        <ele>2532</ele>
        <time>2013-07-01T09:55:04Z</time>
      </trkpt>
      <trkpt lat="45.20491" lon="6.18031">
        <ele>2533</ele>
        <time>2013-07-01T09:55:09Z</time>
      </trkpt>
      <trkpt lat="45.20491" lon="6.18031">
        <ele>2533</ele>
        <time>2013-07-01T09:55:14Z</time>
      </trkpt>
      <trkpt lat="45.20491" lon="6.18031">
        <ele>2534</ele>
        <time>2013-07-01T09:55:19Z</time>
      </trkpt>
      <trkpt lat="45.2049" lon="6.18032">
        <ele>2536</ele>
        <time>2013-07-01T09:55:24Z</time>
      </trkpt>
      <trkpt lat="45.2049" lon="6.18032">
        <ele>2536</ele>
        <time>2013-07-01T09:55:29Z</time>
      </trkpt>
      <trkpt lat="45.2049" lon="6.18032">
        <ele>2536</ele>
        <time>2013-07-01T09:55:34Z</time>
      </trkpt>
      <trkpt lat="45.2049" lon="6.18031">
        <ele>2535</ele>
        <time>2013-07-01T09:55:39Z</time>
      </trkpt>
      <trkpt lat="45.20491" lon="6.18031">
        <ele>2535</ele>
        <time>2013-07-01T09:55:44Z</time>
      </trkpt>
      <trkpt lat="45.20491" lon="6.1803">
        <ele>2535</ele>
        <time>2013-07-01T09:55:49Z</time>
      </trkpt>
      <trkpt lat="45.20491" lon="6.1803">
        <ele>2534</ele>
        <time>2013-07-01T09:55:54Z</time>
      </trkpt>
      <trkpt lat="45.20491" lon="6.1803">
        <ele>2534</ele>
        <time>2013-07-01T09:55:59Z</time>
      </trkpt>
      <trkpt lat="45.20491" lon="6.1803">
        <ele>2534</ele>
        <time>2013-07-01T09:56:04Z</time>
      </trkpt>
      <trkpt lat="45.20491" lon="6.18029">
        <ele>2534</ele>
        <time>2013-07-01T09:56:09Z</time>
      </trkpt>
      <trkpt lat="45.20491" lon="6.18029">
        <ele>2534</ele>
        <time>2013-07-01T09:56:14Z</time>
      </trkpt>
      <trkpt lat="45.20491" lon="6.18029">
        <ele>2534</ele>
        <time>2013-07-01T09:56:19Z</time>
      </trkpt>
      <trkpt lat="45.20491" lon="6.1803">
        <ele>2533</ele>
        <time>2013-07-01T09:56:24Z</time>
      </trkpt>
      <trkpt lat="45.2049" lon="6.1803">
        <ele>2533</ele>
        <time>2013-07-01T09:56:29Z</time>
      </trkpt>
      <trkpt lat="45.2049" lon="6.1803">
        <ele>2533</ele>
        <time>2013-07-01T09:56:34Z</time>
      </trkpt>
      <trkpt lat="45.2049" lon="6.1803">
        <ele>2533</ele>
        <time>2013-07-01T09:56:39Z</time>
      </trkpt>
      <trkpt lat="45.2049" lon="6.1803">
        <ele>2533</ele>
        <time>2013-07-01T09:56:44Z</time>
      </trkpt>
      <trkpt lat="45.2049" lon="6.1803">
        <ele>2532</ele>
        <time>2013-07-01T09:56:49Z</time>
      </trkpt>
      <trkpt lat="45.20492" lon="6.18031">
        <ele>2533</ele>
        <time>2013-07-01T09:56:54Z</time>
      </trkpt>
      <trkpt lat="45.20492" lon="6.18031">
        <ele>2534</ele>
        <time>2013-07-01T09:56:59Z</time>
      </trkpt>
      <trkpt lat="45.20495" lon="6.18031">
        <ele>2534</ele>
        <time>2013-07-01T09:57:04Z</time>
      </trkpt>
      <trkpt lat="45.205" lon="6.1803">
        <ele>2534</ele>
        <time>2013-07-01T09:57:09Z</time>
      </trkpt>
      <trkpt lat="45.20506" lon="6.18031">
        <ele>2535</ele>
        <time>2013-07-01T09:57:14Z</time>
      </trkpt>
      <trkpt lat="45.2051" lon="6.18032">
        <ele>2536</ele>
        <time>2013-07-01T09:57:19Z</time>
      </trkpt>
      <trkpt lat="45.20514" lon="6.18032">
        <ele>2537</ele>
        <time>2013-07-01T09:57:24Z</time>
      </trkpt>
      <trkpt lat="45.20517" lon="6.18031">
        <ele>2538</ele>
        <time>2013-07-01T09:57:29Z</time>
      </trkpt>
      <trkpt lat="45.2052" lon="6.18029">
        <ele>2539</ele>
        <time>2013-07-01T09:57:34Z</time>
      </trkpt>
      <trkpt lat="45.20523" lon="6.18027">
        <ele>2540</ele>
        <time>2013-07-01T09:57:39Z</time>
      </trkpt>
      <trkpt lat="45.20526" lon="6.18025">
        <ele>2542</ele>
        <time>2013-07-01T09:57:44Z</time>
      </trkpt>
      <trkpt lat="45.20529" lon="6.18024">
        <ele>2542</ele>
        <time>2013-07-01T09:57:49Z</time>
      </trkpt>
      <trkpt lat="45.20532" lon="6.18023">
        <ele>2543</ele>
        <time>2013-07-01T09:57:54Z</time>
      </trkpt>
      <trkpt lat="45.20535" lon="6.18023">
        <ele>2544</ele>
        <time>2013-07-01T09:57:59Z</time>
      </trkpt>
      <trkpt lat="45.20538" lon="6.18024">
        <ele>2545</ele>
        <time>2013-07-01T09:58:04Z</time>
      </trkpt>
      <trkpt lat="45.2054" lon="6.18021">
        <ele>2546</ele>
        <time>2013-07-01T09:58:09Z</time>
      </trkpt>
      <trkpt lat="45.20543" lon="6.18021">
        <ele>2547</ele>
        <time>2013-07-01T09:58:14Z</time>
      </trkpt>
      <trkpt lat="45.20546" lon="6.18022">
        <ele>2548</ele>
        <time>2013-07-01T09:58:19Z</time>
      </trkpt>
      <trkpt lat="45.20549" lon="6.18023">
        <ele>2549</ele>
        <time>2013-07-01T09:58:24Z</time>
      </trkpt>
      <trkpt lat="45.20551" lon="6.18023">
        <ele>2550</ele>
        <time>2013-07-01T09:58:29Z</time>
      </trkpt>
      <trkpt lat="45.20554" lon="6.18025">
        <ele>2550</ele>
        <time>2013-07-01T09:58:34Z</time>
      </trkpt>
      <trkpt lat="45.20556" lon="6.18026">
        <ele>2551</ele>
        <time>2013-07-01T09:58:39Z</time>
      </trkpt>
      <trkpt lat="45.20559" lon="6.18027">
        <ele>2552</ele>
        <time>2013-07-01T09:58:44Z</time>
      </trkpt>
      <trkpt lat="45.20559" lon="6.18028">
        <ele>2552</ele>
        <time>2013-07-01T09:58:49Z</time>
      </trkpt>
      <trkpt lat="45.20559" lon="6.18027">
        <ele>2552</ele>
        <time>2013-07-01T09:58:54Z</time>
      </trkpt>
      <trkpt lat="45.20559" lon="6.18027">
        <ele>2552</ele>
        <time>2013-07-01T09:58:59Z</time>
      </trkpt>
      <trkpt lat="45.20562" lon="6.18027">
        <ele>2553</ele>
        <time>2013-07-01T09:59:04Z</time>
      </trkpt>
      <trkpt lat="45.20565" lon="6.18029">
        <ele>2554</ele>
        <time>2013-07-01T09:59:09Z</time>
      </trkpt>
      <trkpt lat="45.20569" lon="6.18031">
        <ele>2555</ele>
        <time>2013-07-01T09:59:14Z</time>
      </trkpt>
      <trkpt lat="45.2057" lon="6.18031">
        <ele>2555</ele>
        <time>2013-07-01T09:59:19Z</time>
      </trkpt>
      <trkpt lat="45.20571" lon="6.18031">
        <ele>2556</ele>
        <time>2013-07-01T09:59:24Z</time>
      </trkpt>
      <trkpt lat="45.20574" lon="6.18033">
        <ele>2556</ele>
        <time>2013-07-01T09:59:29Z</time>
      </trkpt>
      <trkpt lat="45.20574" lon="6.18033">
        <ele>2556</ele>
        <time>2013-07-01T09:59:34Z</time>
      </trkpt>
      <trkpt lat="45.20577" lon="6.18035">
        <ele>2556</ele>
        <time>2013-07-01T09:59:39Z</time>
      </trkpt>
      <trkpt lat="45.2058" lon="6.18036">
        <ele>2557</ele>
        <time>2013-07-01T09:59:44Z</time>
      </trkpt>
      <trkpt lat="45.20583" lon="6.18039">
        <ele>2558</ele>
        <time>2013-07-01T09:59:49Z</time>
      </trkpt>
      <trkpt lat="45.20586" lon="6.1804">
        <ele>2558</ele>
        <time>2013-07-01T09:59:54Z</time>
      </trkpt>
      <trkpt lat="45.20589" lon="6.18042">
        <ele>2558</ele>
        <time>2013-07-01T09:59:59Z</time>
      </trkpt>
      <trkpt lat="45.20589" lon="6.18042">
        <ele>2558</ele>
        <time>2013-07-01T10:00:04Z</time>
      </trkpt>
      <trkpt lat="45.20589" lon="6.18042">
        <ele>2557</ele>
        <time>2013-07-01T10:00:09Z</time>
      </trkpt>
      <trkpt lat="45.20591" lon="6.18043">
        <ele>2557</ele>
        <time>2013-07-01T10:00:14Z</time>
      </trkpt>
      <trkpt lat="45.20591" lon="6.18043">
        <ele>2557</ele>
        <time>2013-07-01T10:00:19Z</time>
      </trkpt>
      <trkpt lat="45.20591" lon="6.18043">
        <ele>2556</ele>
        <time>2013-07-01T10:00:24Z</time>
      </trkpt>
      <trkpt lat="45.20591" lon="6.18043">
        <ele>2556</ele>
        <time>2013-07-01T10:00:29Z</time>
      </trkpt>
      <trkpt lat="45.20591" lon="6.18043">
        <ele>2556</ele>
        <time>2013-07-01T10:00:34Z</time>
      </trkpt>
      <trkpt lat="45.20591" lon="6.18043">
        <ele>2556</ele>
        <time>2013-07-01T10:00:39Z</time>
      </trkpt>
      <trkpt lat="45.20591" lon="6.18043">
        <ele>2556</ele>
        <time>2013-07-01T10:00:44Z</time>
      </trkpt>
      <trkpt lat="45.20591" lon="6.18042">
        <ele>2556</ele>
        <time>2013-07-01T10:00:49Z</time>
      </trkpt>
      <trkpt lat="45.20591" lon="6.18042">
        <ele>2556</ele>
        <time>2013-07-01T10:00:54Z</time>
      </trkpt>
      <trkpt lat="45.20591" lon="6.18043">
        <ele>2556</ele>
        <time>2013-07-01T10:00:59Z</time>
      </trkpt>
      <trkpt lat="45.20591" lon="6.18043">
        <ele>2556</ele>
        <time>2013-07-01T10:01:04Z</time>
      </trkpt>
      <trkpt lat="45.20591" lon="6.18043">
        <ele>2556</ele>
        <time>2013-07-01T10:01:09Z</time>
      </trkpt>
      <trkpt lat="45.20591" lon="6.18043">
        <ele>2556</ele>
        <time>2013-07-01T10:01:14Z</time>
      </trkpt>
      <trkpt lat="45.20591" lon="6.18043">
        <ele>2556</ele>
        <time>2013-07-01T10:01:19Z</time>
      </trkpt>
      <trkpt lat="45.20591" lon="6.18043">
        <ele>2556</ele>
        <time>2013-07-01T10:01:24Z</time>
      </trkpt>
      <trkpt lat="45.20591" lon="6.18043">
        <ele>2555</ele>
        <time>2013-07-01T10:01:29Z</time>
      </trkpt>
      <trkpt lat="45.20591" lon="6.18042">
        <ele>2555</ele>
        <time>2013-07-01T10:01:34Z</time>
      </trkpt>
      <trkpt lat="45.20591" lon="6.18042">
        <ele>2555</ele>
        <time>2013-07-01T10:01:39Z</time>
      </trkpt>
      <trkpt lat="45.20591" lon="6.18042">
        <ele>2555</ele>
        <time>2013-07-01T10:01:44Z</time>
      </trkpt>
      <trkpt lat="45.20591" lon="6.18042">
        <ele>2555</ele>
        <time>2013-07-01T10:01:49Z</time>
      </trkpt>
      <trkpt lat="45.20591" lon="6.18042">
        <ele>2555</ele>
        <time>2013-07-01T10:01:54Z</time>
      </trkpt>
      <trkpt lat="45.20591" lon="6.18042">
        <ele>2555</ele>
        <time>2013-07-01T10:01:59Z</time>
      </trkpt>
      <trkpt lat="45.20591" lon="6.18042">
        <ele>2555</ele>
        <time>2013-07-01T10:02:04Z</time>
      </trkpt>
      <trkpt lat="45.20591" lon="6.18042">
        <ele>2555</ele>
        <time>2013-07-01T10:02:09Z</time>
      </trkpt>
      <trkpt lat="45.20591" lon="6.18042">
        <ele>2555</ele>
        <time>2013-07-01T10:02:14Z</time>
      </trkpt>
      <trkpt lat="45.20591" lon="6.18042">
        <ele>2555</ele>
        <time>2013-07-01T10:02:19Z</time>
      </trkpt>
      <trkpt lat="45.20591" lon="6.18042">
        <ele>2555</ele>
        <time>2013-07-01T10:02:24Z</time>
      </trkpt>
      <trkpt lat="45.20591" lon="6.18042">
        <ele>2554</ele>
        <time>2013-07-01T10:02:29Z</time>
      </trkpt>
      <trkpt lat="45.20591" lon="6.18042">
        <ele>2554</ele>
        <time>2013-07-01T10:02:34Z</time>
      </trkpt>
      <trkpt lat="45.20591" lon="6.18042">
        <ele>2555</ele>
        <time>2013-07-01T10:02:39Z</time>
      </trkpt>
      <trkpt lat="45.20591" lon="6.18042">
        <ele>2555</ele>
        <time>2013-07-01T10:02:44Z</time>
      </trkpt>
      <trkpt lat="45.20591" lon="6.18042">
        <ele>2555</ele>
        <time>2013-07-01T10:02:49Z</time>
      </trkpt>
      <trkpt lat="45.20591" lon="6.18042">
        <ele>2555</ele>
        <time>2013-07-01T10:02:54Z</time>
      </trkpt>
      <trkpt lat="45.20591" lon="6.18042">
        <ele>2555</ele>
        <time>2013-07-01T10:02:59Z</time>
      </trkpt>
      <trkpt lat="45.20591" lon="6.18042">
        <ele>2555</ele>
        <time>2013-07-01T10:03:04Z</time>
      </trkpt>
      <trkpt lat="45.20591" lon="6.18042">
        <ele>2555</ele>
        <time>2013-07-01T10:03:09Z</time>
      </trkpt>
      <trkpt lat="45.20591" lon="6.18042">
        <ele>2555</ele>
        <time>2013-07-01T10:03:14Z</time>
      </trkpt>
      <trkpt lat="45.20591" lon="6.18042">
        <ele>2556</ele>
        <time>2013-07-01T10:03:19Z</time>
      </trkpt>
      <trkpt lat="45.20592" lon="6.18042">
        <ele>2556</ele>
        <time>2013-07-01T10:03:24Z</time>
      </trkpt>
      <trkpt lat="45.20592" lon="6.18042">
        <ele>2556</ele>
        <time>2013-07-01T10:03:29Z</time>
      </trkpt>
      <trkpt lat="45.20592" lon="6.18042">
        <ele>2556</ele>
        <time>2013-07-01T10:03:34Z</time>
      </trkpt>
      <trkpt lat="45.20592" lon="6.18042">
        <ele>2557</ele>
        <time>2013-07-01T10:03:39Z</time>
      </trkpt>
      <trkpt lat="45.20591" lon="6.18042">
        <ele>2557</ele>
        <time>2013-07-01T10:03:44Z</time>
      </trkpt>
      <trkpt lat="45.20592" lon="6.18043">
        <ele>2556</ele>
        <time>2013-07-01T10:03:49Z</time>
      </trkpt>
      <trkpt lat="45.20592" lon="6.18043">
        <ele>2556</ele>
        <time>2013-07-01T10:03:54Z</time>
      </trkpt>
      <trkpt lat="45.20592" lon="6.18043">
        <ele>2556</ele>
        <time>2013-07-01T10:03:59Z</time>
      </trkpt>
      <trkpt lat="45.20593" lon="6.18043">
        <ele>2556</ele>
        <time>2013-07-01T10:04:04Z</time>
      </trkpt>
      <trkpt lat="45.20596" lon="6.18045">
        <ele>2556</ele>
        <time>2013-07-01T10:04:09Z</time>
      </trkpt>
      <trkpt lat="45.20598" lon="6.18046">
        <ele>2557</ele>
        <time>2013-07-01T10:04:14Z</time>
      </trkpt>
      <trkpt lat="45.20599" lon="6.18047">
        <ele>2557</ele>
        <time>2013-07-01T10:04:19Z</time>
      </trkpt>
      <trkpt lat="45.20599" lon="6.18047">
        <ele>2557</ele>
        <time>2013-07-01T10:04:24Z</time>
      </trkpt>
      <trkpt lat="45.20601" lon="6.18049">
        <ele>2558</ele>
        <time>2013-07-01T10:04:29Z</time>
      </trkpt>
      <trkpt lat="45.20603" lon="6.18051">
        <ele>2558</ele>
        <time>2013-07-01T10:04:34Z</time>
      </trkpt>
      <trkpt lat="45.20606" lon="6.18053">
        <ele>2558</ele>
        <time>2013-07-01T10:04:39Z</time>
      </trkpt>
      <trkpt lat="45.20609" lon="6.18055">
        <ele>2558</ele>
        <time>2013-07-01T10:04:44Z</time>
      </trkpt>
      <trkpt lat="45.20613" lon="6.18056">
        <ele>2558</ele>
        <time>2013-07-01T10:04:49Z</time>
      </trkpt>
      <trkpt lat="45.20617" lon="6.18057">
        <ele>2559</ele>
        <time>2013-07-01T10:04:54Z</time>
      </trkpt>
      <trkpt lat="45.2062" lon="6.18058">
        <ele>2559</ele>
        <time>2013-07-01T10:04:59Z</time>
      </trkpt>
      <trkpt lat="45.20623" lon="6.18058">
        <ele>2559</ele>
        <time>2013-07-01T10:05:04Z</time>
      </trkpt>
      <trkpt lat="45.20623" lon="6.18059">
        <ele>2559</ele>
        <time>2013-07-01T10:05:09Z</time>
      </trkpt>
      <trkpt lat="45.20623" lon="6.18059">
        <ele>2559</ele>
        <time>2013-07-01T10:05:14Z</time>
      </trkpt>
      <trkpt lat="45.20625" lon="6.18059">
        <ele>2559</ele>
        <time>2013-07-01T10:05:19Z</time>
      </trkpt>
      <trkpt lat="45.20627" lon="6.18061">
        <ele>2560</ele>
        <time>2013-07-01T10:05:24Z</time>
      </trkpt>
      <trkpt lat="45.2063" lon="6.18062">
        <ele>2561</ele>
        <time>2013-07-01T10:05:29Z</time>
      </trkpt>
      <trkpt lat="45.20633" lon="6.18063">
        <ele>2561</ele>
        <time>2013-07-01T10:05:34Z</time>
      </trkpt>
      <trkpt lat="45.20637" lon="6.18064">
        <ele>2561</ele>
        <time>2013-07-01T10:05:39Z</time>
      </trkpt>
      <trkpt lat="45.2064" lon="6.18065">
        <ele>2561</ele>
        <time>2013-07-01T10:05:44Z</time>
      </trkpt>
      <trkpt lat="45.20643" lon="6.18065">
        <ele>2561</ele>
        <time>2013-07-01T10:05:49Z</time>
      </trkpt>
      <trkpt lat="45.20646" lon="6.18065">
        <ele>2561</ele>
        <time>2013-07-01T10:05:54Z</time>
      </trkpt>
      <trkpt lat="45.2065" lon="6.18066">
        <ele>2561</ele>
        <time>2013-07-01T10:05:59Z</time>
      </trkpt>
      <trkpt lat="45.20653" lon="6.18067">
        <ele>2561</ele>
        <time>2013-07-01T10:06:04Z</time>
      </trkpt>
      <trkpt lat="45.20656" lon="6.18068">
        <ele>2561</ele>
        <time>2013-07-01T10:06:09Z</time>
      </trkpt>
      <trkpt lat="45.20659" lon="6.1807">
        <ele>2561</ele>
        <time>2013-07-01T10:06:14Z</time>
      </trkpt>
      <trkpt lat="45.20662" lon="6.18072">
        <ele>2562</ele>
        <time>2013-07-01T10:06:19Z</time>
      </trkpt>
      <trkpt lat="45.20665" lon="6.18074">
        <ele>2562</ele>
        <time>2013-07-01T10:06:24Z</time>
      </trkpt>
      <trkpt lat="45.20669" lon="6.18075">
        <ele>2563</ele>
        <time>2013-07-01T10:06:29Z</time>
      </trkpt>
      <trkpt lat="45.20673" lon="6.18076">
        <ele>2563</ele>
        <time>2013-07-01T10:06:34Z</time>
      </trkpt>
      <trkpt lat="45.20676" lon="6.18079">
        <ele>2564</ele>
        <time>2013-07-01T10:06:39Z</time>
      </trkpt>
      <trkpt lat="45.20679" lon="6.18081">
        <ele>2565</ele>
        <time>2013-07-01T10:06:44Z</time>
      </trkpt>
      <trkpt lat="45.20682" lon="6.18083">
        <ele>2565</ele>
        <time>2013-07-01T10:06:49Z</time>
      </trkpt>
      <trkpt lat="45.20686" lon="6.18085">
        <ele>2566</ele>
        <time>2013-07-01T10:06:54Z</time>
      </trkpt>
      <trkpt lat="45.20689" lon="6.18088">
        <ele>2566</ele>
        <time>2013-07-01T10:06:59Z</time>
      </trkpt>
      <trkpt lat="45.20692" lon="6.18091">
        <ele>2567</ele>
        <time>2013-07-01T10:07:04Z</time>
      </trkpt>
      <trkpt lat="45.20695" lon="6.18093">
        <ele>2567</ele>
        <time>2013-07-01T10:07:09Z</time>
      </trkpt>
      <trkpt lat="45.20699" lon="6.18095">
        <ele>2567</ele>
        <time>2013-07-01T10:07:14Z</time>
      </trkpt>
      <trkpt lat="45.20702" lon="6.18096">
        <ele>2568</ele>
        <time>2013-07-01T10:07:19Z</time>
      </trkpt>
      <trkpt lat="45.20706" lon="6.18099">
        <ele>2568</ele>
        <time>2013-07-01T10:07:24Z</time>
      </trkpt>
      <trkpt lat="45.20709" lon="6.18102">
        <ele>2569</ele>
        <time>2013-07-01T10:07:29Z</time>
      </trkpt>
      <trkpt lat="45.20713" lon="6.18104">
        <ele>2569</ele>
        <time>2013-07-01T10:07:34Z</time>
      </trkpt>
      <trkpt lat="45.20717" lon="6.18106">
        <ele>2570</ele>
        <time>2013-07-01T10:07:39Z</time>
      </trkpt>
      <trkpt lat="45.20721" lon="6.18109">
        <ele>2570</ele>
        <time>2013-07-01T10:07:44Z</time>
      </trkpt>
      <trkpt lat="45.20725" lon="6.18111">
        <ele>2571</ele>
        <time>2013-07-01T10:07:49Z</time>
      </trkpt>
      <trkpt lat="45.20728" lon="6.18113">
        <ele>2571</ele>
        <time>2013-07-01T10:07:54Z</time>
      </trkpt>
      <trkpt lat="45.20733" lon="6.18115">
        <ele>2571</ele>
        <time>2013-07-01T10:07:59Z</time>
      </trkpt>
      <trkpt lat="45.20737" lon="6.18117">
        <ele>2572</ele>
        <time>2013-07-01T10:08:04Z</time>
      </trkpt>
      <trkpt lat="45.20741" lon="6.1812">
        <ele>2572</ele>
        <time>2013-07-01T10:08:09Z</time>
      </trkpt>
      <trkpt lat="45.20745" lon="6.18123">
        <ele>2572</ele>
        <time>2013-07-01T10:08:14Z</time>
      </trkpt>
      <trkpt lat="45.20749" lon="6.18126">
        <ele>2573</ele>
        <time>2013-07-01T10:08:19Z</time>
      </trkpt>
      <trkpt lat="45.20752" lon="6.18129">
        <ele>2573</ele>
        <time>2013-07-01T10:08:24Z</time>
      </trkpt>
      <trkpt lat="45.20755" lon="6.18133">
        <ele>2574</ele>
        <time>2013-07-01T10:08:29Z</time>
      </trkpt>
      <trkpt lat="45.20757" lon="6.18134">
        <ele>2574</ele>
        <time>2013-07-01T10:08:34Z</time>
      </trkpt>
      <trkpt lat="45.20757" lon="6.18135">
        <ele>2574</ele>
        <time>2013-07-01T10:08:39Z</time>
      </trkpt>
      <trkpt lat="45.2076" lon="6.18136">
        <ele>2575</ele>
        <time>2013-07-01T10:08:44Z</time>
      </trkpt>
      <trkpt lat="45.20761" lon="6.18136">
        <ele>2575</ele>
        <time>2013-07-01T10:08:49Z</time>
      </trkpt>
      <trkpt lat="45.20762" lon="6.18137">
        <ele>2575</ele>
        <time>2013-07-01T10:08:54Z</time>
      </trkpt>
      <trkpt lat="45.20763" lon="6.18138">
        <ele>2575</ele>
        <time>2013-07-01T10:08:59Z</time>
      </trkpt>
      <trkpt lat="45.20767" lon="6.18141">
        <ele>2575</ele>
        <time>2013-07-01T10:09:04Z</time>
      </trkpt>
      <trkpt lat="45.20771" lon="6.18143">
        <ele>2575</ele>
        <time>2013-07-01T10:09:09Z</time>
      </trkpt>
      <trkpt lat="45.20774" lon="6.18146">
        <ele>2575</ele>
        <time>2013-07-01T10:09:14Z</time>
      </trkpt>
      <trkpt lat="45.20778" lon="6.18148">
        <ele>2575</ele>
        <time>2013-07-01T10:09:19Z</time>
      </trkpt>
      <trkpt lat="45.2078" lon="6.18152">
        <ele>2576</ele>
        <time>2013-07-01T10:09:24Z</time>
      </trkpt>
      <trkpt lat="45.20783" lon="6.18157">
        <ele>2576</ele>
        <time>2013-07-01T10:09:29Z</time>
      </trkpt>
      <trkpt lat="45.20786" lon="6.18161">
        <ele>2577</ele>
        <time>2013-07-01T10:09:34Z</time>
      </trkpt>
      <trkpt lat="45.2079" lon="6.18164">
        <ele>2577</ele>
        <time>2013-07-01T10:09:39Z</time>
      </trkpt>
      <trkpt lat="45.20794" lon="6.18168">
        <ele>2577</ele>
        <time>2013-07-01T10:09:44Z</time>
      </trkpt>
      <trkpt lat="45.20797" lon="6.18173">
        <ele>2578</ele>
        <time>2013-07-01T10:09:49Z</time>
      </trkpt>
      <trkpt lat="45.208" lon="6.18178">
        <ele>2578</ele>
        <time>2013-07-01T10:09:54Z</time>
      </trkpt>
      <trkpt lat="45.20804" lon="6.18183">
        <ele>2578</ele>
        <time>2013-07-01T10:09:59Z</time>
      </trkpt>
      <trkpt lat="45.20809" lon="6.18187">
        <ele>2578</ele>
        <time>2013-07-01T10:10:04Z</time>
      </trkpt>
      <trkpt lat="45.20813" lon="6.1819">
        <ele>2578</ele>
        <time>2013-07-01T10:10:09Z</time>
      </trkpt>
      <trkpt lat="45.20818" lon="6.18193">
        <ele>2578</ele>
        <time>2013-07-01T10:10:14Z</time>
      </trkpt>
      <trkpt lat="45.20823" lon="6.18196">
        <ele>2578</ele>
        <time>2013-07-01T10:10:19Z</time>
      </trkpt>
      <trkpt lat="45.20829" lon="6.182">
        <ele>2577</ele>
        <time>2013-07-01T10:10:24Z</time>
      </trkpt>
      <trkpt lat="45.20833" lon="6.18204">
        <ele>2577</ele>
        <time>2013-07-01T10:10:29Z</time>
      </trkpt>
      <trkpt lat="45.20837" lon="6.18207">
        <ele>2577</ele>
        <time>2013-07-01T10:10:34Z</time>
      </trkpt>
      <trkpt lat="45.20842" lon="6.1821">
        <ele>2577</ele>
        <time>2013-07-01T10:10:39Z</time>
      </trkpt>
      <trkpt lat="45.20846" lon="6.18213">
        <ele>2578</ele>
        <time>2013-07-01T10:10:44Z</time>
      </trkpt>
      <trkpt lat="45.20851" lon="6.18214">
        <ele>2578</ele>
        <time>2013-07-01T10:10:49Z</time>
      </trkpt>
      <trkpt lat="45.20855" lon="6.18217">
        <ele>2578</ele>
        <time>2013-07-01T10:10:54Z</time>
      </trkpt>
      <trkpt lat="45.20855" lon="6.18217">
        <ele>2578</ele>
        <time>2013-07-01T10:10:59Z</time>
      </trkpt>
      <trkpt lat="45.20855" lon="6.18217">
        <ele>2578</ele>
        <time>2013-07-01T10:11:04Z</time>
      </trkpt>
      <trkpt lat="45.20855" lon="6.18217">
        <ele>2577</ele>
        <time>2013-07-01T10:11:09Z</time>
      </trkpt>
      <trkpt lat="45.20855" lon="6.18217">
        <ele>2577</ele>
        <time>2013-07-01T10:11:14Z</time>
      </trkpt>
      <trkpt lat="45.20855" lon="6.18217">
        <ele>2577</ele>
        <time>2013-07-01T10:11:19Z</time>
      </trkpt>
      <trkpt lat="45.20855" lon="6.18217">
        <ele>2577</ele>
        <time>2013-07-01T10:11:24Z</time>
      </trkpt>
      <trkpt lat="45.20855" lon="6.18217">
        <ele>2577</ele>
        <time>2013-07-01T10:11:29Z</time>
      </trkpt>
      <trkpt lat="45.20855" lon="6.18217">
        <ele>2577</ele>
        <time>2013-07-01T10:11:34Z</time>
      </trkpt>
      <trkpt lat="45.20854" lon="6.18217">
        <ele>2577</ele>
        <time>2013-07-01T10:11:39Z</time>
      </trkpt>
      <trkpt lat="45.20855" lon="6.18217">
        <ele>2577</ele>
        <time>2013-07-01T10:11:44Z</time>
      </trkpt>
      <trkpt lat="45.20855" lon="6.18217">
        <ele>2577</ele>
        <time>2013-07-01T10:11:49Z</time>
      </trkpt>
      <trkpt lat="45.20855" lon="6.18217">
        <ele>2577</ele>
        <time>2013-07-01T10:11:54Z</time>
      </trkpt>
      <trkpt lat="45.20857" lon="6.18218">
        <ele>2577</ele>
        <time>2013-07-01T10:11:59Z</time>
      </trkpt>
      <trkpt lat="45.20861" lon="6.18218">
        <ele>2577</ele>
        <time>2013-07-01T10:12:04Z</time>
      </trkpt>
      <trkpt lat="45.20864" lon="6.1822">
        <ele>2578</ele>
        <time>2013-07-01T10:12:09Z</time>
      </trkpt>
      <trkpt lat="45.20868" lon="6.18221">
        <ele>2578</ele>
        <time>2013-07-01T10:12:14Z</time>
      </trkpt>
      <trkpt lat="45.20871" lon="6.18222">
        <ele>2579</ele>
        <time>2013-07-01T10:12:19Z</time>
      </trkpt>
      <trkpt lat="45.20875" lon="6.18221">
        <ele>2580</ele>
        <time>2013-07-01T10:12:24Z</time>
      </trkpt>
      <trkpt lat="45.20878" lon="6.18222">
        <ele>2581</ele>
        <time>2013-07-01T10:12:29Z</time>
      </trkpt>
      <trkpt lat="45.20882" lon="6.18222">
        <ele>2581</ele>
        <time>2013-07-01T10:12:34Z</time>
      </trkpt>
      <trkpt lat="45.20884" lon="6.18223">
        <ele>2582</ele>
        <time>2013-07-01T10:12:39Z</time>
      </trkpt>
      <trkpt lat="45.20888" lon="6.18225">
        <ele>2583</ele>
        <time>2013-07-01T10:12:44Z</time>
      </trkpt>
      <trkpt lat="45.20891" lon="6.18224">
        <ele>2584</ele>
        <time>2013-07-01T10:12:49Z</time>
      </trkpt>
      <trkpt lat="45.20894" lon="6.18221">
        <ele>2585</ele>
        <time>2013-07-01T10:12:54Z</time>
      </trkpt>
      <trkpt lat="45.20897" lon="6.1822">
        <ele>2585</ele>
        <time>2013-07-01T10:12:59Z</time>
      </trkpt>
      <trkpt lat="45.20901" lon="6.18219">
        <ele>2585</ele>
        <time>2013-07-01T10:13:04Z</time>
      </trkpt>
      <trkpt lat="45.20904" lon="6.18219">
        <ele>2586</ele>
        <time>2013-07-01T10:13:09Z</time>
      </trkpt>
      <trkpt lat="45.20908" lon="6.18218">
        <ele>2586</ele>
        <time>2013-07-01T10:13:14Z</time>
      </trkpt>
      <trkpt lat="45.20913" lon="6.18218">
        <ele>2586</ele>
        <time>2013-07-01T10:13:19Z</time>
      </trkpt>
      <trkpt lat="45.20917" lon="6.18221">
        <ele>2587</ele>
        <time>2013-07-01T10:13:24Z</time>
      </trkpt>
      <trkpt lat="45.20921" lon="6.18222">
        <ele>2587</ele>
        <time>2013-07-01T10:13:29Z</time>
      </trkpt>
      <trkpt lat="45.20925" lon="6.18224">
        <ele>2588</ele>
        <time>2013-07-01T10:13:34Z</time>
      </trkpt>
      <trkpt lat="45.20928" lon="6.18227">
        <ele>2589</ele>
        <time>2013-07-01T10:13:39Z</time>
      </trkpt>
      <trkpt lat="45.20931" lon="6.1823">
        <ele>2590</ele>
        <time>2013-07-01T10:13:44Z</time>
      </trkpt>
      <trkpt lat="45.20935" lon="6.18231">
        <ele>2590</ele>
        <time>2013-07-01T10:13:49Z</time>
      </trkpt>
      <trkpt lat="45.20939" lon="6.18231">
        <ele>2590</ele>
        <time>2013-07-01T10:13:54Z</time>
      </trkpt>
      <trkpt lat="45.20943" lon="6.1823">
        <ele>2590</ele>
        <time>2013-07-01T10:13:59Z</time>
      </trkpt>
      <trkpt lat="45.20948" lon="6.1823">
        <ele>2590</ele>
        <time>2013-07-01T10:14:04Z</time>
      </trkpt>
      <trkpt lat="45.20953" lon="6.18231">
        <ele>2590</ele>
        <time>2013-07-01T10:14:09Z</time>
      </trkpt>
      <trkpt lat="45.20958" lon="6.18234">
        <ele>2590</ele>
        <time>2013-07-01T10:14:14Z</time>
      </trkpt>
      <trkpt lat="45.20963" lon="6.18236">
        <ele>2590</ele>
        <time>2013-07-01T10:14:19Z</time>
      </trkpt>
      <trkpt lat="45.20967" lon="6.18238">
        <ele>2590</ele>
        <time>2013-07-01T10:14:24Z</time>
      </trkpt>
      <trkpt lat="45.20972" lon="6.18242">
        <ele>2590</ele>
        <time>2013-07-01T10:14:29Z</time>
      </trkpt>
      <trkpt lat="45.20977" lon="6.18244">
        <ele>2589</ele>
        <time>2013-07-01T10:14:34Z</time>
      </trkpt>
      <trkpt lat="45.20982" lon="6.18248">
        <ele>2589</ele>
        <time>2013-07-01T10:14:39Z</time>
      </trkpt>
      <trkpt lat="45.20987" lon="6.18251">
        <ele>2589</ele>
        <time>2013-07-01T10:14:44Z</time>
      </trkpt>
      <trkpt lat="45.20992" lon="6.18249">
        <ele>2588</ele>
        <time>2013-07-01T10:14:49Z</time>
      </trkpt>
      <trkpt lat="45.20994" lon="6.18249">
        <ele>2588</ele>
        <time>2013-07-01T10:14:54Z</time>
      </trkpt>
      <trkpt lat="45.20994" lon="6.18249">
        <ele>2588</ele>
        <time>2013-07-01T10:14:59Z</time>
      </trkpt>
      <trkpt lat="45.20995" lon="6.1825">
        <ele>2587</ele>
        <time>2013-07-01T10:15:04Z</time>
      </trkpt>
      <trkpt lat="45.20998" lon="6.18253">
        <ele>2587</ele>
        <time>2013-07-01T10:15:09Z</time>
      </trkpt>
      <trkpt lat="45.21002" lon="6.18258">
        <ele>2586</ele>
        <time>2013-07-01T10:15:14Z</time>
      </trkpt>
      <trkpt lat="45.21005" lon="6.18264">
        <ele>2585</ele>
        <time>2013-07-01T10:15:19Z</time>
      </trkpt>
      <trkpt lat="45.21009" lon="6.18269">
        <ele>2585</ele>
        <time>2013-07-01T10:15:24Z</time>
      </trkpt>
      <trkpt lat="45.21013" lon="6.18271">
        <ele>2585</ele>
        <time>2013-07-01T10:15:29Z</time>
      </trkpt>
      <trkpt lat="45.21017" lon="6.18272">
        <ele>2584</ele>
        <time>2013-07-01T10:15:34Z</time>
      </trkpt>
      <trkpt lat="45.21017" lon="6.18272">
        <ele>2584</ele>
        <time>2013-07-01T10:15:39Z</time>
      </trkpt>
      <trkpt lat="45.21018" lon="6.18269">
        <ele>2583</ele>
        <time>2013-07-01T10:15:44Z</time>
      </trkpt>
      <trkpt lat="45.21018" lon="6.18264">
        <ele>2582</ele>
        <time>2013-07-01T10:15:49Z</time>
      </trkpt>
      <trkpt lat="45.21018" lon="6.18264">
        <ele>2582</ele>
        <time>2013-07-01T10:15:54Z</time>
      </trkpt>
      <trkpt lat="45.21018" lon="6.18265">
        <ele>2582</ele>
        <time>2013-07-01T10:15:59Z</time>
      </trkpt>
      <trkpt lat="45.21018" lon="6.18265">
        <ele>2582</ele>
        <time>2013-07-01T10:16:04Z</time>
      </trkpt>
      <trkpt lat="45.21018" lon="6.18265">
        <ele>2582</ele>
        <time>2013-07-01T10:16:09Z</time>
      </trkpt>
      <trkpt lat="45.21018" lon="6.18265">
        <ele>2582</ele>
        <time>2013-07-01T10:16:14Z</time>
      </trkpt>
      <trkpt lat="45.21018" lon="6.18265">
        <ele>2582</ele>
        <time>2013-07-01T10:16:19Z</time>
      </trkpt>
      <trkpt lat="45.21018" lon="6.18265">
        <ele>2582</ele>
        <time>2013-07-01T10:16:24Z</time>
      </trkpt>
      <trkpt lat="45.21018" lon="6.18265">
        <ele>2582</ele>
        <time>2013-07-01T10:16:29Z</time>
      </trkpt>
      <trkpt lat="45.21018" lon="6.18265">
        <ele>2582</ele>
        <time>2013-07-01T10:16:34Z</time>
      </trkpt>
      <trkpt lat="45.21018" lon="6.18265">
        <ele>2582</ele>
        <time>2013-07-01T10:16:39Z</time>
      </trkpt>
      <trkpt lat="45.21018" lon="6.18264">
        <ele>2582</ele>
        <time>2013-07-01T10:16:44Z</time>
      </trkpt>
      <trkpt lat="45.21018" lon="6.18265">
        <ele>2582</ele>
        <time>2013-07-01T10:16:49Z</time>
      </trkpt>
      <trkpt lat="45.21018" lon="6.18264">
        <ele>2581</ele>
        <time>2013-07-01T10:16:54Z</time>
      </trkpt>
      <trkpt lat="45.21017" lon="6.18264">
        <ele>2581</ele>
        <time>2013-07-01T10:16:59Z</time>
      </trkpt>
      <trkpt lat="45.21017" lon="6.18264">
        <ele>2581</ele>
        <time>2013-07-01T10:17:04Z</time>
      </trkpt>
      <trkpt lat="45.21018" lon="6.18264">
        <ele>2581</ele>
        <time>2013-07-01T10:17:09Z</time>
      </trkpt>
      <trkpt lat="45.21018" lon="6.18264">
        <ele>2581</ele>
        <time>2013-07-01T10:17:14Z</time>
      </trkpt>
      <trkpt lat="45.21018" lon="6.18264">
        <ele>2581</ele>
        <time>2013-07-01T10:17:19Z</time>
      </trkpt>
      <trkpt lat="45.21018" lon="6.18264">
        <ele>2581</ele>
        <time>2013-07-01T10:17:24Z</time>
      </trkpt>
      <trkpt lat="45.21018" lon="6.18264">
        <ele>2581</ele>
        <time>2013-07-01T10:17:29Z</time>
      </trkpt>
      <trkpt lat="45.21018" lon="6.18265">
        <ele>2581</ele>
        <time>2013-07-01T10:17:34Z</time>
      </trkpt>
      <trkpt lat="45.21018" lon="6.18265">
        <ele>2581</ele>
        <time>2013-07-01T10:17:39Z</time>
      </trkpt>
      <trkpt lat="45.21019" lon="6.18264">
        <ele>2582</ele>
        <time>2013-07-01T10:17:44Z</time>
      </trkpt>
      <trkpt lat="45.21018" lon="6.18266">
        <ele>2582</ele>
        <time>2013-07-01T10:17:49Z</time>
      </trkpt>
      <trkpt lat="45.21018" lon="6.18265">
        <ele>2582</ele>
        <time>2013-07-01T10:17:54Z</time>
      </trkpt>
      <trkpt lat="45.21018" lon="6.18265">
        <ele>2582</ele>
        <time>2013-07-01T10:17:59Z</time>
      </trkpt>
      <trkpt lat="45.21018" lon="6.18265">
        <ele>2582</ele>
        <time>2013-07-01T10:18:04Z</time>
      </trkpt>
      <trkpt lat="45.21017" lon="6.18265">
        <ele>2581</ele>
        <time>2013-07-01T10:18:09Z</time>
      </trkpt>
      <trkpt lat="45.21016" lon="6.18266">
        <ele>2582</ele>
        <time>2013-07-01T10:18:14Z</time>
      </trkpt>
      <trkpt lat="45.21016" lon="6.18266">
        <ele>2582</ele>
        <time>2013-07-01T10:18:19Z</time>
      </trkpt>
      <trkpt lat="45.21016" lon="6.18266">
        <ele>2582</ele>
        <time>2013-07-01T10:18:24Z</time>
      </trkpt>
      <trkpt lat="45.21016" lon="6.18266">
        <ele>2582</ele>
        <time>2013-07-01T10:18:29Z</time>
      </trkpt>
      <trkpt lat="45.21016" lon="6.18266">
        <ele>2582</ele>
        <time>2013-07-01T10:18:34Z</time>
      </trkpt>
      <trkpt lat="45.21016" lon="6.18266">
        <ele>2582</ele>
        <time>2013-07-01T10:18:39Z</time>
      </trkpt>
      <trkpt lat="45.21016" lon="6.18265">
        <ele>2582</ele>
        <time>2013-07-01T10:18:44Z</time>
      </trkpt>
      <trkpt lat="45.21017" lon="6.18266">
        <ele>2581</ele>
        <time>2013-07-01T10:18:49Z</time>
      </trkpt>
      <trkpt lat="45.21017" lon="6.18265">
        <ele>2581</ele>
        <time>2013-07-01T10:18:54Z</time>
      </trkpt>
      <trkpt lat="45.21018" lon="6.18265">
        <ele>2581</ele>
        <time>2013-07-01T10:18:59Z</time>
      </trkpt>
      <trkpt lat="45.21017" lon="6.18264">
        <ele>2581</ele>
        <time>2013-07-01T10:19:04Z</time>
      </trkpt>
      <trkpt lat="45.21018" lon="6.18264">
        <ele>2580</ele>
        <time>2013-07-01T10:19:09Z</time>
      </trkpt>
      <trkpt lat="45.21018" lon="6.18264">
        <ele>2580</ele>
        <time>2013-07-01T10:19:14Z</time>
      </trkpt>
      <trkpt lat="45.21018" lon="6.18264">
        <ele>2580</ele>
        <time>2013-07-01T10:19:19Z</time>
      </trkpt>
      <trkpt lat="45.21018" lon="6.18263">
        <ele>2580</ele>
        <time>2013-07-01T10:19:24Z</time>
      </trkpt>
      <trkpt lat="45.21018" lon="6.18263">
        <ele>2580</ele>
        <time>2013-07-01T10:19:29Z</time>
      </trkpt>
      <trkpt lat="45.21018" lon="6.18263">
        <ele>2580</ele>
        <time>2013-07-01T10:19:34Z</time>
      </trkpt>
      <trkpt lat="45.21018" lon="6.18263">
        <ele>2580</ele>
        <time>2013-07-01T10:19:39Z</time>
      </trkpt>
      <trkpt lat="45.21019" lon="6.18258">
        <ele>2579</ele>
        <time>2013-07-01T10:19:44Z</time>
      </trkpt>
      <trkpt lat="45.21021" lon="6.18236">
        <ele>2577</ele>
        <time>2013-07-01T10:19:49Z</time>
      </trkpt>
      <trkpt lat="45.21032" lon="6.18216">
        <ele>2571</ele>
        <time>2013-07-01T10:19:54Z</time>
      </trkpt>
      <trkpt lat="45.21051" lon="6.18216">
        <ele>2565</ele>
        <time>2013-07-01T10:19:59Z</time>
      </trkpt>
      <trkpt lat="45.2106" lon="6.18219">
        <ele>2563</ele>
        <time>2013-07-01T10:20:04Z</time>
      </trkpt>
      <trkpt lat="45.2106" lon="6.18218">
        <ele>2562</ele>
        <time>2013-07-01T10:20:09Z</time>
      </trkpt>
      <trkpt lat="45.2106" lon="6.18218">
        <ele>2562</ele>
        <time>2013-07-01T10:20:14Z</time>
      </trkpt>
      <trkpt lat="45.2106" lon="6.18218">
        <ele>2562</ele>
        <time>2013-07-01T10:20:19Z</time>
      </trkpt>
      <trkpt lat="45.21061" lon="6.18218">
        <ele>2562</ele>
        <time>2013-07-01T10:20:24Z</time>
      </trkpt>
      <trkpt lat="45.21064" lon="6.18214">
        <ele>2561</ele>
        <time>2013-07-01T10:20:29Z</time>
      </trkpt>
      <trkpt lat="45.21065" lon="6.18215">
        <ele>2560</ele>
        <time>2013-07-01T10:20:34Z</time>
      </trkpt>
      <trkpt lat="45.21065" lon="6.18215">
        <ele>2560</ele>
        <time>2013-07-01T10:20:39Z</time>
      </trkpt>
      <trkpt lat="45.21065" lon="6.18216">
        <ele>2560</ele>
        <time>2013-07-01T10:20:44Z</time>
      </trkpt>
      <trkpt lat="45.21065" lon="6.18216">
        <ele>2560</ele>
        <time>2013-07-01T10:20:49Z</time>
      </trkpt>
      <trkpt lat="45.21069" lon="6.18219">
        <ele>2559</ele>
        <time>2013-07-01T10:20:54Z</time>
      </trkpt>
      <trkpt lat="45.21087" lon="6.18221">
        <ele>2552</ele>
        <time>2013-07-01T10:20:59Z</time>
      </trkpt>
      <trkpt lat="45.21109" lon="6.18229">
        <ele>2541</ele>
        <time>2013-07-01T10:21:04Z</time>
      </trkpt>
      <trkpt lat="45.21128" lon="6.18237">
        <ele>2528</ele>
        <time>2013-07-01T10:21:09Z</time>
      </trkpt>
      <trkpt lat="45.2115" lon="6.18233">
        <ele>2516</ele>
        <time>2013-07-01T10:21:14Z</time>
      </trkpt>
      <trkpt lat="45.21171" lon="6.18243">
        <ele>2504</ele>
        <time>2013-07-01T10:21:19Z</time>
      </trkpt>
      <trkpt lat="45.21186" lon="6.18249">
        <ele>2496</ele>
        <time>2013-07-01T10:21:24Z</time>
      </trkpt>
      <trkpt lat="45.21206" lon="6.18231">
        <ele>2486</ele>
        <time>2013-07-01T10:21:29Z</time>
      </trkpt>
      <trkpt lat="45.21211" lon="6.18226">
        <ele>2481</ele>
        <time>2013-07-01T10:21:34Z</time>
      </trkpt>
      <trkpt lat="45.21211" lon="6.18226">
        <ele>2481</ele>
        <time>2013-07-01T10:21:39Z</time>
      </trkpt>
      <trkpt lat="45.21211" lon="6.18227">
        <ele>2481</ele>
        <time>2013-07-01T10:21:44Z</time>
      </trkpt>
      <trkpt lat="45.21214" lon="6.18245">
        <ele>2477</ele>
        <time>2013-07-01T10:21:49Z</time>
      </trkpt>
      <trkpt lat="45.21232" lon="6.18257">
        <ele>2467</ele>
        <time>2013-07-01T10:21:54Z</time>
      </trkpt>
      <trkpt lat="45.21251" lon="6.18274">
        <ele>2456</ele>
        <time>2013-07-01T10:21:59Z</time>
      </trkpt>
      <trkpt lat="45.21278" lon="6.18262">
        <ele>2448</ele>
        <time>2013-07-01T10:22:04Z</time>
      </trkpt>
      <trkpt lat="45.21303" lon="6.18275">
        <ele>2441</ele>
        <time>2013-07-01T10:22:09Z</time>
      </trkpt>
      <trkpt lat="45.21304" lon="6.18286">
        <ele>2438</ele>
        <time>2013-07-01T10:22:14Z</time>
      </trkpt>
      <trkpt lat="45.21304" lon="6.18286">
        <ele>2438</ele>
        <time>2013-07-01T10:22:19Z</time>
      </trkpt>
      <trkpt lat="45.21304" lon="6.18285">
        <ele>2438</ele>
        <time>2013-07-01T10:22:24Z</time>
      </trkpt>
      <trkpt lat="45.21304" lon="6.18286">
        <ele>2439</ele>
        <time>2013-07-01T10:22:29Z</time>
      </trkpt>
      <trkpt lat="45.21304" lon="6.18286">
        <ele>2440</ele>
        <time>2013-07-01T10:22:34Z</time>
      </trkpt>
      <trkpt lat="45.21304" lon="6.18286">
        <ele>2441</ele>
        <time>2013-07-01T10:22:39Z</time>
      </trkpt>
      <trkpt lat="45.21304" lon="6.18286">
        <ele>2441</ele>
        <time>2013-07-01T10:22:44Z</time>
      </trkpt>
      <trkpt lat="45.21304" lon="6.18286">
        <ele>2440</ele>
        <time>2013-07-01T10:22:49Z</time>
      </trkpt>
      <trkpt lat="45.21304" lon="6.18287">
        <ele>2440</ele>
        <time>2013-07-01T10:22:54Z</time>
      </trkpt>
      <trkpt lat="45.21301" lon="6.18287">
        <ele>2439</ele>
        <time>2013-07-01T10:22:59Z</time>
      </trkpt>
      <trkpt lat="45.21301" lon="6.18287">
        <ele>2439</ele>
        <time>2013-07-01T10:23:04Z</time>
      </trkpt>
      <trkpt lat="45.213" lon="6.18287">
        <ele>2439</ele>
        <time>2013-07-01T10:23:09Z</time>
      </trkpt>
      <trkpt lat="45.21299" lon="6.18287">
        <ele>2438</ele>
        <time>2013-07-01T10:23:14Z</time>
      </trkpt>
      <trkpt lat="45.213" lon="6.18287">
        <ele>2438</ele>
        <time>2013-07-01T10:23:19Z</time>
      </trkpt>
      <trkpt lat="45.213" lon="6.18287">
        <ele>2438</ele>
        <time>2013-07-01T10:23:24Z</time>
      </trkpt>
      <trkpt lat="45.213" lon="6.18287">
        <ele>2437</ele>
        <time>2013-07-01T10:23:29Z</time>
      </trkpt>
      <trkpt lat="45.213" lon="6.18287">
        <ele>2437</ele>
        <time>2013-07-01T10:23:34Z</time>
      </trkpt>
      <trkpt lat="45.21299" lon="6.18287">
        <ele>2436</ele>
        <time>2013-07-01T10:23:39Z</time>
      </trkpt>
      <trkpt lat="45.21299" lon="6.18287">
        <ele>2436</ele>
        <time>2013-07-01T10:23:44Z</time>
      </trkpt>
      <trkpt lat="45.213" lon="6.18287">
        <ele>2436</ele>
        <time>2013-07-01T10:23:49Z</time>
      </trkpt>
      <trkpt lat="45.213" lon="6.18287">
        <ele>2436</ele>
        <time>2013-07-01T10:23:54Z</time>
      </trkpt>
      <trkpt lat="45.213" lon="6.18287">
        <ele>2436</ele>
        <time>2013-07-01T10:23:59Z</time>
      </trkpt>
      <trkpt lat="45.213" lon="6.18287">
        <ele>2436</ele>
        <time>2013-07-01T10:24:04Z</time>
      </trkpt>
      <trkpt lat="45.21301" lon="6.18287">
        <ele>2436</ele>
        <time>2013-07-01T10:24:09Z</time>
      </trkpt>
      <trkpt lat="45.21301" lon="6.18287">
        <ele>2436</ele>
        <time>2013-07-01T10:24:14Z</time>
      </trkpt>
      <trkpt lat="45.21301" lon="6.18287">
        <ele>2438</ele>
        <time>2013-07-01T10:24:19Z</time>
      </trkpt>
      <trkpt lat="45.21302" lon="6.18287">
        <ele>2438</ele>
        <time>2013-07-01T10:24:24Z</time>
      </trkpt>
      <trkpt lat="45.21302" lon="6.18287">
        <ele>2439</ele>
        <time>2013-07-01T10:24:29Z</time>
      </trkpt>
      <trkpt lat="45.21302" lon="6.18287">
        <ele>2439</ele>
        <time>2013-07-01T10:24:34Z</time>
      </trkpt>
      <trkpt lat="45.21301" lon="6.18287">
        <ele>2439</ele>
        <time>2013-07-01T10:24:39Z</time>
      </trkpt>
      <trkpt lat="45.213" lon="6.18287">
        <ele>2439</ele>
        <time>2013-07-01T10:24:44Z</time>
      </trkpt>
      <trkpt lat="45.21299" lon="6.18287">
        <ele>2439</ele>
        <time>2013-07-01T10:24:49Z</time>
      </trkpt>
      <trkpt lat="45.21302" lon="6.18295">
        <ele>2438</ele>
        <time>2013-07-01T10:24:54Z</time>
      </trkpt>
      <trkpt lat="45.21312" lon="6.18321">
        <ele>2434</ele>
        <time>2013-07-01T10:24:59Z</time>
      </trkpt>
      <trkpt lat="45.21329" lon="6.18348">
        <ele>2430</ele>
        <time>2013-07-01T10:25:04Z</time>
      </trkpt>
      <trkpt lat="45.21347" lon="6.18358">
        <ele>2427</ele>
        <time>2013-07-01T10:25:09Z</time>
      </trkpt>
      <trkpt lat="45.21361" lon="6.18379">
        <ele>2423</ele>
        <time>2013-07-01T10:25:14Z</time>
      </trkpt>
      <trkpt lat="45.21381" lon="6.18377">
        <ele>2417</ele>
        <time>2013-07-01T10:25:19Z</time>
      </trkpt>
      <trkpt lat="45.21403" lon="6.1839">
        <ele>2408</ele>
        <time>2013-07-01T10:25:24Z</time>
      </trkpt>
      <trkpt lat="45.21425" lon="6.18411">
        <ele>2395</ele>
        <time>2013-07-01T10:25:29Z</time>
      </trkpt>
      <trkpt lat="45.21442" lon="6.18434">
        <ele>2383</ele>
        <time>2013-07-01T10:25:34Z</time>
      </trkpt>
      <trkpt lat="45.21462" lon="6.18462">
        <ele>2371</ele>
        <time>2013-07-01T10:25:39Z</time>
      </trkpt>
      <trkpt lat="45.21491" lon="6.18457">
        <ele>2363</ele>
        <time>2013-07-01T10:25:44Z</time>
      </trkpt>
      <trkpt lat="45.21517" lon="6.18474">
        <ele>2355</ele>
        <time>2013-07-01T10:25:49Z</time>
      </trkpt>
      <trkpt lat="45.21546" lon="6.18499">
        <ele>2346</ele>
        <time>2013-07-01T10:25:54Z</time>
      </trkpt>
      <trkpt lat="45.21582" lon="6.18511">
        <ele>2342</ele>
        <time>2013-07-01T10:25:59Z</time>
      </trkpt>
      <trkpt lat="45.2161" lon="6.18532">
        <ele>2340</ele>
        <time>2013-07-01T10:26:04Z</time>
      </trkpt>
      <trkpt lat="45.21638" lon="6.18556">
        <ele>2334</ele>
        <time>2013-07-01T10:26:09Z</time>
      </trkpt>
      <trkpt lat="45.21663" lon="6.18587">
        <ele>2332</ele>
        <time>2013-07-01T10:26:14Z</time>
      </trkpt>
      <trkpt lat="45.21672" lon="6.18601">
        <ele>2330</ele>
        <time>2013-07-01T10:26:19Z</time>
      </trkpt>
      <trkpt lat="45.21675" lon="6.18604">
        <ele>2329</ele>
        <time>2013-07-01T10:26:24Z</time>
      </trkpt>
      <trkpt lat="45.21677" lon="6.18608">
        <ele>2329</ele>
        <time>2013-07-01T10:26:29Z</time>
      </trkpt>
      <trkpt lat="45.21677" lon="6.18607">
        <ele>2329</ele>
        <time>2013-07-01T10:26:34Z</time>
      </trkpt>
      <trkpt lat="45.21677" lon="6.18607">
        <ele>2329</ele>
        <time>2013-07-01T10:26:39Z</time>
      </trkpt>
      <trkpt lat="45.21677" lon="6.18607">
        <ele>2329</ele>
        <time>2013-07-01T10:26:44Z</time>
      </trkpt>
      <trkpt lat="45.21677" lon="6.18606">
        <ele>2329</ele>
        <time>2013-07-01T10:26:49Z</time>
      </trkpt>
      <trkpt lat="45.21682" lon="6.18608">
        <ele>2328</ele>
        <time>2013-07-01T10:26:54Z</time>
      </trkpt>
      <trkpt lat="45.21687" lon="6.18605">
        <ele>2328</ele>
        <time>2013-07-01T10:26:59Z</time>
      </trkpt>
      <trkpt lat="45.2169" lon="6.18604">
        <ele>2328</ele>
        <time>2013-07-01T10:27:04Z</time>
      </trkpt>
      <trkpt lat="45.21692" lon="6.18601">
        <ele>2329</ele>
        <time>2013-07-01T10:27:09Z</time>
      </trkpt>
      <trkpt lat="45.21697" lon="6.186">
        <ele>2329</ele>
        <time>2013-07-01T10:27:14Z</time>
      </trkpt>
      <trkpt lat="45.217" lon="6.186">
        <ele>2330</ele>
        <time>2013-07-01T10:27:19Z</time>
      </trkpt>
      <trkpt lat="45.21706" lon="6.186">
        <ele>2331</ele>
        <time>2013-07-01T10:27:24Z</time>
      </trkpt>
      <trkpt lat="45.21711" lon="6.18602">
        <ele>2332</ele>
        <time>2013-07-01T10:27:29Z</time>
      </trkpt>
      <trkpt lat="45.21718" lon="6.18599">
        <ele>2332</ele>
        <time>2013-07-01T10:27:34Z</time>
      </trkpt>
      <trkpt lat="45.21724" lon="6.18597">
        <ele>2332</ele>
        <time>2013-07-01T10:27:39Z</time>
      </trkpt>
      <trkpt lat="45.21729" lon="6.18594">
        <ele>2331</ele>
        <time>2013-07-01T10:27:44Z</time>
      </trkpt>
      <trkpt lat="45.21732" lon="6.18594">
        <ele>2331</ele>
        <time>2013-07-01T10:27:49Z</time>
      </trkpt>
      <trkpt lat="45.21735" lon="6.18593">
        <ele>2331</ele>
        <time>2013-07-01T10:27:54Z</time>
      </trkpt>
      <trkpt lat="45.21736" lon="6.18593">
        <ele>2330</ele>
        <time>2013-07-01T10:27:59Z</time>
      </trkpt>
      <trkpt lat="45.21736" lon="6.18594">
        <ele>2330</ele>
        <time>2013-07-01T10:28:04Z</time>
      </trkpt>
      <trkpt lat="45.21736" lon="6.18593">
        <ele>2330</ele>
        <time>2013-07-01T10:28:09Z</time>
      </trkpt>
      <trkpt lat="45.21741" lon="6.18596">
        <ele>2329</ele>
        <time>2013-07-01T10:28:14Z</time>
      </trkpt>
      <trkpt lat="45.21748" lon="6.18601">
        <ele>2329</ele>
        <time>2013-07-01T10:28:19Z</time>
      </trkpt>
      <trkpt lat="45.21757" lon="6.18607">
        <ele>2328</ele>
        <time>2013-07-01T10:28:24Z</time>
      </trkpt>
      <trkpt lat="45.21765" lon="6.18614">
        <ele>2327</ele>
        <time>2013-07-01T10:28:29Z</time>
      </trkpt>
      <trkpt lat="45.21774" lon="6.18625">
        <ele>2326</ele>
        <time>2013-07-01T10:28:34Z</time>
      </trkpt>
      <trkpt lat="45.21791" lon="6.18638">
        <ele>2323</ele>
        <time>2013-07-01T10:28:39Z</time>
      </trkpt>
      <trkpt lat="45.21809" lon="6.18655">
        <ele>2319</ele>
        <time>2013-07-01T10:28:44Z</time>
      </trkpt>
      <trkpt lat="45.21825" lon="6.18675">
        <ele>2316</ele>
        <time>2013-07-01T10:28:49Z</time>
      </trkpt>
      <trkpt lat="45.21828" lon="6.18703">
        <ele>2313</ele>
        <time>2013-07-01T10:28:54Z</time>
      </trkpt>
      <trkpt lat="45.21842" lon="6.18728">
        <ele>2309</ele>
        <time>2013-07-01T10:28:59Z</time>
      </trkpt>
      <trkpt lat="45.21864" lon="6.18743">
        <ele>2304</ele>
        <time>2013-07-01T10:29:04Z</time>
      </trkpt>
      <trkpt lat="45.21881" lon="6.18752">
        <ele>2300</ele>
        <time>2013-07-01T10:29:09Z</time>
      </trkpt>
      <trkpt lat="45.21894" lon="6.18774">
        <ele>2295</ele>
        <time>2013-07-01T10:29:14Z</time>
      </trkpt>
      <trkpt lat="45.21912" lon="6.1879">
        <ele>2290</ele>
        <time>2013-07-01T10:29:19Z</time>
      </trkpt>
      <trkpt lat="45.2193" lon="6.18807">
        <ele>2285</ele>
        <time>2013-07-01T10:29:24Z</time>
      </trkpt>
      <trkpt lat="45.21952" lon="6.18807">
        <ele>2281</ele>
        <time>2013-07-01T10:29:29Z</time>
      </trkpt>
      <trkpt lat="45.2197" lon="6.18819">
        <ele>2278</ele>
        <time>2013-07-01T10:29:34Z</time>
      </trkpt>
      <trkpt lat="45.21973" lon="6.1882">
        <ele>2278</ele>
        <time>2013-07-01T10:29:39Z</time>
      </trkpt>
      <trkpt lat="45.21974" lon="6.1882">
        <ele>2279</ele>
        <time>2013-07-01T10:29:44Z</time>
      </trkpt>
      <trkpt lat="45.21975" lon="6.18821">
        <ele>2279</ele>
        <time>2013-07-01T10:29:49Z</time>
      </trkpt>
      <trkpt lat="45.21975" lon="6.18823">
        <ele>2279</ele>
        <time>2013-07-01T10:29:54Z</time>
      </trkpt>
      <trkpt lat="45.21976" lon="6.18824">
        <ele>2279</ele>
        <time>2013-07-01T10:29:59Z</time>
      </trkpt>
      <trkpt lat="45.21977" lon="6.18823">
        <ele>2279</ele>
        <time>2013-07-01T10:30:04Z</time>
      </trkpt>
      <trkpt lat="45.21977" lon="6.18823">
        <ele>2279</ele>
        <time>2013-07-01T10:30:09Z</time>
      </trkpt>
      <trkpt lat="45.21977" lon="6.1882">
        <ele>2281</ele>
        <time>2013-07-01T10:30:14Z</time>
      </trkpt>
      <trkpt lat="45.21978" lon="6.18818">
        <ele>2282</ele>
        <time>2013-07-01T10:30:19Z</time>
      </trkpt>
      <trkpt lat="45.21978" lon="6.18819">
        <ele>2282</ele>
        <time>2013-07-01T10:30:24Z</time>
      </trkpt>
      <trkpt lat="45.2198" lon="6.18822">
        <ele>2282</ele>
        <time>2013-07-01T10:30:29Z</time>
      </trkpt>
      <trkpt lat="45.2198" lon="6.18824">
        <ele>2283</ele>
        <time>2013-07-01T10:30:34Z</time>
      </trkpt>
      <trkpt lat="45.21979" lon="6.1883">
        <ele>2297</ele>
        <time>2013-07-01T10:35:24Z</time>
      </trkpt>
      <trkpt lat="45.21978" lon="6.18828">
        <ele>2293</ele>
        <time>2013-07-01T10:35:29Z</time>
      </trkpt>
      <trkpt lat="45.21977" lon="6.18829">
        <ele>2294</ele>
        <time>2013-07-01T10:35:34Z</time>
      </trkpt>
      <trkpt lat="45.21978" lon="6.18829">
        <ele>2294</ele>
        <time>2013-07-01T10:35:39Z</time>
      </trkpt>
      <trkpt lat="45.2198" lon="6.18831">
        <ele>2296</ele>
        <time>2013-07-01T10:35:44Z</time>
      </trkpt>
      <trkpt lat="45.21985" lon="6.18833">
        <ele>2295</ele>
        <time>2013-07-01T10:35:49Z</time>
      </trkpt>
      <trkpt lat="45.2199" lon="6.18835">
        <ele>2292</ele>
        <time>2013-07-01T10:35:54Z</time>
      </trkpt>
      <trkpt lat="45.21995" lon="6.18835">
        <ele>2290</ele>
        <time>2013-07-01T10:35:59Z</time>
      </trkpt>
      <trkpt lat="45.21999" lon="6.18836">
        <ele>2288</ele>
        <time>2013-07-01T10:36:04Z</time>
      </trkpt>
      <trkpt lat="45.22004" lon="6.18839">
        <ele>2286</ele>
        <time>2013-07-01T10:36:09Z</time>
      </trkpt>
      <trkpt lat="45.22009" lon="6.18842">
        <ele>2285</ele>
        <time>2013-07-01T10:36:14Z</time>
      </trkpt>
      <trkpt lat="45.22014" lon="6.18845">
        <ele>2282</ele>
        <time>2013-07-01T10:36:19Z</time>
      </trkpt>
      <trkpt lat="45.22019" lon="6.18849">
        <ele>2280</ele>
        <time>2013-07-01T10:36:24Z</time>
      </trkpt>
      <trkpt lat="45.22024" lon="6.18855">
        <ele>2279</ele>
        <time>2013-07-01T10:36:29Z</time>
      </trkpt>
      <trkpt lat="45.22029" lon="6.18858">
        <ele>2277</ele>
        <time>2013-07-01T10:36:34Z</time>
      </trkpt>
      <trkpt lat="45.22035" lon="6.18862">
        <ele>2275</ele>
        <time>2013-07-01T10:36:39Z</time>
      </trkpt>
      <trkpt lat="45.22042" lon="6.18865">
        <ele>2274</ele>
        <time>2013-07-01T10:36:44Z</time>
      </trkpt>
      <trkpt lat="45.22048" lon="6.18868">
        <ele>2272</ele>
        <time>2013-07-01T10:36:49Z</time>
      </trkpt>
      <trkpt lat="45.22055" lon="6.18872">
        <ele>2270</ele>
        <time>2013-07-01T10:36:54Z</time>
      </trkpt>
      <trkpt lat="45.22061" lon="6.18876">
        <ele>2269</ele>
        <time>2013-07-01T10:36:59Z</time>
      </trkpt>
      <trkpt lat="45.22067" lon="6.18879">
        <ele>2267</ele>
        <time>2013-07-01T10:37:04Z</time>
      </trkpt>
      <trkpt lat="45.22074" lon="6.18881">
        <ele>2266</ele>
        <time>2013-07-01T10:37:09Z</time>
      </trkpt>
      <trkpt lat="45.22081" lon="6.18883">
        <ele>2265</ele>
        <time>2013-07-01T10:37:14Z</time>
      </trkpt>
      <trkpt lat="45.22088" lon="6.18884">
        <ele>2265</ele>
        <time>2013-07-01T10:37:19Z</time>
      </trkpt>
      <trkpt lat="45.22094" lon="6.18887">
        <ele>2265</ele>
        <time>2013-07-01T10:37:24Z</time>
      </trkpt>
      <trkpt lat="45.22097" lon="6.18891">
        <ele>2265</ele>
        <time>2013-07-01T10:37:29Z</time>
      </trkpt>
      <trkpt lat="45.22099" lon="6.18894">
        <ele>2265</ele>
        <time>2013-07-01T10:37:34Z</time>
      </trkpt>
      <trkpt lat="45.221" lon="6.18894">
        <ele>2265</ele>
        <time>2013-07-01T10:37:39Z</time>
      </trkpt>
      <trkpt lat="45.221" lon="6.18893">
        <ele>2265</ele>
        <time>2013-07-01T10:37:44Z</time>
      </trkpt>
      <trkpt lat="45.221" lon="6.18892">
        <ele>2265</ele>
        <time>2013-07-01T10:37:49Z</time>
      </trkpt>
      <trkpt lat="45.22101" lon="6.18892">
        <ele>2265</ele>
        <time>2013-07-01T10:37:54Z</time>
      </trkpt>
      <trkpt lat="45.22101" lon="6.18892">
        <ele>2266</ele>
        <time>2013-07-01T10:37:59Z</time>
      </trkpt>
      <trkpt lat="45.221" lon="6.18895">
        <ele>2267</ele>
        <time>2013-07-01T10:38:04Z</time>
      </trkpt>
      <trkpt lat="45.22101" lon="6.18903">
        <ele>2267</ele>
        <time>2013-07-01T10:38:09Z</time>
      </trkpt>
      <trkpt lat="45.22105" lon="6.18906">
        <ele>2267</ele>
        <time>2013-07-01T10:38:14Z</time>
      </trkpt>
      <trkpt lat="45.22112" lon="6.18909">
        <ele>2266</ele>
        <time>2013-07-01T10:38:19Z</time>
      </trkpt>
      <trkpt lat="45.22117" lon="6.18912">
        <ele>2266</ele>
        <time>2013-07-01T10:38:24Z</time>
      </trkpt>
      <trkpt lat="45.22122" lon="6.18914">
        <ele>2266</ele>
        <time>2013-07-01T10:38:29Z</time>
      </trkpt>
      <trkpt lat="45.22127" lon="6.18918">
        <ele>2267</ele>
        <time>2013-07-01T10:38:34Z</time>
      </trkpt>
      <trkpt lat="45.22132" lon="6.18918">
        <ele>2267</ele>
        <time>2013-07-01T10:38:39Z</time>
      </trkpt>
      <trkpt lat="45.22137" lon="6.18923">
        <ele>2267</ele>
        <time>2013-07-01T10:38:44Z</time>
      </trkpt>
      <trkpt lat="45.22143" lon="6.18926">
        <ele>2266</ele>
        <time>2013-07-01T10:38:49Z</time>
      </trkpt>
      <trkpt lat="45.22149" lon="6.18932">
        <ele>2266</ele>
        <time>2013-07-01T10:38:54Z</time>
      </trkpt>
      <trkpt lat="45.22154" lon="6.18935">
        <ele>2266</ele>
        <time>2013-07-01T10:38:59Z</time>
      </trkpt>
      <trkpt lat="45.2216" lon="6.18939">
        <ele>2265</ele>
        <time>2013-07-01T10:39:04Z</time>
      </trkpt>
      <trkpt lat="45.22166" lon="6.1894">
        <ele>2265</ele>
        <time>2013-07-01T10:39:09Z</time>
      </trkpt>
      <trkpt lat="45.22171" lon="6.18943">
        <ele>2266</ele>
        <time>2013-07-01T10:39:14Z</time>
      </trkpt>
      <trkpt lat="45.22176" lon="6.18943">
        <ele>2265</ele>
        <time>2013-07-01T10:39:19Z</time>
      </trkpt>
      <trkpt lat="45.22181" lon="6.18945">
        <ele>2264</ele>
        <time>2013-07-01T10:39:24Z</time>
      </trkpt>
      <trkpt lat="45.22185" lon="6.18947">
        <ele>2264</ele>
        <time>2013-07-01T10:39:29Z</time>
      </trkpt>
      <trkpt lat="45.22192" lon="6.18948">
        <ele>2263</ele>
        <time>2013-07-01T10:39:34Z</time>
      </trkpt>
      <trkpt lat="45.22197" lon="6.18949">
        <ele>2261</ele>
        <time>2013-07-01T10:39:39Z</time>
      </trkpt>
      <trkpt lat="45.22202" lon="6.18951">
        <ele>2261</ele>
        <time>2013-07-01T10:39:44Z</time>
      </trkpt>
      <trkpt lat="45.22208" lon="6.18951">
        <ele>2261</ele>
        <time>2013-07-01T10:39:49Z</time>
      </trkpt>
      <trkpt lat="45.22213" lon="6.18949">
        <ele>2260</ele>
        <time>2013-07-01T10:39:54Z</time>
      </trkpt>
      <trkpt lat="45.22218" lon="6.18944">
        <ele>2259</ele>
        <time>2013-07-01T10:39:59Z</time>
      </trkpt>
      <trkpt lat="45.22222" lon="6.18938">
        <ele>2259</ele>
        <time>2013-07-01T10:40:04Z</time>
      </trkpt>
      <trkpt lat="45.22228" lon="6.18935">
        <ele>2258</ele>
        <time>2013-07-01T10:40:09Z</time>
      </trkpt>
      <trkpt lat="45.22234" lon="6.18934">
        <ele>2257</ele>
        <time>2013-07-01T10:40:14Z</time>
      </trkpt>
      <trkpt lat="45.22241" lon="6.18934">
        <ele>2256</ele>
        <time>2013-07-01T10:40:19Z</time>
      </trkpt>
      <trkpt lat="45.22247" lon="6.18935">
        <ele>2255</ele>
        <time>2013-07-01T10:40:24Z</time>
      </trkpt>
      <trkpt lat="45.22254" lon="6.1894">
        <ele>2254</ele>
        <time>2013-07-01T10:40:29Z</time>
      </trkpt>
      <trkpt lat="45.2226" lon="6.18943">
        <ele>2253</ele>
        <time>2013-07-01T10:40:34Z</time>
      </trkpt>
      <trkpt lat="45.22265" lon="6.18947">
        <ele>2251</ele>
        <time>2013-07-01T10:40:39Z</time>
      </trkpt>
      <trkpt lat="45.22271" lon="6.18953">
        <ele>2250</ele>
        <time>2013-07-01T10:40:44Z</time>
      </trkpt>
      <trkpt lat="45.22276" lon="6.18957">
        <ele>2250</ele>
        <time>2013-07-01T10:40:49Z</time>
      </trkpt>
      <trkpt lat="45.22282" lon="6.18961">
        <ele>2249</ele>
        <time>2013-07-01T10:40:54Z</time>
      </trkpt>
      <trkpt lat="45.22288" lon="6.18962">
        <ele>2248</ele>
        <time>2013-07-01T10:40:59Z</time>
      </trkpt>
      <trkpt lat="45.22292" lon="6.18957">
        <ele>2247</ele>
        <time>2013-07-01T10:41:04Z</time>
      </trkpt>
      <trkpt lat="45.22292" lon="6.18956">
        <ele>2247</ele>
        <time>2013-07-01T10:41:09Z</time>
      </trkpt>
      <trkpt lat="45.22292" lon="6.18952">
        <ele>2246</ele>
        <time>2013-07-01T10:41:14Z</time>
      </trkpt>
      <trkpt lat="45.22287" lon="6.18946">
        <ele>2245</ele>
        <time>2013-07-01T10:41:19Z</time>
      </trkpt>
      <trkpt lat="45.22283" lon="6.18939">
        <ele>2244</ele>
        <time>2013-07-01T10:41:24Z</time>
      </trkpt>
      <trkpt lat="45.2228" lon="6.18931">
        <ele>2244</ele>
        <time>2013-07-01T10:41:29Z</time>
      </trkpt>
      <trkpt lat="45.22276" lon="6.18924">
        <ele>2243</ele>
        <time>2013-07-01T10:41:34Z</time>
      </trkpt>
      <trkpt lat="45.22273" lon="6.18917">
        <ele>2242</ele>
        <time>2013-07-01T10:41:39Z</time>
      </trkpt>
      <trkpt lat="45.22273" lon="6.18909">
        <ele>2241</ele>
        <time>2013-07-01T10:41:44Z</time>
      </trkpt>
      <trkpt lat="45.22279" lon="6.18908">
        <ele>2240</ele>
        <time>2013-07-01T10:41:49Z</time>
      </trkpt>
      <trkpt lat="45.22284" lon="6.18912">
        <ele>2239</ele>
        <time>2013-07-01T10:41:54Z</time>
      </trkpt>
      <trkpt lat="45.22289" lon="6.18917">
        <ele>2238</ele>
        <time>2013-07-01T10:41:59Z</time>
      </trkpt>
      <trkpt lat="45.22294" lon="6.18922">
        <ele>2237</ele>
        <time>2013-07-01T10:42:04Z</time>
      </trkpt>
      <trkpt lat="45.22299" lon="6.18926">
        <ele>2236</ele>
        <time>2013-07-01T10:42:09Z</time>
      </trkpt>
      <trkpt lat="45.22306" lon="6.18929">
        <ele>2234</ele>
        <time>2013-07-01T10:42:14Z</time>
      </trkpt>
      <trkpt lat="45.22311" lon="6.18935">
        <ele>2233</ele>
        <time>2013-07-01T10:42:19Z</time>
      </trkpt>
      <trkpt lat="45.22318" lon="6.18938">
        <ele>2232</ele>
        <time>2013-07-01T10:42:24Z</time>
      </trkpt>
      <trkpt lat="45.22323" lon="6.18942">
        <ele>2232</ele>
        <time>2013-07-01T10:42:29Z</time>
      </trkpt>
      <trkpt lat="45.22329" lon="6.18946">
        <ele>2231</ele>
        <time>2013-07-01T10:42:34Z</time>
      </trkpt>
      <trkpt lat="45.22335" lon="6.1895">
        <ele>2229</ele>
        <time>2013-07-01T10:42:39Z</time>
      </trkpt>
      <trkpt lat="45.22341" lon="6.18955">
        <ele>2229</ele>
        <time>2013-07-01T10:42:44Z</time>
      </trkpt>
      <trkpt lat="45.22345" lon="6.18961">
        <ele>2228</ele>
        <time>2013-07-01T10:42:49Z</time>
      </trkpt>
      <trkpt lat="45.22347" lon="6.18962">
        <ele>2227</ele>
        <time>2013-07-01T10:42:54Z</time>
      </trkpt>
      <trkpt lat="45.22347" lon="6.18962">
        <ele>2227</ele>
        <time>2013-07-01T10:42:59Z</time>
      </trkpt>
      <trkpt lat="45.22346" lon="6.18962">
        <ele>2226</ele>
        <time>2013-07-01T10:43:04Z</time>
      </trkpt>
      <trkpt lat="45.22346" lon="6.18963">
        <ele>2226</ele>
        <time>2013-07-01T10:43:09Z</time>
      </trkpt>
      <trkpt lat="45.22346" lon="6.18963">
        <ele>2226</ele>
        <time>2013-07-01T10:43:14Z</time>
      </trkpt>
      <trkpt lat="45.22349" lon="6.18967">
        <ele>2225</ele>
        <time>2013-07-01T10:43:19Z</time>
      </trkpt>
      <trkpt lat="45.22353" lon="6.18972">
        <ele>2225</ele>
        <time>2013-07-01T10:43:24Z</time>
      </trkpt>
      <trkpt lat="45.22358" lon="6.1897">
        <ele>2223</ele>
        <time>2013-07-01T10:43:29Z</time>
      </trkpt>
      <trkpt lat="45.22358" lon="6.18962">
        <ele>2223</ele>
        <time>2013-07-01T10:43:34Z</time>
      </trkpt>
      <trkpt lat="45.22355" lon="6.18954">
        <ele>2222</ele>
        <time>2013-07-01T10:43:39Z</time>
      </trkpt>
      <trkpt lat="45.22351" lon="6.18946">
        <ele>2221</ele>
        <time>2013-07-01T10:43:44Z</time>
      </trkpt>
      <trkpt lat="45.22348" lon="6.18937">
        <ele>2221</ele>
        <time>2013-07-01T10:43:49Z</time>
      </trkpt>
      <trkpt lat="45.2235" lon="6.18929">
        <ele>2220</ele>
        <time>2013-07-01T10:43:54Z</time>
      </trkpt>
      <trkpt lat="45.22356" lon="6.1893">
        <ele>2219</ele>
        <time>2013-07-01T10:43:59Z</time>
      </trkpt>
      <trkpt lat="45.22361" lon="6.18935">
        <ele>2217</ele>
        <time>2013-07-01T10:44:04Z</time>
      </trkpt>
      <trkpt lat="45.22365" lon="6.18942">
        <ele>2216</ele>
        <time>2013-07-01T10:44:09Z</time>
      </trkpt>
      <trkpt lat="45.22369" lon="6.18948">
        <ele>2214</ele>
        <time>2013-07-01T10:44:14Z</time>
      </trkpt>
      <trkpt lat="45.22375" lon="6.18952">
        <ele>2214</ele>
        <time>2013-07-01T10:44:19Z</time>
      </trkpt>
      <trkpt lat="45.2238" lon="6.18957">
        <ele>2213</ele>
        <time>2013-07-01T10:44:24Z</time>
      </trkpt>
      <trkpt lat="45.22386" lon="6.1896">
        <ele>2212</ele>
        <time>2013-07-01T10:44:29Z</time>
      </trkpt>
      <trkpt lat="45.22392" lon="6.18965">
        <ele>2211</ele>
        <time>2013-07-01T10:44:34Z</time>
      </trkpt>
      <trkpt lat="45.22398" lon="6.1897">
        <ele>2210</ele>
        <time>2013-07-01T10:44:39Z</time>
      </trkpt>
      <trkpt lat="45.22403" lon="6.18976">
        <ele>2209</ele>
        <time>2013-07-01T10:44:44Z</time>
      </trkpt>
      <trkpt lat="45.2241" lon="6.18982">
        <ele>2209</ele>
        <time>2013-07-01T10:44:49Z</time>
      </trkpt>
      <trkpt lat="45.22414" lon="6.18988">
        <ele>2207</ele>
        <time>2013-07-01T10:44:54Z</time>
      </trkpt>
      <trkpt lat="45.22418" lon="6.18995">
        <ele>2206</ele>
        <time>2013-07-01T10:44:59Z</time>
      </trkpt>
      <trkpt lat="45.22421" lon="6.19003">
        <ele>2206</ele>
        <time>2013-07-01T10:45:04Z</time>
      </trkpt>
      <trkpt lat="45.22422" lon="6.19012">
        <ele>2204</ele>
        <time>2013-07-01T10:45:09Z</time>
      </trkpt>
      <trkpt lat="45.22419" lon="6.19019">
        <ele>2203</ele>
        <time>2013-07-01T10:45:14Z</time>
      </trkpt>
      <trkpt lat="45.22416" lon="6.19027">
        <ele>2202</ele>
        <time>2013-07-01T10:45:19Z</time>
      </trkpt>
      <trkpt lat="45.22413" lon="6.19034">
        <ele>2200</ele>
        <time>2013-07-01T10:45:24Z</time>
      </trkpt>
      <trkpt lat="45.22413" lon="6.19043">
        <ele>2199</ele>
        <time>2013-07-01T10:45:29Z</time>
      </trkpt>
      <trkpt lat="45.22412" lon="6.19051">
        <ele>2198</ele>
        <time>2013-07-01T10:45:34Z</time>
      </trkpt>
      <trkpt lat="45.22412" lon="6.1906">
        <ele>2197</ele>
        <time>2013-07-01T10:45:39Z</time>
      </trkpt>
      <trkpt lat="45.22414" lon="6.19069">
        <ele>2195</ele>
        <time>2013-07-01T10:45:44Z</time>
      </trkpt>
      <trkpt lat="45.22416" lon="6.19078">
        <ele>2195</ele>
        <time>2013-07-01T10:45:49Z</time>
      </trkpt>
      <trkpt lat="45.22419" lon="6.19086">
        <ele>2193</ele>
        <time>2013-07-01T10:45:54Z</time>
      </trkpt>
      <trkpt lat="45.22422" lon="6.19094">
        <ele>2192</ele>
        <time>2013-07-01T10:45:59Z</time>
      </trkpt>
      <trkpt lat="45.22429" lon="6.19095">
        <ele>2191</ele>
        <time>2013-07-01T10:46:04Z</time>
      </trkpt>
      <trkpt lat="45.22433" lon="6.19089">
        <ele>2188</ele>
        <time>2013-07-01T10:46:09Z</time>
      </trkpt>
      <trkpt lat="45.22435" lon="6.19081">
        <ele>2187</ele>
        <time>2013-07-01T10:46:14Z</time>
      </trkpt>
      <trkpt lat="45.22437" lon="6.19074">
        <ele>2185</ele>
        <time>2013-07-01T10:46:19Z</time>
      </trkpt>
      <trkpt lat="45.2244" lon="6.1907">
        <ele>2184</ele>
        <time>2013-07-01T10:46:24Z</time>
      </trkpt>
      <trkpt lat="45.22439" lon="6.1907">
        <ele>2185</ele>
        <time>2013-07-01T10:46:29Z</time>
      </trkpt>
      <trkpt lat="45.22442" lon="6.19069">
        <ele>2184</ele>
        <time>2013-07-01T10:46:34Z</time>
      </trkpt>
      <trkpt lat="45.22446" lon="6.19068">
        <ele>2183</ele>
        <time>2013-07-01T10:46:39Z</time>
      </trkpt>
      <trkpt lat="45.22449" lon="6.19074">
        <ele>2182</ele>
        <time>2013-07-01T10:46:44Z</time>
      </trkpt>
      <trkpt lat="45.22451" lon="6.19083">
        <ele>2180</ele>
        <time>2013-07-01T10:46:49Z</time>
      </trkpt>
      <trkpt lat="45.22454" lon="6.19091">
        <ele>2178</ele>
        <time>2013-07-01T10:46:54Z</time>
      </trkpt>
      <trkpt lat="45.22459" lon="6.19096">
        <ele>2176</ele>
        <time>2013-07-01T10:46:59Z</time>
      </trkpt>
      <trkpt lat="45.22465" lon="6.19093">
        <ele>2175</ele>
        <time>2013-07-01T10:47:04Z</time>
      </trkpt>
      <trkpt lat="45.22468" lon="6.19084">
        <ele>2174</ele>
        <time>2013-07-01T10:47:09Z</time>
      </trkpt>
      <trkpt lat="45.22469" lon="6.19076">
        <ele>2172</ele>
        <time>2013-07-01T10:47:14Z</time>
      </trkpt>
      <trkpt lat="45.22472" lon="6.1907">
        <ele>2170</ele>
        <time>2013-07-01T10:47:19Z</time>
      </trkpt>
      <trkpt lat="45.22476" lon="6.19065">
        <ele>2169</ele>
        <time>2013-07-01T10:47:24Z</time>
      </trkpt>
      <trkpt lat="45.22481" lon="6.19065">
        <ele>2168</ele>
        <time>2013-07-01T10:47:29Z</time>
      </trkpt>
      <trkpt lat="45.22486" lon="6.1907">
        <ele>2167</ele>
        <time>2013-07-01T10:47:34Z</time>
      </trkpt>
      <trkpt lat="45.22491" lon="6.19077">
        <ele>2167</ele>
        <time>2013-07-01T10:47:39Z</time>
      </trkpt>
      <trkpt lat="45.22494" lon="6.19085">
        <ele>2166</ele>
        <time>2013-07-01T10:47:44Z</time>
      </trkpt>
      <trkpt lat="45.22497" lon="6.19093">
        <ele>2165</ele>
        <time>2013-07-01T10:47:49Z</time>
      </trkpt>
      <trkpt lat="45.22498" lon="6.19102">
        <ele>2164</ele>
        <time>2013-07-01T10:47:54Z</time>
      </trkpt>
      <trkpt lat="45.22499" lon="6.1911">
        <ele>2164</ele>
        <time>2013-07-01T10:47:59Z</time>
      </trkpt>
      <trkpt lat="45.22504" lon="6.19115">
        <ele>2163</ele>
        <time>2013-07-01T10:48:04Z</time>
      </trkpt>
      <trkpt lat="45.22508" lon="6.1911">
        <ele>2163</ele>
        <time>2013-07-01T10:48:09Z</time>
      </trkpt>
      <trkpt lat="45.22509" lon="6.19105">
        <ele>2162</ele>
        <time>2013-07-01T10:48:14Z</time>
      </trkpt>
      <trkpt lat="45.2251" lon="6.19097">
        <ele>2162</ele>
        <time>2013-07-01T10:48:19Z</time>
      </trkpt>
      <trkpt lat="45.22514" lon="6.19093">
        <ele>2160</ele>
        <time>2013-07-01T10:48:24Z</time>
      </trkpt>
      <trkpt lat="45.22521" lon="6.19095">
        <ele>2159</ele>
        <time>2013-07-01T10:48:29Z</time>
      </trkpt>
      <trkpt lat="45.22525" lon="6.19098">
        <ele>2158</ele>
        <time>2013-07-01T10:48:34Z</time>
      </trkpt>
      <trkpt lat="45.2253" lon="6.19101">
        <ele>2157</ele>
        <time>2013-07-01T10:48:39Z</time>
      </trkpt>
      <trkpt lat="45.22534" lon="6.19104">
        <ele>2155</ele>
        <time>2013-07-01T10:48:44Z</time>
      </trkpt>
      <trkpt lat="45.2254" lon="6.19105">
        <ele>2154</ele>
        <time>2013-07-01T10:48:49Z</time>
      </trkpt>
      <trkpt lat="45.22545" lon="6.19107">
        <ele>2152</ele>
        <time>2013-07-01T10:48:54Z</time>
      </trkpt>
      <trkpt lat="45.2255" lon="6.19107">
        <ele>2150</ele>
        <time>2013-07-01T10:48:59Z</time>
      </trkpt>
      <trkpt lat="45.22556" lon="6.19107">
        <ele>2149</ele>
        <time>2013-07-01T10:49:04Z</time>
      </trkpt>
      <trkpt lat="45.22561" lon="6.19111">
        <ele>2148</ele>
        <time>2013-07-01T10:49:09Z</time>
      </trkpt>
      <trkpt lat="45.22566" lon="6.19116">
        <ele>2147</ele>
        <time>2013-07-01T10:49:14Z</time>
      </trkpt>
      <trkpt lat="45.22571" lon="6.19121">
        <ele>2146</ele>
        <time>2013-07-01T10:49:19Z</time>
      </trkpt>
      <trkpt lat="45.22575" lon="6.19127">
        <ele>2144</ele>
        <time>2013-07-01T10:49:24Z</time>
      </trkpt>
      <trkpt lat="45.22577" lon="6.19136">
        <ele>2143</ele>
        <time>2013-07-01T10:49:29Z</time>
      </trkpt>
      <trkpt lat="45.22578" lon="6.19144">
        <ele>2143</ele>
        <time>2013-07-01T10:49:34Z</time>
      </trkpt>
      <trkpt lat="45.22575" lon="6.19151">
        <ele>2142</ele>
        <time>2013-07-01T10:49:39Z</time>
      </trkpt>
      <trkpt lat="45.22571" lon="6.19156">
        <ele>2141</ele>
        <time>2013-07-01T10:49:44Z</time>
      </trkpt>
      <trkpt lat="45.22566" lon="6.19161">
        <ele>2140</ele>
        <time>2013-07-01T10:49:49Z</time>
      </trkpt>
      <trkpt lat="45.22562" lon="6.19165">
        <ele>2140</ele>
        <time>2013-07-01T10:49:54Z</time>
      </trkpt>
      <trkpt lat="45.22557" lon="6.1917">
        <ele>2139</ele>
        <time>2013-07-01T10:49:59Z</time>
      </trkpt>
      <trkpt lat="45.22555" lon="6.19176">
        <ele>2139</ele>
        <time>2013-07-01T10:50:04Z</time>
      </trkpt>
      <trkpt lat="45.2256" lon="6.19179">
        <ele>2138</ele>
        <time>2013-07-01T10:50:09Z</time>
      </trkpt>
      <trkpt lat="45.22566" lon="6.19179">
        <ele>2136</ele>
        <time>2013-07-01T10:50:14Z</time>
      </trkpt>
      <trkpt lat="45.22571" lon="6.19178">
        <ele>2136</ele>
        <time>2013-07-01T10:50:19Z</time>
      </trkpt>
      <trkpt lat="45.22577" lon="6.19177">
        <ele>2135</ele>
        <time>2013-07-01T10:50:24Z</time>
      </trkpt>
      <trkpt lat="45.22583" lon="6.19175">
        <ele>2134</ele>
        <time>2013-07-01T10:50:29Z</time>
      </trkpt>
      <trkpt lat="45.2259" lon="6.19174">
        <ele>2134</ele>
        <time>2013-07-01T10:50:34Z</time>
      </trkpt>
      <trkpt lat="45.22596" lon="6.19173">
        <ele>2133</ele>
        <time>2013-07-01T10:50:39Z</time>
      </trkpt>
      <trkpt lat="45.22601" lon="6.19171">
        <ele>2132</ele>
        <time>2013-07-01T10:50:44Z</time>
      </trkpt>
      <trkpt lat="45.22607" lon="6.19169">
        <ele>2131</ele>
        <time>2013-07-01T10:50:49Z</time>
      </trkpt>
      <trkpt lat="45.22614" lon="6.19168">
        <ele>2130</ele>
        <time>2013-07-01T10:50:54Z</time>
      </trkpt>
      <trkpt lat="45.22621" lon="6.19167">
        <ele>2129</ele>
        <time>2013-07-01T10:50:59Z</time>
      </trkpt>
      <trkpt lat="45.22627" lon="6.19163">
        <ele>2127</ele>
        <time>2013-07-01T10:51:04Z</time>
      </trkpt>
      <trkpt lat="45.22632" lon="6.19157">
        <ele>2126</ele>
        <time>2013-07-01T10:51:09Z</time>
      </trkpt>
      <trkpt lat="45.22634" lon="6.1915">
        <ele>2124</ele>
        <time>2013-07-01T10:51:14Z</time>
      </trkpt>
      <trkpt lat="45.22635" lon="6.19141">
        <ele>2123</ele>
        <time>2013-07-01T10:51:19Z</time>
      </trkpt>
      <trkpt lat="45.22638" lon="6.19138">
        <ele>2122</ele>
        <time>2013-07-01T10:51:24Z</time>
      </trkpt>
      <trkpt lat="45.2264" lon="6.19138">
        <ele>2122</ele>
        <time>2013-07-01T10:51:29Z</time>
      </trkpt>
      <trkpt lat="45.22641" lon="6.19138">
        <ele>2122</ele>
        <time>2013-07-01T10:51:34Z</time>
      </trkpt>
      <trkpt lat="45.22641" lon="6.19139">
        <ele>2122</ele>
        <time>2013-07-01T10:51:39Z</time>
      </trkpt>
      <trkpt lat="45.22641" lon="6.19139">
        <ele>2122</ele>
        <time>2013-07-01T10:51:44Z</time>
      </trkpt>
      <trkpt lat="45.22641" lon="6.19138">
        <ele>2123</ele>
        <time>2013-07-01T10:51:49Z</time>
      </trkpt>
      <trkpt lat="45.22641" lon="6.19138">
        <ele>2123</ele>
        <time>2013-07-01T10:51:54Z</time>
      </trkpt>
      <trkpt lat="45.22641" lon="6.19138">
        <ele>2123</ele>
        <time>2013-07-01T10:51:59Z</time>
      </trkpt>
      <trkpt lat="45.22641" lon="6.19138">
        <ele>2123</ele>
        <time>2013-07-01T10:52:04Z</time>
      </trkpt>
      <trkpt lat="45.22641" lon="6.19137">
        <ele>2123</ele>
        <time>2013-07-01T10:52:09Z</time>
      </trkpt>
      <trkpt lat="45.22641" lon="6.19137">
        <ele>2123</ele>
        <time>2013-07-01T10:52:14Z</time>
      </trkpt>
      <trkpt lat="45.22641" lon="6.19137">
        <ele>2124</ele>
        <time>2013-07-01T10:52:19Z</time>
      </trkpt>
      <trkpt lat="45.22641" lon="6.19137">
        <ele>2124</ele>
        <time>2013-07-01T10:52:24Z</time>
      </trkpt>
      <trkpt lat="45.22641" lon="6.19136">
        <ele>2123</ele>
        <time>2013-07-01T10:52:29Z</time>
      </trkpt>
      <trkpt lat="45.22645" lon="6.19133">
        <ele>2122</ele>
        <time>2013-07-01T10:52:34Z</time>
      </trkpt>
      <trkpt lat="45.22646" lon="6.19133">
        <ele>2120</ele>
        <time>2013-07-01T10:52:39Z</time>
      </trkpt>
      <trkpt lat="45.22646" lon="6.19133">
        <ele>2120</ele>
        <time>2013-07-01T10:52:44Z</time>
      </trkpt>
      <trkpt lat="45.22646" lon="6.19133">
        <ele>2121</ele>
        <time>2013-07-01T10:52:49Z</time>
      </trkpt>
      <trkpt lat="45.22646" lon="6.19132">
        <ele>2122</ele>
        <time>2013-07-01T10:52:54Z</time>
      </trkpt>
      <trkpt lat="45.22647" lon="6.19132">
        <ele>2122</ele>
        <time>2013-07-01T10:52:59Z</time>
      </trkpt>
      <trkpt lat="45.22647" lon="6.19132">
        <ele>2122</ele>
        <time>2013-07-01T10:53:04Z</time>
      </trkpt>
      <trkpt lat="45.22647" lon="6.19132">
        <ele>2123</ele>
        <time>2013-07-01T10:53:09Z</time>
      </trkpt>
      <trkpt lat="45.22647" lon="6.19133">
        <ele>2123</ele>
        <time>2013-07-01T10:53:14Z</time>
      </trkpt>
      <trkpt lat="45.22647" lon="6.19133">
        <ele>2123</ele>
        <time>2013-07-01T10:53:19Z</time>
      </trkpt>
      <trkpt lat="45.22647" lon="6.19132">
        <ele>2124</ele>
        <time>2013-07-01T10:53:24Z</time>
      </trkpt>
      <trkpt lat="45.22647" lon="6.19132">
        <ele>2123</ele>
        <time>2013-07-01T10:53:29Z</time>
      </trkpt>
      <trkpt lat="45.22649" lon="6.19129">
        <ele>2122</ele>
        <time>2013-07-01T10:53:34Z</time>
      </trkpt>
      <trkpt lat="45.22652" lon="6.19126">
        <ele>2120</ele>
        <time>2013-07-01T10:53:39Z</time>
      </trkpt>
      <trkpt lat="45.22655" lon="6.19124">
        <ele>2117</ele>
        <time>2013-07-01T10:53:44Z</time>
      </trkpt>
      <trkpt lat="45.22656" lon="6.19124">
        <ele>2116</ele>
        <time>2013-07-01T10:53:49Z</time>
      </trkpt>
      <trkpt lat="45.2266" lon="6.19124">
        <ele>2113</ele>
        <time>2013-07-01T10:53:54Z</time>
      </trkpt>
      <trkpt lat="45.22665" lon="6.19125">
        <ele>2111</ele>
        <time>2013-07-01T10:53:59Z</time>
      </trkpt>
      <trkpt lat="45.2267" lon="6.19122">
        <ele>2108</ele>
        <time>2013-07-01T10:54:04Z</time>
      </trkpt>
      <trkpt lat="45.22674" lon="6.19127">
        <ele>2106</ele>
        <time>2013-07-01T10:54:09Z</time>
      </trkpt>
      <trkpt lat="45.22678" lon="6.19131">
        <ele>2104</ele>
        <time>2013-07-01T10:54:14Z</time>
      </trkpt>
      <trkpt lat="45.22682" lon="6.19131">
        <ele>2102</ele>
        <time>2013-07-01T10:54:19Z</time>
      </trkpt>
      <trkpt lat="45.22686" lon="6.19134">
        <ele>2099</ele>
        <time>2013-07-01T10:54:24Z</time>
      </trkpt>
      <trkpt lat="45.22691" lon="6.19138">
        <ele>2097</ele>
        <time>2013-07-01T10:54:29Z</time>
      </trkpt>
      <trkpt lat="45.22694" lon="6.19146">
        <ele>2096</ele>
        <time>2013-07-01T10:54:34Z</time>
      </trkpt>
      <trkpt lat="45.22698" lon="6.19153">
        <ele>2096</ele>
        <time>2013-07-01T10:54:39Z</time>
      </trkpt>
      <trkpt lat="45.22703" lon="6.19158">
        <ele>2095</ele>
        <time>2013-07-01T10:54:44Z</time>
      </trkpt>
      <trkpt lat="45.22707" lon="6.19166">
        <ele>2094</ele>
        <time>2013-07-01T10:54:49Z</time>
      </trkpt>
      <trkpt lat="45.22711" lon="6.19173">
        <ele>2093</ele>
        <time>2013-07-01T10:54:54Z</time>
      </trkpt>
      <trkpt lat="45.22716" lon="6.19181">
        <ele>2092</ele>
        <time>2013-07-01T10:54:59Z</time>
      </trkpt>
      <trkpt lat="45.2272" lon="6.19188">
        <ele>2089</ele>
        <time>2013-07-01T10:55:04Z</time>
      </trkpt>
      <trkpt lat="45.22725" lon="6.19195">
        <ele>2088</ele>
        <time>2013-07-01T10:55:09Z</time>
      </trkpt>
      <trkpt lat="45.2273" lon="6.19202">
        <ele>2086</ele>
        <time>2013-07-01T10:55:14Z</time>
      </trkpt>
      <trkpt lat="45.22735" lon="6.19208">
        <ele>2085</ele>
        <time>2013-07-01T10:55:19Z</time>
      </trkpt>
      <trkpt lat="45.22738" lon="6.19215">
        <ele>2084</ele>
        <time>2013-07-01T10:55:24Z</time>
      </trkpt>
      <trkpt lat="45.22743" lon="6.19223">
        <ele>2083</ele>
        <time>2013-07-01T10:55:29Z</time>
      </trkpt>
      <trkpt lat="45.22746" lon="6.1923">
        <ele>2083</ele>
        <time>2013-07-01T10:55:34Z</time>
      </trkpt>
      <trkpt lat="45.2275" lon="6.19238">
        <ele>2082</ele>
        <time>2013-07-01T10:55:39Z</time>
      </trkpt>
      <trkpt lat="45.22752" lon="6.19246">
        <ele>2081</ele>
        <time>2013-07-01T10:55:44Z</time>
      </trkpt>
      <trkpt lat="45.22753" lon="6.19255">
        <ele>2079</ele>
        <time>2013-07-01T10:55:49Z</time>
      </trkpt>
      <trkpt lat="45.22751" lon="6.19264">
        <ele>2077</ele>
        <time>2013-07-01T10:55:54Z</time>
      </trkpt>
      <trkpt lat="45.22748" lon="6.1927">
        <ele>2076</ele>
        <time>2013-07-01T10:55:59Z</time>
      </trkpt>
      <trkpt lat="45.22743" lon="6.19276">
        <ele>2075</ele>
        <time>2013-07-01T10:56:04Z</time>
      </trkpt>
      <trkpt lat="45.22739" lon="6.19283">
        <ele>2074</ele>
        <time>2013-07-01T10:56:09Z</time>
      </trkpt>
      <trkpt lat="45.22734" lon="6.19289">
        <ele>2074</ele>
        <time>2013-07-01T10:56:14Z</time>
      </trkpt>
      <trkpt lat="45.22729" lon="6.19296">
        <ele>2073</ele>
        <time>2013-07-01T10:56:19Z</time>
      </trkpt>
      <trkpt lat="45.22724" lon="6.19302">
        <ele>2073</ele>
        <time>2013-07-01T10:56:24Z</time>
      </trkpt>
      <trkpt lat="45.22719" lon="6.19309">
        <ele>2072</ele>
        <time>2013-07-01T10:56:29Z</time>
      </trkpt>
      <trkpt lat="45.22714" lon="6.19314">
        <ele>2073</ele>
        <time>2013-07-01T10:56:34Z</time>
      </trkpt>
      <trkpt lat="45.22708" lon="6.19319">
        <ele>2073</ele>
        <time>2013-07-01T10:56:39Z</time>
      </trkpt>
      <trkpt lat="45.22701" lon="6.19322">
        <ele>2073</ele>
        <time>2013-07-01T10:56:44Z</time>
      </trkpt>
      <trkpt lat="45.22694" lon="6.19325">
        <ele>2072</ele>
        <time>2013-07-01T10:56:49Z</time>
      </trkpt>
      <trkpt lat="45.22689" lon="6.19327">
        <ele>2072</ele>
        <time>2013-07-01T10:56:54Z</time>
      </trkpt>
      <trkpt lat="45.22688" lon="6.19328">
        <ele>2071</ele>
        <time>2013-07-01T10:56:59Z</time>
      </trkpt>
      <trkpt lat="45.22687" lon="6.19327">
        <ele>2071</ele>
        <time>2013-07-01T10:57:04Z</time>
      </trkpt>
      <trkpt lat="45.22686" lon="6.19327">
        <ele>2072</ele>
        <time>2013-07-01T10:57:09Z</time>
      </trkpt>
      <trkpt lat="45.22686" lon="6.19329">
        <ele>2073</ele>
        <time>2013-07-01T10:57:14Z</time>
      </trkpt>
      <trkpt lat="45.22686" lon="6.19329">
        <ele>2074</ele>
        <time>2013-07-01T10:57:19Z</time>
      </trkpt>
      <trkpt lat="45.22685" lon="6.1933">
        <ele>2076</ele>
        <time>2013-07-01T10:57:24Z</time>
      </trkpt>
      <trkpt lat="45.22686" lon="6.19329">
        <ele>2077</ele>
        <time>2013-07-01T10:57:29Z</time>
      </trkpt>
      <trkpt lat="45.22686" lon="6.19329">
        <ele>2077</ele>
        <time>2013-07-01T10:57:34Z</time>
      </trkpt>
      <trkpt lat="45.22686" lon="6.19329">
        <ele>2077</ele>
        <time>2013-07-01T10:57:39Z</time>
      </trkpt>
      <trkpt lat="45.22687" lon="6.19328">
        <ele>2076</ele>
        <time>2013-07-01T10:57:44Z</time>
      </trkpt>
      <trkpt lat="45.22687" lon="6.19327">
        <ele>2075</ele>
        <time>2013-07-01T10:57:49Z</time>
      </trkpt>
      <trkpt lat="45.22687" lon="6.19328">
        <ele>2074</ele>
        <time>2013-07-01T10:57:54Z</time>
      </trkpt>
      <trkpt lat="45.22687" lon="6.19328">
        <ele>2073</ele>
        <time>2013-07-01T10:57:59Z</time>
      </trkpt>
      <trkpt lat="45.22685" lon="6.19333">
        <ele>2073</ele>
        <time>2013-07-01T10:58:04Z</time>
      </trkpt>
      <trkpt lat="45.22684" lon="6.19338">
        <ele>2073</ele>
        <time>2013-07-01T10:58:09Z</time>
      </trkpt>
      <trkpt lat="45.22683" lon="6.19345">
        <ele>2073</ele>
        <time>2013-07-01T10:58:14Z</time>
      </trkpt>
      <trkpt lat="45.22683" lon="6.19353">
        <ele>2072</ele>
        <time>2013-07-01T10:58:19Z</time>
      </trkpt>
      <trkpt lat="45.22683" lon="6.19361">
        <ele>2072</ele>
        <time>2013-07-01T10:58:24Z</time>
      </trkpt>
      <trkpt lat="45.22684" lon="6.19369">
        <ele>2071</ele>
        <time>2013-07-01T10:58:29Z</time>
      </trkpt>
      <trkpt lat="45.22687" lon="6.19378">
        <ele>2071</ele>
        <time>2013-07-01T10:58:34Z</time>
      </trkpt>
      <trkpt lat="45.2269" lon="6.19386">
        <ele>2071</ele>
        <time>2013-07-01T10:58:39Z</time>
      </trkpt>
      <trkpt lat="45.22692" lon="6.19394">
        <ele>2071</ele>
        <time>2013-07-01T10:58:44Z</time>
      </trkpt>
      <trkpt lat="45.22696" lon="6.19401">
        <ele>2070</ele>
        <time>2013-07-01T10:58:49Z</time>
      </trkpt>
      <trkpt lat="45.22701" lon="6.19407">
        <ele>2070</ele>
        <time>2013-07-01T10:58:54Z</time>
      </trkpt>
      <trkpt lat="45.22705" lon="6.19412">
        <ele>2070</ele>
        <time>2013-07-01T10:58:59Z</time>
      </trkpt>
      <trkpt lat="45.2271" lon="6.19418">
        <ele>2070</ele>
        <time>2013-07-01T10:59:04Z</time>
      </trkpt>
      <trkpt lat="45.22714" lon="6.19424">
        <ele>2070</ele>
        <time>2013-07-01T10:59:09Z</time>
      </trkpt>
      <trkpt lat="45.22719" lon="6.19429">
        <ele>2070</ele>
        <time>2013-07-01T10:59:14Z</time>
      </trkpt>
      <trkpt lat="45.22723" lon="6.19434">
        <ele>2070</ele>
        <time>2013-07-01T10:59:19Z</time>
      </trkpt>
      <trkpt lat="45.22728" lon="6.19439">
        <ele>2071</ele>
        <time>2013-07-01T10:59:24Z</time>
      </trkpt>
      <trkpt lat="45.22732" lon="6.19444">
        <ele>2071</ele>
        <time>2013-07-01T10:59:29Z</time>
      </trkpt>
      <trkpt lat="45.22737" lon="6.19449">
        <ele>2071</ele>
        <time>2013-07-01T10:59:34Z</time>
      </trkpt>
      <trkpt lat="45.22743" lon="6.19454">
        <ele>2071</ele>
        <time>2013-07-01T10:59:39Z</time>
      </trkpt>
      <trkpt lat="45.22748" lon="6.19459">
        <ele>2071</ele>
        <time>2013-07-01T10:59:44Z</time>
      </trkpt>
      <trkpt lat="45.22752" lon="6.19465">
        <ele>2072</ele>
        <time>2013-07-01T10:59:49Z</time>
      </trkpt>
      <trkpt lat="45.22757" lon="6.19471">
        <ele>2071</ele>
        <time>2013-07-01T10:59:54Z</time>
      </trkpt>
      <trkpt lat="45.22761" lon="6.19477">
        <ele>2072</ele>
        <time>2013-07-01T10:59:59Z</time>
      </trkpt>
      <trkpt lat="45.22765" lon="6.19484">
        <ele>2072</ele>
        <time>2013-07-01T11:00:04Z</time>
      </trkpt>
      <trkpt lat="45.2277" lon="6.19489">
        <ele>2072</ele>
        <time>2013-07-01T11:00:09Z</time>
      </trkpt>
      <trkpt lat="45.22775" lon="6.19494">
        <ele>2072</ele>
        <time>2013-07-01T11:00:14Z</time>
      </trkpt>
      <trkpt lat="45.2278" lon="6.195">
        <ele>2072</ele>
        <time>2013-07-01T11:00:19Z</time>
      </trkpt>
      <trkpt lat="45.22783" lon="6.19508">
        <ele>2072</ele>
        <time>2013-07-01T11:00:24Z</time>
      </trkpt>
      <trkpt lat="45.22786" lon="6.19515">
        <ele>2072</ele>
        <time>2013-07-01T11:00:29Z</time>
      </trkpt>
      <trkpt lat="45.22789" lon="6.19523">
        <ele>2072</ele>
        <time>2013-07-01T11:00:34Z</time>
      </trkpt>
      <trkpt lat="45.22792" lon="6.1953">
        <ele>2072</ele>
        <time>2013-07-01T11:00:39Z</time>
      </trkpt>
      <trkpt lat="45.22794" lon="6.19538">
        <ele>2072</ele>
        <time>2013-07-01T11:00:44Z</time>
      </trkpt>
      <trkpt lat="45.22796" lon="6.19547">
        <ele>2072</ele>
        <time>2013-07-01T11:00:49Z</time>
      </trkpt>
      <trkpt lat="45.22797" lon="6.19556">
        <ele>2072</ele>
        <time>2013-07-01T11:00:54Z</time>
      </trkpt>
      <trkpt lat="45.228" lon="6.19564">
        <ele>2072</ele>
        <time>2013-07-01T11:00:59Z</time>
      </trkpt>
      <trkpt lat="45.22802" lon="6.19572">
        <ele>2073</ele>
        <time>2013-07-01T11:01:04Z</time>
      </trkpt>
      <trkpt lat="45.22805" lon="6.1958">
        <ele>2073</ele>
        <time>2013-07-01T11:01:09Z</time>
      </trkpt>
      <trkpt lat="45.22806" lon="6.19588">
        <ele>2073</ele>
        <time>2013-07-01T11:01:14Z</time>
      </trkpt>
      <trkpt lat="45.22807" lon="6.19597">
        <ele>2073</ele>
        <time>2013-07-01T11:01:19Z</time>
      </trkpt>
      <trkpt lat="45.22807" lon="6.19605">
        <ele>2074</ele>
        <time>2013-07-01T11:01:24Z</time>
      </trkpt>
      <trkpt lat="45.22808" lon="6.19613">
        <ele>2074</ele>
        <time>2013-07-01T11:01:29Z</time>
      </trkpt>
      <trkpt lat="45.22807" lon="6.19622">
        <ele>2074</ele>
        <time>2013-07-01T11:01:34Z</time>
      </trkpt>
      <trkpt lat="45.22806" lon="6.19629">
        <ele>2074</ele>
        <time>2013-07-01T11:01:39Z</time>
      </trkpt>
      <trkpt lat="45.22805" lon="6.19638">
        <ele>2075</ele>
        <time>2013-07-01T11:01:44Z</time>
      </trkpt>
      <trkpt lat="45.22804" lon="6.19647">
        <ele>2075</ele>
        <time>2013-07-01T11:01:49Z</time>
      </trkpt>
      <trkpt lat="45.22804" lon="6.19656">
        <ele>2075</ele>
        <time>2013-07-01T11:01:54Z</time>
      </trkpt>
      <trkpt lat="45.22804" lon="6.19665">
        <ele>2075</ele>
        <time>2013-07-01T11:01:59Z</time>
      </trkpt>
      <trkpt lat="45.22804" lon="6.19675">
        <ele>2075</ele>
        <time>2013-07-01T11:02:04Z</time>
      </trkpt>
      <trkpt lat="45.22802" lon="6.19684">
        <ele>2075</ele>
        <time>2013-07-01T11:02:09Z</time>
      </trkpt>
      <trkpt lat="45.228" lon="6.19693">
        <ele>2075</ele>
        <time>2013-07-01T11:02:14Z</time>
      </trkpt>
      <trkpt lat="45.22797" lon="6.19701">
        <ele>2075</ele>
        <time>2013-07-01T11:02:19Z</time>
      </trkpt>
      <trkpt lat="45.22795" lon="6.1971">
        <ele>2075</ele>
        <time>2013-07-01T11:02:24Z</time>
      </trkpt>
      <trkpt lat="45.22792" lon="6.19719">
        <ele>2074</ele>
        <time>2013-07-01T11:02:29Z</time>
      </trkpt>
      <trkpt lat="45.22789" lon="6.19729">
        <ele>2074</ele>
        <time>2013-07-01T11:02:34Z</time>
      </trkpt>
      <trkpt lat="45.22786" lon="6.19738">
        <ele>2073</ele>
        <time>2013-07-01T11:02:39Z</time>
      </trkpt>
      <trkpt lat="45.22783" lon="6.19746">
        <ele>2073</ele>
        <time>2013-07-01T11:02:44Z</time>
      </trkpt>
      <trkpt lat="45.22779" lon="6.19753">
        <ele>2073</ele>
        <time>2013-07-01T11:02:49Z</time>
      </trkpt>
      <trkpt lat="45.22774" lon="6.19758">
        <ele>2075</ele>
        <time>2013-07-01T11:02:54Z</time>
      </trkpt>
      <trkpt lat="45.2277" lon="6.19764">
        <ele>2076</ele>
        <time>2013-07-01T11:02:59Z</time>
      </trkpt>
      <trkpt lat="45.22765" lon="6.1977">
        <ele>2077</ele>
        <time>2013-07-01T11:03:04Z</time>
      </trkpt>
      <trkpt lat="45.22762" lon="6.19777">
        <ele>2078</ele>
        <time>2013-07-01T11:03:09Z</time>
      </trkpt>
      <trkpt lat="45.22758" lon="6.19783">
        <ele>2079</ele>
        <time>2013-07-01T11:03:14Z</time>
      </trkpt>
      <trkpt lat="45.22756" lon="6.19793">
        <ele>2078</ele>
        <time>2013-07-01T11:03:19Z</time>
      </trkpt>
      <trkpt lat="45.22754" lon="6.19801">
        <ele>2078</ele>
        <time>2013-07-01T11:03:24Z</time>
      </trkpt>
      <trkpt lat="45.22751" lon="6.19809">
        <ele>2078</ele>
        <time>2013-07-01T11:03:29Z</time>
      </trkpt>
      <trkpt lat="45.22748" lon="6.19816">
        <ele>2079</ele>
        <time>2013-07-01T11:03:34Z</time>
      </trkpt>
      <trkpt lat="45.22745" lon="6.19823">
        <ele>2079</ele>
        <time>2013-07-01T11:03:39Z</time>
      </trkpt>
      <trkpt lat="45.22742" lon="6.19831">
        <ele>2080</ele>
        <time>2013-07-01T11:03:44Z</time>
      </trkpt>
      <trkpt lat="45.22739" lon="6.19839">
        <ele>2079</ele>
        <time>2013-07-01T11:03:49Z</time>
      </trkpt>
      <trkpt lat="45.22735" lon="6.19846">
        <ele>2080</ele>
        <time>2013-07-01T11:03:54Z</time>
      </trkpt>
      <trkpt lat="45.22732" lon="6.19855">
        <ele>2080</ele>
        <time>2013-07-01T11:03:59Z</time>
      </trkpt>
      <trkpt lat="45.22728" lon="6.19862">
        <ele>2080</ele>
        <time>2013-07-01T11:04:04Z</time>
      </trkpt>
      <trkpt lat="45.22724" lon="6.19867">
        <ele>2082</ele>
        <time>2013-07-01T11:04:09Z</time>
      </trkpt>
      <trkpt lat="45.2272" lon="6.19873">
        <ele>2083</ele>
        <time>2013-07-01T11:04:14Z</time>
      </trkpt>
      <trkpt lat="45.22717" lon="6.1988">
        <ele>2083</ele>
        <time>2013-07-01T11:04:19Z</time>
      </trkpt>
      <trkpt lat="45.22714" lon="6.19888">
        <ele>2082</ele>
        <time>2013-07-01T11:04:24Z</time>
      </trkpt>
      <trkpt lat="45.22712" lon="6.19897">
        <ele>2082</ele>
        <time>2013-07-01T11:04:29Z</time>
      </trkpt>
      <trkpt lat="45.2271" lon="6.19906">
        <ele>2081</ele>
        <time>2013-07-01T11:04:34Z</time>
      </trkpt>
      <trkpt lat="45.22707" lon="6.19915">
        <ele>2080</ele>
        <time>2013-07-01T11:04:39Z</time>
      </trkpt>
      <trkpt lat="45.22704" lon="6.19923">
        <ele>2080</ele>
        <time>2013-07-01T11:04:44Z</time>
      </trkpt>
      <trkpt lat="45.22702" lon="6.19932">
        <ele>2080</ele>
        <time>2013-07-01T11:04:49Z</time>
      </trkpt>
      <trkpt lat="45.22701" lon="6.1994">
        <ele>2080</ele>
        <time>2013-07-01T11:04:54Z</time>
      </trkpt>
      <trkpt lat="45.22701" lon="6.19948">
        <ele>2080</ele>
        <time>2013-07-01T11:04:59Z</time>
      </trkpt>
      <trkpt lat="45.227" lon="6.19957">
        <ele>2080</ele>
        <time>2013-07-01T11:05:04Z</time>
      </trkpt>
      <trkpt lat="45.22701" lon="6.19966">
        <ele>2079</ele>
        <time>2013-07-01T11:05:09Z</time>
      </trkpt>
      <trkpt lat="45.22701" lon="6.19976">
        <ele>2078</ele>
        <time>2013-07-01T11:05:14Z</time>
      </trkpt>
      <trkpt lat="45.22701" lon="6.19985">
        <ele>2077</ele>
        <time>2013-07-01T11:05:19Z</time>
      </trkpt>
      <trkpt lat="45.22699" lon="6.19994">
        <ele>2076</ele>
        <time>2013-07-01T11:05:24Z</time>
      </trkpt>
      <trkpt lat="45.22697" lon="6.20003">
        <ele>2076</ele>
        <time>2013-07-01T11:05:29Z</time>
      </trkpt>
      <trkpt lat="45.22696" lon="6.20012">
        <ele>2075</ele>
        <time>2013-07-01T11:05:34Z</time>
      </trkpt>
      <trkpt lat="45.22695" lon="6.20022">
        <ele>2074</ele>
        <time>2013-07-01T11:05:39Z</time>
      </trkpt>
      <trkpt lat="45.22694" lon="6.20032">
        <ele>2073</ele>
        <time>2013-07-01T11:05:44Z</time>
      </trkpt>
      <trkpt lat="45.22693" lon="6.20042">
        <ele>2072</ele>
        <time>2013-07-01T11:05:49Z</time>
      </trkpt>
      <trkpt lat="45.22692" lon="6.20051">
        <ele>2071</ele>
        <time>2013-07-01T11:05:54Z</time>
      </trkpt>
      <trkpt lat="45.2269" lon="6.20061">
        <ele>2070</ele>
        <time>2013-07-01T11:05:59Z</time>
      </trkpt>
      <trkpt lat="45.22688" lon="6.2007">
        <ele>2069</ele>
        <time>2013-07-01T11:06:04Z</time>
      </trkpt>
      <trkpt lat="45.22685" lon="6.20079">
        <ele>2068</ele>
        <time>2013-07-01T11:06:09Z</time>
      </trkpt>
      <trkpt lat="45.22683" lon="6.20088">
        <ele>2068</ele>
        <time>2013-07-01T11:06:14Z</time>
      </trkpt>
      <trkpt lat="45.22681" lon="6.20096">
        <ele>2068</ele>
        <time>2013-07-01T11:06:19Z</time>
      </trkpt>
      <trkpt lat="45.22678" lon="6.20105">
        <ele>2069</ele>
        <time>2013-07-01T11:06:24Z</time>
      </trkpt>
      <trkpt lat="45.22677" lon="6.20113">
        <ele>2069</ele>
        <time>2013-07-01T11:06:29Z</time>
      </trkpt>
      <trkpt lat="45.22677" lon="6.20122">
        <ele>2069</ele>
        <time>2013-07-01T11:06:34Z</time>
      </trkpt>
      <trkpt lat="45.22678" lon="6.20131">
        <ele>2069</ele>
        <time>2013-07-01T11:06:39Z</time>
      </trkpt>
      <trkpt lat="45.2268" lon="6.20139">
        <ele>2069</ele>
        <time>2013-07-01T11:06:44Z</time>
      </trkpt>
      <trkpt lat="45.22682" lon="6.20146">
        <ele>2070</ele>
        <time>2013-07-01T11:06:49Z</time>
      </trkpt>
      <trkpt lat="45.22686" lon="6.20153">
        <ele>2070</ele>
        <time>2013-07-01T11:06:54Z</time>
      </trkpt>
      <trkpt lat="45.2269" lon="6.20159">
        <ele>2071</ele>
        <time>2013-07-01T11:06:59Z</time>
      </trkpt>
      <trkpt lat="45.22694" lon="6.20164">
        <ele>2071</ele>
        <time>2013-07-01T11:07:04Z</time>
      </trkpt>
      <trkpt lat="45.22698" lon="6.20171">
        <ele>2071</ele>
        <time>2013-07-01T11:07:09Z</time>
      </trkpt>
      <trkpt lat="45.22702" lon="6.20178">
        <ele>2070</ele>
        <time>2013-07-01T11:07:14Z</time>
      </trkpt>
      <trkpt lat="45.22705" lon="6.20186">
        <ele>2070</ele>
        <time>2013-07-01T11:07:19Z</time>
      </trkpt>
      <trkpt lat="45.22708" lon="6.20194">
        <ele>2070</ele>
        <time>2013-07-01T11:07:24Z</time>
      </trkpt>
      <trkpt lat="45.22711" lon="6.20203">
        <ele>2069</ele>
        <time>2013-07-01T11:07:29Z</time>
      </trkpt>
      <trkpt lat="45.22714" lon="6.20212">
        <ele>2069</ele>
        <time>2013-07-01T11:07:34Z</time>
      </trkpt>
      <trkpt lat="45.22719" lon="6.20219">
        <ele>2068</ele>
        <time>2013-07-01T11:07:39Z</time>
      </trkpt>
      <trkpt lat="45.22723" lon="6.20226">
        <ele>2067</ele>
        <time>2013-07-01T11:07:44Z</time>
      </trkpt>
      <trkpt lat="45.22728" lon="6.20232">
        <ele>2067</ele>
        <time>2013-07-01T11:07:49Z</time>
      </trkpt>
      <trkpt lat="45.22735" lon="6.20237">
        <ele>2066</ele>
        <time>2013-07-01T11:07:54Z</time>
      </trkpt>
      <trkpt lat="45.2274" lon="6.20243">
        <ele>2064</ele>
        <time>2013-07-01T11:07:59Z</time>
      </trkpt>
      <trkpt lat="45.22746" lon="6.20247">
        <ele>2064</ele>
        <time>2013-07-01T11:08:04Z</time>
      </trkpt>
      <trkpt lat="45.22751" lon="6.20252">
        <ele>2064</ele>
        <time>2013-07-01T11:08:09Z</time>
      </trkpt>
      <trkpt lat="45.22751" lon="6.20258">
        <ele>2064</ele>
        <time>2013-07-01T11:08:14Z</time>
      </trkpt>
      <trkpt lat="45.22748" lon="6.20265">
        <ele>2064</ele>
        <time>2013-07-01T11:08:19Z</time>
      </trkpt>
      <trkpt lat="45.22744" lon="6.2027">
        <ele>2064</ele>
        <time>2013-07-01T11:08:24Z</time>
      </trkpt>
      <trkpt lat="45.22743" lon="6.20274">
        <ele>2064</ele>
        <time>2013-07-01T11:08:29Z</time>
      </trkpt>
      <trkpt lat="45.22743" lon="6.20273">
        <ele>2064</ele>
        <time>2013-07-01T11:08:34Z</time>
      </trkpt>
      <trkpt lat="45.22744" lon="6.20274">
        <ele>2064</ele>
        <time>2013-07-01T11:08:39Z</time>
      </trkpt>
      <trkpt lat="45.22743" lon="6.20275">
        <ele>2063</ele>
        <time>2013-07-01T11:08:44Z</time>
      </trkpt>
      <trkpt lat="45.22743" lon="6.20275">
        <ele>2063</ele>
        <time>2013-07-01T11:08:49Z</time>
      </trkpt>
      <trkpt lat="45.22743" lon="6.20275">
        <ele>2063</ele>
        <time>2013-07-01T11:08:54Z</time>
      </trkpt>
      <trkpt lat="45.22744" lon="6.20275">
        <ele>2062</ele>
        <time>2013-07-01T11:08:59Z</time>
      </trkpt>
      <trkpt lat="45.22744" lon="6.20275">
        <ele>2062</ele>
        <time>2013-07-01T11:09:04Z</time>
      </trkpt>
    </trkseg>
  </trk>
</gpx>